<?xml version="1.0" encoding="UTF-8"?>
<gpx version="1.1" creator="2bulu-scraper" xmlns="http://www.topografix.com/GPX/1/1">
  <metadata><name>峨眉山（南线）</name><desc>source: 2bulu.com trackId=86732599; exported 2026-09-01T16:20:29.915Z</desc>
    <bounds minlat="29.523896" minlon="103.326772" maxlat="29.574322" maxlon="103.441571"/>
    <link href="https://www.2bulu.com/track/t-vahL0v4QsOvp%252FR2KBg5Tzw%253D%253D.htm"><text>2bulu 源页面</text></link>
  </metadata>
  <wpt lat="29.571653" lon="103.441334"><ele>537</ele><name>停车30 元</name></wpt>
  <wpt lat="29.570758" lon="103.44142"><ele>540</ele><name></name></wpt>
  <wpt lat="29.565655" lon="103.43432"><ele>590</ele><name></name></wpt>
  <wpt lat="29.565378" lon="103.421228"><ele>836</ele><name></name></wpt>
  <wpt lat="29.566303" lon="103.4207"><ele>847</ele><name></name></wpt>
  <wpt lat="29.569363" lon="103.412462"><ele>917</ele><name></name></wpt>
  <wpt lat="29.573537" lon="103.391845"><ele>710</ele><name></name></wpt>
  <wpt lat="29.569097" lon="103.3909"><ele>717</ele><name></name></wpt>
  <wpt lat="29.568745" lon="103.391205"><ele>747</ele><name></name></wpt>
  <wpt lat="29.56858" lon="103.390738"><ele>760</ele><name></name></wpt>
  <wpt lat="29.56763" lon="103.390625"><ele>752</ele><name></name></wpt>
  <wpt lat="29.565962" lon="103.389695"><ele>742</ele><name></name></wpt>
  <wpt lat="29.564138" lon="103.389105"><ele>752</ele><name></name></wpt>
  <wpt lat="29.563287" lon="103.389137"><ele>762</ele><name></name></wpt>
  <wpt lat="29.556545" lon="103.386147"><ele>849</ele><name></name></wpt>
  <wpt lat="29.549413" lon="103.366242"><ele>1492</ele><name></name></wpt>
  <wpt lat="29.550295" lon="103.358292"><ele>1715</ele><name></name></wpt>
  <wpt lat="29.550305" lon="103.356963"><ele>1741</ele><name></name></wpt>
  <wpt lat="29.549653" lon="103.356912"><ele>1751</ele><name></name></wpt>
  <wpt lat="29.563422" lon="103.348122"><ele>1829</ele><name></name></wpt>
  <wpt lat="29.55872" lon="103.344238"><ele>2059</ele><name></name></wpt>
  <wpt lat="29.546213" lon="103.33473"><ele>2444</ele><name></name></wpt>
  <wpt lat="29.524242" lon="103.334962"><ele>3033</ele><name></name></wpt>
  <wpt lat="29.524018" lon="103.33503"><ele>3033</ele><name></name></wpt>
  <wpt lat="29.523138" lon="103.33715"><ele>3071</ele><name></name></wpt>
  <wpt lat="29.523467" lon="103.335922"><ele>3065</ele><name></name></wpt>
  <trk><name>峨眉山（南线）</name>
      <trkseg>
        <trkpt lat="29.571901" lon="103.441571"><ele>538.6254</ele><time>2026-07-01T20:06:00.000Z</time></trkpt>
        <trkpt lat="29.571878" lon="103.441525"><ele>536.4293</ele><time>2026-07-01T20:06:07.000Z</time></trkpt>
        <trkpt lat="29.571851" lon="103.441478"><ele>535.736</ele><time>2026-07-01T20:06:12.000Z</time></trkpt>
        <trkpt lat="29.571824" lon="103.441435"><ele>535.98145</ele><time>2026-07-01T20:06:16.000Z</time></trkpt>
        <trkpt lat="29.571791" lon="103.441398"><ele>536.72314</ele><time>2026-07-01T20:06:20.000Z</time></trkpt>
        <trkpt lat="29.571742" lon="103.44137"><ele>536.799</ele><time>2026-07-01T20:06:32.000Z</time></trkpt>
        <trkpt lat="29.571699" lon="103.441341"><ele>536.869</ele><time>2026-07-01T20:06:36.000Z</time></trkpt>
        <trkpt lat="29.571653" lon="103.441334"><ele>537.0483</ele><time>2026-07-01T20:06:40.000Z</time></trkpt>
        <trkpt lat="29.571604" lon="103.441354"><ele>538.22516</ele><time>2026-07-01T20:06:44.000Z</time></trkpt>
        <trkpt lat="29.571558" lon="103.441349"><ele>538.54877</ele><time>2026-07-01T20:06:49.000Z</time></trkpt>
        <trkpt lat="29.571514" lon="103.441361"><ele>538.526</ele><time>2026-07-01T20:06:53.000Z</time></trkpt>
        <trkpt lat="29.571469" lon="103.441366"><ele>539.07434</ele><time>2026-07-01T20:06:57.000Z</time></trkpt>
        <trkpt lat="29.571417" lon="103.441374"><ele>538.9683</ele><time>2026-07-01T20:07:03.000Z</time></trkpt>
        <trkpt lat="29.571358" lon="103.441379"><ele>541.0883</ele><time>2026-07-01T20:07:08.000Z</time></trkpt>
        <trkpt lat="29.57131" lon="103.441374"><ele>541.2622</ele><time>2026-07-01T20:07:13.000Z</time></trkpt>
        <trkpt lat="29.571256" lon="103.44137"><ele>543.17444</ele><time>2026-07-01T20:07:20.000Z</time></trkpt>
        <trkpt lat="29.57121" lon="103.441378"><ele>542.5995</ele><time>2026-07-01T20:07:24.000Z</time></trkpt>
        <trkpt lat="29.571164" lon="103.441404"><ele>542.44257</ele><time>2026-07-01T20:07:29.000Z</time></trkpt>
        <trkpt lat="29.571106" lon="103.441401"><ele>540.3906</ele><time>2026-07-01T20:07:35.000Z</time></trkpt>
        <trkpt lat="29.571057" lon="103.441394"><ele>541.01807</ele><time>2026-07-01T20:07:39.000Z</time></trkpt>
        <trkpt lat="29.571003" lon="103.441403"><ele>541.1541</ele><time>2026-07-01T20:07:43.000Z</time></trkpt>
        <trkpt lat="29.570948" lon="103.441413"><ele>541.1241</ele><time>2026-07-01T20:07:48.000Z</time></trkpt>
        <trkpt lat="29.570896" lon="103.441426"><ele>541.06305</ele><time>2026-07-01T20:07:52.000Z</time></trkpt>
        <trkpt lat="29.570851" lon="103.441428"><ele>540.3111</ele><time>2026-07-01T20:07:56.000Z</time></trkpt>
        <trkpt lat="29.570805" lon="103.441437"><ele>540.24945</ele><time>2026-07-01T20:08:00.000Z</time></trkpt>
        <trkpt lat="29.570758" lon="103.44142"><ele>539.72504</ele><time>2026-07-01T20:08:05.000Z</time></trkpt>
        <trkpt lat="29.570711" lon="103.441399"><ele>540.02484</ele><time>2026-07-01T20:08:13.000Z</time></trkpt>
        <trkpt lat="29.570666" lon="103.441378"><ele>543.3</ele><time>2026-07-01T20:09:57.000Z</time></trkpt>
        <trkpt lat="29.570709" lon="103.441397"><ele>540.81323</ele><time>2026-07-01T20:10:25.000Z</time></trkpt>
        <trkpt lat="29.570672" lon="103.441355"><ele>542.4525</ele><time>2026-07-01T20:12:12.000Z</time></trkpt>
        <trkpt lat="29.570626" lon="103.441401"><ele>542.0694</ele><time>2026-07-01T20:12:18.000Z</time></trkpt>
        <trkpt lat="29.57057" lon="103.441427"><ele>541.3806</ele><time>2026-07-01T20:12:20.000Z</time></trkpt>
        <trkpt lat="29.570522" lon="103.441462"><ele>541.07996</ele><time>2026-07-01T20:12:25.000Z</time></trkpt>
        <trkpt lat="29.570476" lon="103.441456"><ele>540.8468</ele><time>2026-07-01T20:12:28.000Z</time></trkpt>
        <trkpt lat="29.570443" lon="103.441418"><ele>540.33026</ele><time>2026-07-01T20:12:32.000Z</time></trkpt>
        <trkpt lat="29.570399" lon="103.441403"><ele>540.0015</ele><time>2026-07-01T20:12:35.000Z</time></trkpt>
        <trkpt lat="29.570399" lon="103.44135"><ele>538.80756</ele><time>2026-07-01T20:12:57.000Z</time></trkpt>
        <trkpt lat="29.570354" lon="103.441339"><ele>537.75195</ele><time>2026-07-01T20:13:06.000Z</time></trkpt>
        <trkpt lat="29.570304" lon="103.441329"><ele>538.7839</ele><time>2026-07-01T20:13:11.000Z</time></trkpt>
        <trkpt lat="29.57026" lon="103.441306"><ele>541.54584</ele><time>2026-07-01T20:13:18.000Z</time></trkpt>
        <trkpt lat="29.570216" lon="103.441283"><ele>547.325</ele><time>2026-07-01T20:14:00.000Z</time></trkpt>
        <trkpt lat="29.57017" lon="103.441264"><ele>546.0575</ele><time>2026-07-01T20:18:15.000Z</time></trkpt>
        <trkpt lat="29.570122" lon="103.441237"><ele>544.92175</ele><time>2026-07-01T20:18:20.000Z</time></trkpt>
        <trkpt lat="29.570084" lon="103.441195"><ele>544.20276</ele><time>2026-07-01T20:18:24.000Z</time></trkpt>
        <trkpt lat="29.570043" lon="103.441168"><ele>543.91516</ele><time>2026-07-01T20:18:29.000Z</time></trkpt>
        <trkpt lat="29.57" lon="103.441143"><ele>543.5574</ele><time>2026-07-01T20:18:33.000Z</time></trkpt>
        <trkpt lat="29.569968" lon="103.4411"><ele>542.5963</ele><time>2026-07-01T20:18:41.000Z</time></trkpt>
        <trkpt lat="29.569943" lon="103.441049"><ele>539.48755</ele><time>2026-07-01T20:18:49.000Z</time></trkpt>
        <trkpt lat="29.56989" lon="103.441033"><ele>541.4918</ele><time>2026-07-01T20:18:53.000Z</time></trkpt>
        <trkpt lat="29.569834" lon="103.441019"><ele>542.02057</ele><time>2026-07-01T20:18:58.000Z</time></trkpt>
        <trkpt lat="29.569784" lon="103.441"><ele>543.5011</ele><time>2026-07-01T20:19:02.000Z</time></trkpt>
        <trkpt lat="29.569734" lon="103.441009"><ele>541.10504</ele><time>2026-07-01T20:19:07.000Z</time></trkpt>
        <trkpt lat="29.569677" lon="103.441006"><ele>541.41693</ele><time>2026-07-01T20:19:11.000Z</time></trkpt>
        <trkpt lat="29.569628" lon="103.441"><ele>542.41113</ele><time>2026-07-01T20:19:15.000Z</time></trkpt>
        <trkpt lat="29.569574" lon="103.441"><ele>542.19324</ele><time>2026-07-01T20:19:21.000Z</time></trkpt>
        <trkpt lat="29.569529" lon="103.441005"><ele>542.34235</ele><time>2026-07-01T20:19:25.000Z</time></trkpt>
        <trkpt lat="29.569422" lon="103.440985"><ele>537.2144</ele><time>2026-07-01T20:22:52.000Z</time></trkpt>
        <trkpt lat="29.569375" lon="103.440972"><ele>537.3783</ele><time>2026-07-01T20:22:55.000Z</time></trkpt>
        <trkpt lat="29.569332" lon="103.440953"><ele>539.78033</ele><time>2026-07-01T20:23:01.000Z</time></trkpt>
        <trkpt lat="29.569288" lon="103.440936"><ele>541.39575</ele><time>2026-07-01T20:23:14.000Z</time></trkpt>
        <trkpt lat="29.569247" lon="103.440899"><ele>538.6966</ele><time>2026-07-01T20:23:22.000Z</time></trkpt>
        <trkpt lat="29.569227" lon="103.440846"><ele>535.18646</ele><time>2026-07-01T20:23:28.000Z</time></trkpt>
        <trkpt lat="29.569227" lon="103.440789"><ele>537.3733</ele><time>2026-07-01T20:23:33.000Z</time></trkpt>
        <trkpt lat="29.5692" lon="103.440741"><ele>538.29626</ele><time>2026-07-01T20:23:39.000Z</time></trkpt>
        <trkpt lat="29.569169" lon="103.440703"><ele>537.1856</ele><time>2026-07-01T20:23:43.000Z</time></trkpt>
        <trkpt lat="29.569124" lon="103.44068"><ele>536.8924</ele><time>2026-07-01T20:23:47.000Z</time></trkpt>
        <trkpt lat="29.569078" lon="103.440646"><ele>538.7065</ele><time>2026-07-01T20:23:52.000Z</time></trkpt>
        <trkpt lat="29.569036" lon="103.44062"><ele>538.5143</ele><time>2026-07-01T20:23:57.000Z</time></trkpt>
        <trkpt lat="29.569035" lon="103.440569"><ele>537.9979</ele><time>2026-07-01T20:24:03.000Z</time></trkpt>
        <trkpt lat="29.569035" lon="103.440515"><ele>537.1041</ele><time>2026-07-01T20:24:08.000Z</time></trkpt>
        <trkpt lat="29.569026" lon="103.440462"><ele>535.64795</ele><time>2026-07-01T20:24:14.000Z</time></trkpt>
        <trkpt lat="29.569022" lon="103.440409"><ele>535.4173</ele><time>2026-07-01T20:24:19.000Z</time></trkpt>
        <trkpt lat="29.569009" lon="103.440346"><ele>534.30725</ele><time>2026-07-01T20:24:25.000Z</time></trkpt>
        <trkpt lat="29.569003" lon="103.440295"><ele>533.4518</ele><time>2026-07-01T20:24:31.000Z</time></trkpt>
        <trkpt lat="29.568987" lon="103.440241"><ele>534.09973</ele><time>2026-07-01T20:24:36.000Z</time></trkpt>
        <trkpt lat="29.568956" lon="103.440193"><ele>535.90656</ele><time>2026-07-01T20:24:43.000Z</time></trkpt>
        <trkpt lat="29.568934" lon="103.440146"><ele>540.07434</ele><time>2026-07-01T20:24:49.000Z</time></trkpt>
        <trkpt lat="29.568896" lon="103.440107"><ele>542.02014</ele><time>2026-07-01T20:24:55.000Z</time></trkpt>
        <trkpt lat="29.568864" lon="103.440067"><ele>541.7667</ele><time>2026-07-01T20:24:59.000Z</time></trkpt>
        <trkpt lat="29.568832" lon="103.440024"><ele>540.0523</ele><time>2026-07-01T20:25:05.000Z</time></trkpt>
        <trkpt lat="29.568811" lon="103.439967"><ele>541.34595</ele><time>2026-07-01T20:25:10.000Z</time></trkpt>
        <trkpt lat="29.568777" lon="103.439925"><ele>544.6566</ele><time>2026-07-01T20:25:16.000Z</time></trkpt>
        <trkpt lat="29.568746" lon="103.439867"><ele>546.4288</ele><time>2026-07-01T20:25:22.000Z</time></trkpt>
        <trkpt lat="29.568704" lon="103.43983"><ele>546.6867</ele><time>2026-07-01T20:25:26.000Z</time></trkpt>
        <trkpt lat="29.568669" lon="103.439796"><ele>549.2588</ele><time>2026-07-01T20:25:33.000Z</time></trkpt>
        <trkpt lat="29.568649" lon="103.439745"><ele>550.099</ele><time>2026-07-01T20:25:38.000Z</time></trkpt>
        <trkpt lat="29.56862" lon="103.439691"><ele>550.4437</ele><time>2026-07-01T20:25:42.000Z</time></trkpt>
        <trkpt lat="29.568585" lon="103.439655"><ele>550.6639</ele><time>2026-07-01T20:25:48.000Z</time></trkpt>
        <trkpt lat="29.568568" lon="103.439601"><ele>548.48627</ele><time>2026-07-01T20:25:54.000Z</time></trkpt>
        <trkpt lat="29.568553" lon="103.439546"><ele>548.3047</ele><time>2026-07-01T20:26:01.000Z</time></trkpt>
        <trkpt lat="29.568529" lon="103.439502"><ele>549.09283</ele><time>2026-07-01T20:26:05.000Z</time></trkpt>
        <trkpt lat="29.568484" lon="103.439487"><ele>548.7116</ele><time>2026-07-01T20:26:10.000Z</time></trkpt>
        <trkpt lat="29.568439" lon="103.439459"><ele>547.62256</ele><time>2026-07-01T20:26:17.000Z</time></trkpt>
        <trkpt lat="29.568413" lon="103.439409"><ele>548.0941</ele><time>2026-07-01T20:26:22.000Z</time></trkpt>
        <trkpt lat="29.568372" lon="103.439366"><ele>547.98615</ele><time>2026-07-01T20:26:28.000Z</time></trkpt>
        <trkpt lat="29.568331" lon="103.439337"><ele>548.9549</ele><time>2026-07-01T20:26:33.000Z</time></trkpt>
        <trkpt lat="29.568293" lon="103.439306"><ele>552.5467</ele><time>2026-07-01T20:26:40.000Z</time></trkpt>
        <trkpt lat="29.568254" lon="103.439277"><ele>552.62305</ele><time>2026-07-01T20:26:46.000Z</time></trkpt>
        <trkpt lat="29.56822" lon="103.439238"><ele>551.9201</ele><time>2026-07-01T20:26:51.000Z</time></trkpt>
        <trkpt lat="29.568181" lon="103.439198"><ele>550.6175</ele><time>2026-07-01T20:26:58.000Z</time></trkpt>
        <trkpt lat="29.568147" lon="103.439158"><ele>550.63715</ele><time>2026-07-01T20:27:04.000Z</time></trkpt>
        <trkpt lat="29.568112" lon="103.439124"><ele>550.29156</ele><time>2026-07-01T20:27:08.000Z</time></trkpt>
        <trkpt lat="29.56808" lon="103.439087"><ele>549.9099</ele><time>2026-07-01T20:27:14.000Z</time></trkpt>
        <trkpt lat="29.568046" lon="103.439053"><ele>549.997</ele><time>2026-07-01T20:27:19.000Z</time></trkpt>
        <trkpt lat="29.568017" lon="103.439011"><ele>551.5525</ele><time>2026-07-01T20:27:25.000Z</time></trkpt>
        <trkpt lat="29.567975" lon="103.438972"><ele>551.4542</ele><time>2026-07-01T20:27:31.000Z</time></trkpt>
        <trkpt lat="29.567942" lon="103.438934"><ele>551.9823</ele><time>2026-07-01T20:27:35.000Z</time></trkpt>
        <trkpt lat="29.567908" lon="103.438884"><ele>551.45337</ele><time>2026-07-01T20:27:41.000Z</time></trkpt>
        <trkpt lat="29.567873" lon="103.438846"><ele>552.11816</ele><time>2026-07-01T20:27:47.000Z</time></trkpt>
        <trkpt lat="29.567841" lon="103.438801"><ele>552.8805</ele><time>2026-07-01T20:27:56.000Z</time></trkpt>
        <trkpt lat="29.567808" lon="103.438756"><ele>551.7226</ele><time>2026-07-01T20:28:00.000Z</time></trkpt>
        <trkpt lat="29.567776" lon="103.438705"><ele>552.8583</ele><time>2026-07-01T20:28:06.000Z</time></trkpt>
        <trkpt lat="29.567752" lon="103.438661"><ele>550.10535</ele><time>2026-07-01T20:28:12.000Z</time></trkpt>
        <trkpt lat="29.56772" lon="103.438615"><ele>550.758</ele><time>2026-07-01T20:28:19.000Z</time></trkpt>
        <trkpt lat="29.567679" lon="103.438592"><ele>550.38495</ele><time>2026-07-01T20:28:24.000Z</time></trkpt>
        <trkpt lat="29.567644" lon="103.438545"><ele>550.2663</ele><time>2026-07-01T20:28:31.000Z</time></trkpt>
        <trkpt lat="29.567617" lon="103.438493"><ele>551.56104</ele><time>2026-07-01T20:28:37.000Z</time></trkpt>
        <trkpt lat="29.567576" lon="103.438449"><ele>551.27893</ele><time>2026-07-01T20:28:41.000Z</time></trkpt>
        <trkpt lat="29.567522" lon="103.438422"><ele>553.49554</ele><time>2026-07-01T20:28:47.000Z</time></trkpt>
        <trkpt lat="29.567483" lon="103.438377"><ele>553.9587</ele><time>2026-07-01T20:28:52.000Z</time></trkpt>
        <trkpt lat="29.567447" lon="103.438338"><ele>553.62177</ele><time>2026-07-01T20:28:56.000Z</time></trkpt>
        <trkpt lat="29.567406" lon="103.438311"><ele>552.9033</ele><time>2026-07-01T20:29:03.000Z</time></trkpt>
        <trkpt lat="29.56737" lon="103.438276"><ele>552.7683</ele><time>2026-07-01T20:29:08.000Z</time></trkpt>
        <trkpt lat="29.567343" lon="103.438233"><ele>551.43475</ele><time>2026-07-01T20:29:13.000Z</time></trkpt>
        <trkpt lat="29.567318" lon="103.438189"><ele>551.79224</ele><time>2026-07-01T20:29:17.000Z</time></trkpt>
        <trkpt lat="29.56729" lon="103.438136"><ele>551.9782</ele><time>2026-07-01T20:29:23.000Z</time></trkpt>
        <trkpt lat="29.567268" lon="103.438088"><ele>551.6147</ele><time>2026-07-01T20:29:27.000Z</time></trkpt>
        <trkpt lat="29.567233" lon="103.438047"><ele>553.88776</ele><time>2026-07-01T20:29:31.000Z</time></trkpt>
        <trkpt lat="29.567198" lon="103.437995"><ele>555.33844</ele><time>2026-07-01T20:29:37.000Z</time></trkpt>
        <trkpt lat="29.567179" lon="103.437946"><ele>556.54504</ele><time>2026-07-01T20:29:41.000Z</time></trkpt>
        <trkpt lat="29.567151" lon="103.437896"><ele>558.11285</ele><time>2026-07-01T20:29:46.000Z</time></trkpt>
        <trkpt lat="29.567128" lon="103.437849"><ele>558.62756</ele><time>2026-07-01T20:29:51.000Z</time></trkpt>
        <trkpt lat="29.567102" lon="103.437805"><ele>558.92664</ele><time>2026-07-01T20:29:55.000Z</time></trkpt>
        <trkpt lat="29.567062" lon="103.437763"><ele>558.2191</ele><time>2026-07-01T20:30:01.000Z</time></trkpt>
        <trkpt lat="29.567038" lon="103.437706"><ele>557.9812</ele><time>2026-07-01T20:30:06.000Z</time></trkpt>
        <trkpt lat="29.567015" lon="103.437655"><ele>558.6784</ele><time>2026-07-01T20:30:09.000Z</time></trkpt>
        <trkpt lat="29.56698" lon="103.437608"><ele>559.71344</ele><time>2026-07-01T20:30:15.000Z</time></trkpt>
        <trkpt lat="29.566955" lon="103.43756"><ele>560.4311</ele><time>2026-07-01T20:30:20.000Z</time></trkpt>
        <trkpt lat="29.566931" lon="103.43751"><ele>558.7346</ele><time>2026-07-01T20:30:25.000Z</time></trkpt>
        <trkpt lat="29.566901" lon="103.43747"><ele>558.1979</ele><time>2026-07-01T20:30:30.000Z</time></trkpt>
        <trkpt lat="29.566878" lon="103.437417"><ele>559.23663</ele><time>2026-07-01T20:30:35.000Z</time></trkpt>
        <trkpt lat="29.566841" lon="103.437364"><ele>559.76245</ele><time>2026-07-01T20:30:40.000Z</time></trkpt>
        <trkpt lat="29.566821" lon="103.437313"><ele>560.4107</ele><time>2026-07-01T20:30:43.000Z</time></trkpt>
        <trkpt lat="29.566794" lon="103.437267"><ele>560.647</ele><time>2026-07-01T20:30:48.000Z</time></trkpt>
        <trkpt lat="29.566761" lon="103.437215"><ele>561.14624</ele><time>2026-07-01T20:30:53.000Z</time></trkpt>
        <trkpt lat="29.566734" lon="103.437165"><ele>562.21674</ele><time>2026-07-01T20:30:59.000Z</time></trkpt>
        <trkpt lat="29.566719" lon="103.437116"><ele>561.06976</ele><time>2026-07-01T20:31:03.000Z</time></trkpt>
        <trkpt lat="29.566686" lon="103.437071"><ele>562.42175</ele><time>2026-07-01T20:31:07.000Z</time></trkpt>
        <trkpt lat="29.566647" lon="103.437025"><ele>564.29114</ele><time>2026-07-01T20:31:12.000Z</time></trkpt>
        <trkpt lat="29.566626" lon="103.436979"><ele>563.0807</ele><time>2026-07-01T20:31:17.000Z</time></trkpt>
        <trkpt lat="29.566607" lon="103.43693"><ele>563.3053</ele><time>2026-07-01T20:31:22.000Z</time></trkpt>
        <trkpt lat="29.566579" lon="103.436885"><ele>564.4654</ele><time>2026-07-01T20:31:32.000Z</time></trkpt>
        <trkpt lat="29.566558" lon="103.436833"><ele>564.14044</ele><time>2026-07-01T20:31:37.000Z</time></trkpt>
        <trkpt lat="29.566541" lon="103.43678"><ele>562.63934</ele><time>2026-07-01T20:31:41.000Z</time></trkpt>
        <trkpt lat="29.566498" lon="103.436761"><ele>564.4535</ele><time>2026-07-01T20:31:48.000Z</time></trkpt>
        <trkpt lat="29.566473" lon="103.43671"><ele>563.9022</ele><time>2026-07-01T20:31:53.000Z</time></trkpt>
        <trkpt lat="29.566462" lon="103.43665"><ele>563.26166</ele><time>2026-07-01T20:31:58.000Z</time></trkpt>
        <trkpt lat="29.566441" lon="103.4366"><ele>563.25244</ele><time>2026-07-01T20:32:03.000Z</time></trkpt>
        <trkpt lat="29.56641" lon="103.436555"><ele>563.9886</ele><time>2026-07-01T20:32:08.000Z</time></trkpt>
        <trkpt lat="29.566391" lon="103.436505"><ele>564.13745</ele><time>2026-07-01T20:32:12.000Z</time></trkpt>
        <trkpt lat="29.566376" lon="103.436447"><ele>564.18506</ele><time>2026-07-01T20:32:18.000Z</time></trkpt>
        <trkpt lat="29.566348" lon="103.436406"><ele>564.1255</ele><time>2026-07-01T20:32:22.000Z</time></trkpt>
        <trkpt lat="29.566327" lon="103.43635"><ele>564.36694</ele><time>2026-07-01T20:32:27.000Z</time></trkpt>
        <trkpt lat="29.566294" lon="103.436296"><ele>565.4286</ele><time>2026-07-01T20:32:32.000Z</time></trkpt>
        <trkpt lat="29.566274" lon="103.436241"><ele>565.36426</ele><time>2026-07-01T20:32:37.000Z</time></trkpt>
        <trkpt lat="29.566254" lon="103.436191"><ele>567.3209</ele><time>2026-07-01T20:32:42.000Z</time></trkpt>
        <trkpt lat="29.566245" lon="103.436135"><ele>566.80786</ele><time>2026-07-01T20:32:47.000Z</time></trkpt>
        <trkpt lat="29.566225" lon="103.436072"><ele>566.99615</ele><time>2026-07-01T20:32:53.000Z</time></trkpt>
        <trkpt lat="29.56621" lon="103.43602"><ele>566.6175</ele><time>2026-07-01T20:32:58.000Z</time></trkpt>
        <trkpt lat="29.566201" lon="103.435969"><ele>567.41296</ele><time>2026-07-01T20:33:02.000Z</time></trkpt>
        <trkpt lat="29.566178" lon="103.435924"><ele>568.5474</ele><time>2026-07-01T20:33:07.000Z</time></trkpt>
        <trkpt lat="29.566161" lon="103.435869"><ele>568.2617</ele><time>2026-07-01T20:33:13.000Z</time></trkpt>
        <trkpt lat="29.566151" lon="103.435818"><ele>567.9098</ele><time>2026-07-01T20:33:17.000Z</time></trkpt>
        <trkpt lat="29.566131" lon="103.43576"><ele>568.0905</ele><time>2026-07-01T20:33:22.000Z</time></trkpt>
        <trkpt lat="29.566091" lon="103.435718"><ele>570.1349</ele><time>2026-07-01T20:33:27.000Z</time></trkpt>
        <trkpt lat="29.566061" lon="103.435668"><ele>574.1328</ele><time>2026-07-01T20:33:33.000Z</time></trkpt>
        <trkpt lat="29.566038" lon="103.435614"><ele>573.3826</ele><time>2026-07-01T20:33:38.000Z</time></trkpt>
        <trkpt lat="29.566033" lon="103.435561"><ele>572.72455</ele><time>2026-07-01T20:33:43.000Z</time></trkpt>
        <trkpt lat="29.566018" lon="103.435506"><ele>572.70685</ele><time>2026-07-01T20:33:49.000Z</time></trkpt>
        <trkpt lat="29.565999" lon="103.435457"><ele>571.5878</ele><time>2026-07-01T20:33:54.000Z</time></trkpt>
        <trkpt lat="29.565981" lon="103.435408"><ele>572.35986</ele><time>2026-07-01T20:33:59.000Z</time></trkpt>
        <trkpt lat="29.565964" lon="103.43535"><ele>571.3602</ele><time>2026-07-01T20:34:03.000Z</time></trkpt>
        <trkpt lat="29.565948" lon="103.435299"><ele>573.6489</ele><time>2026-07-01T20:34:08.000Z</time></trkpt>
        <trkpt lat="29.565935" lon="103.435247"><ele>573.13727</ele><time>2026-07-01T20:34:13.000Z</time></trkpt>
        <trkpt lat="29.565916" lon="103.435189"><ele>575.09515</ele><time>2026-07-01T20:34:20.000Z</time></trkpt>
        <trkpt lat="29.565883" lon="103.435143"><ele>574.3827</ele><time>2026-07-01T20:34:26.000Z</time></trkpt>
        <trkpt lat="29.565847" lon="103.435106"><ele>577.0983</ele><time>2026-07-01T20:34:32.000Z</time></trkpt>
        <trkpt lat="29.565816" lon="103.435068"><ele>575.9191</ele><time>2026-07-01T20:34:38.000Z</time></trkpt>
        <trkpt lat="29.565772" lon="103.435036"><ele>576.4688</ele><time>2026-07-01T20:34:45.000Z</time></trkpt>
        <trkpt lat="29.565733" lon="103.435"><ele>578.7983</ele><time>2026-07-01T20:34:49.000Z</time></trkpt>
        <trkpt lat="29.565713" lon="103.434946"><ele>577.6817</ele><time>2026-07-01T20:34:57.000Z</time></trkpt>
        <trkpt lat="29.565676" lon="103.434911"><ele>577.9925</ele><time>2026-07-01T20:35:03.000Z</time></trkpt>
        <trkpt lat="29.565639" lon="103.434878"><ele>579.3311</ele><time>2026-07-01T20:35:07.000Z</time></trkpt>
        <trkpt lat="29.565602" lon="103.434838"><ele>579.2963</ele><time>2026-07-01T20:35:13.000Z</time></trkpt>
        <trkpt lat="29.565587" lon="103.434775"><ele>579.3861</ele><time>2026-07-01T20:35:19.000Z</time></trkpt>
        <trkpt lat="29.565568" lon="103.434723"><ele>579.1334</ele><time>2026-07-01T20:35:24.000Z</time></trkpt>
        <trkpt lat="29.56554" lon="103.434681"><ele>578.8324</ele><time>2026-07-01T20:35:33.000Z</time></trkpt>
        <trkpt lat="29.565529" lon="103.43462"><ele>578.7783</ele><time>2026-07-01T20:35:37.000Z</time></trkpt>
        <trkpt lat="29.56553" lon="103.434567"><ele>578.9004</ele><time>2026-07-01T20:35:41.000Z</time></trkpt>
        <trkpt lat="29.565536" lon="103.434508"><ele>580.2005</ele><time>2026-07-01T20:35:47.000Z</time></trkpt>
        <trkpt lat="29.565568" lon="103.434464"><ele>580.5606</ele><time>2026-07-01T20:35:52.000Z</time></trkpt>
        <trkpt lat="29.565603" lon="103.434409"><ele>583.2969</ele><time>2026-07-01T20:35:58.000Z</time></trkpt>
        <trkpt lat="29.565643" lon="103.434363"><ele>583.019</ele><time>2026-07-01T20:36:04.000Z</time></trkpt>
        <trkpt lat="29.565672" lon="103.434324"><ele>583.99133</ele><time>2026-07-01T20:36:09.000Z</time></trkpt>
        <trkpt lat="29.565714" lon="103.434287"><ele>591.9852</ele><time>2026-07-01T20:37:02.000Z</time></trkpt>
        <trkpt lat="29.565752" lon="103.434245"><ele>591.451</ele><time>2026-07-01T20:37:11.000Z</time></trkpt>
        <trkpt lat="29.565743" lon="103.434182"><ele>592.117</ele><time>2026-07-01T20:37:17.000Z</time></trkpt>
        <trkpt lat="29.565711" lon="103.434141"><ele>593.3687</ele><time>2026-07-01T20:37:21.000Z</time></trkpt>
        <trkpt lat="29.565728" lon="103.434089"><ele>593.07837</ele><time>2026-07-01T20:37:25.000Z</time></trkpt>
        <trkpt lat="29.565723" lon="103.434033"><ele>595.65186</ele><time>2026-07-01T20:37:30.000Z</time></trkpt>
        <trkpt lat="29.565718" lon="103.433982"><ele>596.50305</ele><time>2026-07-01T20:37:36.000Z</time></trkpt>
        <trkpt lat="29.565705" lon="103.433925"><ele>597.53235</ele><time>2026-07-01T20:37:42.000Z</time></trkpt>
        <trkpt lat="29.565706" lon="103.433863"><ele>597.1403</ele><time>2026-07-01T20:37:47.000Z</time></trkpt>
        <trkpt lat="29.565703" lon="103.43381"><ele>595.82837</ele><time>2026-07-01T20:37:52.000Z</time></trkpt>
        <trkpt lat="29.565718" lon="103.433761"><ele>594.65533</ele><time>2026-07-01T20:37:57.000Z</time></trkpt>
        <trkpt lat="29.565729" lon="103.433705"><ele>594.0872</ele><time>2026-07-01T20:38:02.000Z</time></trkpt>
        <trkpt lat="29.565733" lon="103.433645"><ele>592.8314</ele><time>2026-07-01T20:38:07.000Z</time></trkpt>
        <trkpt lat="29.565742" lon="103.433583"><ele>592.85144</ele><time>2026-07-01T20:38:14.000Z</time></trkpt>
        <trkpt lat="29.565746" lon="103.433526"><ele>592.7837</ele><time>2026-07-01T20:38:18.000Z</time></trkpt>
        <trkpt lat="29.565764" lon="103.433476"><ele>591.41925</ele><time>2026-07-01T20:38:21.000Z</time></trkpt>
        <trkpt lat="29.56579" lon="103.433421"><ele>592.69763</ele><time>2026-07-01T20:38:25.000Z</time></trkpt>
        <trkpt lat="29.565806" lon="103.43336"><ele>593.2755</ele><time>2026-07-01T20:38:29.000Z</time></trkpt>
        <trkpt lat="29.565767" lon="103.433333"><ele>592.6931</ele><time>2026-07-01T20:38:32.000Z</time></trkpt>
        <trkpt lat="29.565743" lon="103.433277"><ele>593.3712</ele><time>2026-07-01T20:38:36.000Z</time></trkpt>
        <trkpt lat="29.565687" lon="103.433226"><ele>593.73145</ele><time>2026-07-01T20:38:41.000Z</time></trkpt>
        <trkpt lat="29.565704" lon="103.433163"><ele>594.23865</ele><time>2026-07-01T20:38:46.000Z</time></trkpt>
        <trkpt lat="29.565722" lon="103.433106"><ele>595.23035</ele><time>2026-07-01T20:38:50.000Z</time></trkpt>
        <trkpt lat="29.565716" lon="103.433055"><ele>595.8928</ele><time>2026-07-01T20:38:55.000Z</time></trkpt>
        <trkpt lat="29.565705" lon="103.433004"><ele>595.70624</ele><time>2026-07-01T20:38:59.000Z</time></trkpt>
        <trkpt lat="29.565677" lon="103.432957"><ele>595.451</ele><time>2026-07-01T20:39:03.000Z</time></trkpt>
        <trkpt lat="29.565653" lon="103.432905"><ele>595.04156</ele><time>2026-07-01T20:39:08.000Z</time></trkpt>
        <trkpt lat="29.56563" lon="103.432843"><ele>595.0682</ele><time>2026-07-01T20:39:13.000Z</time></trkpt>
        <trkpt lat="29.565595" lon="103.432794"><ele>594.9631</ele><time>2026-07-01T20:39:19.000Z</time></trkpt>
        <trkpt lat="29.565587" lon="103.432733"><ele>595.79474</ele><time>2026-07-01T20:39:23.000Z</time></trkpt>
        <trkpt lat="29.565578" lon="103.432678"><ele>595.90955</ele><time>2026-07-01T20:39:27.000Z</time></trkpt>
        <trkpt lat="29.565572" lon="103.43262"><ele>597.42957</ele><time>2026-07-01T20:39:30.000Z</time></trkpt>
        <trkpt lat="29.565545" lon="103.432566"><ele>597.33044</ele><time>2026-07-01T20:39:35.000Z</time></trkpt>
        <trkpt lat="29.565509" lon="103.432516"><ele>599.332</ele><time>2026-07-01T20:39:40.000Z</time></trkpt>
        <trkpt lat="29.565485" lon="103.432463"><ele>600.1279</ele><time>2026-07-01T20:39:45.000Z</time></trkpt>
        <trkpt lat="29.565459" lon="103.432417"><ele>600.41376</ele><time>2026-07-01T20:39:49.000Z</time></trkpt>
        <trkpt lat="29.565437" lon="103.432369"><ele>599.57574</ele><time>2026-07-01T20:39:54.000Z</time></trkpt>
        <trkpt lat="29.56542" lon="103.432318"><ele>600.39264</ele><time>2026-07-01T20:40:00.000Z</time></trkpt>
        <trkpt lat="29.565402" lon="103.432269"><ele>600.6184</ele><time>2026-07-01T20:40:06.000Z</time></trkpt>
        <trkpt lat="29.565386" lon="103.43222"><ele>600.0087</ele><time>2026-07-01T20:40:10.000Z</time></trkpt>
        <trkpt lat="29.565371" lon="103.432164"><ele>600.2689</ele><time>2026-07-01T20:40:17.000Z</time></trkpt>
        <trkpt lat="29.565365" lon="103.432103"><ele>599.74585</ele><time>2026-07-01T20:40:23.000Z</time></trkpt>
        <trkpt lat="29.565347" lon="103.43205"><ele>601.6861</ele><time>2026-07-01T20:40:29.000Z</time></trkpt>
        <trkpt lat="29.565318" lon="103.432009"><ele>601.96063</ele><time>2026-07-01T20:40:34.000Z</time></trkpt>
        <trkpt lat="29.565318" lon="103.431947"><ele>603.1879</ele><time>2026-07-01T20:40:41.000Z</time></trkpt>
        <trkpt lat="29.565336" lon="103.431894"><ele>603.42126</ele><time>2026-07-01T20:40:46.000Z</time></trkpt>
        <trkpt lat="29.565355" lon="103.431841"><ele>605.21484</ele><time>2026-07-01T20:40:51.000Z</time></trkpt>
        <trkpt lat="29.56538" lon="103.431794"><ele>606.91846</ele><time>2026-07-01T20:40:57.000Z</time></trkpt>
        <trkpt lat="29.565381" lon="103.431732"><ele>608.7568</ele><time>2026-07-01T20:41:02.000Z</time></trkpt>
        <trkpt lat="29.565408" lon="103.431691"><ele>610.64044</ele><time>2026-07-01T20:41:07.000Z</time></trkpt>
        <trkpt lat="29.565422" lon="103.431636"><ele>611.51917</ele><time>2026-07-01T20:41:14.000Z</time></trkpt>
        <trkpt lat="29.565431" lon="103.43158"><ele>611.88763</ele><time>2026-07-01T20:41:20.000Z</time></trkpt>
        <trkpt lat="29.565452" lon="103.431533"><ele>611.94946</ele><time>2026-07-01T20:41:25.000Z</time></trkpt>
        <trkpt lat="29.565451" lon="103.431481"><ele>614.06067</ele><time>2026-07-01T20:41:31.000Z</time></trkpt>
        <trkpt lat="29.565471" lon="103.431431"><ele>615.2414</ele><time>2026-07-01T20:41:36.000Z</time></trkpt>
        <trkpt lat="29.565477" lon="103.431379"><ele>616.23004</ele><time>2026-07-01T20:41:41.000Z</time></trkpt>
        <trkpt lat="29.565465" lon="103.431316"><ele>619.3157</ele><time>2026-07-01T20:41:49.000Z</time></trkpt>
        <trkpt lat="29.56546" lon="103.431248"><ele>619.46967</ele><time>2026-07-01T20:41:52.000Z</time></trkpt>
        <trkpt lat="29.565505" lon="103.431214"><ele>620.15076</ele><time>2026-07-01T20:41:56.000Z</time></trkpt>
        <trkpt lat="29.565517" lon="103.431158"><ele>622.28125</ele><time>2026-07-01T20:42:03.000Z</time></trkpt>
        <trkpt lat="29.565537" lon="103.431105"><ele>621.95776</ele><time>2026-07-01T20:42:08.000Z</time></trkpt>
        <trkpt lat="29.565521" lon="103.431054"><ele>624.40137</ele><time>2026-07-01T20:42:12.000Z</time></trkpt>
        <trkpt lat="29.565498" lon="103.431009"><ele>623.6212</ele><time>2026-07-01T20:42:15.000Z</time></trkpt>
        <trkpt lat="29.565462" lon="103.430972"><ele>623.5945</ele><time>2026-07-01T20:42:21.000Z</time></trkpt>
        <trkpt lat="29.56542" lon="103.430939"><ele>622.6313</ele><time>2026-07-01T20:42:27.000Z</time></trkpt>
        <trkpt lat="29.565381" lon="103.43091"><ele>621.24896</ele><time>2026-07-01T20:42:33.000Z</time></trkpt>
        <trkpt lat="29.565352" lon="103.430853"><ele>622.54987</ele><time>2026-07-01T20:42:38.000Z</time></trkpt>
        <trkpt lat="29.565346" lon="103.430793"><ele>621.6023</ele><time>2026-07-01T20:42:42.000Z</time></trkpt>
        <trkpt lat="29.565351" lon="103.430734"><ele>622.08575</ele><time>2026-07-01T20:42:48.000Z</time></trkpt>
        <trkpt lat="29.56535" lon="103.430679"><ele>622.68774</ele><time>2026-07-01T20:42:54.000Z</time></trkpt>
        <trkpt lat="29.565351" lon="103.430622"><ele>621.7124</ele><time>2026-07-01T20:42:57.000Z</time></trkpt>
        <trkpt lat="29.56534" lon="103.430562"><ele>622.6442</ele><time>2026-07-01T20:43:04.000Z</time></trkpt>
        <trkpt lat="29.565314" lon="103.430516"><ele>623.5677</ele><time>2026-07-01T20:43:08.000Z</time></trkpt>
        <trkpt lat="29.565295" lon="103.430465"><ele>624.4778</ele><time>2026-07-01T20:43:14.000Z</time></trkpt>
        <trkpt lat="29.565315" lon="103.430411"><ele>625.2975</ele><time>2026-07-01T20:43:19.000Z</time></trkpt>
        <trkpt lat="29.565306" lon="103.430356"><ele>626.5816</ele><time>2026-07-01T20:43:25.000Z</time></trkpt>
        <trkpt lat="29.565299" lon="103.430303"><ele>626.5315</ele><time>2026-07-01T20:43:31.000Z</time></trkpt>
        <trkpt lat="29.565301" lon="103.430239"><ele>624.90454</ele><time>2026-07-01T20:43:36.000Z</time></trkpt>
        <trkpt lat="29.565312" lon="103.430184"><ele>624.43665</ele><time>2026-07-01T20:43:40.000Z</time></trkpt>
        <trkpt lat="29.565297" lon="103.430121"><ele>625.04407</ele><time>2026-07-01T20:43:44.000Z</time></trkpt>
        <trkpt lat="29.565289" lon="103.430063"><ele>625.6528</ele><time>2026-07-01T20:43:48.000Z</time></trkpt>
        <trkpt lat="29.565273" lon="103.430009"><ele>626.8828</ele><time>2026-07-01T20:43:53.000Z</time></trkpt>
        <trkpt lat="29.565239" lon="103.429956"><ele>627.14026</ele><time>2026-07-01T20:43:58.000Z</time></trkpt>
        <trkpt lat="29.565222" lon="103.429902"><ele>628.0516</ele><time>2026-07-01T20:44:01.000Z</time></trkpt>
        <trkpt lat="29.565193" lon="103.429859"><ele>630.1961</ele><time>2026-07-01T20:44:05.000Z</time></trkpt>
        <trkpt lat="29.565167" lon="103.429815"><ele>630.34894</ele><time>2026-07-01T20:44:09.000Z</time></trkpt>
        <trkpt lat="29.565163" lon="103.429756"><ele>632.0123</ele><time>2026-07-01T20:44:14.000Z</time></trkpt>
        <trkpt lat="29.565159" lon="103.429691"><ele>629.98254</ele><time>2026-07-01T20:44:19.000Z</time></trkpt>
        <trkpt lat="29.565143" lon="103.429637"><ele>631.0069</ele><time>2026-07-01T20:44:24.000Z</time></trkpt>
        <trkpt lat="29.565106" lon="103.429595"><ele>633.056</ele><time>2026-07-01T20:44:28.000Z</time></trkpt>
        <trkpt lat="29.565079" lon="103.429548"><ele>633.25323</ele><time>2026-07-01T20:44:34.000Z</time></trkpt>
        <trkpt lat="29.565042" lon="103.429514"><ele>633.7492</ele><time>2026-07-01T20:44:39.000Z</time></trkpt>
        <trkpt lat="29.565029" lon="103.429463"><ele>633.6348</ele><time>2026-07-01T20:44:47.000Z</time></trkpt>
        <trkpt lat="29.564996" lon="103.429423"><ele>632.6934</ele><time>2026-07-01T20:44:50.000Z</time></trkpt>
        <trkpt lat="29.564977" lon="103.429367"><ele>629.9219</ele><time>2026-07-01T20:44:57.000Z</time></trkpt>
        <trkpt lat="29.56495" lon="103.429323"><ele>630.03467</ele><time>2026-07-01T20:45:01.000Z</time></trkpt>
        <trkpt lat="29.564942" lon="103.429264"><ele>629.4257</ele><time>2026-07-01T20:45:06.000Z</time></trkpt>
        <trkpt lat="29.56495" lon="103.429208"><ele>628.5291</ele><time>2026-07-01T20:45:10.000Z</time></trkpt>
        <trkpt lat="29.564955" lon="103.429154"><ele>628.6241</ele><time>2026-07-01T20:45:15.000Z</time></trkpt>
        <trkpt lat="29.564945" lon="103.429098"><ele>631.6384</ele><time>2026-07-01T20:45:20.000Z</time></trkpt>
        <trkpt lat="29.56493" lon="103.429048"><ele>634.669</ele><time>2026-07-01T20:45:24.000Z</time></trkpt>
        <trkpt lat="29.56492" lon="103.428985"><ele>635.3385</ele><time>2026-07-01T20:45:30.000Z</time></trkpt>
        <trkpt lat="29.56488" lon="103.428952"><ele>638.42096</ele><time>2026-07-01T20:45:34.000Z</time></trkpt>
        <trkpt lat="29.564869" lon="103.428898"><ele>640.21497</ele><time>2026-07-01T20:45:37.000Z</time></trkpt>
        <trkpt lat="29.564854" lon="103.428843"><ele>642.5191</ele><time>2026-07-01T20:45:41.000Z</time></trkpt>
        <trkpt lat="29.564868" lon="103.428792"><ele>643.87225</ele><time>2026-07-01T20:45:46.000Z</time></trkpt>
        <trkpt lat="29.564853" lon="103.428735"><ele>644.39</ele><time>2026-07-01T20:45:51.000Z</time></trkpt>
        <trkpt lat="29.564859" lon="103.428681"><ele>645.34814</ele><time>2026-07-01T20:45:55.000Z</time></trkpt>
        <trkpt lat="29.564853" lon="103.428624"><ele>646.17316</ele><time>2026-07-01T20:45:59.000Z</time></trkpt>
        <trkpt lat="29.564847" lon="103.42857"><ele>643.8777</ele><time>2026-07-01T20:46:04.000Z</time></trkpt>
        <trkpt lat="29.564841" lon="103.42851"><ele>643.6507</ele><time>2026-07-01T20:46:09.000Z</time></trkpt>
        <trkpt lat="29.564851" lon="103.42846"><ele>645.1459</ele><time>2026-07-01T20:46:16.000Z</time></trkpt>
        <trkpt lat="29.564896" lon="103.428419"><ele>646.6034</ele><time>2026-07-01T20:46:24.000Z</time></trkpt>
        <trkpt lat="29.564943" lon="103.428389"><ele>649.98486</ele><time>2026-07-01T20:46:29.000Z</time></trkpt>
        <trkpt lat="29.564991" lon="103.428364"><ele>651.6033</ele><time>2026-07-01T20:46:34.000Z</time></trkpt>
        <trkpt lat="29.565046" lon="103.428356"><ele>649.57965</ele><time>2026-07-01T20:46:39.000Z</time></trkpt>
        <trkpt lat="29.565084" lon="103.428328"><ele>649.72925</ele><time>2026-07-01T20:46:42.000Z</time></trkpt>
        <trkpt lat="29.565117" lon="103.428279"><ele>654.4003</ele><time>2026-07-01T20:46:48.000Z</time></trkpt>
        <trkpt lat="29.565151" lon="103.428243"><ele>656.4757</ele><time>2026-07-01T20:46:53.000Z</time></trkpt>
        <trkpt lat="29.565197" lon="103.428202"><ele>659.0284</ele><time>2026-07-01T20:46:58.000Z</time></trkpt>
        <trkpt lat="29.565255" lon="103.428178"><ele>658.67487</ele><time>2026-07-01T20:47:03.000Z</time></trkpt>
        <trkpt lat="29.56529" lon="103.42814"><ele>657.3347</ele><time>2026-07-01T20:47:08.000Z</time></trkpt>
        <trkpt lat="29.565305" lon="103.428088"><ele>657.44604</ele><time>2026-07-01T20:47:11.000Z</time></trkpt>
        <trkpt lat="29.565346" lon="103.428044"><ele>656.69696</ele><time>2026-07-01T20:47:15.000Z</time></trkpt>
        <trkpt lat="29.565377" lon="103.427988"><ele>658.3784</ele><time>2026-07-01T20:47:20.000Z</time></trkpt>
        <trkpt lat="29.565417" lon="103.427954"><ele>659.71625</ele><time>2026-07-01T20:47:24.000Z</time></trkpt>
        <trkpt lat="29.565434" lon="103.427896"><ele>661.49585</ele><time>2026-07-01T20:47:29.000Z</time></trkpt>
        <trkpt lat="29.565432" lon="103.427844"><ele>663.1089</ele><time>2026-07-01T20:47:34.000Z</time></trkpt>
        <trkpt lat="29.565436" lon="103.427785"><ele>665.0411</ele><time>2026-07-01T20:47:38.000Z</time></trkpt>
        <trkpt lat="29.565425" lon="103.427733"><ele>665.3852</ele><time>2026-07-01T20:47:43.000Z</time></trkpt>
        <trkpt lat="29.565413" lon="103.427679"><ele>666.4175</ele><time>2026-07-01T20:47:48.000Z</time></trkpt>
        <trkpt lat="29.565424" lon="103.42762"><ele>665.8713</ele><time>2026-07-01T20:47:52.000Z</time></trkpt>
        <trkpt lat="29.565436" lon="103.427565"><ele>666.50464</ele><time>2026-07-01T20:47:56.000Z</time></trkpt>
        <trkpt lat="29.565444" lon="103.427498"><ele>667.5412</ele><time>2026-07-01T20:48:00.000Z</time></trkpt>
        <trkpt lat="29.565436" lon="103.427427"><ele>669.59106</ele><time>2026-07-01T20:48:04.000Z</time></trkpt>
        <trkpt lat="29.565422" lon="103.427367"><ele>672.3533</ele><time>2026-07-01T20:48:08.000Z</time></trkpt>
        <trkpt lat="29.565421" lon="103.4273"><ele>673.9081</ele><time>2026-07-01T20:48:12.000Z</time></trkpt>
        <trkpt lat="29.565394" lon="103.427255"><ele>675.54755</ele><time>2026-07-01T20:48:17.000Z</time></trkpt>
        <trkpt lat="29.565374" lon="103.427191"><ele>677.0655</ele><time>2026-07-01T20:48:21.000Z</time></trkpt>
        <trkpt lat="29.565356" lon="103.427143"><ele>680.1254</ele><time>2026-07-01T20:48:25.000Z</time></trkpt>
        <trkpt lat="29.56534" lon="103.427092"><ele>682.4601</ele><time>2026-07-01T20:48:31.000Z</time></trkpt>
        <trkpt lat="29.565295" lon="103.427077"><ele>682.55975</ele><time>2026-07-01T20:48:36.000Z</time></trkpt>
        <trkpt lat="29.56524" lon="103.427075"><ele>681.1682</ele><time>2026-07-01T20:48:39.000Z</time></trkpt>
        <trkpt lat="29.565179" lon="103.427077"><ele>677.3138</ele><time>2026-07-01T20:48:43.000Z</time></trkpt>
        <trkpt lat="29.565129" lon="103.427049"><ele>673.8567</ele><time>2026-07-01T20:48:48.000Z</time></trkpt>
        <trkpt lat="29.56509" lon="103.427021"><ele>672.3994</ele><time>2026-07-01T20:48:53.000Z</time></trkpt>
        <trkpt lat="29.565061" lon="103.426967"><ele>670.0032</ele><time>2026-07-01T20:48:59.000Z</time></trkpt>
        <trkpt lat="29.565027" lon="103.42693"><ele>669.3621</ele><time>2026-07-01T20:49:04.000Z</time></trkpt>
        <trkpt lat="29.564978" lon="103.426911"><ele>667.01764</ele><time>2026-07-01T20:49:12.000Z</time></trkpt>
        <trkpt lat="29.564933" lon="103.426891"><ele>667.177</ele><time>2026-07-01T20:49:17.000Z</time></trkpt>
        <trkpt lat="29.564907" lon="103.426849"><ele>667.26044</ele><time>2026-07-01T20:49:21.000Z</time></trkpt>
        <trkpt lat="29.564925" lon="103.426792"><ele>665.451</ele><time>2026-07-01T20:49:24.000Z</time></trkpt>
        <trkpt lat="29.564919" lon="103.42673"><ele>666.1593</ele><time>2026-07-01T20:49:29.000Z</time></trkpt>
        <trkpt lat="29.564944" lon="103.426684"><ele>666.0376</ele><time>2026-07-01T20:49:38.000Z</time></trkpt>
        <trkpt lat="29.564985" lon="103.426659"><ele>664.8273</ele><time>2026-07-01T20:49:51.000Z</time></trkpt>
        <trkpt lat="29.564995" lon="103.426601"><ele>665.68304</ele><time>2026-07-01T20:50:07.000Z</time></trkpt>
        <trkpt lat="29.564994" lon="103.426536"><ele>667.8621</ele><time>2026-07-01T20:50:14.000Z</time></trkpt>
        <trkpt lat="29.565023" lon="103.426488"><ele>674.5682</ele><time>2026-07-01T20:50:34.000Z</time></trkpt>
        <trkpt lat="29.565022" lon="103.426425"><ele>674.6136</ele><time>2026-07-01T20:50:46.000Z</time></trkpt>
        <trkpt lat="29.565026" lon="103.426353"><ele>675.7809</ele><time>2026-07-01T20:50:57.000Z</time></trkpt>
        <trkpt lat="29.565005" lon="103.426297"><ele>679.3901</ele><time>2026-07-01T20:51:05.000Z</time></trkpt>
        <trkpt lat="29.564948" lon="103.426263"><ele>680.9886</ele><time>2026-07-01T20:51:08.000Z</time></trkpt>
        <trkpt lat="29.564915" lon="103.426225"><ele>684.0917</ele><time>2026-07-01T20:51:15.000Z</time></trkpt>
        <trkpt lat="29.564906" lon="103.426167"><ele>687.2245</ele><time>2026-07-01T20:51:21.000Z</time></trkpt>
        <trkpt lat="29.564859" lon="103.426139"><ele>688.2506</ele><time>2026-07-01T20:51:23.000Z</time></trkpt>
        <trkpt lat="29.564809" lon="103.426106"><ele>691.1219</ele><time>2026-07-01T20:51:29.000Z</time></trkpt>
        <trkpt lat="29.56475" lon="103.426087"><ele>694.477</ele><time>2026-07-01T20:51:36.000Z</time></trkpt>
        <trkpt lat="29.564712" lon="103.426058"><ele>696.9732</ele><time>2026-07-01T20:51:40.000Z</time></trkpt>
        <trkpt lat="29.564659" lon="103.426041"><ele>700.00287</ele><time>2026-07-01T20:51:46.000Z</time></trkpt>
        <trkpt lat="29.56462" lon="103.425984"><ele>701.1176</ele><time>2026-07-01T20:51:48.000Z</time></trkpt>
        <trkpt lat="29.564599" lon="103.425913"><ele>701.9297</ele><time>2026-07-01T20:51:52.000Z</time></trkpt>
        <trkpt lat="29.564568" lon="103.425848"><ele>702.6299</ele><time>2026-07-01T20:51:55.000Z</time></trkpt>
        <trkpt lat="29.564539" lon="103.425805"><ele>702.7651</ele><time>2026-07-01T20:51:59.000Z</time></trkpt>
        <trkpt lat="29.564495" lon="103.425822"><ele>705.02686</ele><time>2026-07-01T20:52:03.000Z</time></trkpt>
        <trkpt lat="29.564531" lon="103.425779"><ele>705.3215</ele><time>2026-07-01T20:52:08.000Z</time></trkpt>
        <trkpt lat="29.564659" lon="103.425803"><ele>705.4907</ele><time>2026-07-01T20:52:20.000Z</time></trkpt>
        <trkpt lat="29.564729" lon="103.425816"><ele>704.8569</ele><time>2026-07-01T20:52:24.000Z</time></trkpt>
        <trkpt lat="29.564771" lon="103.425842"><ele>704.3247</ele><time>2026-07-01T20:52:25.000Z</time></trkpt>
        <trkpt lat="29.564858" lon="103.425856"><ele>703.63464</ele><time>2026-07-01T20:52:28.000Z</time></trkpt>
        <trkpt lat="29.564904" lon="103.425875"><ele>703.6271</ele><time>2026-07-01T20:52:29.000Z</time></trkpt>
        <trkpt lat="29.565127" lon="103.42596"><ele>702.6857</ele><time>2026-07-01T20:52:32.000Z</time></trkpt>
        <trkpt lat="29.56513" lon="103.426015"><ele>697.6504</ele><time>2026-07-01T20:52:34.000Z</time></trkpt>
        <trkpt lat="29.565169" lon="103.42605"><ele>691.4184</ele><time>2026-07-01T20:52:39.000Z</time></trkpt>
        <trkpt lat="29.565156" lon="103.425991"><ele>687.6077</ele><time>2026-07-01T20:52:55.000Z</time></trkpt>
        <trkpt lat="29.565117" lon="103.425962"><ele>686.40283</ele><time>2026-07-01T20:53:02.000Z</time></trkpt>
        <trkpt lat="29.565125" lon="103.425908"><ele>691.5109</ele><time>2026-07-01T20:53:18.000Z</time></trkpt>
        <trkpt lat="29.565131" lon="103.425846"><ele>690.6261</ele><time>2026-07-01T20:53:27.000Z</time></trkpt>
        <trkpt lat="29.565165" lon="103.425811"><ele>692.8918</ele><time>2026-07-01T20:53:40.000Z</time></trkpt>
        <trkpt lat="29.565132" lon="103.425753"><ele>694.04596</ele><time>2026-07-01T20:53:50.000Z</time></trkpt>
        <trkpt lat="29.565106" lon="103.425686"><ele>693.4674</ele><time>2026-07-01T20:53:54.000Z</time></trkpt>
        <trkpt lat="29.565109" lon="103.425625"><ele>695.5209</ele><time>2026-07-01T20:53:56.000Z</time></trkpt>
        <trkpt lat="29.565063" lon="103.425585"><ele>699.1809</ele><time>2026-07-01T20:54:02.000Z</time></trkpt>
        <trkpt lat="29.565021" lon="103.425561"><ele>701.4444</ele><time>2026-07-01T20:54:09.000Z</time></trkpt>
        <trkpt lat="29.564988" lon="103.425523"><ele>703.24567</ele><time>2026-07-01T20:54:14.000Z</time></trkpt>
        <trkpt lat="29.565002" lon="103.425451"><ele>703.92664</ele><time>2026-07-01T20:54:16.000Z</time></trkpt>
        <trkpt lat="29.564971" lon="103.425397"><ele>705.6807</ele><time>2026-07-01T20:54:19.000Z</time></trkpt>
        <trkpt lat="29.564946" lon="103.425349"><ele>704.25073</ele><time>2026-07-01T20:54:25.000Z</time></trkpt>
        <trkpt lat="29.564943" lon="103.425292"><ele>705.9158</ele><time>2026-07-01T20:54:29.000Z</time></trkpt>
        <trkpt lat="29.564894" lon="103.425273"><ele>705.6879</ele><time>2026-07-01T20:54:33.000Z</time></trkpt>
        <trkpt lat="29.564856" lon="103.425233"><ele>706.56506</ele><time>2026-07-01T20:54:37.000Z</time></trkpt>
        <trkpt lat="29.564807" lon="103.42523"><ele>707.8672</ele><time>2026-07-01T20:54:41.000Z</time></trkpt>
        <trkpt lat="29.564792" lon="103.42518"><ele>708.12463</ele><time>2026-07-01T20:54:47.000Z</time></trkpt>
        <trkpt lat="29.56478" lon="103.42512"><ele>708.33136</ele><time>2026-07-01T20:54:55.000Z</time></trkpt>
        <trkpt lat="29.564782" lon="103.425066"><ele>706.01794</ele><time>2026-07-01T20:55:08.000Z</time></trkpt>
        <trkpt lat="29.564769" lon="103.425011"><ele>705.7105</ele><time>2026-07-01T20:55:13.000Z</time></trkpt>
        <trkpt lat="29.564765" lon="103.424952"><ele>709.08716</ele><time>2026-07-01T20:55:22.000Z</time></trkpt>
        <trkpt lat="29.564736" lon="103.424898"><ele>709.97296</ele><time>2026-07-01T20:55:28.000Z</time></trkpt>
        <trkpt lat="29.564748" lon="103.424843"><ele>712.2501</ele><time>2026-07-01T20:55:35.000Z</time></trkpt>
        <trkpt lat="29.564707" lon="103.424803"><ele>712.5832</ele><time>2026-07-01T20:55:39.000Z</time></trkpt>
        <trkpt lat="29.564676" lon="103.424748"><ele>715.04095</ele><time>2026-07-01T20:55:45.000Z</time></trkpt>
        <trkpt lat="29.564694" lon="103.424696"><ele>714.8354</ele><time>2026-07-01T20:55:52.000Z</time></trkpt>
        <trkpt lat="29.564711" lon="103.424642"><ele>715.0602</ele><time>2026-07-01T20:55:58.000Z</time></trkpt>
        <trkpt lat="29.564712" lon="103.424586"><ele>713.23553</ele><time>2026-07-01T20:56:05.000Z</time></trkpt>
        <trkpt lat="29.564698" lon="103.424533"><ele>710.7697</ele><time>2026-07-01T20:56:12.000Z</time></trkpt>
        <trkpt lat="29.564706" lon="103.42448"><ele>709.68414</ele><time>2026-07-01T20:56:19.000Z</time></trkpt>
        <trkpt lat="29.564714" lon="103.42442"><ele>708.1884</ele><time>2026-07-01T20:56:27.000Z</time></trkpt>
        <trkpt lat="29.564742" lon="103.424371"><ele>708.1714</ele><time>2026-07-01T20:56:32.000Z</time></trkpt>
        <trkpt lat="29.564712" lon="103.42433"><ele>708.0206</ele><time>2026-07-01T20:56:37.000Z</time></trkpt>
        <trkpt lat="29.564688" lon="103.424283"><ele>709.94635</ele><time>2026-07-01T20:56:42.000Z</time></trkpt>
        <trkpt lat="29.564713" lon="103.42423"><ele>717.262</ele><time>2026-07-01T20:56:54.000Z</time></trkpt>
        <trkpt lat="29.564661" lon="103.424223"><ele>729.45605</ele><time>2026-07-01T20:57:03.000Z</time></trkpt>
        <trkpt lat="29.564634" lon="103.424175"><ele>731.72894</ele><time>2026-07-01T20:57:20.000Z</time></trkpt>
        <trkpt lat="29.564586" lon="103.424144"><ele>733.9626</ele><time>2026-07-01T20:57:26.000Z</time></trkpt>
        <trkpt lat="29.564606" lon="103.424095"><ele>735.07654</ele><time>2026-07-01T20:57:34.000Z</time></trkpt>
        <trkpt lat="29.564551" lon="103.424087"><ele>736.1051</ele><time>2026-07-01T20:57:40.000Z</time></trkpt>
        <trkpt lat="29.564514" lon="103.424041"><ele>734.90375</ele><time>2026-07-01T20:57:49.000Z</time></trkpt>
        <trkpt lat="29.564552" lon="103.424007"><ele>736.4118</ele><time>2026-07-01T20:57:54.000Z</time></trkpt>
        <trkpt lat="29.564491" lon="103.423996"><ele>736.53845</ele><time>2026-07-01T20:58:03.000Z</time></trkpt>
        <trkpt lat="29.564441" lon="103.423976"><ele>735.2396</ele><time>2026-07-01T20:58:07.000Z</time></trkpt>
        <trkpt lat="29.564408" lon="103.423925"><ele>734.8699</ele><time>2026-07-01T20:58:13.000Z</time></trkpt>
        <trkpt lat="29.564363" lon="103.423901"><ele>731.22144</ele><time>2026-07-01T20:58:19.000Z</time></trkpt>
        <trkpt lat="29.564322" lon="103.423877"><ele>727.71686</ele><time>2026-07-01T20:58:27.000Z</time></trkpt>
        <trkpt lat="29.564348" lon="103.423832"><ele>728.3366</ele><time>2026-07-01T20:58:36.000Z</time></trkpt>
        <trkpt lat="29.564384" lon="103.423796"><ele>728.5281</ele><time>2026-07-01T20:58:38.000Z</time></trkpt>
        <trkpt lat="29.564361" lon="103.42375"><ele>727.6276</ele><time>2026-07-01T20:58:45.000Z</time></trkpt>
        <trkpt lat="29.564328" lon="103.423709"><ele>728.89496</ele><time>2026-07-01T20:58:53.000Z</time></trkpt>
        <trkpt lat="29.564393" lon="103.423638"><ele>736.07654</ele><time>2026-07-01T20:59:01.000Z</time></trkpt>
        <trkpt lat="29.56439" lon="103.423579"><ele>740.1363</ele><time>2026-07-01T20:59:07.000Z</time></trkpt>
        <trkpt lat="29.564409" lon="103.42353"><ele>744.5942</ele><time>2026-07-01T20:59:12.000Z</time></trkpt>
        <trkpt lat="29.564442" lon="103.423473"><ele>748.44183</ele><time>2026-07-01T20:59:20.000Z</time></trkpt>
        <trkpt lat="29.564473" lon="103.42343"><ele>753.0485</ele><time>2026-07-01T20:59:34.000Z</time></trkpt>
        <trkpt lat="29.564492" lon="103.42338"><ele>753.8353</ele><time>2026-07-01T20:59:38.000Z</time></trkpt>
        <trkpt lat="29.564448" lon="103.423367"><ele>752.6827</ele><time>2026-07-01T20:59:45.000Z</time></trkpt>
        <trkpt lat="29.564479" lon="103.423321"><ele>752.99005</ele><time>2026-07-01T20:59:54.000Z</time></trkpt>
        <trkpt lat="29.564487" lon="103.423265"><ele>750.3572</ele><time>2026-07-01T21:00:01.000Z</time></trkpt>
        <trkpt lat="29.56447" lon="103.423214"><ele>751.6234</ele><time>2026-07-01T21:00:07.000Z</time></trkpt>
        <trkpt lat="29.564458" lon="103.423157"><ele>753.45776</ele><time>2026-07-01T21:00:15.000Z</time></trkpt>
        <trkpt lat="29.564534" lon="103.423118"><ele>750.4918</ele><time>2026-07-01T21:00:19.000Z</time></trkpt>
        <trkpt lat="29.564512" lon="103.423047"><ele>756.56384</ele><time>2026-07-01T21:00:27.000Z</time></trkpt>
        <trkpt lat="29.564521" lon="103.422992"><ele>766.4794</ele><time>2026-07-01T21:00:48.000Z</time></trkpt>
        <trkpt lat="29.564512" lon="103.422927"><ele>770.41565</ele><time>2026-07-01T21:01:43.000Z</time></trkpt>
        <trkpt lat="29.56447" lon="103.422967"><ele>770.40704</ele><time>2026-07-01T21:02:22.000Z</time></trkpt>
        <trkpt lat="29.564524" lon="103.422958"><ele>766.92017</ele><time>2026-07-01T21:02:56.000Z</time></trkpt>
        <trkpt lat="29.564555" lon="103.422927"><ele>767.10583</ele><time>2026-07-01T21:03:06.000Z</time></trkpt>
        <trkpt lat="29.564528" lon="103.422872"><ele>767.40784</ele><time>2026-07-01T21:03:12.000Z</time></trkpt>
        <trkpt lat="29.564509" lon="103.422806"><ele>765.89325</ele><time>2026-07-01T21:03:20.000Z</time></trkpt>
        <trkpt lat="29.564469" lon="103.422759"><ele>768.52576</ele><time>2026-07-01T21:03:30.000Z</time></trkpt>
        <trkpt lat="29.564497" lon="103.422709"><ele>769.86975</ele><time>2026-07-01T21:03:37.000Z</time></trkpt>
        <trkpt lat="29.564458" lon="103.422664"><ele>768.68695</ele><time>2026-07-01T21:03:42.000Z</time></trkpt>
        <trkpt lat="29.56448" lon="103.422616"><ele>771.1806</ele><time>2026-07-01T21:04:01.000Z</time></trkpt>
        <trkpt lat="29.56447" lon="103.422552"><ele>773.8532</ele><time>2026-07-01T21:04:10.000Z</time></trkpt>
        <trkpt lat="29.564466" lon="103.4225"><ele>774.16986</ele><time>2026-07-01T21:04:14.000Z</time></trkpt>
        <trkpt lat="29.564448" lon="103.422451"><ele>774.74335</ele><time>2026-07-01T21:04:22.000Z</time></trkpt>
        <trkpt lat="29.56443" lon="103.422397"><ele>771.7115</ele><time>2026-07-01T21:04:41.000Z</time></trkpt>
        <trkpt lat="29.56441" lon="103.422345"><ele>776.9101</ele><time>2026-07-01T21:04:54.000Z</time></trkpt>
        <trkpt lat="29.564406" lon="103.422294"><ele>777.9972</ele><time>2026-07-01T21:05:08.000Z</time></trkpt>
        <trkpt lat="29.564414" lon="103.422242"><ele>776.19293</ele><time>2026-07-01T21:05:19.000Z</time></trkpt>
        <trkpt lat="29.564419" lon="103.42219"><ele>774.3728</ele><time>2026-07-01T21:05:26.000Z</time></trkpt>
        <trkpt lat="29.564405" lon="103.42213"><ele>777.2464</ele><time>2026-07-01T21:05:42.000Z</time></trkpt>
        <trkpt lat="29.564373" lon="103.42209"><ele>777.2767</ele><time>2026-07-01T21:05:46.000Z</time></trkpt>
        <trkpt lat="29.564371" lon="103.422038"><ele>776.14435</ele><time>2026-07-01T21:05:57.000Z</time></trkpt>
        <trkpt lat="29.564374" lon="103.42198"><ele>778.0483</ele><time>2026-07-01T21:06:11.000Z</time></trkpt>
        <trkpt lat="29.564365" lon="103.421917"><ele>780.204</ele><time>2026-07-01T21:06:17.000Z</time></trkpt>
        <trkpt lat="29.56439" lon="103.421872"><ele>786.5401</ele><time>2026-07-01T21:06:23.000Z</time></trkpt>
        <trkpt lat="29.564387" lon="103.421817"><ele>790.7359</ele><time>2026-07-01T21:06:45.000Z</time></trkpt>
        <trkpt lat="29.564354" lon="103.421771"><ele>786.7622</ele><time>2026-07-01T21:06:59.000Z</time></trkpt>
        <trkpt lat="29.56435" lon="103.421715"><ele>791.9263</ele><time>2026-07-01T21:07:15.000Z</time></trkpt>
        <trkpt lat="29.564343" lon="103.421653"><ele>794.99347</ele><time>2026-07-01T21:07:26.000Z</time></trkpt>
        <trkpt lat="29.564347" lon="103.421598"><ele>797.6022</ele><time>2026-07-01T21:07:38.000Z</time></trkpt>
        <trkpt lat="29.564309" lon="103.421556"><ele>800.293</ele><time>2026-07-01T21:07:47.000Z</time></trkpt>
        <trkpt lat="29.5643" lon="103.4215"><ele>804.4754</ele><time>2026-07-01T21:08:06.000Z</time></trkpt>
        <trkpt lat="29.564274" lon="103.421444"><ele>808.4241</ele><time>2026-07-01T21:08:14.000Z</time></trkpt>
        <trkpt lat="29.564318" lon="103.421421"><ele>807.71387</ele><time>2026-07-01T21:08:25.000Z</time></trkpt>
        <trkpt lat="29.564363" lon="103.42143"><ele>806.54706</ele><time>2026-07-01T21:08:31.000Z</time></trkpt>
        <trkpt lat="29.564405" lon="103.421388"><ele>804.88635</ele><time>2026-07-01T21:08:36.000Z</time></trkpt>
        <trkpt lat="29.56444" lon="103.421353"><ele>803.95996</ele><time>2026-07-01T21:08:49.000Z</time></trkpt>
        <trkpt lat="29.564485" lon="103.421329"><ele>805.34644</ele><time>2026-07-01T21:08:55.000Z</time></trkpt>
        <trkpt lat="29.564512" lon="103.421283"><ele>805.21875</ele><time>2026-07-01T21:09:01.000Z</time></trkpt>
        <trkpt lat="29.564562" lon="103.421267"><ele>806.6525</ele><time>2026-07-01T21:09:06.000Z</time></trkpt>
        <trkpt lat="29.564601" lon="103.421233"><ele>807.0457</ele><time>2026-07-01T21:09:12.000Z</time></trkpt>
        <trkpt lat="29.564616" lon="103.421184"><ele>807.76025</ele><time>2026-07-01T21:09:20.000Z</time></trkpt>
        <trkpt lat="29.56465" lon="103.421142"><ele>813.405</ele><time>2026-07-01T21:09:26.000Z</time></trkpt>
        <trkpt lat="29.564667" lon="103.421093"><ele>810.7878</ele><time>2026-07-01T21:09:36.000Z</time></trkpt>
        <trkpt lat="29.564644" lon="103.42114"><ele>810.2242</ele><time>2026-07-01T21:09:40.000Z</time></trkpt>
        <trkpt lat="29.564622" lon="103.421087"><ele>813.6507</ele><time>2026-07-01T21:09:51.000Z</time></trkpt>
        <trkpt lat="29.564672" lon="103.421056"><ele>813.5133</ele><time>2026-07-01T21:09:57.000Z</time></trkpt>
        <trkpt lat="29.564731" lon="103.421066"><ele>812.586</ele><time>2026-07-01T21:10:02.000Z</time></trkpt>
        <trkpt lat="29.564758" lon="103.421114"><ele>812.97424</ele><time>2026-07-01T21:10:07.000Z</time></trkpt>
        <trkpt lat="29.564792" lon="103.421157"><ele>815.44806</ele><time>2026-07-01T21:10:15.000Z</time></trkpt>
        <trkpt lat="29.56482" lon="103.421199"><ele>816.2745</ele><time>2026-07-01T21:10:19.000Z</time></trkpt>
        <trkpt lat="29.564862" lon="103.42124"><ele>814.86804</ele><time>2026-07-01T21:10:28.000Z</time></trkpt>
        <trkpt lat="29.564892" lon="103.421281"><ele>815.56647</ele><time>2026-07-01T21:10:35.000Z</time></trkpt>
        <trkpt lat="29.56492" lon="103.421321"><ele>817.13214</ele><time>2026-07-01T21:10:40.000Z</time></trkpt>
        <trkpt lat="29.564918" lon="103.421379"><ele>818.3931</ele><time>2026-07-01T21:10:47.000Z</time></trkpt>
        <trkpt lat="29.564961" lon="103.421396"><ele>819.3028</ele><time>2026-07-01T21:10:56.000Z</time></trkpt>
        <trkpt lat="29.565003" lon="103.421423"><ele>820.0599</ele><time>2026-07-01T21:11:08.000Z</time></trkpt>
        <trkpt lat="29.565048" lon="103.421406"><ele>824.1972</ele><time>2026-07-01T21:11:20.000Z</time></trkpt>
        <trkpt lat="29.565095" lon="103.421392"><ele>824.50903</ele><time>2026-07-01T21:11:30.000Z</time></trkpt>
        <trkpt lat="29.565139" lon="103.421372"><ele>823.80615</ele><time>2026-07-01T21:11:36.000Z</time></trkpt>
        <trkpt lat="29.56518" lon="103.421342"><ele>824.3711</ele><time>2026-07-01T21:11:45.000Z</time></trkpt>
        <trkpt lat="29.565217" lon="103.421309"><ele>829.1526</ele><time>2026-07-01T21:11:59.000Z</time></trkpt>
        <trkpt lat="29.565261" lon="103.421295"><ele>828.8165</ele><time>2026-07-01T21:12:11.000Z</time></trkpt>
        <trkpt lat="29.565306" lon="103.421268"><ele>831.22845</ele><time>2026-07-01T21:12:26.000Z</time></trkpt>
        <trkpt lat="29.565344" lon="103.421239"><ele>832.6917</ele><time>2026-07-01T21:12:35.000Z</time></trkpt>
        <trkpt lat="29.565388" lon="103.421218"><ele>837.71204</ele><time>2026-07-01T21:12:57.000Z</time></trkpt>
        <trkpt lat="29.565439" lon="103.421193"><ele>836.0953</ele><time>2026-07-01T21:13:10.000Z</time></trkpt>
        <trkpt lat="29.565485" lon="103.421173"><ele>835.8221</ele><time>2026-07-01T21:13:17.000Z</time></trkpt>
        <trkpt lat="29.565529" lon="103.421153"><ele>834.5767</ele><time>2026-07-01T21:13:22.000Z</time></trkpt>
        <trkpt lat="29.565576" lon="103.421122"><ele>834.4457</ele><time>2026-07-01T21:13:27.000Z</time></trkpt>
        <trkpt lat="29.565631" lon="103.421108"><ele>834.68134</ele><time>2026-07-01T21:13:32.000Z</time></trkpt>
        <trkpt lat="29.565685" lon="103.421114"><ele>836.20306</ele><time>2026-07-01T21:13:39.000Z</time></trkpt>
        <trkpt lat="29.565724" lon="103.421087"><ele>835.47614</ele><time>2026-07-01T21:13:43.000Z</time></trkpt>
        <trkpt lat="29.565767" lon="103.421114"><ele>839.24536</ele><time>2026-07-01T21:13:50.000Z</time></trkpt>
        <trkpt lat="29.56581" lon="103.42114"><ele>839.2554</ele><time>2026-07-01T21:13:55.000Z</time></trkpt>
        <trkpt lat="29.565856" lon="103.421141"><ele>840.2208</ele><time>2026-07-01T21:14:02.000Z</time></trkpt>
        <trkpt lat="29.565914" lon="103.421159"><ele>842.3913</ele><time>2026-07-01T21:14:10.000Z</time></trkpt>
        <trkpt lat="29.565958" lon="103.421138"><ele>842.51086</ele><time>2026-07-01T21:14:16.000Z</time></trkpt>
        <trkpt lat="29.565999" lon="103.421175"><ele>842.3077</ele><time>2026-07-01T21:14:22.000Z</time></trkpt>
        <trkpt lat="29.565955" lon="103.421206"><ele>844.45953</ele><time>2026-07-01T21:14:41.000Z</time></trkpt>
        <trkpt lat="29.566016" lon="103.421211"><ele>842.38995</ele><time>2026-07-01T21:14:47.000Z</time></trkpt>
        <trkpt lat="29.566058" lon="103.421186"><ele>841.4672</ele><time>2026-07-01T21:14:52.000Z</time></trkpt>
        <trkpt lat="29.566107" lon="103.421165"><ele>841.694</ele><time>2026-07-01T21:14:55.000Z</time></trkpt>
        <trkpt lat="29.566159" lon="103.42113"><ele>840.9402</ele><time>2026-07-01T21:14:59.000Z</time></trkpt>
        <trkpt lat="29.566186" lon="103.421073"><ele>842.949</ele><time>2026-07-01T21:15:05.000Z</time></trkpt>
        <trkpt lat="29.566194" lon="103.42102"><ele>841.44543</ele><time>2026-07-01T21:15:11.000Z</time></trkpt>
        <trkpt lat="29.566243" lon="103.421002"><ele>842.08374</ele><time>2026-07-01T21:15:15.000Z</time></trkpt>
        <trkpt lat="29.566283" lon="103.420973"><ele>843.6264</ele><time>2026-07-01T21:15:21.000Z</time></trkpt>
        <trkpt lat="29.566293" lon="103.42092"><ele>845.4464</ele><time>2026-07-01T21:15:26.000Z</time></trkpt>
        <trkpt lat="29.566301" lon="103.420866"><ele>843.04724</ele><time>2026-07-01T21:15:34.000Z</time></trkpt>
        <trkpt lat="29.566313" lon="103.420807"><ele>842.6999</ele><time>2026-07-01T21:15:37.000Z</time></trkpt>
        <trkpt lat="29.566298" lon="103.420746"><ele>844.16675</ele><time>2026-07-01T21:15:41.000Z</time></trkpt>
        <trkpt lat="29.566309" lon="103.420689"><ele>847.73035</ele><time>2026-07-01T21:15:48.000Z</time></trkpt>
        <trkpt lat="29.566339" lon="103.420639"><ele>845.43005</ele><time>2026-07-01T21:15:53.000Z</time></trkpt>
        <trkpt lat="29.566374" lon="103.420591"><ele>843.2054</ele><time>2026-07-01T21:16:02.000Z</time></trkpt>
        <trkpt lat="29.566386" lon="103.420536"><ele>842.88257</ele><time>2026-07-01T21:16:09.000Z</time></trkpt>
        <trkpt lat="29.566393" lon="103.420477"><ele>842.52045</ele><time>2026-07-01T21:16:14.000Z</time></trkpt>
        <trkpt lat="29.566416" lon="103.420421"><ele>842.83795</ele><time>2026-07-01T21:16:21.000Z</time></trkpt>
        <trkpt lat="29.566439" lon="103.420368"><ele>839.899</ele><time>2026-07-01T21:16:26.000Z</time></trkpt>
        <trkpt lat="29.56645" lon="103.420305"><ele>837.46423</ele><time>2026-07-01T21:16:31.000Z</time></trkpt>
        <trkpt lat="29.566466" lon="103.420251"><ele>839.02356</ele><time>2026-07-01T21:16:36.000Z</time></trkpt>
        <trkpt lat="29.566482" lon="103.420195"><ele>839.1681</ele><time>2026-07-01T21:16:40.000Z</time></trkpt>
        <trkpt lat="29.566529" lon="103.42018"><ele>839.594</ele><time>2026-07-01T21:16:43.000Z</time></trkpt>
        <trkpt lat="29.566561" lon="103.42014"><ele>842.8049</ele><time>2026-07-01T21:16:49.000Z</time></trkpt>
        <trkpt lat="29.566567" lon="103.420085"><ele>844.8543</ele><time>2026-07-01T21:16:54.000Z</time></trkpt>
        <trkpt lat="29.566582" lon="103.420036"><ele>846.5759</ele><time>2026-07-01T21:16:57.000Z</time></trkpt>
        <trkpt lat="29.566617" lon="103.419993"><ele>848.68164</ele><time>2026-07-01T21:17:01.000Z</time></trkpt>
        <trkpt lat="29.566647" lon="103.41995"><ele>850.9414</ele><time>2026-07-01T21:17:09.000Z</time></trkpt>
        <trkpt lat="29.566642" lon="103.419895"><ele>849.78235</ele><time>2026-07-01T21:17:13.000Z</time></trkpt>
        <trkpt lat="29.566678" lon="103.419846"><ele>848.1174</ele><time>2026-07-01T21:17:22.000Z</time></trkpt>
        <trkpt lat="29.566691" lon="103.419789"><ele>846.51324</ele><time>2026-07-01T21:17:28.000Z</time></trkpt>
        <trkpt lat="29.566734" lon="103.41977"><ele>848.61346</ele><time>2026-07-01T21:17:36.000Z</time></trkpt>
        <trkpt lat="29.566742" lon="103.41971"><ele>849.49005</ele><time>2026-07-01T21:17:46.000Z</time></trkpt>
        <trkpt lat="29.566791" lon="103.419698"><ele>848.51733</ele><time>2026-07-01T21:17:59.000Z</time></trkpt>
        <trkpt lat="29.566837" lon="103.419714"><ele>853.4204</ele><time>2026-07-01T21:18:06.000Z</time></trkpt>
        <trkpt lat="29.566854" lon="103.419764"><ele>855.6075</ele><time>2026-07-01T21:18:13.000Z</time></trkpt>
        <trkpt lat="29.566874" lon="103.419811"><ele>857.8533</ele><time>2026-07-01T21:18:20.000Z</time></trkpt>
        <trkpt lat="29.566906" lon="103.419855"><ele>857.5094</ele><time>2026-07-01T21:18:27.000Z</time></trkpt>
        <trkpt lat="29.566944" lon="103.419892"><ele>859.6411</ele><time>2026-07-01T21:18:32.000Z</time></trkpt>
        <trkpt lat="29.566976" lon="103.419945"><ele>861.4409</ele><time>2026-07-01T21:18:38.000Z</time></trkpt>
        <trkpt lat="29.566983" lon="103.419998"><ele>862.1317</ele><time>2026-07-01T21:18:46.000Z</time></trkpt>
        <trkpt lat="29.567004" lon="103.420049"><ele>862.8903</ele><time>2026-07-01T21:18:53.000Z</time></trkpt>
        <trkpt lat="29.567008" lon="103.420102"><ele>863.0243</ele><time>2026-07-01T21:19:00.000Z</time></trkpt>
        <trkpt lat="29.567016" lon="103.420161"><ele>861.95734</ele><time>2026-07-01T21:19:09.000Z</time></trkpt>
        <trkpt lat="29.567004" lon="103.420213"><ele>862.30865</ele><time>2026-07-01T21:19:15.000Z</time></trkpt>
        <trkpt lat="29.566996" lon="103.420265"><ele>862.4222</ele><time>2026-07-01T21:19:21.000Z</time></trkpt>
        <trkpt lat="29.567012" lon="103.420314"><ele>863.3689</ele><time>2026-07-01T21:19:27.000Z</time></trkpt>
        <trkpt lat="29.567017" lon="103.420366"><ele>865.7307</ele><time>2026-07-01T21:19:38.000Z</time></trkpt>
        <trkpt lat="29.567052" lon="103.4204"><ele>865.45776</ele><time>2026-07-01T21:19:45.000Z</time></trkpt>
        <trkpt lat="29.567093" lon="103.420428"><ele>866.7212</ele><time>2026-07-01T21:19:56.000Z</time></trkpt>
        <trkpt lat="29.567138" lon="103.420461"><ele>867.12036</ele><time>2026-07-01T21:20:08.000Z</time></trkpt>
        <trkpt lat="29.567171" lon="103.420501"><ele>870.1128</ele><time>2026-07-01T21:20:19.000Z</time></trkpt>
        <trkpt lat="29.567219" lon="103.420491"><ele>870.2161</ele><time>2026-07-01T21:20:32.000Z</time></trkpt>
        <trkpt lat="29.567295" lon="103.420512"><ele>867.7855</ele><time>2026-07-01T21:20:44.000Z</time></trkpt>
        <trkpt lat="29.567335" lon="103.420488"><ele>875.3551</ele><time>2026-07-01T21:21:09.000Z</time></trkpt>
        <trkpt lat="29.567383" lon="103.420483"><ele>874.91736</ele><time>2026-07-01T21:21:16.000Z</time></trkpt>
        <trkpt lat="29.567409" lon="103.420435"><ele>879.46515</ele><time>2026-07-01T21:21:33.000Z</time></trkpt>
        <trkpt lat="29.567453" lon="103.420423"><ele>880.6428</ele><time>2026-07-01T21:21:40.000Z</time></trkpt>
        <trkpt lat="29.567497" lon="103.420396"><ele>882.5238</ele><time>2026-07-01T21:21:50.000Z</time></trkpt>
        <trkpt lat="29.56756" lon="103.420369"><ele>885.8849</ele><time>2026-07-01T21:22:14.000Z</time></trkpt>
        <trkpt lat="29.567608" lon="103.42037"><ele>888.72974</ele><time>2026-07-01T21:22:22.000Z</time></trkpt>
        <trkpt lat="29.567645" lon="103.420341"><ele>891.1113</ele><time>2026-07-01T21:22:28.000Z</time></trkpt>
        <trkpt lat="29.567678" lon="103.420301"><ele>891.3875</ele><time>2026-07-01T21:22:40.000Z</time></trkpt>
        <trkpt lat="29.567723" lon="103.420289"><ele>891.25653</ele><time>2026-07-01T21:22:55.000Z</time></trkpt>
        <trkpt lat="29.567764" lon="103.420263"><ele>891.5881</ele><time>2026-07-01T21:23:07.000Z</time></trkpt>
        <trkpt lat="29.56783" lon="103.420227"><ele>895.4974</ele><time>2026-07-01T21:23:18.000Z</time></trkpt>
        <trkpt lat="29.567876" lon="103.420204"><ele>894.6119</ele><time>2026-07-01T21:23:29.000Z</time></trkpt>
        <trkpt lat="29.56791" lon="103.420163"><ele>897.2986</ele><time>2026-07-01T21:23:39.000Z</time></trkpt>
        <trkpt lat="29.567962" lon="103.420188"><ele>897.74384</ele><time>2026-07-01T21:23:50.000Z</time></trkpt>
        <trkpt lat="29.567975" lon="103.420138"><ele>898.8824</ele><time>2026-07-01T21:23:58.000Z</time></trkpt>
        <trkpt lat="29.568033" lon="103.420138"><ele>901.536</ele><time>2026-07-01T21:24:13.000Z</time></trkpt>
        <trkpt lat="29.568078" lon="103.42015"><ele>905.84314</ele><time>2026-07-01T21:24:25.000Z</time></trkpt>
        <trkpt lat="29.568123" lon="103.420138"><ele>903.96674</ele><time>2026-07-01T21:24:41.000Z</time></trkpt>
        <trkpt lat="29.568174" lon="103.420135"><ele>905.1323</ele><time>2026-07-01T21:24:52.000Z</time></trkpt>
        <trkpt lat="29.568218" lon="103.420117"><ele>906.53894</ele><time>2026-07-01T21:25:00.000Z</time></trkpt>
        <trkpt lat="29.568263" lon="103.420103"><ele>908.8564</ele><time>2026-07-01T21:25:10.000Z</time></trkpt>
        <trkpt lat="29.568309" lon="103.420097"><ele>910.2934</ele><time>2026-07-01T21:25:22.000Z</time></trkpt>
        <trkpt lat="29.568355" lon="103.420099"><ele>911.2573</ele><time>2026-07-01T21:25:40.000Z</time></trkpt>
        <trkpt lat="29.568404" lon="103.420101"><ele>913.48224</ele><time>2026-07-01T21:25:51.000Z</time></trkpt>
        <trkpt lat="29.568444" lon="103.420072"><ele>918.3467</ele><time>2026-07-01T21:26:03.000Z</time></trkpt>
        <trkpt lat="29.568489" lon="103.420077"><ele>920.37915</ele><time>2026-07-01T21:26:22.000Z</time></trkpt>
        <trkpt lat="29.568537" lon="103.420081"><ele>920.0568</ele><time>2026-07-01T21:26:38.000Z</time></trkpt>
        <trkpt lat="29.568584" lon="103.420083"><ele>922.24225</ele><time>2026-07-01T21:26:57.000Z</time></trkpt>
        <trkpt lat="29.56863" lon="103.420081"><ele>920.7479</ele><time>2026-07-01T21:27:04.000Z</time></trkpt>
        <trkpt lat="29.568673" lon="103.420054"><ele>920.56976</ele><time>2026-07-01T21:27:13.000Z</time></trkpt>
        <trkpt lat="29.568725" lon="103.420057"><ele>923.4081</ele><time>2026-07-01T21:27:22.000Z</time></trkpt>
        <trkpt lat="29.568767" lon="103.420029"><ele>922.14087</ele><time>2026-07-01T21:27:31.000Z</time></trkpt>
        <trkpt lat="29.568807" lon="103.419991"><ele>921.90906</ele><time>2026-07-01T21:27:38.000Z</time></trkpt>
        <trkpt lat="29.568854" lon="103.419976"><ele>924.58673</ele><time>2026-07-01T21:27:48.000Z</time></trkpt>
        <trkpt lat="29.568901" lon="103.419958"><ele>924.75635</ele><time>2026-07-01T21:27:57.000Z</time></trkpt>
        <trkpt lat="29.568944" lon="103.419932"><ele>926.36426</ele><time>2026-07-01T21:28:01.000Z</time></trkpt>
        <trkpt lat="29.568986" lon="103.419907"><ele>927.3984</ele><time>2026-07-01T21:28:06.000Z</time></trkpt>
        <trkpt lat="29.569029" lon="103.419886"><ele>929.03</ele><time>2026-07-01T21:28:10.000Z</time></trkpt>
        <trkpt lat="29.569086" lon="103.419889"><ele>930.4396</ele><time>2026-07-01T21:28:16.000Z</time></trkpt>
        <trkpt lat="29.569136" lon="103.419861"><ele>931.57635</ele><time>2026-07-01T21:28:21.000Z</time></trkpt>
        <trkpt lat="29.56918" lon="103.419848"><ele>932.1344</ele><time>2026-07-01T21:28:26.000Z</time></trkpt>
        <trkpt lat="29.569225" lon="103.419846"><ele>931.91583</ele><time>2026-07-01T21:28:32.000Z</time></trkpt>
        <trkpt lat="29.569258" lon="103.419799"><ele>929.22894</ele><time>2026-07-01T21:28:38.000Z</time></trkpt>
        <trkpt lat="29.5693" lon="103.419765"><ele>929.63324</ele><time>2026-07-01T21:28:47.000Z</time></trkpt>
        <trkpt lat="29.569346" lon="103.41975"><ele>930.66327</ele><time>2026-07-01T21:28:57.000Z</time></trkpt>
        <trkpt lat="29.569395" lon="103.419721"><ele>929.19495</ele><time>2026-07-01T21:29:06.000Z</time></trkpt>
        <trkpt lat="29.569433" lon="103.419688"><ele>929.5535</ele><time>2026-07-01T21:29:10.000Z</time></trkpt>
        <trkpt lat="29.569475" lon="103.419653"><ele>928.3339</ele><time>2026-07-01T21:29:14.000Z</time></trkpt>
        <trkpt lat="29.569508" lon="103.419615"><ele>927.34644</ele><time>2026-07-01T21:29:21.000Z</time></trkpt>
        <trkpt lat="29.569543" lon="103.419571"><ele>927.4755</ele><time>2026-07-01T21:29:28.000Z</time></trkpt>
        <trkpt lat="29.569582" lon="103.419537"><ele>928.029</ele><time>2026-07-01T21:29:31.000Z</time></trkpt>
        <trkpt lat="29.569663" lon="103.41945"><ele>929.1988</ele><time>2026-07-01T21:34:40.000Z</time></trkpt>
        <trkpt lat="29.569712" lon="103.419498"><ele>928.4601</ele><time>2026-07-01T21:34:47.000Z</time></trkpt>
        <trkpt lat="29.569749" lon="103.419527"><ele>929.31757</ele><time>2026-07-01T21:34:56.000Z</time></trkpt>
        <trkpt lat="29.569696" lon="103.419525"><ele>931.9773</ele><time>2026-07-01T21:35:05.000Z</time></trkpt>
        <trkpt lat="29.569586" lon="103.419651"><ele>910.1648</ele><time>2026-07-01T21:36:40.000Z</time></trkpt>
        <trkpt lat="29.569756" lon="103.419866"><ele>910.1648</ele><time>2026-07-01T21:37:12.000Z</time></trkpt>
        <trkpt lat="29.569725" lon="103.419338"><ele>939.6274</ele><time>2026-07-01T21:37:28.000Z</time></trkpt>
        <trkpt lat="29.569749" lon="103.41928"><ele>932.76013</ele><time>2026-07-01T21:37:38.000Z</time></trkpt>
        <trkpt lat="29.569787" lon="103.419246"><ele>929.0301</ele><time>2026-07-01T21:37:46.000Z</time></trkpt>
        <trkpt lat="29.569781" lon="103.419178"><ele>928.0179</ele><time>2026-07-01T21:37:52.000Z</time></trkpt>
        <trkpt lat="29.569774" lon="103.419127"><ele>927.7402</ele><time>2026-07-01T21:37:56.000Z</time></trkpt>
        <trkpt lat="29.56978" lon="103.41906"><ele>926.55304</ele><time>2026-07-01T21:38:01.000Z</time></trkpt>
        <trkpt lat="29.569787" lon="103.419008"><ele>927.1877</ele><time>2026-07-01T21:38:05.000Z</time></trkpt>
        <trkpt lat="29.569796" lon="103.418955"><ele>928.70215</ele><time>2026-07-01T21:38:10.000Z</time></trkpt>
        <trkpt lat="29.569794" lon="103.418895"><ele>929.9154</ele><time>2026-07-01T21:38:15.000Z</time></trkpt>
        <trkpt lat="29.569803" lon="103.41884"><ele>930.23175</ele><time>2026-07-01T21:38:18.000Z</time></trkpt>
        <trkpt lat="29.569799" lon="103.418774"><ele>930.0353</ele><time>2026-07-01T21:38:23.000Z</time></trkpt>
        <trkpt lat="29.569803" lon="103.41871"><ele>930.0487</ele><time>2026-07-01T21:38:28.000Z</time></trkpt>
        <trkpt lat="29.56982" lon="103.418657"><ele>929.3288</ele><time>2026-07-01T21:38:32.000Z</time></trkpt>
        <trkpt lat="29.569839" lon="103.418598"><ele>926.86804</ele><time>2026-07-01T21:38:38.000Z</time></trkpt>
        <trkpt lat="29.569839" lon="103.418537"><ele>924.90704</ele><time>2026-07-01T21:38:44.000Z</time></trkpt>
        <trkpt lat="29.569868" lon="103.418494"><ele>924.3418</ele><time>2026-07-01T21:38:48.000Z</time></trkpt>
        <trkpt lat="29.569883" lon="103.418443"><ele>924.6197</ele><time>2026-07-01T21:38:52.000Z</time></trkpt>
        <trkpt lat="29.569869" lon="103.418391"><ele>924.9787</ele><time>2026-07-01T21:38:55.000Z</time></trkpt>
        <trkpt lat="29.569887" lon="103.418341"><ele>925.8882</ele><time>2026-07-01T21:38:59.000Z</time></trkpt>
        <trkpt lat="29.569895" lon="103.418279"><ele>925.2095</ele><time>2026-07-01T21:39:03.000Z</time></trkpt>
        <trkpt lat="29.569894" lon="103.418209"><ele>925.09576</ele><time>2026-07-01T21:39:06.000Z</time></trkpt>
        <trkpt lat="29.569926" lon="103.418164"><ele>924.9026</ele><time>2026-07-01T21:39:10.000Z</time></trkpt>
        <trkpt lat="29.569946" lon="103.418118"><ele>924.9605</ele><time>2026-07-01T21:39:14.000Z</time></trkpt>
        <trkpt lat="29.569978" lon="103.418079"><ele>924.25854</ele><time>2026-07-01T21:39:20.000Z</time></trkpt>
        <trkpt lat="29.570009" lon="103.418035"><ele>923.4042</ele><time>2026-07-01T21:39:24.000Z</time></trkpt>
        <trkpt lat="29.57001" lon="103.417977"><ele>922.7382</ele><time>2026-07-01T21:39:28.000Z</time></trkpt>
        <trkpt lat="29.570021" lon="103.417923"><ele>921.2537</ele><time>2026-07-01T21:39:32.000Z</time></trkpt>
        <trkpt lat="29.570048" lon="103.417876"><ele>920.87494</ele><time>2026-07-01T21:39:37.000Z</time></trkpt>
        <trkpt lat="29.570075" lon="103.417824"><ele>920.39777</ele><time>2026-07-01T21:39:40.000Z</time></trkpt>
        <trkpt lat="29.570059" lon="103.417757"><ele>918.471</ele><time>2026-07-01T21:39:47.000Z</time></trkpt>
        <trkpt lat="29.570071" lon="103.417694"><ele>918.89685</ele><time>2026-07-01T21:39:51.000Z</time></trkpt>
        <trkpt lat="29.57007" lon="103.417641"><ele>918.17236</ele><time>2026-07-01T21:39:57.000Z</time></trkpt>
        <trkpt lat="29.570078" lon="103.417578"><ele>919.04254</ele><time>2026-07-01T21:40:01.000Z</time></trkpt>
        <trkpt lat="29.570059" lon="103.417524"><ele>919.8812</ele><time>2026-07-01T21:40:04.000Z</time></trkpt>
        <trkpt lat="29.570088" lon="103.417466"><ele>919.14136</ele><time>2026-07-01T21:40:08.000Z</time></trkpt>
        <trkpt lat="29.570094" lon="103.417398"><ele>919.1839</ele><time>2026-07-01T21:40:11.000Z</time></trkpt>
        <trkpt lat="29.57009" lon="103.41734"><ele>920.2388</ele><time>2026-07-01T21:40:15.000Z</time></trkpt>
        <trkpt lat="29.570099" lon="103.417288"><ele>917.95685</ele><time>2026-07-01T21:40:19.000Z</time></trkpt>
        <trkpt lat="29.570122" lon="103.417228"><ele>917.56104</ele><time>2026-07-01T21:40:23.000Z</time></trkpt>
        <trkpt lat="29.570125" lon="103.417169"><ele>915.5776</ele><time>2026-07-01T21:40:27.000Z</time></trkpt>
        <trkpt lat="29.570156" lon="103.417103"><ele>916.69385</ele><time>2026-07-01T21:40:33.000Z</time></trkpt>
        <trkpt lat="29.570196" lon="103.417076"><ele>914.24347</ele><time>2026-07-01T21:40:39.000Z</time></trkpt>
        <trkpt lat="29.570257" lon="103.41709"><ele>915.01117</ele><time>2026-07-01T21:40:42.000Z</time></trkpt>
        <trkpt lat="29.570311" lon="103.417119"><ele>915.1763</ele><time>2026-07-01T21:40:46.000Z</time></trkpt>
        <trkpt lat="29.570362" lon="103.417103"><ele>914.0488</ele><time>2026-07-01T21:40:51.000Z</time></trkpt>
        <trkpt lat="29.5704" lon="103.41705"><ele>913.2047</ele><time>2026-07-01T21:40:54.000Z</time></trkpt>
        <trkpt lat="29.570406" lon="103.416996"><ele>912.1049</ele><time>2026-07-01T21:40:58.000Z</time></trkpt>
        <trkpt lat="29.570392" lon="103.41694"><ele>911.01807</ele><time>2026-07-01T21:41:03.000Z</time></trkpt>
        <trkpt lat="29.570393" lon="103.416886"><ele>912.0747</ele><time>2026-07-01T21:41:07.000Z</time></trkpt>
        <trkpt lat="29.570376" lon="103.416838"><ele>912.2587</ele><time>2026-07-01T21:41:10.000Z</time></trkpt>
        <trkpt lat="29.570381" lon="103.416784"><ele>912.5468</ele><time>2026-07-01T21:41:14.000Z</time></trkpt>
        <trkpt lat="29.570373" lon="103.416717"><ele>913.9771</ele><time>2026-07-01T21:41:20.000Z</time></trkpt>
        <trkpt lat="29.570418" lon="103.416681"><ele>916.1156</ele><time>2026-07-01T21:41:25.000Z</time></trkpt>
        <trkpt lat="29.570415" lon="103.416626"><ele>915.34644</ele><time>2026-07-01T21:41:29.000Z</time></trkpt>
        <trkpt lat="29.57043" lon="103.41656"><ele>915.3925</ele><time>2026-07-01T21:41:32.000Z</time></trkpt>
        <trkpt lat="29.570445" lon="103.41649"><ele>915.82416</ele><time>2026-07-01T21:41:35.000Z</time></trkpt>
        <trkpt lat="29.570429" lon="103.416441"><ele>915.66656</ele><time>2026-07-01T21:41:39.000Z</time></trkpt>
        <trkpt lat="29.570413" lon="103.416387"><ele>915.7947</ele><time>2026-07-01T21:41:45.000Z</time></trkpt>
        <trkpt lat="29.570452" lon="103.416346"><ele>916.2112</ele><time>2026-07-01T21:41:49.000Z</time></trkpt>
        <trkpt lat="29.570498" lon="103.41631"><ele>916.5913</ele><time>2026-07-01T21:41:53.000Z</time></trkpt>
        <trkpt lat="29.570511" lon="103.416259"><ele>915.6584</ele><time>2026-07-01T21:41:55.000Z</time></trkpt>
        <trkpt lat="29.570555" lon="103.41623"><ele>911.9614</ele><time>2026-07-01T21:42:03.000Z</time></trkpt>
        <trkpt lat="29.570591" lon="103.416186"><ele>913.47644</ele><time>2026-07-01T21:42:10.000Z</time></trkpt>
        <trkpt lat="29.57064" lon="103.416174"><ele>915.14996</ele><time>2026-07-01T21:42:15.000Z</time></trkpt>
        <trkpt lat="29.570671" lon="103.416132"><ele>916.3512</ele><time>2026-07-01T21:42:23.000Z</time></trkpt>
        <trkpt lat="29.570711" lon="103.416107"><ele>919.8055</ele><time>2026-07-01T21:42:35.000Z</time></trkpt>
        <trkpt lat="29.570744" lon="103.416072"><ele>918.78424</ele><time>2026-07-01T21:42:45.000Z</time></trkpt>
        <trkpt lat="29.570713" lon="103.416018"><ele>919.81964</ele><time>2026-07-01T21:43:07.000Z</time></trkpt>
        <trkpt lat="29.57068" lon="103.415977"><ele>921.2639</ele><time>2026-07-01T21:43:12.000Z</time></trkpt>
        <trkpt lat="29.570662" lon="103.415911"><ele>922.6627</ele><time>2026-07-01T21:43:21.000Z</time></trkpt>
        <trkpt lat="29.570615" lon="103.415879"><ele>921.93756</ele><time>2026-07-01T21:43:25.000Z</time></trkpt>
        <trkpt lat="29.57057" lon="103.415856"><ele>921.6934</ele><time>2026-07-01T21:43:29.000Z</time></trkpt>
        <trkpt lat="29.570518" lon="103.415839"><ele>921.0088</ele><time>2026-07-01T21:43:33.000Z</time></trkpt>
        <trkpt lat="29.570474" lon="103.415806"><ele>920.0096</ele><time>2026-07-01T21:43:38.000Z</time></trkpt>
        <trkpt lat="29.570448" lon="103.415759"><ele>919.5146</ele><time>2026-07-01T21:43:42.000Z</time></trkpt>
        <trkpt lat="29.570423" lon="103.415711"><ele>919.108</ele><time>2026-07-01T21:43:46.000Z</time></trkpt>
        <trkpt lat="29.570391" lon="103.415659"><ele>918.6537</ele><time>2026-07-01T21:43:52.000Z</time></trkpt>
        <trkpt lat="29.570361" lon="103.415619"><ele>918.1077</ele><time>2026-07-01T21:43:56.000Z</time></trkpt>
        <trkpt lat="29.570324" lon="103.415583"><ele>918.866</ele><time>2026-07-01T21:43:59.000Z</time></trkpt>
        <trkpt lat="29.570287" lon="103.41555"><ele>919.65936</ele><time>2026-07-01T21:44:02.000Z</time></trkpt>
        <trkpt lat="29.570232" lon="103.415548"><ele>922.66754</ele><time>2026-07-01T21:44:13.000Z</time></trkpt>
        <trkpt lat="29.570178" lon="103.415531"><ele>925.2448</ele><time>2026-07-01T21:44:22.000Z</time></trkpt>
        <trkpt lat="29.570132" lon="103.415559"><ele>926.59015</ele><time>2026-07-01T21:44:33.000Z</time></trkpt>
        <trkpt lat="29.570093" lon="103.415527"><ele>926.72125</ele><time>2026-07-01T21:44:40.000Z</time></trkpt>
        <trkpt lat="29.570049" lon="103.415508"><ele>925.46094</ele><time>2026-07-01T21:44:50.000Z</time></trkpt>
        <trkpt lat="29.570007" lon="103.415483"><ele>928.38983</ele><time>2026-07-01T21:44:56.000Z</time></trkpt>
        <trkpt lat="29.569977" lon="103.415445"><ele>929.2411</ele><time>2026-07-01T21:45:02.000Z</time></trkpt>
        <trkpt lat="29.569954" lon="103.415398"><ele>928.7725</ele><time>2026-07-01T21:45:07.000Z</time></trkpt>
        <trkpt lat="29.569932" lon="103.415349"><ele>930.23535</ele><time>2026-07-01T21:45:12.000Z</time></trkpt>
        <trkpt lat="29.569928" lon="103.415294"><ele>930.7315</ele><time>2026-07-01T21:45:18.000Z</time></trkpt>
        <trkpt lat="29.569919" lon="103.41523"><ele>929.52246</ele><time>2026-07-01T21:45:26.000Z</time></trkpt>
        <trkpt lat="29.569899" lon="103.415153"><ele>928.0198</ele><time>2026-07-01T21:45:32.000Z</time></trkpt>
        <trkpt lat="29.569896" lon="103.415084"><ele>925.05756</ele><time>2026-07-01T21:45:37.000Z</time></trkpt>
        <trkpt lat="29.569884" lon="103.415023"><ele>925.6316</ele><time>2026-07-01T21:45:43.000Z</time></trkpt>
        <trkpt lat="29.569865" lon="103.414965"><ele>924.7607</ele><time>2026-07-01T21:45:47.000Z</time></trkpt>
        <trkpt lat="29.569849" lon="103.414907"><ele>925.1027</ele><time>2026-07-01T21:45:52.000Z</time></trkpt>
        <trkpt lat="29.569821" lon="103.414864"><ele>924.7681</ele><time>2026-07-01T21:45:55.000Z</time></trkpt>
        <trkpt lat="29.569782" lon="103.414831"><ele>926.119</ele><time>2026-07-01T21:46:00.000Z</time></trkpt>
        <trkpt lat="29.569748" lon="103.414791"><ele>926.2981</ele><time>2026-07-01T21:46:04.000Z</time></trkpt>
        <trkpt lat="29.569705" lon="103.414764"><ele>924.54755</ele><time>2026-07-01T21:46:10.000Z</time></trkpt>
        <trkpt lat="29.569671" lon="103.414721"><ele>922.9244</ele><time>2026-07-01T21:46:17.000Z</time></trkpt>
        <trkpt lat="29.56962" lon="103.414717"><ele>923.3604</ele><time>2026-07-01T21:46:23.000Z</time></trkpt>
        <trkpt lat="29.569574" lon="103.414725"><ele>923.5345</ele><time>2026-07-01T21:46:29.000Z</time></trkpt>
        <trkpt lat="29.569528" lon="103.414734"><ele>923.21405</ele><time>2026-07-01T21:46:37.000Z</time></trkpt>
        <trkpt lat="29.569488" lon="103.414773"><ele>923.1566</ele><time>2026-07-01T21:46:42.000Z</time></trkpt>
        <trkpt lat="29.569447" lon="103.414798"><ele>922.03467</ele><time>2026-07-01T21:46:50.000Z</time></trkpt>
        <trkpt lat="29.569399" lon="103.414809"><ele>923.2535</ele><time>2026-07-01T21:46:56.000Z</time></trkpt>
        <trkpt lat="29.56935" lon="103.414819"><ele>921.5785</ele><time>2026-07-01T21:47:03.000Z</time></trkpt>
        <trkpt lat="29.569299" lon="103.414823"><ele>921.1669</ele><time>2026-07-01T21:47:09.000Z</time></trkpt>
        <trkpt lat="29.569268" lon="103.414767"><ele>922.3852</ele><time>2026-07-01T21:47:17.000Z</time></trkpt>
        <trkpt lat="29.569247" lon="103.414703"><ele>921.72797</ele><time>2026-07-01T21:47:23.000Z</time></trkpt>
        <trkpt lat="29.569215" lon="103.414649"><ele>924.88153</ele><time>2026-07-01T21:47:27.000Z</time></trkpt>
        <trkpt lat="29.569188" lon="103.414605"><ele>925.0574</ele><time>2026-07-01T21:47:31.000Z</time></trkpt>
        <trkpt lat="29.569147" lon="103.414564"><ele>924.5297</ele><time>2026-07-01T21:47:36.000Z</time></trkpt>
        <trkpt lat="29.569115" lon="103.414525"><ele>926.93115</ele><time>2026-07-01T21:47:40.000Z</time></trkpt>
        <trkpt lat="29.569087" lon="103.414479"><ele>926.5381</ele><time>2026-07-01T21:47:46.000Z</time></trkpt>
        <trkpt lat="29.569075" lon="103.414421"><ele>927.37885</ele><time>2026-07-01T21:47:52.000Z</time></trkpt>
        <trkpt lat="29.56912" lon="103.414382"><ele>925.70764</ele><time>2026-07-01T21:47:56.000Z</time></trkpt>
        <trkpt lat="29.569136" lon="103.414332"><ele>925.59375</ele><time>2026-07-01T21:48:00.000Z</time></trkpt>
        <trkpt lat="29.569134" lon="103.414259"><ele>923.8779</ele><time>2026-07-01T21:48:06.000Z</time></trkpt>
        <trkpt lat="29.569115" lon="103.414211"><ele>924.33813</ele><time>2026-07-01T21:48:11.000Z</time></trkpt>
        <trkpt lat="29.569112" lon="103.414152"><ele>924.5878</ele><time>2026-07-01T21:48:16.000Z</time></trkpt>
        <trkpt lat="29.569103" lon="103.414099"><ele>925.07104</ele><time>2026-07-01T21:48:21.000Z</time></trkpt>
        <trkpt lat="29.569105" lon="103.414047"><ele>924.5164</ele><time>2026-07-01T21:48:25.000Z</time></trkpt>
        <trkpt lat="29.569127" lon="103.413996"><ele>923.635</ele><time>2026-07-01T21:48:29.000Z</time></trkpt>
        <trkpt lat="29.569152" lon="103.413952"><ele>922.923</ele><time>2026-07-01T21:48:34.000Z</time></trkpt>
        <trkpt lat="29.569161" lon="103.4139"><ele>923.6139</ele><time>2026-07-01T21:48:38.000Z</time></trkpt>
        <trkpt lat="29.569171" lon="103.41385"><ele>922.91876</ele><time>2026-07-01T21:48:42.000Z</time></trkpt>
        <trkpt lat="29.569151" lon="103.4138"><ele>921.7361</ele><time>2026-07-01T21:48:48.000Z</time></trkpt>
        <trkpt lat="29.569114" lon="103.413748"><ele>919.66187</ele><time>2026-07-01T21:48:56.000Z</time></trkpt>
        <trkpt lat="29.569099" lon="103.413693"><ele>919.0505</ele><time>2026-07-01T21:49:02.000Z</time></trkpt>
        <trkpt lat="29.569081" lon="103.413644"><ele>918.51764</ele><time>2026-07-01T21:49:05.000Z</time></trkpt>
        <trkpt lat="29.569054" lon="103.413597"><ele>919.20074</ele><time>2026-07-01T21:49:10.000Z</time></trkpt>
        <trkpt lat="29.569026" lon="103.413547"><ele>920.3283</ele><time>2026-07-01T21:49:14.000Z</time></trkpt>
        <trkpt lat="29.569025" lon="103.413488"><ele>919.13763</ele><time>2026-07-01T21:49:24.000Z</time></trkpt>
        <trkpt lat="29.56902" lon="103.41343"><ele>918.1489</ele><time>2026-07-01T21:49:30.000Z</time></trkpt>
        <trkpt lat="29.56901" lon="103.413378"><ele>915.4024</ele><time>2026-07-01T21:49:35.000Z</time></trkpt>
        <trkpt lat="29.569015" lon="103.413315"><ele>916.4022</ele><time>2026-07-01T21:49:40.000Z</time></trkpt>
        <trkpt lat="29.569026" lon="103.413258"><ele>918.46344</ele><time>2026-07-01T21:49:47.000Z</time></trkpt>
        <trkpt lat="29.569047" lon="103.41321"><ele>920.64966</ele><time>2026-07-01T21:49:53.000Z</time></trkpt>
        <trkpt lat="29.569066" lon="103.413148"><ele>919.6407</ele><time>2026-07-01T21:50:00.000Z</time></trkpt>
        <trkpt lat="29.569085" lon="103.413095"><ele>919.90717</ele><time>2026-07-01T21:50:05.000Z</time></trkpt>
        <trkpt lat="29.569114" lon="103.413054"><ele>918.85803</ele><time>2026-07-01T21:50:09.000Z</time></trkpt>
        <trkpt lat="29.569156" lon="103.413023"><ele>919.4389</ele><time>2026-07-01T21:50:15.000Z</time></trkpt>
        <trkpt lat="29.569155" lon="103.412947"><ele>917.9495</ele><time>2026-07-01T21:50:21.000Z</time></trkpt>
        <trkpt lat="29.569181" lon="103.412904"><ele>916.4247</ele><time>2026-07-01T21:50:28.000Z</time></trkpt>
        <trkpt lat="29.569199" lon="103.412853"><ele>915.25464</ele><time>2026-07-01T21:50:32.000Z</time></trkpt>
        <trkpt lat="29.569243" lon="103.412828"><ele>915.44244</ele><time>2026-07-01T21:50:37.000Z</time></trkpt>
        <trkpt lat="29.569286" lon="103.412794"><ele>914.8294</ele><time>2026-07-01T21:50:41.000Z</time></trkpt>
        <trkpt lat="29.56932" lon="103.412758"><ele>915.1216</ele><time>2026-07-01T21:50:48.000Z</time></trkpt>
        <trkpt lat="29.569365" lon="103.412743"><ele>913.57886</ele><time>2026-07-01T21:50:52.000Z</time></trkpt>
        <trkpt lat="29.569408" lon="103.412708"><ele>911.4516</ele><time>2026-07-01T21:50:58.000Z</time></trkpt>
        <trkpt lat="29.569403" lon="103.412652"><ele>912.4482</ele><time>2026-07-01T21:51:04.000Z</time></trkpt>
        <trkpt lat="29.569375" lon="103.412608"><ele>912.3047</ele><time>2026-07-01T21:51:09.000Z</time></trkpt>
        <trkpt lat="29.569356" lon="103.412554"><ele>911.6952</ele><time>2026-07-01T21:51:15.000Z</time></trkpt>
        <trkpt lat="29.569346" lon="103.412498"><ele>914.2221</ele><time>2026-07-01T21:51:19.000Z</time></trkpt>
        <trkpt lat="29.56937" lon="103.412454"><ele>917.386</ele><time>2026-07-01T21:51:23.000Z</time></trkpt>
        <trkpt lat="29.569407" lon="103.412413"><ele>916.8102</ele><time>2026-07-01T21:51:36.000Z</time></trkpt>
        <trkpt lat="29.569381" lon="103.412365"><ele>914.6315</ele><time>2026-07-01T21:51:42.000Z</time></trkpt>
        <trkpt lat="29.569342" lon="103.412335"><ele>913.489</ele><time>2026-07-01T21:51:50.000Z</time></trkpt>
        <trkpt lat="29.56935" lon="103.412271"><ele>909.76843</ele><time>2026-07-01T21:51:59.000Z</time></trkpt>
        <trkpt lat="29.569372" lon="103.412225"><ele>904.07495</ele><time>2026-07-01T21:52:13.000Z</time></trkpt>
        <trkpt lat="29.569324" lon="103.412201"><ele>902.7163</ele><time>2026-07-01T21:52:29.000Z</time></trkpt>
        <trkpt lat="29.569283" lon="103.412175"><ele>903.9846</ele><time>2026-07-01T21:52:38.000Z</time></trkpt>
        <trkpt lat="29.569236" lon="103.412163"><ele>904.6807</ele><time>2026-07-01T21:52:43.000Z</time></trkpt>
        <trkpt lat="29.569183" lon="103.412156"><ele>903.9596</ele><time>2026-07-01T21:52:54.000Z</time></trkpt>
        <trkpt lat="29.569143" lon="103.41213"><ele>904.3064</ele><time>2026-07-01T21:52:59.000Z</time></trkpt>
        <trkpt lat="29.569094" lon="103.412117"><ele>902.4052</ele><time>2026-07-01T21:53:05.000Z</time></trkpt>
        <trkpt lat="29.569061" lon="103.412079"><ele>900.8353</ele><time>2026-07-01T21:53:10.000Z</time></trkpt>
        <trkpt lat="29.569015" lon="103.412068"><ele>896.3184</ele><time>2026-07-01T21:53:18.000Z</time></trkpt>
        <trkpt lat="29.568968" lon="103.412053"><ele>896.7201</ele><time>2026-07-01T21:53:24.000Z</time></trkpt>
        <trkpt lat="29.568944" lon="103.411991"><ele>897.78076</ele><time>2026-07-01T21:53:30.000Z</time></trkpt>
        <trkpt lat="29.568917" lon="103.411943"><ele>898.6163</ele><time>2026-07-01T21:53:35.000Z</time></trkpt>
        <trkpt lat="29.568896" lon="103.411884"><ele>898.2318</ele><time>2026-07-01T21:53:42.000Z</time></trkpt>
        <trkpt lat="29.568853" lon="103.411859"><ele>894.836</ele><time>2026-07-01T21:53:50.000Z</time></trkpt>
        <trkpt lat="29.568804" lon="103.411849"><ele>893.4058</ele><time>2026-07-01T21:53:54.000Z</time></trkpt>
        <trkpt lat="29.568758" lon="103.411835"><ele>894.9365</ele><time>2026-07-01T21:54:04.000Z</time></trkpt>
        <trkpt lat="29.56872" lon="103.411864"><ele>894.36316</ele><time>2026-07-01T21:54:14.000Z</time></trkpt>
        <trkpt lat="29.568691" lon="103.411818"><ele>892.83386</ele><time>2026-07-01T21:54:31.000Z</time></trkpt>
        <trkpt lat="29.568636" lon="103.411797"><ele>889.06396</ele><time>2026-07-01T21:54:50.000Z</time></trkpt>
        <trkpt lat="29.568585" lon="103.411768"><ele>889.5739</ele><time>2026-07-01T21:54:53.000Z</time></trkpt>
        <trkpt lat="29.568539" lon="103.411749"><ele>891.4611</ele><time>2026-07-01T21:55:00.000Z</time></trkpt>
        <trkpt lat="29.568504" lon="103.411712"><ele>894.4449</ele><time>2026-07-01T21:55:04.000Z</time></trkpt>
        <trkpt lat="29.568475" lon="103.411671"><ele>893.4987</ele><time>2026-07-01T21:55:11.000Z</time></trkpt>
        <trkpt lat="29.56847" lon="103.411618"><ele>890.9166</ele><time>2026-07-01T21:55:14.000Z</time></trkpt>
        <trkpt lat="29.568429" lon="103.411584"><ele>882.36066</ele><time>2026-07-01T21:55:24.000Z</time></trkpt>
        <trkpt lat="29.568385" lon="103.411551"><ele>880.1149</ele><time>2026-07-01T21:55:29.000Z</time></trkpt>
        <trkpt lat="29.568359" lon="103.411508"><ele>878.7563</ele><time>2026-07-01T21:55:36.000Z</time></trkpt>
        <trkpt lat="29.568364" lon="103.411438"><ele>879.4985</ele><time>2026-07-01T21:55:41.000Z</time></trkpt>
        <trkpt lat="29.568343" lon="103.411384"><ele>878.13556</ele><time>2026-07-01T21:55:47.000Z</time></trkpt>
        <trkpt lat="29.568352" lon="103.411331"><ele>877.7173</ele><time>2026-07-01T21:55:51.000Z</time></trkpt>
        <trkpt lat="29.568381" lon="103.411279"><ele>879.2268</ele><time>2026-07-01T21:55:55.000Z</time></trkpt>
        <trkpt lat="29.568405" lon="103.411232"><ele>879.0239</ele><time>2026-07-01T21:55:58.000Z</time></trkpt>
        <trkpt lat="29.568441" lon="103.411186"><ele>879.3382</ele><time>2026-07-01T21:56:01.000Z</time></trkpt>
        <trkpt lat="29.568475" lon="103.411149"><ele>880.3449</ele><time>2026-07-01T21:56:04.000Z</time></trkpt>
        <trkpt lat="29.568493" lon="103.411099"><ele>880.108</ele><time>2026-07-01T21:56:08.000Z</time></trkpt>
        <trkpt lat="29.568501" lon="103.411045"><ele>879.728</ele><time>2026-07-01T21:56:13.000Z</time></trkpt>
        <trkpt lat="29.568522" lon="103.410994"><ele>878.18134</ele><time>2026-07-01T21:56:18.000Z</time></trkpt>
        <trkpt lat="29.568555" lon="103.410954"><ele>877.02795</ele><time>2026-07-01T21:56:26.000Z</time></trkpt>
        <trkpt lat="29.568518" lon="103.410913"><ele>876.54706</ele><time>2026-07-01T21:56:32.000Z</time></trkpt>
        <trkpt lat="29.568532" lon="103.410848"><ele>876.16156</ele><time>2026-07-01T21:56:38.000Z</time></trkpt>
        <trkpt lat="29.56855" lon="103.410797"><ele>875.80005</ele><time>2026-07-01T21:56:42.000Z</time></trkpt>
        <trkpt lat="29.568581" lon="103.410755"><ele>874.5315</ele><time>2026-07-01T21:56:46.000Z</time></trkpt>
        <trkpt lat="29.568597" lon="103.410694"><ele>872.46924</ele><time>2026-07-01T21:56:53.000Z</time></trkpt>
        <trkpt lat="29.568603" lon="103.410636"><ele>872.5849</ele><time>2026-07-01T21:56:58.000Z</time></trkpt>
        <trkpt lat="29.568612" lon="103.410579"><ele>873.51044</ele><time>2026-07-01T21:57:03.000Z</time></trkpt>
        <trkpt lat="29.568625" lon="103.410527"><ele>875.7155</ele><time>2026-07-01T21:57:11.000Z</time></trkpt>
        <trkpt lat="29.568644" lon="103.410467"><ele>877.8504</ele><time>2026-07-01T21:57:16.000Z</time></trkpt>
        <trkpt lat="29.568651" lon="103.410403"><ele>877.67267</ele><time>2026-07-01T21:57:21.000Z</time></trkpt>
        <trkpt lat="29.568644" lon="103.410347"><ele>874.6574</ele><time>2026-07-01T21:57:27.000Z</time></trkpt>
        <trkpt lat="29.568632" lon="103.41029"><ele>874.4192</ele><time>2026-07-01T21:57:32.000Z</time></trkpt>
        <trkpt lat="29.568623" lon="103.410236"><ele>872.9172</ele><time>2026-07-01T21:57:36.000Z</time></trkpt>
        <trkpt lat="29.568633" lon="103.410173"><ele>872.5524</ele><time>2026-07-01T21:57:42.000Z</time></trkpt>
        <trkpt lat="29.568625" lon="103.410116"><ele>873.0049</ele><time>2026-07-01T21:57:47.000Z</time></trkpt>
        <trkpt lat="29.568617" lon="103.410063"><ele>871.3356</ele><time>2026-07-01T21:57:52.000Z</time></trkpt>
        <trkpt lat="29.56858" lon="103.410021"><ele>871.7231</ele><time>2026-07-01T21:57:59.000Z</time></trkpt>
        <trkpt lat="29.568545" lon="103.409984"><ele>871.76984</ele><time>2026-07-01T21:58:03.000Z</time></trkpt>
        <trkpt lat="29.568504" lon="103.409958"><ele>871.08856</ele><time>2026-07-01T21:58:08.000Z</time></trkpt>
        <trkpt lat="29.56845" lon="103.409952"><ele>870.5282</ele><time>2026-07-01T21:58:12.000Z</time></trkpt>
        <trkpt lat="29.568405" lon="103.40993"><ele>870.30884</ele><time>2026-07-01T21:58:17.000Z</time></trkpt>
        <trkpt lat="29.56837" lon="103.409889"><ele>869.85736</ele><time>2026-07-01T21:58:23.000Z</time></trkpt>
        <trkpt lat="29.568355" lon="103.409837"><ele>869.6791</ele><time>2026-07-01T21:58:27.000Z</time></trkpt>
        <trkpt lat="29.56833" lon="103.409793"><ele>867.3403</ele><time>2026-07-01T21:58:35.000Z</time></trkpt>
        <trkpt lat="29.568314" lon="103.409735"><ele>867.4851</ele><time>2026-07-01T21:58:44.000Z</time></trkpt>
        <trkpt lat="29.568297" lon="103.409683"><ele>867.57104</ele><time>2026-07-01T21:58:51.000Z</time></trkpt>
        <trkpt lat="29.568281" lon="103.409631"><ele>864.1615</ele><time>2026-07-01T21:59:01.000Z</time></trkpt>
        <trkpt lat="29.568268" lon="103.409579"><ele>862.4792</ele><time>2026-07-01T21:59:06.000Z</time></trkpt>
        <trkpt lat="29.568255" lon="103.409527"><ele>862.2233</ele><time>2026-07-01T21:59:16.000Z</time></trkpt>
        <trkpt lat="29.568223" lon="103.409475"><ele>861.0035</ele><time>2026-07-01T21:59:25.000Z</time></trkpt>
        <trkpt lat="29.568188" lon="103.409422"><ele>861.6545</ele><time>2026-07-01T21:59:33.000Z</time></trkpt>
        <trkpt lat="29.568172" lon="103.409357"><ele>859.1273</ele><time>2026-07-01T21:59:39.000Z</time></trkpt>
        <trkpt lat="29.568159" lon="103.409301"><ele>857.70776</ele><time>2026-07-01T21:59:48.000Z</time></trkpt>
        <trkpt lat="29.568129" lon="103.409253"><ele>857.3919</ele><time>2026-07-01T21:59:54.000Z</time></trkpt>
        <trkpt lat="29.568116" lon="103.409199"><ele>857.29626</ele><time>2026-07-01T22:00:00.000Z</time></trkpt>
        <trkpt lat="29.56809" lon="103.409157"><ele>855.1254</ele><time>2026-07-01T22:00:06.000Z</time></trkpt>
        <trkpt lat="29.568059" lon="103.409119"><ele>851.495</ele><time>2026-07-01T22:00:13.000Z</time></trkpt>
        <trkpt lat="29.568037" lon="103.409071"><ele>849.62366</ele><time>2026-07-01T22:00:20.000Z</time></trkpt>
        <trkpt lat="29.568004" lon="103.409013"><ele>848.45123</ele><time>2026-07-01T22:00:27.000Z</time></trkpt>
        <trkpt lat="29.567961" lon="103.408971"><ele>841.79736</ele><time>2026-07-01T22:00:37.000Z</time></trkpt>
        <trkpt lat="29.567942" lon="103.408914"><ele>840.48694</ele><time>2026-07-01T22:00:42.000Z</time></trkpt>
        <trkpt lat="29.567935" lon="103.408854"><ele>836.6947</ele><time>2026-07-01T22:00:52.000Z</time></trkpt>
        <trkpt lat="29.567926" lon="103.408796"><ele>836.41815</ele><time>2026-07-01T22:01:00.000Z</time></trkpt>
        <trkpt lat="29.567916" lon="103.408743"><ele>835.7549</ele><time>2026-07-01T22:01:06.000Z</time></trkpt>
        <trkpt lat="29.567889" lon="103.408692"><ele>832.1283</ele><time>2026-07-01T22:01:13.000Z</time></trkpt>
        <trkpt lat="29.567864" lon="103.408634"><ele>832.1393</ele><time>2026-07-01T22:01:18.000Z</time></trkpt>
        <trkpt lat="29.567835" lon="103.408587"><ele>828.34784</ele><time>2026-07-01T22:01:29.000Z</time></trkpt>
        <trkpt lat="29.567785" lon="103.408527"><ele>828.9249</ele><time>2026-07-01T22:01:35.000Z</time></trkpt>
        <trkpt lat="29.567762" lon="103.408481"><ele>827.36523</ele><time>2026-07-01T22:01:41.000Z</time></trkpt>
        <trkpt lat="29.567712" lon="103.408454"><ele>826.94885</ele><time>2026-07-01T22:01:51.000Z</time></trkpt>
        <trkpt lat="29.56767" lon="103.408425"><ele>825.4531</ele><time>2026-07-01T22:02:00.000Z</time></trkpt>
        <trkpt lat="29.56764" lon="103.408472"><ele>824.2644</ele><time>2026-07-01T22:02:06.000Z</time></trkpt>
        <trkpt lat="29.567619" lon="103.408529"><ele>821.07166</ele><time>2026-07-01T22:02:11.000Z</time></trkpt>
        <trkpt lat="29.567589" lon="103.408584"><ele>821.41064</ele><time>2026-07-01T22:02:16.000Z</time></trkpt>
        <trkpt lat="29.567568" lon="103.408643"><ele>820.83685</ele><time>2026-07-01T22:02:19.000Z</time></trkpt>
        <trkpt lat="29.567525" lon="103.408662"><ele>820.31525</ele><time>2026-07-01T22:02:23.000Z</time></trkpt>
        <trkpt lat="29.56747" lon="103.408657"><ele>821.3962</ele><time>2026-07-01T22:02:27.000Z</time></trkpt>
        <trkpt lat="29.567422" lon="103.408643"><ele>819.95105</ele><time>2026-07-01T22:02:32.000Z</time></trkpt>
        <trkpt lat="29.567383" lon="103.408613"><ele>818.7575</ele><time>2026-07-01T22:02:37.000Z</time></trkpt>
        <trkpt lat="29.56734" lon="103.408581"><ele>818.91705</ele><time>2026-07-01T22:02:41.000Z</time></trkpt>
        <trkpt lat="29.567299" lon="103.408553"><ele>818.04913</ele><time>2026-07-01T22:02:45.000Z</time></trkpt>
        <trkpt lat="29.567256" lon="103.408528"><ele>817.2777</ele><time>2026-07-01T22:02:49.000Z</time></trkpt>
        <trkpt lat="29.567206" lon="103.408498"><ele>816.9383</ele><time>2026-07-01T22:02:54.000Z</time></trkpt>
        <trkpt lat="29.567161" lon="103.408476"><ele>816.2274</ele><time>2026-07-01T22:03:00.000Z</time></trkpt>
        <trkpt lat="29.567106" lon="103.408456"><ele>816.84454</ele><time>2026-07-01T22:03:04.000Z</time></trkpt>
        <trkpt lat="29.567059" lon="103.408472"><ele>818.4525</ele><time>2026-07-01T22:03:08.000Z</time></trkpt>
        <trkpt lat="29.567006" lon="103.408478"><ele>819.1574</ele><time>2026-07-01T22:03:12.000Z</time></trkpt>
        <trkpt lat="29.566951" lon="103.408478"><ele>818.43774</ele><time>2026-07-01T22:03:17.000Z</time></trkpt>
        <trkpt lat="29.566899" lon="103.408468"><ele>818.6921</ele><time>2026-07-01T22:03:21.000Z</time></trkpt>
        <trkpt lat="29.566854" lon="103.408472"><ele>818.9193</ele><time>2026-07-01T22:03:25.000Z</time></trkpt>
        <trkpt lat="29.566805" lon="103.408477"><ele>818.4526</ele><time>2026-07-01T22:03:30.000Z</time></trkpt>
        <trkpt lat="29.566758" lon="103.408466"><ele>818.4059</ele><time>2026-07-01T22:03:34.000Z</time></trkpt>
        <trkpt lat="29.566714" lon="103.408432"><ele>818.313</ele><time>2026-07-01T22:03:38.000Z</time></trkpt>
        <trkpt lat="29.566691" lon="103.408375"><ele>817.9854</ele><time>2026-07-01T22:03:42.000Z</time></trkpt>
        <trkpt lat="29.566687" lon="103.408323"><ele>816.7539</ele><time>2026-07-01T22:03:46.000Z</time></trkpt>
        <trkpt lat="29.566684" lon="103.408269"><ele>816.2791</ele><time>2026-07-01T22:03:49.000Z</time></trkpt>
        <trkpt lat="29.566688" lon="103.408211"><ele>815.2417</ele><time>2026-07-01T22:03:53.000Z</time></trkpt>
        <trkpt lat="29.566697" lon="103.408153"><ele>814.50696</ele><time>2026-07-01T22:03:58.000Z</time></trkpt>
        <trkpt lat="29.566714" lon="103.408097"><ele>814.5994</ele><time>2026-07-01T22:04:04.000Z</time></trkpt>
        <trkpt lat="29.566704" lon="103.408046"><ele>814.49994</ele><time>2026-07-01T22:04:09.000Z</time></trkpt>
        <trkpt lat="29.566683" lon="103.407996"><ele>814.72845</ele><time>2026-07-01T22:04:14.000Z</time></trkpt>
        <trkpt lat="29.566635" lon="103.407969"><ele>815.92883</ele><time>2026-07-01T22:04:20.000Z</time></trkpt>
        <trkpt lat="29.566594" lon="103.407992"><ele>815.7003</ele><time>2026-07-01T22:04:24.000Z</time></trkpt>
        <trkpt lat="29.566597" lon="103.407936"><ele>816.1108</ele><time>2026-07-01T22:05:41.000Z</time></trkpt>
        <trkpt lat="29.566595" lon="103.407883"><ele>816.6357</ele><time>2026-07-01T22:05:46.000Z</time></trkpt>
        <trkpt lat="29.566592" lon="103.407831"><ele>815.63434</ele><time>2026-07-01T22:05:51.000Z</time></trkpt>
        <trkpt lat="29.566597" lon="103.407778"><ele>814.528</ele><time>2026-07-01T22:05:56.000Z</time></trkpt>
        <trkpt lat="29.566607" lon="103.407723"><ele>816.3875</ele><time>2026-07-01T22:06:01.000Z</time></trkpt>
        <trkpt lat="29.566594" lon="103.407671"><ele>814.8219</ele><time>2026-07-01T22:06:08.000Z</time></trkpt>
        <trkpt lat="29.566581" lon="103.407618"><ele>815.0848</ele><time>2026-07-01T22:06:12.000Z</time></trkpt>
        <trkpt lat="29.566572" lon="103.407561"><ele>814.98816</ele><time>2026-07-01T22:06:16.000Z</time></trkpt>
        <trkpt lat="29.56655" lon="103.407503"><ele>815.5656</ele><time>2026-07-01T22:06:21.000Z</time></trkpt>
        <trkpt lat="29.566532" lon="103.407455"><ele>813.724</ele><time>2026-07-01T22:06:25.000Z</time></trkpt>
        <trkpt lat="29.566517" lon="103.407399"><ele>814.17596</ele><time>2026-07-01T22:06:30.000Z</time></trkpt>
        <trkpt lat="29.566504" lon="103.407349"><ele>814.21606</ele><time>2026-07-01T22:06:34.000Z</time></trkpt>
        <trkpt lat="29.566495" lon="103.407293"><ele>815.4785</ele><time>2026-07-01T22:06:39.000Z</time></trkpt>
        <trkpt lat="29.566481" lon="103.407232"><ele>816.01825</ele><time>2026-07-01T22:06:44.000Z</time></trkpt>
        <trkpt lat="29.566483" lon="103.407169"><ele>814.5107</ele><time>2026-07-01T22:06:50.000Z</time></trkpt>
        <trkpt lat="29.566462" lon="103.407112"><ele>813.56415</ele><time>2026-07-01T22:06:55.000Z</time></trkpt>
        <trkpt lat="29.566446" lon="103.407059"><ele>812.6294</ele><time>2026-07-01T22:06:59.000Z</time></trkpt>
        <trkpt lat="29.566427" lon="103.407"><ele>813.6191</ele><time>2026-07-01T22:07:03.000Z</time></trkpt>
        <trkpt lat="29.566423" lon="103.406938"><ele>814.32574</ele><time>2026-07-01T22:07:07.000Z</time></trkpt>
        <trkpt lat="29.566416" lon="103.406885"><ele>813.85583</ele><time>2026-07-01T22:07:11.000Z</time></trkpt>
        <trkpt lat="29.566446" lon="103.406836"><ele>812.9678</ele><time>2026-07-01T22:07:17.000Z</time></trkpt>
        <trkpt lat="29.566474" lon="103.406795"><ele>814.2537</ele><time>2026-07-01T22:07:21.000Z</time></trkpt>
        <trkpt lat="29.56649" lon="103.406741"><ele>813.47626</ele><time>2026-07-01T22:07:26.000Z</time></trkpt>
        <trkpt lat="29.566541" lon="103.406724"><ele>812.9456</ele><time>2026-07-01T22:07:31.000Z</time></trkpt>
        <trkpt lat="29.566585" lon="103.406694"><ele>812.0438</ele><time>2026-07-01T22:07:36.000Z</time></trkpt>
        <trkpt lat="29.566612" lon="103.406642"><ele>810.974</ele><time>2026-07-01T22:07:41.000Z</time></trkpt>
        <trkpt lat="29.566653" lon="103.406609"><ele>810.8722</ele><time>2026-07-01T22:07:46.000Z</time></trkpt>
        <trkpt lat="29.566701" lon="103.406577"><ele>811.7523</ele><time>2026-07-01T22:07:49.000Z</time></trkpt>
        <trkpt lat="29.566729" lon="103.406522"><ele>809.30475</ele><time>2026-07-01T22:08:17.000Z</time></trkpt>
        <trkpt lat="29.566745" lon="103.406472"><ele>807.1223</ele><time>2026-07-01T22:08:22.000Z</time></trkpt>
        <trkpt lat="29.566784" lon="103.406441"><ele>807.3368</ele><time>2026-07-01T22:08:26.000Z</time></trkpt>
        <trkpt lat="29.56682" lon="103.406403"><ele>809.4544</ele><time>2026-07-01T22:08:31.000Z</time></trkpt>
        <trkpt lat="29.566868" lon="103.406383"><ele>810.1149</ele><time>2026-07-01T22:08:34.000Z</time></trkpt>
        <trkpt lat="29.5669" lon="103.406332"><ele>810.2401</ele><time>2026-07-01T22:08:40.000Z</time></trkpt>
        <trkpt lat="29.56693" lon="103.40629"><ele>809.87646</ele><time>2026-07-01T22:08:44.000Z</time></trkpt>
        <trkpt lat="29.566965" lon="103.406249"><ele>810.75903</ele><time>2026-07-01T22:08:48.000Z</time></trkpt>
        <trkpt lat="29.56699" lon="103.406206"><ele>809.7166</ele><time>2026-07-01T22:08:53.000Z</time></trkpt>
        <trkpt lat="29.567009" lon="103.406153"><ele>808.8138</ele><time>2026-07-01T22:08:58.000Z</time></trkpt>
        <trkpt lat="29.567037" lon="103.40611"><ele>808.2382</ele><time>2026-07-01T22:09:02.000Z</time></trkpt>
        <trkpt lat="29.567056" lon="103.406052"><ele>807.1119</ele><time>2026-07-01T22:09:07.000Z</time></trkpt>
        <trkpt lat="29.567085" lon="103.405997"><ele>807.74994</ele><time>2026-07-01T22:09:12.000Z</time></trkpt>
        <trkpt lat="29.567124" lon="103.405953"><ele>807.222</ele><time>2026-07-01T22:09:17.000Z</time></trkpt>
        <trkpt lat="29.567156" lon="103.405912"><ele>806.2177</ele><time>2026-07-01T22:09:22.000Z</time></trkpt>
        <trkpt lat="29.567162" lon="103.405855"><ele>804.54315</ele><time>2026-07-01T22:09:26.000Z</time></trkpt>
        <trkpt lat="29.567134" lon="103.405811"><ele>804.3385</ele><time>2026-07-01T22:09:30.000Z</time></trkpt>
        <trkpt lat="29.567112" lon="103.405756"><ele>804.8212</ele><time>2026-07-01T22:09:34.000Z</time></trkpt>
        <trkpt lat="29.567079" lon="103.405719"><ele>806.34717</ele><time>2026-07-01T22:09:37.000Z</time></trkpt>
        <trkpt lat="29.567052" lon="103.405678"><ele>806.6812</ele><time>2026-07-01T22:09:42.000Z</time></trkpt>
        <trkpt lat="29.567022" lon="103.405624"><ele>805.9862</ele><time>2026-07-01T22:09:46.000Z</time></trkpt>
        <trkpt lat="29.566972" lon="103.405603"><ele>805.54486</ele><time>2026-07-01T22:09:50.000Z</time></trkpt>
        <trkpt lat="29.566946" lon="103.405559"><ele>807.2776</ele><time>2026-07-01T22:09:54.000Z</time></trkpt>
        <trkpt lat="29.566914" lon="103.40552"><ele>807.2829</ele><time>2026-07-01T22:09:58.000Z</time></trkpt>
        <trkpt lat="29.566886" lon="103.405469"><ele>806.87866</ele><time>2026-07-01T22:10:02.000Z</time></trkpt>
        <trkpt lat="29.566847" lon="103.405422"><ele>807.6785</ele><time>2026-07-01T22:10:10.000Z</time></trkpt>
        <trkpt lat="29.566806" lon="103.405384"><ele>807.60706</ele><time>2026-07-01T22:10:13.000Z</time></trkpt>
        <trkpt lat="29.566761" lon="103.40535"><ele>806.5728</ele><time>2026-07-01T22:10:19.000Z</time></trkpt>
        <trkpt lat="29.566744" lon="103.4053"><ele>805.8331</ele><time>2026-07-01T22:10:24.000Z</time></trkpt>
        <trkpt lat="29.566726" lon="103.405251"><ele>806.14996</ele><time>2026-07-01T22:10:29.000Z</time></trkpt>
        <trkpt lat="29.566748" lon="103.405204"><ele>805.5807</ele><time>2026-07-01T22:10:33.000Z</time></trkpt>
        <trkpt lat="29.566751" lon="103.405146"><ele>803.6144</ele><time>2026-07-01T22:10:38.000Z</time></trkpt>
        <trkpt lat="29.56678" lon="103.405098"><ele>803.62366</ele><time>2026-07-01T22:10:42.000Z</time></trkpt>
        <trkpt lat="29.566828" lon="103.405102"><ele>804.3378</ele><time>2026-07-01T22:10:48.000Z</time></trkpt>
        <trkpt lat="29.566877" lon="103.405113"><ele>802.95135</ele><time>2026-07-01T22:10:53.000Z</time></trkpt>
        <trkpt lat="29.56692" lon="103.405129"><ele>803.24194</ele><time>2026-07-01T22:10:58.000Z</time></trkpt>
        <trkpt lat="29.56697" lon="103.405144"><ele>802.72437</ele><time>2026-07-01T22:11:02.000Z</time></trkpt>
        <trkpt lat="29.567025" lon="103.405141"><ele>804.5705</ele><time>2026-07-01T22:11:05.000Z</time></trkpt>
        <trkpt lat="29.567071" lon="103.405139"><ele>804.57776</ele><time>2026-07-01T22:11:09.000Z</time></trkpt>
        <trkpt lat="29.567129" lon="103.405127"><ele>805.5571</ele><time>2026-07-01T22:11:13.000Z</time></trkpt>
        <trkpt lat="29.567177" lon="103.405098"><ele>804.55194</ele><time>2026-07-01T22:11:19.000Z</time></trkpt>
        <trkpt lat="29.56723" lon="103.40509"><ele>804.51874</ele><time>2026-07-01T22:11:23.000Z</time></trkpt>
        <trkpt lat="29.567277" lon="103.405086"><ele>803.4478</ele><time>2026-07-01T22:11:27.000Z</time></trkpt>
        <trkpt lat="29.567341" lon="103.40507"><ele>800.87146</ele><time>2026-07-01T22:11:32.000Z</time></trkpt>
        <trkpt lat="29.567384" lon="103.405054"><ele>801.0231</ele><time>2026-07-01T22:11:34.000Z</time></trkpt>
        <trkpt lat="29.56743" lon="103.405043"><ele>801.6399</ele><time>2026-07-01T22:11:38.000Z</time></trkpt>
        <trkpt lat="29.567482" lon="103.405046"><ele>801.5372</ele><time>2026-07-01T22:11:44.000Z</time></trkpt>
        <trkpt lat="29.567527" lon="103.405043"><ele>802.4414</ele><time>2026-07-01T22:11:47.000Z</time></trkpt>
        <trkpt lat="29.56758" lon="103.405055"><ele>802.51953</ele><time>2026-07-01T22:11:51.000Z</time></trkpt>
        <trkpt lat="29.567626" lon="103.40506"><ele>800.57434</ele><time>2026-07-01T22:11:56.000Z</time></trkpt>
        <trkpt lat="29.567674" lon="103.405063"><ele>802.8779</ele><time>2026-07-01T22:12:00.000Z</time></trkpt>
        <trkpt lat="29.567725" lon="103.405062"><ele>803.8146</ele><time>2026-07-01T22:12:04.000Z</time></trkpt>
        <trkpt lat="29.56777" lon="103.405056"><ele>802.50793</ele><time>2026-07-01T22:12:09.000Z</time></trkpt>
        <trkpt lat="29.567816" lon="103.405059"><ele>801.05566</ele><time>2026-07-01T22:12:13.000Z</time></trkpt>
        <trkpt lat="29.567861" lon="103.405054"><ele>801.13654</ele><time>2026-07-01T22:12:17.000Z</time></trkpt>
        <trkpt lat="29.567916" lon="103.405032"><ele>801.197</ele><time>2026-07-01T22:12:22.000Z</time></trkpt>
        <trkpt lat="29.567961" lon="103.405016"><ele>801.1948</ele><time>2026-07-01T22:12:26.000Z</time></trkpt>
        <trkpt lat="29.568003" lon="103.404984"><ele>800.65717</ele><time>2026-07-01T22:12:31.000Z</time></trkpt>
        <trkpt lat="29.56804" lon="103.40495"><ele>801.66833</ele><time>2026-07-01T22:12:35.000Z</time></trkpt>
        <trkpt lat="29.568078" lon="103.404916"><ele>801.1143</ele><time>2026-07-01T22:12:40.000Z</time></trkpt>
        <trkpt lat="29.568126" lon="103.404883"><ele>800.23553</ele><time>2026-07-01T22:12:44.000Z</time></trkpt>
        <trkpt lat="29.568177" lon="103.404863"><ele>800.7949</ele><time>2026-07-01T22:12:48.000Z</time></trkpt>
        <trkpt lat="29.568217" lon="103.40483"><ele>800.0256</ele><time>2026-07-01T22:12:52.000Z</time></trkpt>
        <trkpt lat="29.568245" lon="103.404775"><ele>799.7294</ele><time>2026-07-01T22:12:56.000Z</time></trkpt>
        <trkpt lat="29.568283" lon="103.40473"><ele>798.92474</ele><time>2026-07-01T22:13:00.000Z</time></trkpt>
        <trkpt lat="29.568324" lon="103.404695"><ele>798.9849</ele><time>2026-07-01T22:13:05.000Z</time></trkpt>
        <trkpt lat="29.568367" lon="103.404649"><ele>798.33905</ele><time>2026-07-01T22:13:09.000Z</time></trkpt>
        <trkpt lat="29.568394" lon="103.404597"><ele>798.0246</ele><time>2026-07-01T22:13:14.000Z</time></trkpt>
        <trkpt lat="29.568423" lon="103.404553"><ele>797.4249</ele><time>2026-07-01T22:13:18.000Z</time></trkpt>
        <trkpt lat="29.568462" lon="103.404504"><ele>798.9847</ele><time>2026-07-01T22:13:22.000Z</time></trkpt>
        <trkpt lat="29.568487" lon="103.404457"><ele>797.7176</ele><time>2026-07-01T22:13:25.000Z</time></trkpt>
        <trkpt lat="29.568521" lon="103.404412"><ele>796.7855</ele><time>2026-07-01T22:13:29.000Z</time></trkpt>
        <trkpt lat="29.568541" lon="103.40436"><ele>794.9588</ele><time>2026-07-01T22:13:34.000Z</time></trkpt>
        <trkpt lat="29.568558" lon="103.404308"><ele>794.0309</ele><time>2026-07-01T22:13:37.000Z</time></trkpt>
        <trkpt lat="29.568573" lon="103.404257"><ele>792.9844</ele><time>2026-07-01T22:13:41.000Z</time></trkpt>
        <trkpt lat="29.568589" lon="103.404208"><ele>793.189</ele><time>2026-07-01T22:13:43.000Z</time></trkpt>
        <trkpt lat="29.56862" lon="103.404149"><ele>792.1228</ele><time>2026-07-01T22:13:48.000Z</time></trkpt>
        <trkpt lat="29.568646" lon="103.404102"><ele>790.3265</ele><time>2026-07-01T22:13:52.000Z</time></trkpt>
        <trkpt lat="29.568679" lon="103.404066"><ele>790.19037</ele><time>2026-07-01T22:13:57.000Z</time></trkpt>
        <trkpt lat="29.568714" lon="103.404021"><ele>791.50275</ele><time>2026-07-01T22:14:01.000Z</time></trkpt>
        <trkpt lat="29.568758" lon="103.403994"><ele>790.92267</ele><time>2026-07-01T22:14:05.000Z</time></trkpt>
        <trkpt lat="29.568787" lon="103.403948"><ele>791.5303</ele><time>2026-07-01T22:14:09.000Z</time></trkpt>
        <trkpt lat="29.568837" lon="103.403943"><ele>791.4994</ele><time>2026-07-01T22:14:13.000Z</time></trkpt>
        <trkpt lat="29.568886" lon="103.40394"><ele>792.44916</ele><time>2026-07-01T22:14:17.000Z</time></trkpt>
        <trkpt lat="29.568934" lon="103.403955"><ele>793.0243</ele><time>2026-07-01T22:14:24.000Z</time></trkpt>
        <trkpt lat="29.568992" lon="103.403961"><ele>792.71625</ele><time>2026-07-01T22:14:29.000Z</time></trkpt>
        <trkpt lat="29.569049" lon="103.403981"><ele>790.1414</ele><time>2026-07-01T22:14:33.000Z</time></trkpt>
        <trkpt lat="29.569101" lon="103.403977"><ele>785.93317</ele><time>2026-07-01T22:14:37.000Z</time></trkpt>
        <trkpt lat="29.56915" lon="103.403965"><ele>785.1395</ele><time>2026-07-01T22:14:43.000Z</time></trkpt>
        <trkpt lat="29.569192" lon="103.403938"><ele>786.1513</ele><time>2026-07-01T22:14:47.000Z</time></trkpt>
        <trkpt lat="29.569238" lon="103.403909"><ele>786.493</ele><time>2026-07-01T22:14:51.000Z</time></trkpt>
        <trkpt lat="29.569278" lon="103.403878"><ele>785.4594</ele><time>2026-07-01T22:14:55.000Z</time></trkpt>
        <trkpt lat="29.569324" lon="103.403856"><ele>784.36584</ele><time>2026-07-01T22:14:59.000Z</time></trkpt>
        <trkpt lat="29.569375" lon="103.40383"><ele>785.533</ele><time>2026-07-01T22:15:03.000Z</time></trkpt>
        <trkpt lat="29.56942" lon="103.403813"><ele>785.65533</ele><time>2026-07-01T22:15:07.000Z</time></trkpt>
        <trkpt lat="29.569452" lon="103.403772"><ele>786.21</ele><time>2026-07-01T22:15:10.000Z</time></trkpt>
        <trkpt lat="29.569493" lon="103.403737"><ele>787.04364</ele><time>2026-07-01T22:15:14.000Z</time></trkpt>
        <trkpt lat="29.569536" lon="103.403702"><ele>785.7504</ele><time>2026-07-01T22:15:19.000Z</time></trkpt>
        <trkpt lat="29.569566" lon="103.403661"><ele>785.6205</ele><time>2026-07-01T22:15:23.000Z</time></trkpt>
        <trkpt lat="29.569612" lon="103.403626"><ele>786.46985</ele><time>2026-07-01T22:15:27.000Z</time></trkpt>
        <trkpt lat="29.569642" lon="103.403564"><ele>785.1243</ele><time>2026-07-01T22:15:32.000Z</time></trkpt>
        <trkpt lat="29.569676" lon="103.403515"><ele>782.6769</ele><time>2026-07-01T22:15:37.000Z</time></trkpt>
        <trkpt lat="29.569729" lon="103.403488"><ele>781.6499</ele><time>2026-07-01T22:15:40.000Z</time></trkpt>
        <trkpt lat="29.569758" lon="103.403435"><ele>780.64886</ele><time>2026-07-01T22:15:44.000Z</time></trkpt>
        <trkpt lat="29.5698" lon="103.40341"><ele>780.2197</ele><time>2026-07-01T22:15:49.000Z</time></trkpt>
        <trkpt lat="29.569826" lon="103.403353"><ele>780.56976</ele><time>2026-07-01T22:15:55.000Z</time></trkpt>
        <trkpt lat="29.569863" lon="103.40331"><ele>779.4648</ele><time>2026-07-01T22:15:59.000Z</time></trkpt>
        <trkpt lat="29.569894" lon="103.403262"><ele>779.54224</ele><time>2026-07-01T22:16:03.000Z</time></trkpt>
        <trkpt lat="29.569897" lon="103.403203"><ele>775.676</ele><time>2026-07-01T22:16:08.000Z</time></trkpt>
        <trkpt lat="29.569927" lon="103.40316"><ele>773.0965</ele><time>2026-07-01T22:16:11.000Z</time></trkpt>
        <trkpt lat="29.569935" lon="103.403098"><ele>773.1424</ele><time>2026-07-01T22:16:15.000Z</time></trkpt>
        <trkpt lat="29.569925" lon="103.403038"><ele>774.3717</ele><time>2026-07-01T22:16:20.000Z</time></trkpt>
        <trkpt lat="29.569944" lon="103.402965"><ele>775.89276</ele><time>2026-07-01T22:16:28.000Z</time></trkpt>
        <trkpt lat="29.56999" lon="103.402926"><ele>777.6999</ele><time>2026-07-01T22:16:32.000Z</time></trkpt>
        <trkpt lat="29.570035" lon="103.402893"><ele>777.3967</ele><time>2026-07-01T22:16:34.000Z</time></trkpt>
        <trkpt lat="29.570087" lon="103.402857"><ele>778.4258</ele><time>2026-07-01T22:16:38.000Z</time></trkpt>
        <trkpt lat="29.570149" lon="103.402825"><ele>777.4423</ele><time>2026-07-01T22:16:41.000Z</time></trkpt>
        <trkpt lat="29.570202" lon="103.402799"><ele>776.78424</ele><time>2026-07-01T22:16:43.000Z</time></trkpt>
        <trkpt lat="29.570249" lon="103.402803"><ele>776.2412</ele><time>2026-07-01T22:16:51.000Z</time></trkpt>
        <trkpt lat="29.570307" lon="103.402811"><ele>777.6902</ele><time>2026-07-01T22:16:54.000Z</time></trkpt>
        <trkpt lat="29.570407" lon="103.40281"><ele>772.54156</ele><time>2026-07-01T22:16:59.000Z</time></trkpt>
        <trkpt lat="29.570454" lon="103.402813"><ele>773.43835</ele><time>2026-07-01T22:17:03.000Z</time></trkpt>
        <trkpt lat="29.570501" lon="103.402798"><ele>774.7222</ele><time>2026-07-01T22:17:07.000Z</time></trkpt>
        <trkpt lat="29.570555" lon="103.40282"><ele>775.204</ele><time>2026-07-01T22:17:10.000Z</time></trkpt>
        <trkpt lat="29.570602" lon="103.402813"><ele>775.271</ele><time>2026-07-01T22:17:12.000Z</time></trkpt>
        <trkpt lat="29.570658" lon="103.402788"><ele>776.6329</ele><time>2026-07-01T22:17:16.000Z</time></trkpt>
        <trkpt lat="29.570703" lon="103.402769"><ele>775.3885</ele><time>2026-07-01T22:17:19.000Z</time></trkpt>
        <trkpt lat="29.570753" lon="103.402747"><ele>773.464</ele><time>2026-07-01T22:17:23.000Z</time></trkpt>
        <trkpt lat="29.570795" lon="103.402716"><ele>771.4259</ele><time>2026-07-01T22:17:27.000Z</time></trkpt>
        <trkpt lat="29.570854" lon="103.402699"><ele>771.16986</ele><time>2026-07-01T22:17:31.000Z</time></trkpt>
        <trkpt lat="29.570899" lon="103.402684"><ele>768.9529</ele><time>2026-07-01T22:17:34.000Z</time></trkpt>
        <trkpt lat="29.570926" lon="103.402635"><ele>766.6428</ele><time>2026-07-01T22:17:39.000Z</time></trkpt>
        <trkpt lat="29.570972" lon="103.402607"><ele>767.5213</ele><time>2026-07-01T22:17:43.000Z</time></trkpt>
        <trkpt lat="29.571024" lon="103.402589"><ele>767.9471</ele><time>2026-07-01T22:17:46.000Z</time></trkpt>
        <trkpt lat="29.571071" lon="103.402556"><ele>767.04236</ele><time>2026-07-01T22:17:50.000Z</time></trkpt>
        <trkpt lat="29.5711" lon="103.402504"><ele>766.7633</ele><time>2026-07-01T22:17:54.000Z</time></trkpt>
        <trkpt lat="29.571144" lon="103.402471"><ele>765.6725</ele><time>2026-07-01T22:17:58.000Z</time></trkpt>
        <trkpt lat="29.571163" lon="103.402418"><ele>765.5231</ele><time>2026-07-01T22:18:02.000Z</time></trkpt>
        <trkpt lat="29.571191" lon="103.402369"><ele>765.0587</ele><time>2026-07-01T22:18:09.000Z</time></trkpt>
        <trkpt lat="29.571213" lon="103.402321"><ele>765.55035</ele><time>2026-07-01T22:18:13.000Z</time></trkpt>
        <trkpt lat="29.571237" lon="103.402266"><ele>766.4775</ele><time>2026-07-01T22:18:17.000Z</time></trkpt>
        <trkpt lat="29.571266" lon="103.402217"><ele>766.3992</ele><time>2026-07-01T22:18:21.000Z</time></trkpt>
        <trkpt lat="29.571303" lon="103.402179"><ele>764.8616</ele><time>2026-07-01T22:18:25.000Z</time></trkpt>
        <trkpt lat="29.571349" lon="103.402134"><ele>763.65106</ele><time>2026-07-01T22:18:30.000Z</time></trkpt>
        <trkpt lat="29.571389" lon="103.402095"><ele>763.4182</ele><time>2026-07-01T22:18:34.000Z</time></trkpt>
        <trkpt lat="29.571419" lon="103.402036"><ele>763.8411</ele><time>2026-07-01T22:18:37.000Z</time></trkpt>
        <trkpt lat="29.571462" lon="103.402015"><ele>763.99585</ele><time>2026-07-01T22:18:40.000Z</time></trkpt>
        <trkpt lat="29.571497" lon="103.401967"><ele>764.1492</ele><time>2026-07-01T22:18:46.000Z</time></trkpt>
        <trkpt lat="29.571522" lon="103.401922"><ele>764.35406</ele><time>2026-07-01T22:18:51.000Z</time></trkpt>
        <trkpt lat="29.571567" lon="103.401887"><ele>766.20844</ele><time>2026-07-01T22:18:57.000Z</time></trkpt>
        <trkpt lat="29.571617" lon="103.401875"><ele>766.3277</ele><time>2026-07-01T22:19:00.000Z</time></trkpt>
        <trkpt lat="29.571665" lon="103.401878"><ele>766.6408</ele><time>2026-07-01T22:19:03.000Z</time></trkpt>
        <trkpt lat="29.571715" lon="103.40187"><ele>765.252</ele><time>2026-07-01T22:19:07.000Z</time></trkpt>
        <trkpt lat="29.571764" lon="103.401854"><ele>766.2388</ele><time>2026-07-01T22:19:12.000Z</time></trkpt>
        <trkpt lat="29.571815" lon="103.401856"><ele>764.2595</ele><time>2026-07-01T22:19:30.000Z</time></trkpt>
        <trkpt lat="29.571779" lon="103.40189"><ele>763.8981</ele><time>2026-07-01T22:19:36.000Z</time></trkpt>
        <trkpt lat="29.571761" lon="103.401829"><ele>761.1581</ele><time>2026-07-01T22:19:42.000Z</time></trkpt>
        <trkpt lat="29.571761" lon="103.401777"><ele>759.7305</ele><time>2026-07-01T22:19:47.000Z</time></trkpt>
        <trkpt lat="29.571743" lon="103.401716"><ele>759.46704</ele><time>2026-07-01T22:19:51.000Z</time></trkpt>
        <trkpt lat="29.571788" lon="103.401659"><ele>761.0812</ele><time>2026-07-01T22:19:53.000Z</time></trkpt>
        <trkpt lat="29.571789" lon="103.401601"><ele>762.10443</ele><time>2026-07-01T22:19:58.000Z</time></trkpt>
        <trkpt lat="29.571819" lon="103.401561"><ele>765.232</ele><time>2026-07-01T22:20:02.000Z</time></trkpt>
        <trkpt lat="29.571824" lon="103.401497"><ele>768.2772</ele><time>2026-07-01T22:20:06.000Z</time></trkpt>
        <trkpt lat="29.571875" lon="103.401513"><ele>770.3906</ele><time>2026-07-01T22:20:09.000Z</time></trkpt>
        <trkpt lat="29.571939" lon="103.401504"><ele>770.9525</ele><time>2026-07-01T22:20:14.000Z</time></trkpt>
        <trkpt lat="29.571978" lon="103.401539"><ele>771.31683</ele><time>2026-07-01T22:20:20.000Z</time></trkpt>
        <trkpt lat="29.57202" lon="103.401505"><ele>767.31177</ele><time>2026-07-01T22:20:25.000Z</time></trkpt>
        <trkpt lat="29.572037" lon="103.401456"><ele>765.55304</ele><time>2026-07-01T22:20:30.000Z</time></trkpt>
        <trkpt lat="29.572032" lon="103.401398"><ele>767.19653</ele><time>2026-07-01T22:20:36.000Z</time></trkpt>
        <trkpt lat="29.572034" lon="103.401342"><ele>768.32446</ele><time>2026-07-01T22:20:45.000Z</time></trkpt>
        <trkpt lat="29.572018" lon="103.401288"><ele>768.9499</ele><time>2026-07-01T22:20:53.000Z</time></trkpt>
        <trkpt lat="29.572008" lon="103.401234"><ele>772.29767</ele><time>2026-07-01T22:21:06.000Z</time></trkpt>
        <trkpt lat="29.571958" lon="103.401229"><ele>774.9598</ele><time>2026-07-01T22:21:19.000Z</time></trkpt>
        <trkpt lat="29.571953" lon="103.401146"><ele>778.4769</ele><time>2026-07-01T22:21:32.000Z</time></trkpt>
        <trkpt lat="29.57189" lon="103.401165"><ele>779.03644</ele><time>2026-07-01T22:21:34.000Z</time></trkpt>
        <trkpt lat="29.571844" lon="103.401183"><ele>781.39984</ele><time>2026-07-01T22:21:40.000Z</time></trkpt>
        <trkpt lat="29.571796" lon="103.401181"><ele>783.0004</ele><time>2026-07-01T22:21:45.000Z</time></trkpt>
        <trkpt lat="29.571992" lon="103.401197"><ele>778.1648</ele><time>2026-07-01T22:22:09.000Z</time></trkpt>
        <trkpt lat="29.572001" lon="103.401201"><ele>778.1648</ele><time>2026-07-01T22:22:51.000Z</time></trkpt>
        <trkpt lat="29.571997" lon="103.401194"><ele>778.1648</ele><time>2026-07-01T22:23:36.000Z</time></trkpt>
        <trkpt lat="29.572164" lon="103.400864"><ele>788.9322</ele><time>2026-07-01T22:30:03.000Z</time></trkpt>
        <trkpt lat="29.571983" lon="103.400898"><ele>783.85583</ele><time>2026-07-01T22:30:20.000Z</time></trkpt>
        <trkpt lat="29.57196" lon="103.400847"><ele>785.51514</ele><time>2026-07-01T22:30:36.000Z</time></trkpt>
        <trkpt lat="29.571952" lon="103.400791"><ele>785.14966</ele><time>2026-07-01T22:30:47.000Z</time></trkpt>
        <trkpt lat="29.571953" lon="103.400727"><ele>782.5927</ele><time>2026-07-01T22:31:01.000Z</time></trkpt>
        <trkpt lat="29.571928" lon="103.400673"><ele>789.0205</ele><time>2026-07-01T22:31:21.000Z</time></trkpt>
        <trkpt lat="29.57192" lon="103.400615"><ele>791.0616</ele><time>2026-07-01T22:31:35.000Z</time></trkpt>
        <trkpt lat="29.571917" lon="103.400559"><ele>796.87933</ele><time>2026-07-01T22:31:45.000Z</time></trkpt>
        <trkpt lat="29.57189" lon="103.400511"><ele>798.6085</ele><time>2026-07-01T22:31:51.000Z</time></trkpt>
        <trkpt lat="29.571921" lon="103.400467"><ele>799.44305</ele><time>2026-07-01T22:32:05.000Z</time></trkpt>
        <trkpt lat="29.571897" lon="103.400422"><ele>803.0526</ele><time>2026-07-01T22:32:12.000Z</time></trkpt>
        <trkpt lat="29.571898" lon="103.40037"><ele>799.98474</ele><time>2026-07-01T22:32:39.000Z</time></trkpt>
        <trkpt lat="29.571896" lon="103.400316"><ele>804.0218</ele><time>2026-07-01T22:32:54.000Z</time></trkpt>
        <trkpt lat="29.571881" lon="103.400265"><ele>806.6482</ele><time>2026-07-01T22:33:02.000Z</time></trkpt>
        <trkpt lat="29.571883" lon="103.400211"><ele>810.4522</ele><time>2026-07-01T22:33:16.000Z</time></trkpt>
        <trkpt lat="29.571855" lon="103.400156"><ele>811.7183</ele><time>2026-07-01T22:33:26.000Z</time></trkpt>
        <trkpt lat="29.571844" lon="103.400104"><ele>814.75226</ele><time>2026-07-01T22:33:40.000Z</time></trkpt>
        <trkpt lat="29.571839" lon="103.400049"><ele>818.54425</ele><time>2026-07-01T22:33:55.000Z</time></trkpt>
        <trkpt lat="29.571853" lon="103.399997"><ele>820.2827</ele><time>2026-07-01T22:34:06.000Z</time></trkpt>
        <trkpt lat="29.571854" lon="103.399945"><ele>823.01514</ele><time>2026-07-01T22:34:29.000Z</time></trkpt>
        <trkpt lat="29.571844" lon="103.399891"><ele>823.30994</ele><time>2026-07-01T22:34:39.000Z</time></trkpt>
        <trkpt lat="29.571865" lon="103.399844"><ele>826.9513</ele><time>2026-07-01T22:34:52.000Z</time></trkpt>
        <trkpt lat="29.571854" lon="103.399792"><ele>826.39984</ele><time>2026-07-01T22:35:02.000Z</time></trkpt>
        <trkpt lat="29.571895" lon="103.399818"><ele>831.11743</ele><time>2026-07-01T22:37:07.000Z</time></trkpt>
        <trkpt lat="29.571891" lon="103.399765"><ele>829.4872</ele><time>2026-07-01T22:37:15.000Z</time></trkpt>
        <trkpt lat="29.571875" lon="103.399708"><ele>828.3571</ele><time>2026-07-01T22:37:24.000Z</time></trkpt>
        <trkpt lat="29.571868" lon="103.399653"><ele>829.97504</ele><time>2026-07-01T22:37:34.000Z</time></trkpt>
        <trkpt lat="29.571854" lon="103.399597"><ele>833.1757</ele><time>2026-07-01T22:37:41.000Z</time></trkpt>
        <trkpt lat="29.571852" lon="103.399542"><ele>833.88464</ele><time>2026-07-01T22:37:48.000Z</time></trkpt>
        <trkpt lat="29.571849" lon="103.399486"><ele>831.0837</ele><time>2026-07-01T22:37:55.000Z</time></trkpt>
        <trkpt lat="29.57186" lon="103.399428"><ele>832.3027</ele><time>2026-07-01T22:38:01.000Z</time></trkpt>
        <trkpt lat="29.571843" lon="103.399379"><ele>833.03955</ele><time>2026-07-01T22:38:05.000Z</time></trkpt>
        <trkpt lat="29.571808" lon="103.399336"><ele>835.69824</ele><time>2026-07-01T22:38:13.000Z</time></trkpt>
        <trkpt lat="29.571788" lon="103.399287"><ele>836.0246</ele><time>2026-07-01T22:38:23.000Z</time></trkpt>
        <trkpt lat="29.571748" lon="103.399259"><ele>837.2152</ele><time>2026-07-01T22:38:38.000Z</time></trkpt>
        <trkpt lat="29.571714" lon="103.39921"><ele>838.5935</ele><time>2026-07-01T22:38:44.000Z</time></trkpt>
        <trkpt lat="29.571705" lon="103.399158"><ele>841.12036</ele><time>2026-07-01T22:38:51.000Z</time></trkpt>
        <trkpt lat="29.571692" lon="103.399106"><ele>842.2494</ele><time>2026-07-01T22:38:57.000Z</time></trkpt>
        <trkpt lat="29.571673" lon="103.399046"><ele>844.85486</ele><time>2026-07-01T22:39:07.000Z</time></trkpt>
        <trkpt lat="29.571646" lon="103.398997"><ele>845.8775</ele><time>2026-07-01T22:39:15.000Z</time></trkpt>
        <trkpt lat="29.571624" lon="103.398946"><ele>846.3147</ele><time>2026-07-01T22:39:19.000Z</time></trkpt>
        <trkpt lat="29.571626" lon="103.39889"><ele>846.8865</ele><time>2026-07-01T22:39:21.000Z</time></trkpt>
        <trkpt lat="29.571626" lon="103.398829"><ele>846.0943</ele><time>2026-07-01T22:39:26.000Z</time></trkpt>
        <trkpt lat="29.571604" lon="103.398765"><ele>845.9395</ele><time>2026-07-01T22:39:31.000Z</time></trkpt>
        <trkpt lat="29.571592" lon="103.39871"><ele>848.53656</ele><time>2026-07-01T22:39:35.000Z</time></trkpt>
        <trkpt lat="29.571588" lon="103.398646"><ele>849.08215</ele><time>2026-07-01T22:39:39.000Z</time></trkpt>
        <trkpt lat="29.571594" lon="103.398584"><ele>848.5015</ele><time>2026-07-01T22:39:44.000Z</time></trkpt>
        <trkpt lat="29.571573" lon="103.398525"><ele>847.8063</ele><time>2026-07-01T22:39:50.000Z</time></trkpt>
        <trkpt lat="29.571562" lon="103.398466"><ele>847.37805</ele><time>2026-07-01T22:39:55.000Z</time></trkpt>
        <trkpt lat="29.571554" lon="103.39841"><ele>846.2939</ele><time>2026-07-01T22:39:58.000Z</time></trkpt>
        <trkpt lat="29.571563" lon="103.398351"><ele>842.6304</ele><time>2026-07-01T22:40:04.000Z</time></trkpt>
        <trkpt lat="29.57157" lon="103.398287"><ele>839.31396</ele><time>2026-07-01T22:40:12.000Z</time></trkpt>
        <trkpt lat="29.571575" lon="103.398229"><ele>836.2343</ele><time>2026-07-01T22:40:18.000Z</time></trkpt>
        <trkpt lat="29.571572" lon="103.398176"><ele>834.8579</ele><time>2026-07-01T22:40:23.000Z</time></trkpt>
        <trkpt lat="29.571575" lon="103.398118"><ele>830.9927</ele><time>2026-07-01T22:40:29.000Z</time></trkpt>
        <trkpt lat="29.571573" lon="103.398061"><ele>831.2318</ele><time>2026-07-01T22:40:34.000Z</time></trkpt>
        <trkpt lat="29.571553" lon="103.398011"><ele>830.0533</ele><time>2026-07-01T22:40:42.000Z</time></trkpt>
        <trkpt lat="29.571543" lon="103.397951"><ele>829.2075</ele><time>2026-07-01T22:40:48.000Z</time></trkpt>
        <trkpt lat="29.571526" lon="103.397892"><ele>824.9077</ele><time>2026-07-01T22:40:57.000Z</time></trkpt>
        <trkpt lat="29.571505" lon="103.397846"><ele>822.78503</ele><time>2026-07-01T22:41:02.000Z</time></trkpt>
        <trkpt lat="29.571493" lon="103.39779"><ele>823.02106</ele><time>2026-07-01T22:41:07.000Z</time></trkpt>
        <trkpt lat="29.571483" lon="103.397735"><ele>821.86743</ele><time>2026-07-01T22:41:13.000Z</time></trkpt>
        <trkpt lat="29.571466" lon="103.397683"><ele>819.73126</ele><time>2026-07-01T22:41:19.000Z</time></trkpt>
        <trkpt lat="29.571448" lon="103.397636"><ele>818.715</ele><time>2026-07-01T22:41:24.000Z</time></trkpt>
        <trkpt lat="29.571457" lon="103.397582"><ele>817.43</ele><time>2026-07-01T22:41:29.000Z</time></trkpt>
        <trkpt lat="29.571451" lon="103.397528"><ele>819.3529</ele><time>2026-07-01T22:41:32.000Z</time></trkpt>
        <trkpt lat="29.571446" lon="103.397476"><ele>818.7963</ele><time>2026-07-01T22:41:36.000Z</time></trkpt>
        <trkpt lat="29.571484" lon="103.397434"><ele>816.20667</ele><time>2026-07-01T22:41:44.000Z</time></trkpt>
        <trkpt lat="29.571484" lon="103.39738"><ele>814.79736</ele><time>2026-07-01T22:41:49.000Z</time></trkpt>
        <trkpt lat="29.571503" lon="103.397326"><ele>813.4645</ele><time>2026-07-01T22:41:55.000Z</time></trkpt>
        <trkpt lat="29.571539" lon="103.397289"><ele>812.66504</ele><time>2026-07-01T22:42:00.000Z</time></trkpt>
        <trkpt lat="29.571558" lon="103.39724"><ele>812.02673</ele><time>2026-07-01T22:42:06.000Z</time></trkpt>
        <trkpt lat="29.571599" lon="103.39722"><ele>809.91205</ele><time>2026-07-01T22:42:11.000Z</time></trkpt>
        <trkpt lat="29.57162" lon="103.397169"><ele>809.2851</ele><time>2026-07-01T22:42:14.000Z</time></trkpt>
        <trkpt lat="29.571631" lon="103.397118"><ele>806.64386</ele><time>2026-07-01T22:42:20.000Z</time></trkpt>
        <trkpt lat="29.571661" lon="103.397069"><ele>802.56177</ele><time>2026-07-01T22:42:30.000Z</time></trkpt>
        <trkpt lat="29.571689" lon="103.397025"><ele>802.09344</ele><time>2026-07-01T22:42:35.000Z</time></trkpt>
        <trkpt lat="29.57172" lon="103.396983"><ele>801.3341</ele><time>2026-07-01T22:42:40.000Z</time></trkpt>
        <trkpt lat="29.571741" lon="103.396932"><ele>799.06476</ele><time>2026-07-01T22:42:44.000Z</time></trkpt>
        <trkpt lat="29.571774" lon="103.396883"><ele>796.34204</ele><time>2026-07-01T22:42:50.000Z</time></trkpt>
        <trkpt lat="29.571822" lon="103.396855"><ele>796.25256</ele><time>2026-07-01T22:42:55.000Z</time></trkpt>
        <trkpt lat="29.571871" lon="103.396834"><ele>794.779</ele><time>2026-07-01T22:43:00.000Z</time></trkpt>
        <trkpt lat="29.571913" lon="103.396802"><ele>792.41125</ele><time>2026-07-01T22:43:06.000Z</time></trkpt>
        <trkpt lat="29.571968" lon="103.396789"><ele>791.63086</ele><time>2026-07-01T22:43:13.000Z</time></trkpt>
        <trkpt lat="29.572024" lon="103.396779"><ele>788.59375</ele><time>2026-07-01T22:43:22.000Z</time></trkpt>
        <trkpt lat="29.57208" lon="103.396779"><ele>786.45856</ele><time>2026-07-01T22:43:30.000Z</time></trkpt>
        <trkpt lat="29.572125" lon="103.396752"><ele>783.46985</ele><time>2026-07-01T22:43:37.000Z</time></trkpt>
        <trkpt lat="29.572173" lon="103.39676"><ele>779.51196</ele><time>2026-07-01T22:43:44.000Z</time></trkpt>
        <trkpt lat="29.572217" lon="103.396748"><ele>779.5304</ele><time>2026-07-01T22:43:48.000Z</time></trkpt>
        <trkpt lat="29.572261" lon="103.396732"><ele>777.1307</ele><time>2026-07-01T22:43:53.000Z</time></trkpt>
        <trkpt lat="29.572318" lon="103.39671"><ele>775.86945</ele><time>2026-07-01T22:43:59.000Z</time></trkpt>
        <trkpt lat="29.572328" lon="103.396648"><ele>774.3648</ele><time>2026-07-01T22:44:05.000Z</time></trkpt>
        <trkpt lat="29.572351" lon="103.396603"><ele>773.6606</ele><time>2026-07-01T22:44:09.000Z</time></trkpt>
        <trkpt lat="29.572354" lon="103.396551"><ele>772.21313</ele><time>2026-07-01T22:44:14.000Z</time></trkpt>
        <trkpt lat="29.572336" lon="103.396491"><ele>773.2169</ele><time>2026-07-01T22:44:19.000Z</time></trkpt>
        <trkpt lat="29.572334" lon="103.396427"><ele>774.2515</ele><time>2026-07-01T22:44:24.000Z</time></trkpt>
        <trkpt lat="29.572343" lon="103.396365"><ele>772.8698</ele><time>2026-07-01T22:44:30.000Z</time></trkpt>
        <trkpt lat="29.572378" lon="103.396329"><ele>771.39124</ele><time>2026-07-01T22:44:34.000Z</time></trkpt>
        <trkpt lat="29.572385" lon="103.396267"><ele>767.98804</ele><time>2026-07-01T22:44:40.000Z</time></trkpt>
        <trkpt lat="29.572406" lon="103.396209"><ele>766.6034</ele><time>2026-07-01T22:44:45.000Z</time></trkpt>
        <trkpt lat="29.572396" lon="103.396158"><ele>766.7123</ele><time>2026-07-01T22:44:50.000Z</time></trkpt>
        <trkpt lat="29.572406" lon="103.396107"><ele>768.5671</ele><time>2026-07-01T22:44:54.000Z</time></trkpt>
        <trkpt lat="29.572428" lon="103.396056"><ele>765.0494</ele><time>2026-07-01T22:45:01.000Z</time></trkpt>
        <trkpt lat="29.572485" lon="103.396034"><ele>765.8882</ele><time>2026-07-01T22:45:07.000Z</time></trkpt>
        <trkpt lat="29.572526" lon="103.396003"><ele>765.52765</ele><time>2026-07-01T22:45:12.000Z</time></trkpt>
        <trkpt lat="29.572556" lon="103.395952"><ele>762.5173</ele><time>2026-07-01T22:45:19.000Z</time></trkpt>
        <trkpt lat="29.572598" lon="103.395929"><ele>760.861</ele><time>2026-07-01T22:45:24.000Z</time></trkpt>
        <trkpt lat="29.572634" lon="103.395896"><ele>761.686</ele><time>2026-07-01T22:45:28.000Z</time></trkpt>
        <trkpt lat="29.572686" lon="103.395845"><ele>762.0168</ele><time>2026-07-01T22:45:35.000Z</time></trkpt>
        <trkpt lat="29.572721" lon="103.395807"><ele>760.4096</ele><time>2026-07-01T22:45:41.000Z</time></trkpt>
        <trkpt lat="29.572752" lon="103.395765"><ele>759.51294</ele><time>2026-07-01T22:45:46.000Z</time></trkpt>
        <trkpt lat="29.57277" lon="103.395708"><ele>759.5788</ele><time>2026-07-01T22:45:49.000Z</time></trkpt>
        <trkpt lat="29.572796" lon="103.39566"><ele>759.3156</ele><time>2026-07-01T22:45:53.000Z</time></trkpt>
        <trkpt lat="29.572835" lon="103.39561"><ele>755.3863</ele><time>2026-07-01T22:45:58.000Z</time></trkpt>
        <trkpt lat="29.572858" lon="103.395562"><ele>757.5152</ele><time>2026-07-01T22:46:01.000Z</time></trkpt>
        <trkpt lat="29.572876" lon="103.395508"><ele>757.03326</ele><time>2026-07-01T22:46:07.000Z</time></trkpt>
        <trkpt lat="29.57289" lon="103.395451"><ele>756.38873</ele><time>2026-07-01T22:46:10.000Z</time></trkpt>
        <trkpt lat="29.572914" lon="103.395401"><ele>755.5417</ele><time>2026-07-01T22:46:14.000Z</time></trkpt>
        <trkpt lat="29.572938" lon="103.395351"><ele>756.6145</ele><time>2026-07-01T22:46:18.000Z</time></trkpt>
        <trkpt lat="29.572959" lon="103.395298"><ele>756.38934</ele><time>2026-07-01T22:46:22.000Z</time></trkpt>
        <trkpt lat="29.572992" lon="103.395251"><ele>754.8409</ele><time>2026-07-01T22:46:28.000Z</time></trkpt>
        <trkpt lat="29.572954" lon="103.395223"><ele>751.97296</ele><time>2026-07-01T22:46:33.000Z</time></trkpt>
        <trkpt lat="29.572919" lon="103.395183"><ele>751.5849</ele><time>2026-07-01T22:46:36.000Z</time></trkpt>
        <trkpt lat="29.572916" lon="103.395129"><ele>750.8465</ele><time>2026-07-01T22:46:41.000Z</time></trkpt>
        <trkpt lat="29.572907" lon="103.395073"><ele>752.04346</ele><time>2026-07-01T22:46:46.000Z</time></trkpt>
        <trkpt lat="29.572923" lon="103.39502"><ele>753.6743</ele><time>2026-07-01T22:46:49.000Z</time></trkpt>
        <trkpt lat="29.572927" lon="103.394961"><ele>750.50305</ele><time>2026-07-01T22:46:53.000Z</time></trkpt>
        <trkpt lat="29.572928" lon="103.394909"><ele>750.46436</ele><time>2026-07-01T22:46:58.000Z</time></trkpt>
        <trkpt lat="29.572951" lon="103.39485"><ele>750.90704</ele><time>2026-07-01T22:47:02.000Z</time></trkpt>
        <trkpt lat="29.572921" lon="103.394801"><ele>752.1046</ele><time>2026-07-01T22:47:07.000Z</time></trkpt>
        <trkpt lat="29.572915" lon="103.394748"><ele>750.9972</ele><time>2026-07-01T22:47:12.000Z</time></trkpt>
        <trkpt lat="29.572875" lon="103.394713"><ele>748.4052</ele><time>2026-07-01T22:47:16.000Z</time></trkpt>
        <trkpt lat="29.572833" lon="103.394694"><ele>746.4653</ele><time>2026-07-01T22:47:21.000Z</time></trkpt>
        <trkpt lat="29.572803" lon="103.39465"><ele>743.7297</ele><time>2026-07-01T22:47:28.000Z</time></trkpt>
        <trkpt lat="29.57277" lon="103.394614"><ele>742.5512</ele><time>2026-07-01T22:47:33.000Z</time></trkpt>
        <trkpt lat="29.572743" lon="103.394572"><ele>741.3377</ele><time>2026-07-01T22:47:40.000Z</time></trkpt>
        <trkpt lat="29.57275" lon="103.394519"><ele>740.01715</ele><time>2026-07-01T22:47:49.000Z</time></trkpt>
        <trkpt lat="29.57276" lon="103.394461"><ele>734.0078</ele><time>2026-07-01T22:48:02.000Z</time></trkpt>
        <trkpt lat="29.572781" lon="103.394403"><ele>733.9839</ele><time>2026-07-01T22:48:07.000Z</time></trkpt>
        <trkpt lat="29.57279" lon="103.394349"><ele>729.28424</ele><time>2026-07-01T22:48:13.000Z</time></trkpt>
        <trkpt lat="29.572799" lon="103.39429"><ele>727.2612</ele><time>2026-07-01T22:48:19.000Z</time></trkpt>
        <trkpt lat="29.572839" lon="103.394248"><ele>726.65234</ele><time>2026-07-01T22:48:22.000Z</time></trkpt>
        <trkpt lat="29.572861" lon="103.394199"><ele>725.01874</ele><time>2026-07-01T22:48:25.000Z</time></trkpt>
        <trkpt lat="29.572881" lon="103.394139"><ele>722.7689</ele><time>2026-07-01T22:48:30.000Z</time></trkpt>
        <trkpt lat="29.572892" lon="103.394088"><ele>722.65063</ele><time>2026-07-01T22:48:35.000Z</time></trkpt>
        <trkpt lat="29.572908" lon="103.394036"><ele>723.4635</ele><time>2026-07-01T22:48:38.000Z</time></trkpt>
        <trkpt lat="29.572936" lon="103.393978"><ele>725.63416</ele><time>2026-07-01T22:48:42.000Z</time></trkpt>
        <trkpt lat="29.572957" lon="103.39393"><ele>725.86896</ele><time>2026-07-01T22:48:46.000Z</time></trkpt>
        <trkpt lat="29.572976" lon="103.39387"><ele>724.495</ele><time>2026-07-01T22:48:52.000Z</time></trkpt>
        <trkpt lat="29.573002" lon="103.39382"><ele>725.2063</ele><time>2026-07-01T22:48:56.000Z</time></trkpt>
        <trkpt lat="29.573028" lon="103.393768"><ele>722.7592</ele><time>2026-07-01T22:49:03.000Z</time></trkpt>
        <trkpt lat="29.573071" lon="103.393727"><ele>722.9304</ele><time>2026-07-01T22:49:07.000Z</time></trkpt>
        <trkpt lat="29.573117" lon="103.393709"><ele>724.4588</ele><time>2026-07-01T22:49:11.000Z</time></trkpt>
        <trkpt lat="29.573156" lon="103.39368"><ele>728.4891</ele><time>2026-07-01T22:49:17.000Z</time></trkpt>
        <trkpt lat="29.573205" lon="103.393685"><ele>728.3677</ele><time>2026-07-01T22:49:20.000Z</time></trkpt>
        <trkpt lat="29.573247" lon="103.393711"><ele>728.12695</ele><time>2026-07-01T22:49:24.000Z</time></trkpt>
        <trkpt lat="29.573292" lon="103.393717"><ele>726.10956</ele><time>2026-07-01T22:49:30.000Z</time></trkpt>
        <trkpt lat="29.573335" lon="103.393663"><ele>726.408</ele><time>2026-07-01T22:49:35.000Z</time></trkpt>
        <trkpt lat="29.573373" lon="103.393624"><ele>726.07526</ele><time>2026-07-01T22:49:39.000Z</time></trkpt>
        <trkpt lat="29.573414" lon="103.393593"><ele>723.6468</ele><time>2026-07-01T22:49:43.000Z</time></trkpt>
        <trkpt lat="29.573453" lon="103.39356"><ele>724.1593</ele><time>2026-07-01T22:49:48.000Z</time></trkpt>
        <trkpt lat="29.573509" lon="103.393551"><ele>723.5884</ele><time>2026-07-01T22:49:51.000Z</time></trkpt>
        <trkpt lat="29.573564" lon="103.393527"><ele>721.4477</ele><time>2026-07-01T22:49:56.000Z</time></trkpt>
        <trkpt lat="29.573603" lon="103.393498"><ele>720.4868</ele><time>2026-07-01T22:50:00.000Z</time></trkpt>
        <trkpt lat="29.573646" lon="103.393458"><ele>719.0749</ele><time>2026-07-01T22:50:05.000Z</time></trkpt>
        <trkpt lat="29.573683" lon="103.393415"><ele>720.4416</ele><time>2026-07-01T22:50:10.000Z</time></trkpt>
        <trkpt lat="29.573733" lon="103.393405"><ele>719.127</ele><time>2026-07-01T22:50:14.000Z</time></trkpt>
        <trkpt lat="29.573776" lon="103.393387"><ele>718.86597</ele><time>2026-07-01T22:50:18.000Z</time></trkpt>
        <trkpt lat="29.573827" lon="103.393374"><ele>718.63275</ele><time>2026-07-01T22:50:22.000Z</time></trkpt>
        <trkpt lat="29.573873" lon="103.393337"><ele>719.0475</ele><time>2026-07-01T22:50:27.000Z</time></trkpt>
        <trkpt lat="29.573913" lon="103.393309"><ele>720.7786</ele><time>2026-07-01T22:50:32.000Z</time></trkpt>
        <trkpt lat="29.573942" lon="103.393261"><ele>720.7751</ele><time>2026-07-01T22:50:35.000Z</time></trkpt>
        <trkpt lat="29.573957" lon="103.393213"><ele>718.4921</ele><time>2026-07-01T22:50:39.000Z</time></trkpt>
        <trkpt lat="29.573984" lon="103.393164"><ele>716.8727</ele><time>2026-07-01T22:50:46.000Z</time></trkpt>
        <trkpt lat="29.57399" lon="103.39311"><ele>717.1411</ele><time>2026-07-01T22:50:51.000Z</time></trkpt>
        <trkpt lat="29.57401" lon="103.393049"><ele>717.5611</ele><time>2026-07-01T22:50:55.000Z</time></trkpt>
        <trkpt lat="29.574022" lon="103.392999"><ele>713.50507</ele><time>2026-07-01T22:51:04.000Z</time></trkpt>
        <trkpt lat="29.574017" lon="103.392938"><ele>711.6241</ele><time>2026-07-01T22:51:11.000Z</time></trkpt>
        <trkpt lat="29.574045" lon="103.392886"><ele>709.5306</ele><time>2026-07-01T22:51:19.000Z</time></trkpt>
        <trkpt lat="29.574063" lon="103.392832"><ele>707.35486</ele><time>2026-07-01T22:51:27.000Z</time></trkpt>
        <trkpt lat="29.574078" lon="103.392777"><ele>706.48346</ele><time>2026-07-01T22:51:32.000Z</time></trkpt>
        <trkpt lat="29.574109" lon="103.392724"><ele>706.6604</ele><time>2026-07-01T22:51:37.000Z</time></trkpt>
        <trkpt lat="29.574135" lon="103.392675"><ele>707.8505</ele><time>2026-07-01T22:51:42.000Z</time></trkpt>
        <trkpt lat="29.574146" lon="103.392617"><ele>708.94574</ele><time>2026-07-01T22:51:48.000Z</time></trkpt>
        <trkpt lat="29.574113" lon="103.392574"><ele>707.838</ele><time>2026-07-01T22:51:54.000Z</time></trkpt>
        <trkpt lat="29.574106" lon="103.392513"><ele>707.13586</ele><time>2026-07-01T22:51:59.000Z</time></trkpt>
        <trkpt lat="29.574079" lon="103.392461"><ele>706.9057</ele><time>2026-07-01T22:52:03.000Z</time></trkpt>
        <trkpt lat="29.574064" lon="103.39241"><ele>705.1679</ele><time>2026-07-01T22:52:09.000Z</time></trkpt>
        <trkpt lat="29.574054" lon="103.392355"><ele>703.8209</ele><time>2026-07-01T22:52:14.000Z</time></trkpt>
        <trkpt lat="29.574087" lon="103.392393"><ele>700.88153</ele><time>2026-07-01T22:52:25.000Z</time></trkpt>
        <trkpt lat="29.574133" lon="103.39238"><ele>699.0223</ele><time>2026-07-01T22:52:41.000Z</time></trkpt>
        <trkpt lat="29.57418" lon="103.392346"><ele>698.3859</ele><time>2026-07-01T22:52:49.000Z</time></trkpt>
        <trkpt lat="29.574218" lon="103.392286"><ele>699.31616</ele><time>2026-07-01T22:52:56.000Z</time></trkpt>
        <trkpt lat="29.574174" lon="103.392314"><ele>700.55743</ele><time>2026-07-01T22:53:01.000Z</time></trkpt>
        <trkpt lat="29.574219" lon="103.392316"><ele>700.07794</ele><time>2026-07-01T22:53:14.000Z</time></trkpt>
        <trkpt lat="29.574269" lon="103.392315"><ele>697.35</ele><time>2026-07-01T22:53:24.000Z</time></trkpt>
        <trkpt lat="29.574237" lon="103.392356"><ele>697.93396</ele><time>2026-07-01T22:53:37.000Z</time></trkpt>
        <trkpt lat="29.574246" lon="103.392303"><ele>695.73645</ele><time>2026-07-01T22:53:39.000Z</time></trkpt>
        <trkpt lat="29.574253" lon="103.392306"><ele>692.87476</ele><time>2026-07-01T22:53:45.000Z</time></trkpt>
        <trkpt lat="29.574241" lon="103.392357"><ele>694.2497</ele><time>2026-07-01T22:53:52.000Z</time></trkpt>
        <trkpt lat="29.574291" lon="103.392358"><ele>695.80286</ele><time>2026-07-01T22:53:55.000Z</time></trkpt>
        <trkpt lat="29.574322" lon="103.392247"><ele>719.1506</ele><time>2026-07-01T22:54:24.000Z</time></trkpt>
        <trkpt lat="29.574199" lon="103.392276"><ele>703.87885</ele><time>2026-07-01T22:54:52.000Z</time></trkpt>
        <trkpt lat="29.574268" lon="103.392371"><ele>703.8519</ele><time>2026-07-01T22:54:58.000Z</time></trkpt>
        <trkpt lat="29.574242" lon="103.392207"><ele>706.02356</ele><time>2026-07-01T22:55:04.000Z</time></trkpt>
        <trkpt lat="29.573995" lon="103.392082"><ele>706.863</ele><time>2026-07-01T22:55:13.000Z</time></trkpt>
        <trkpt lat="29.573946" lon="103.392068"><ele>698.76294</ele><time>2026-07-01T22:55:28.000Z</time></trkpt>
        <trkpt lat="29.573901" lon="103.39208"><ele>699.01434</ele><time>2026-07-01T22:55:36.000Z</time></trkpt>
        <trkpt lat="29.573854" lon="103.392088"><ele>698.81</ele><time>2026-07-01T22:55:41.000Z</time></trkpt>
        <trkpt lat="29.5738" lon="103.392096"><ele>704.1544</ele><time>2026-07-01T22:56:00.000Z</time></trkpt>
        <trkpt lat="29.573764" lon="103.392056"><ele>705.24725</ele><time>2026-07-01T22:56:05.000Z</time></trkpt>
        <trkpt lat="29.57371" lon="103.392026"><ele>703.5734</ele><time>2026-07-01T22:56:09.000Z</time></trkpt>
        <trkpt lat="29.573658" lon="103.392003"><ele>704.2262</ele><time>2026-07-01T22:56:13.000Z</time></trkpt>
        <trkpt lat="29.573619" lon="103.391961"><ele>704.6401</ele><time>2026-07-01T22:56:18.000Z</time></trkpt>
        <trkpt lat="29.573588" lon="103.391906"><ele>704.76654</ele><time>2026-07-01T22:56:23.000Z</time></trkpt>
        <trkpt lat="29.573558" lon="103.391867"><ele>705.8904</ele><time>2026-07-01T22:56:26.000Z</time></trkpt>
        <trkpt lat="29.573533" lon="103.39181"><ele>707.7125</ele><time>2026-07-01T22:57:09.000Z</time></trkpt>
        <trkpt lat="29.573486" lon="103.391786"><ele>710.1519</ele><time>2026-07-01T22:57:15.000Z</time></trkpt>
        <trkpt lat="29.57344" lon="103.391769"><ele>711.601</ele><time>2026-07-01T22:57:22.000Z</time></trkpt>
        <trkpt lat="29.5734" lon="103.391808"><ele>716.8814</ele><time>2026-07-01T22:57:35.000Z</time></trkpt>
        <trkpt lat="29.573354" lon="103.39183"><ele>718.3049</ele><time>2026-07-01T22:57:44.000Z</time></trkpt>
        <trkpt lat="29.573305" lon="103.391849"><ele>719.99774</ele><time>2026-07-01T22:57:52.000Z</time></trkpt>
        <trkpt lat="29.57326" lon="103.39183"><ele>717.2342</ele><time>2026-07-01T22:57:58.000Z</time></trkpt>
        <trkpt lat="29.57323" lon="103.391789"><ele>714.3507</ele><time>2026-07-01T22:58:04.000Z</time></trkpt>
        <trkpt lat="29.573183" lon="103.391774"><ele>713.0602</ele><time>2026-07-01T22:58:12.000Z</time></trkpt>
        <trkpt lat="29.573136" lon="103.391787"><ele>715.17554</ele><time>2026-07-01T22:58:22.000Z</time></trkpt>
        <trkpt lat="29.573092" lon="103.391766"><ele>716.6088</ele><time>2026-07-01T22:58:32.000Z</time></trkpt>
        <trkpt lat="29.573053" lon="103.391732"><ele>717.4369</ele><time>2026-07-01T22:58:37.000Z</time></trkpt>
        <trkpt lat="29.573006" lon="103.391741"><ele>717.90765</ele><time>2026-07-01T22:58:43.000Z</time></trkpt>
        <trkpt lat="29.57297" lon="103.391783"><ele>719.6097</ele><time>2026-07-01T22:58:47.000Z</time></trkpt>
        <trkpt lat="29.572924" lon="103.391818"><ele>719.1446</ele><time>2026-07-01T22:58:56.000Z</time></trkpt>
        <trkpt lat="29.572875" lon="103.39185"><ele>719.47</ele><time>2026-07-01T22:59:02.000Z</time></trkpt>
        <trkpt lat="29.572818" lon="103.391871"><ele>718.6801</ele><time>2026-07-01T22:59:09.000Z</time></trkpt>
        <trkpt lat="29.572787" lon="103.391917"><ele>718.87317</ele><time>2026-07-01T22:59:15.000Z</time></trkpt>
        <trkpt lat="29.572741" lon="103.391903"><ele>719.37115</ele><time>2026-07-01T22:59:20.000Z</time></trkpt>
        <trkpt lat="29.572698" lon="103.391885"><ele>719.2431</ele><time>2026-07-01T22:59:23.000Z</time></trkpt>
        <trkpt lat="29.57265" lon="103.391876"><ele>720.9623</ele><time>2026-07-01T22:59:30.000Z</time></trkpt>
        <trkpt lat="29.572608" lon="103.391843"><ele>722.54877</ele><time>2026-07-01T22:59:39.000Z</time></trkpt>
        <trkpt lat="29.572557" lon="103.391868"><ele>722.838</ele><time>2026-07-01T22:59:48.000Z</time></trkpt>
        <trkpt lat="29.572498" lon="103.39188"><ele>723.9606</ele><time>2026-07-01T22:59:58.000Z</time></trkpt>
        <trkpt lat="29.57245" lon="103.391873"><ele>722.4628</ele><time>2026-07-01T23:00:05.000Z</time></trkpt>
        <trkpt lat="29.572421" lon="103.39183"><ele>723.0833</ele><time>2026-07-01T23:00:09.000Z</time></trkpt>
        <trkpt lat="29.572372" lon="103.391805"><ele>722.703</ele><time>2026-07-01T23:00:14.000Z</time></trkpt>
        <trkpt lat="29.572328" lon="103.391768"><ele>723.1011</ele><time>2026-07-01T23:00:19.000Z</time></trkpt>
        <trkpt lat="29.572291" lon="103.391735"><ele>723.16003</ele><time>2026-07-01T23:00:27.000Z</time></trkpt>
        <trkpt lat="29.572257" lon="103.391782"><ele>724.64874</ele><time>2026-07-01T23:00:33.000Z</time></trkpt>
        <trkpt lat="29.572212" lon="103.391758"><ele>724.6698</ele><time>2026-07-01T23:00:38.000Z</time></trkpt>
        <trkpt lat="29.572159" lon="103.391777"><ele>724.24445</ele><time>2026-07-01T23:00:42.000Z</time></trkpt>
        <trkpt lat="29.572112" lon="103.391783"><ele>723.5434</ele><time>2026-07-01T23:00:45.000Z</time></trkpt>
        <trkpt lat="29.572067" lon="103.391758"><ele>723.24786</ele><time>2026-07-01T23:00:47.000Z</time></trkpt>
        <trkpt lat="29.572004" lon="103.391803"><ele>723.66956</ele><time>2026-07-01T23:00:50.000Z</time></trkpt>
        <trkpt lat="29.571957" lon="103.391799"><ele>723.7922</ele><time>2026-07-01T23:00:53.000Z</time></trkpt>
        <trkpt lat="29.571956" lon="103.391743"><ele>723.8475</ele><time>2026-07-01T23:00:58.000Z</time></trkpt>
        <trkpt lat="29.571968" lon="103.391692"><ele>722.85596</ele><time>2026-07-01T23:01:02.000Z</time></trkpt>
        <trkpt lat="29.571931" lon="103.391736"><ele>723.53723</ele><time>2026-07-01T23:01:06.000Z</time></trkpt>
        <trkpt lat="29.571938" lon="103.39167"><ele>723.3717</ele><time>2026-07-01T23:01:10.000Z</time></trkpt>
        <trkpt lat="29.571884" lon="103.391665"><ele>723.58075</ele><time>2026-07-01T23:01:14.000Z</time></trkpt>
        <trkpt lat="29.57183" lon="103.391657"><ele>723.6194</ele><time>2026-07-01T23:01:21.000Z</time></trkpt>
        <trkpt lat="29.571781" lon="103.391664"><ele>722.47565</ele><time>2026-07-01T23:01:28.000Z</time></trkpt>
        <trkpt lat="29.571737" lon="103.391641"><ele>722.56036</ele><time>2026-07-01T23:01:30.000Z</time></trkpt>
        <trkpt lat="29.571692" lon="103.391634"><ele>722.19574</ele><time>2026-07-01T23:01:33.000Z</time></trkpt>
        <trkpt lat="29.571641" lon="103.391663"><ele>721.40027</ele><time>2026-07-01T23:01:40.000Z</time></trkpt>
        <trkpt lat="29.571597" lon="103.391634"><ele>721.6947</ele><time>2026-07-01T23:01:47.000Z</time></trkpt>
        <trkpt lat="29.57155" lon="103.39163"><ele>721.77545</ele><time>2026-07-01T23:01:51.000Z</time></trkpt>
        <trkpt lat="29.571495" lon="103.391649"><ele>719.8377</ele><time>2026-07-01T23:01:57.000Z</time></trkpt>
        <trkpt lat="29.571443" lon="103.391662"><ele>720.29175</ele><time>2026-07-01T23:02:02.000Z</time></trkpt>
        <trkpt lat="29.571385" lon="103.391682"><ele>717.5632</ele><time>2026-07-01T23:02:08.000Z</time></trkpt>
        <trkpt lat="29.571335" lon="103.391659"><ele>716.68256</ele><time>2026-07-01T23:02:12.000Z</time></trkpt>
        <trkpt lat="29.571275" lon="103.391657"><ele>717.2864</ele><time>2026-07-01T23:02:16.000Z</time></trkpt>
        <trkpt lat="29.571228" lon="103.391671"><ele>716.56396</ele><time>2026-07-01T23:02:20.000Z</time></trkpt>
        <trkpt lat="29.571186" lon="103.391705"><ele>716.5387</ele><time>2026-07-01T23:02:25.000Z</time></trkpt>
        <trkpt lat="29.571136" lon="103.391718"><ele>717.6115</ele><time>2026-07-01T23:02:32.000Z</time></trkpt>
        <trkpt lat="29.571092" lon="103.39173"><ele>717.53436</ele><time>2026-07-01T23:02:37.000Z</time></trkpt>
        <trkpt lat="29.57105" lon="103.391699"><ele>717.17</ele><time>2026-07-01T23:02:41.000Z</time></trkpt>
        <trkpt lat="29.571004" lon="103.391683"><ele>717.328</ele><time>2026-07-01T23:02:49.000Z</time></trkpt>
        <trkpt lat="29.570956" lon="103.391675"><ele>718.37006</ele><time>2026-07-01T23:02:54.000Z</time></trkpt>
        <trkpt lat="29.570907" lon="103.391647"><ele>718.24994</ele><time>2026-07-01T23:02:58.000Z</time></trkpt>
        <trkpt lat="29.57087" lon="103.391612"><ele>717.0306</ele><time>2026-07-01T23:03:04.000Z</time></trkpt>
        <trkpt lat="29.570829" lon="103.391586"><ele>718.71216</ele><time>2026-07-01T23:03:09.000Z</time></trkpt>
        <trkpt lat="29.570783" lon="103.391576"><ele>719.9061</ele><time>2026-07-01T23:03:17.000Z</time></trkpt>
        <trkpt lat="29.570749" lon="103.391535"><ele>724.18854</ele><time>2026-07-01T23:03:32.000Z</time></trkpt>
        <trkpt lat="29.570709" lon="103.391497"><ele>726.2007</ele><time>2026-07-01T23:03:40.000Z</time></trkpt>
        <trkpt lat="29.570653" lon="103.391483"><ele>730.86554</ele><time>2026-07-01T23:03:51.000Z</time></trkpt>
        <trkpt lat="29.570605" lon="103.391484"><ele>732.40344</ele><time>2026-07-01T23:03:54.000Z</time></trkpt>
        <trkpt lat="29.570607" lon="103.391432"><ele>734.68713</ele><time>2026-07-01T23:04:02.000Z</time></trkpt>
        <trkpt lat="29.570579" lon="103.391391"><ele>736.17255</ele><time>2026-07-01T23:04:07.000Z</time></trkpt>
        <trkpt lat="29.570522" lon="103.391356"><ele>736.5311</ele><time>2026-07-01T23:04:10.000Z</time></trkpt>
        <trkpt lat="29.570465" lon="103.391368"><ele>737.4497</ele><time>2026-07-01T23:04:12.000Z</time></trkpt>
        <trkpt lat="29.570448" lon="103.391307"><ele>738.4801</ele><time>2026-07-01T23:04:22.000Z</time></trkpt>
        <trkpt lat="29.570403" lon="103.391374"><ele>739.42114</ele><time>2026-07-01T23:04:26.000Z</time></trkpt>
        <trkpt lat="29.57035" lon="103.391379"><ele>738.5281</ele><time>2026-07-01T23:04:35.000Z</time></trkpt>
        <trkpt lat="29.570343" lon="103.391317"><ele>738.5409</ele><time>2026-07-01T23:04:39.000Z</time></trkpt>
        <trkpt lat="29.570315" lon="103.391364"><ele>738.7206</ele><time>2026-07-01T23:04:44.000Z</time></trkpt>
        <trkpt lat="29.570301" lon="103.391314"><ele>737.7508</ele><time>2026-07-01T23:04:53.000Z</time></trkpt>
        <trkpt lat="29.5703" lon="103.391255"><ele>737.42596</ele><time>2026-07-01T23:04:57.000Z</time></trkpt>
        <trkpt lat="29.570273" lon="103.391299"><ele>736.93353</ele><time>2026-07-01T23:05:04.000Z</time></trkpt>
        <trkpt lat="29.570227" lon="103.391273"><ele>738.4372</ele><time>2026-07-01T23:05:15.000Z</time></trkpt>
        <trkpt lat="29.570179" lon="103.391279"><ele>739.30884</ele><time>2026-07-01T23:05:22.000Z</time></trkpt>
        <trkpt lat="29.570175" lon="103.391214"><ele>739.05786</ele><time>2026-07-01T23:05:26.000Z</time></trkpt>
        <trkpt lat="29.570137" lon="103.391159"><ele>739.67883</ele><time>2026-07-01T23:05:31.000Z</time></trkpt>
        <trkpt lat="29.57013" lon="103.391102"><ele>739.0069</ele><time>2026-07-01T23:05:34.000Z</time></trkpt>
        <trkpt lat="29.570122" lon="103.391035"><ele>738.8684</ele><time>2026-07-01T23:05:38.000Z</time></trkpt>
        <trkpt lat="29.570117" lon="103.390974"><ele>737.68945</ele><time>2026-07-01T23:05:41.000Z</time></trkpt>
        <trkpt lat="29.570071" lon="103.390929"><ele>737.8257</ele><time>2026-07-01T23:05:45.000Z</time></trkpt>
        <trkpt lat="29.570015" lon="103.390908"><ele>741.241</ele><time>2026-07-01T23:05:49.000Z</time></trkpt>
        <trkpt lat="29.569945" lon="103.390905"><ele>745.6006</ele><time>2026-07-01T23:05:55.000Z</time></trkpt>
        <trkpt lat="29.569909" lon="103.390946"><ele>749.1958</ele><time>2026-07-01T23:06:02.000Z</time></trkpt>
        <trkpt lat="29.569863" lon="103.390941"><ele>748.3994</ele><time>2026-07-01T23:06:09.000Z</time></trkpt>
        <trkpt lat="29.569812" lon="103.390956"><ele>741.3139</ele><time>2026-07-01T23:06:25.000Z</time></trkpt>
        <trkpt lat="29.569772" lon="103.39099"><ele>741.2346</ele><time>2026-07-01T23:06:32.000Z</time></trkpt>
        <trkpt lat="29.569722" lon="103.391007"><ele>739.3586</ele><time>2026-07-01T23:06:38.000Z</time></trkpt>
        <trkpt lat="29.569669" lon="103.391"><ele>737.4722</ele><time>2026-07-01T23:06:47.000Z</time></trkpt>
        <trkpt lat="29.56962" lon="103.390988"><ele>736.1977</ele><time>2026-07-01T23:06:52.000Z</time></trkpt>
        <trkpt lat="29.569576" lon="103.390977"><ele>733.6758</ele><time>2026-07-01T23:06:58.000Z</time></trkpt>
        <trkpt lat="29.569525" lon="103.390986"><ele>732.4228</ele><time>2026-07-01T23:07:05.000Z</time></trkpt>
        <trkpt lat="29.569478" lon="103.391014"><ele>731.6488</ele><time>2026-07-01T23:07:12.000Z</time></trkpt>
        <trkpt lat="29.56942" lon="103.391013"><ele>729.3747</ele><time>2026-07-01T23:07:18.000Z</time></trkpt>
        <trkpt lat="29.569373" lon="103.390991"><ele>727.98346</ele><time>2026-07-01T23:07:23.000Z</time></trkpt>
        <trkpt lat="29.569325" lon="103.390982"><ele>728.87665</ele><time>2026-07-01T23:07:28.000Z</time></trkpt>
        <trkpt lat="29.569287" lon="103.390946"><ele>729.5441</ele><time>2026-07-01T23:07:35.000Z</time></trkpt>
        <trkpt lat="29.569257" lon="103.390893"><ele>730.7155</ele><time>2026-07-01T23:07:39.000Z</time></trkpt>
        <trkpt lat="29.569201" lon="103.390886"><ele>731.92676</ele><time>2026-07-01T23:07:43.000Z</time></trkpt>
        <trkpt lat="29.569155" lon="103.390892"><ele>730.5949</ele><time>2026-07-01T23:07:54.000Z</time></trkpt>
        <trkpt lat="29.56911" lon="103.390901"><ele>725.635</ele><time>2026-07-01T23:08:03.000Z</time></trkpt>
        <trkpt lat="29.569069" lon="103.390922"><ele>714.2226</ele><time>2026-07-01T23:08:21.000Z</time></trkpt>
        <trkpt lat="29.56902" lon="103.390921"><ele>712.96564</ele><time>2026-07-01T23:08:28.000Z</time></trkpt>
        <trkpt lat="29.569019" lon="103.390995"><ele>717.18427</ele><time>2026-07-01T23:08:39.000Z</time></trkpt>
        <trkpt lat="29.568979" lon="103.391029"><ele>718.3812</ele><time>2026-07-01T23:08:43.000Z</time></trkpt>
        <trkpt lat="29.568961" lon="103.39109"><ele>722.50165</ele><time>2026-07-01T23:08:52.000Z</time></trkpt>
        <trkpt lat="29.568992" lon="103.391139"><ele>723.27014</ele><time>2026-07-01T23:08:56.000Z</time></trkpt>
        <trkpt lat="29.569034" lon="103.391164"><ele>731.91815</ele><time>2026-07-01T23:09:00.000Z</time></trkpt>
        <trkpt lat="29.568986" lon="103.391197"><ele>736.3937</ele><time>2026-07-01T23:09:07.000Z</time></trkpt>
        <trkpt lat="29.568937" lon="103.391209"><ele>735.1569</ele><time>2026-07-01T23:09:09.000Z</time></trkpt>
        <trkpt lat="29.568887" lon="103.391201"><ele>740.7166</ele><time>2026-07-01T23:09:15.000Z</time></trkpt>
        <trkpt lat="29.568841" lon="103.3912"><ele>743.63904</ele><time>2026-07-01T23:09:19.000Z</time></trkpt>
        <trkpt lat="29.568795" lon="103.391197"><ele>744.62805</ele><time>2026-07-01T23:09:23.000Z</time></trkpt>
        <trkpt lat="29.56875" lon="103.391203"><ele>744.579</ele><time>2026-07-01T23:09:30.000Z</time></trkpt>
        <trkpt lat="29.568802" lon="103.391186"><ele>749.33844</ele><time>2026-07-01T23:09:53.000Z</time></trkpt>
        <trkpt lat="29.568848" lon="103.391185"><ele>748.7885</ele><time>2026-07-01T23:09:56.000Z</time></trkpt>
        <trkpt lat="29.568887" lon="103.391213"><ele>748.2361</ele><time>2026-07-01T23:10:00.000Z</time></trkpt>
        <trkpt lat="29.568931" lon="103.391187"><ele>747.1343</ele><time>2026-07-01T23:10:02.000Z</time></trkpt>
        <trkpt lat="29.568977" lon="103.391176"><ele>743.6524</ele><time>2026-07-01T23:10:05.000Z</time></trkpt>
        <trkpt lat="29.568927" lon="103.391179"><ele>740.4083</ele><time>2026-07-01T23:10:18.000Z</time></trkpt>
        <trkpt lat="29.568861" lon="103.391167"><ele>743.55334</ele><time>2026-07-01T23:10:23.000Z</time></trkpt>
        <trkpt lat="29.56882" lon="103.391141"><ele>743.73004</ele><time>2026-07-01T23:10:26.000Z</time></trkpt>
        <trkpt lat="29.568768" lon="103.391133"><ele>744.5712</ele><time>2026-07-01T23:10:29.000Z</time></trkpt>
        <trkpt lat="29.568705" lon="103.391115"><ele>743.7908</ele><time>2026-07-01T23:10:34.000Z</time></trkpt>
        <trkpt lat="29.568759" lon="103.391109"><ele>742.6331</ele><time>2026-07-01T23:10:38.000Z</time></trkpt>
        <trkpt lat="29.568776" lon="103.391175"><ele>744.2774</ele><time>2026-07-01T23:10:43.000Z</time></trkpt>
        <trkpt lat="29.568821" lon="103.391151"><ele>744.5973</ele><time>2026-07-01T23:10:44.000Z</time></trkpt>
        <trkpt lat="29.568871" lon="103.391187"><ele>746.17206</ele><time>2026-07-01T23:10:47.000Z</time></trkpt>
        <trkpt lat="29.56893" lon="103.391199"><ele>748.9456</ele><time>2026-07-01T23:10:53.000Z</time></trkpt>
        <trkpt lat="29.568961" lon="103.391157"><ele>745.61</ele><time>2026-07-01T23:11:01.000Z</time></trkpt>
        <trkpt lat="29.568894" lon="103.391152"><ele>740.8848</ele><time>2026-07-01T23:11:08.000Z</time></trkpt>
        <trkpt lat="29.568851" lon="103.391181"><ele>743.3515</ele><time>2026-07-01T23:11:14.000Z</time></trkpt>
        <trkpt lat="29.568804" lon="103.391193"><ele>744.27167</ele><time>2026-07-01T23:11:16.000Z</time></trkpt>
        <trkpt lat="29.568754" lon="103.391202"><ele>745.2834</ele><time>2026-07-01T23:11:20.000Z</time></trkpt>
        <trkpt lat="29.568802" lon="103.391226"><ele>745.93335</ele><time>2026-07-01T23:11:27.000Z</time></trkpt>
        <trkpt lat="29.568755" lon="103.391223"><ele>747.39545</ele><time>2026-07-01T23:11:30.000Z</time></trkpt>
        <trkpt lat="29.568741" lon="103.391159"><ele>749.774</ele><time>2026-07-01T23:11:33.000Z</time></trkpt>
        <trkpt lat="29.568722" lon="103.391103"><ele>751.9826</ele><time>2026-07-01T23:11:36.000Z</time></trkpt>
        <trkpt lat="29.56873" lon="103.391047"><ele>756.13763</ele><time>2026-07-01T23:11:42.000Z</time></trkpt>
        <trkpt lat="29.568715" lon="103.39093"><ele>755.7461</ele><time>2026-07-01T23:11:43.000Z</time></trkpt>
        <trkpt lat="29.56866" lon="103.390925"><ele>756.1069</ele><time>2026-07-01T23:11:45.000Z</time></trkpt>
        <trkpt lat="29.568666" lon="103.390819"><ele>756.40466</ele><time>2026-07-01T23:11:46.000Z</time></trkpt>
        <trkpt lat="29.568739" lon="103.390747"><ele>758.5167</ele><time>2026-07-01T23:11:49.000Z</time></trkpt>
        <trkpt lat="29.568691" lon="103.390762"><ele>758.6649</ele><time>2026-07-01T23:11:50.000Z</time></trkpt>
        <trkpt lat="29.568616" lon="103.390726"><ele>759.40326</ele><time>2026-07-01T23:11:55.000Z</time></trkpt>
        <trkpt lat="29.56854" lon="103.390735"><ele>760.70074</ele><time>2026-07-01T23:11:58.000Z</time></trkpt>
        <trkpt lat="29.568488" lon="103.390714"><ele>761.18616</ele><time>2026-07-01T23:12:00.000Z</time></trkpt>
        <trkpt lat="29.568416" lon="103.390663"><ele>761.8866</ele><time>2026-07-01T23:12:02.000Z</time></trkpt>
        <trkpt lat="29.568365" lon="103.390678"><ele>763.0489</ele><time>2026-07-01T23:12:04.000Z</time></trkpt>
        <trkpt lat="29.568313" lon="103.390694"><ele>762.82135</ele><time>2026-07-01T23:12:05.000Z</time></trkpt>
        <trkpt lat="29.568262" lon="103.390681"><ele>764.1708</ele><time>2026-07-01T23:12:08.000Z</time></trkpt>
        <trkpt lat="29.56821" lon="103.390645"><ele>764.63025</ele><time>2026-07-01T23:12:08.000Z</time></trkpt>
        <trkpt lat="29.568157" lon="103.390616"><ele>765.1691</ele><time>2026-07-01T23:12:09.000Z</time></trkpt>
        <trkpt lat="29.568115" lon="103.390579"><ele>766.06006</ele><time>2026-07-01T23:12:10.000Z</time></trkpt>
        <trkpt lat="29.568059" lon="103.390505"><ele>766.886</ele><time>2026-07-01T23:12:11.000Z</time></trkpt>
        <trkpt lat="29.568028" lon="103.390554"><ele>768.11285</ele><time>2026-07-01T23:12:12.000Z</time></trkpt>
        <trkpt lat="29.568072" lon="103.390584"><ele>770.2669</ele><time>2026-07-01T23:12:15.000Z</time></trkpt>
        <trkpt lat="29.568046" lon="103.390666"><ele>771.2741</ele><time>2026-07-01T23:12:17.000Z</time></trkpt>
        <trkpt lat="29.568027" lon="103.390721"><ele>771.8696</ele><time>2026-07-01T23:12:18.000Z</time></trkpt>
        <trkpt lat="29.567944" lon="103.390766"><ele>772.51434</ele><time>2026-07-01T23:12:19.000Z</time></trkpt>
        <trkpt lat="29.567866" lon="103.3908"><ele>772.84247</ele><time>2026-07-01T23:12:20.000Z</time></trkpt>
        <trkpt lat="29.567857" lon="103.390889"><ele>774.5397</ele><time>2026-07-01T23:12:25.000Z</time></trkpt>
        <trkpt lat="29.567899" lon="103.390964"><ele>774.8481</ele><time>2026-07-01T23:12:28.000Z</time></trkpt>
        <trkpt lat="29.567961" lon="103.391007"><ele>775.86786</ele><time>2026-07-01T23:12:30.000Z</time></trkpt>
        <trkpt lat="29.568024" lon="103.391101"><ele>777.93176</ele><time>2026-07-01T23:12:31.000Z</time></trkpt>
        <trkpt lat="29.568058" lon="103.391135"><ele>780.00397</ele><time>2026-07-01T23:12:33.000Z</time></trkpt>
        <trkpt lat="29.568102" lon="103.391154"><ele>780.34576</ele><time>2026-07-01T23:12:35.000Z</time></trkpt>
        <trkpt lat="29.568147" lon="103.391119"><ele>783.1536</ele><time>2026-07-01T23:12:38.000Z</time></trkpt>
        <trkpt lat="29.568209" lon="103.391063"><ele>783.69604</ele><time>2026-07-01T23:12:43.000Z</time></trkpt>
        <trkpt lat="29.568232" lon="103.391013"><ele>781.8026</ele><time>2026-07-01T23:12:46.000Z</time></trkpt>
        <trkpt lat="29.568255" lon="103.390951"><ele>781.56274</ele><time>2026-07-01T23:12:49.000Z</time></trkpt>
        <trkpt lat="29.568251" lon="103.390892"><ele>779.8812</ele><time>2026-07-01T23:12:52.000Z</time></trkpt>
        <trkpt lat="29.568238" lon="103.390838"><ele>777.94604</ele><time>2026-07-01T23:12:54.000Z</time></trkpt>
        <trkpt lat="29.568283" lon="103.390846"><ele>775.48016</ele><time>2026-07-01T23:12:57.000Z</time></trkpt>
        <trkpt lat="29.568327" lon="103.390868"><ele>769.82904</ele><time>2026-07-01T23:13:01.000Z</time></trkpt>
        <trkpt lat="29.568375" lon="103.390746"><ele>763.1772</ele><time>2026-07-01T23:13:09.000Z</time></trkpt>
        <trkpt lat="29.568324" lon="103.390796"><ele>764.839</ele><time>2026-07-01T23:13:13.000Z</time></trkpt>
        <trkpt lat="29.568269" lon="103.39079"><ele>764.98224</ele><time>2026-07-01T23:13:15.000Z</time></trkpt>
        <trkpt lat="29.568232" lon="103.390845"><ele>765.2623</ele><time>2026-07-01T23:13:16.000Z</time></trkpt>
        <trkpt lat="29.568187" lon="103.390833"><ele>765.0354</ele><time>2026-07-01T23:13:21.000Z</time></trkpt>
        <trkpt lat="29.568123" lon="103.390845"><ele>768.5112</ele><time>2026-07-01T23:13:29.000Z</time></trkpt>
        <trkpt lat="29.568096" lon="103.390896"><ele>768.24255</ele><time>2026-07-01T23:13:32.000Z</time></trkpt>
        <trkpt lat="29.568139" lon="103.390813"><ele>767.9334</ele><time>2026-07-01T23:13:37.000Z</time></trkpt>
        <trkpt lat="29.568176" lon="103.390735"><ele>767.91144</ele><time>2026-07-01T23:13:38.000Z</time></trkpt>
        <trkpt lat="29.568151" lon="103.390787"><ele>767.652</ele><time>2026-07-01T23:13:39.000Z</time></trkpt>
        <trkpt lat="29.568113" lon="103.390825"><ele>766.72095</ele><time>2026-07-01T23:13:47.000Z</time></trkpt>
        <trkpt lat="29.568149" lon="103.390765"><ele>764.9813</ele><time>2026-07-01T23:13:53.000Z</time></trkpt>
        <trkpt lat="29.568159" lon="103.390711"><ele>764.9037</ele><time>2026-07-01T23:13:57.000Z</time></trkpt>
        <trkpt lat="29.568115" lon="103.390666"><ele>763.976</ele><time>2026-07-01T23:14:07.000Z</time></trkpt>
        <trkpt lat="29.568053" lon="103.390675"><ele>762.61896</ele><time>2026-07-01T23:14:13.000Z</time></trkpt>
        <trkpt lat="29.568029" lon="103.39063"><ele>759.74396</ele><time>2026-07-01T23:14:19.000Z</time></trkpt>
        <trkpt lat="29.568062" lon="103.390557"><ele>756.41534</ele><time>2026-07-01T23:14:24.000Z</time></trkpt>
        <trkpt lat="29.568015" lon="103.390606"><ele>754.1387</ele><time>2026-07-01T23:14:28.000Z</time></trkpt>
        <trkpt lat="29.567968" lon="103.390635"><ele>752.5193</ele><time>2026-07-01T23:14:31.000Z</time></trkpt>
        <trkpt lat="29.56793" lon="103.390684"><ele>749.6966</ele><time>2026-07-01T23:14:35.000Z</time></trkpt>
        <trkpt lat="29.567934" lon="103.390735"><ele>753.8465</ele><time>2026-07-01T23:14:43.000Z</time></trkpt>
        <trkpt lat="29.567913" lon="103.390784"><ele>756.69836</ele><time>2026-07-01T23:14:46.000Z</time></trkpt>
        <trkpt lat="29.567876" lon="103.390831"><ele>760.14484</ele><time>2026-07-01T23:14:49.000Z</time></trkpt>
        <trkpt lat="29.567813" lon="103.39086"><ele>760.2601</ele><time>2026-07-01T23:14:57.000Z</time></trkpt>
        <trkpt lat="29.567755" lon="103.390867"><ele>757.95374</ele><time>2026-07-01T23:15:00.000Z</time></trkpt>
        <trkpt lat="29.56774" lon="103.390805"><ele>755.2812</ele><time>2026-07-01T23:15:02.000Z</time></trkpt>
        <trkpt lat="29.567742" lon="103.390746"><ele>755.57404</ele><time>2026-07-01T23:15:05.000Z</time></trkpt>
        <trkpt lat="29.567724" lon="103.390692"><ele>753.48444</ele><time>2026-07-01T23:15:09.000Z</time></trkpt>
        <trkpt lat="29.567681" lon="103.390669"><ele>752.0833</ele><time>2026-07-01T23:15:14.000Z</time></trkpt>
        <trkpt lat="29.567628" lon="103.390648"><ele>752.4339</ele><time>2026-07-01T23:15:18.000Z</time></trkpt>
        <trkpt lat="29.567585" lon="103.390626"><ele>750.225</ele><time>2026-07-01T23:15:21.000Z</time></trkpt>
        <trkpt lat="29.567537" lon="103.390601"><ele>745.7822</ele><time>2026-07-01T23:15:25.000Z</time></trkpt>
        <trkpt lat="29.567483" lon="103.390569"><ele>742.5217</ele><time>2026-07-01T23:15:30.000Z</time></trkpt>
        <trkpt lat="29.56746" lon="103.390522"><ele>743.42365</ele><time>2026-07-01T23:15:35.000Z</time></trkpt>
        <trkpt lat="29.567463" lon="103.390464"><ele>743.55865</ele><time>2026-07-01T23:15:37.000Z</time></trkpt>
        <trkpt lat="29.56747" lon="103.390407"><ele>743.098</ele><time>2026-07-01T23:15:40.000Z</time></trkpt>
        <trkpt lat="29.567432" lon="103.390377"><ele>742.38666</ele><time>2026-07-01T23:15:46.000Z</time></trkpt>
        <trkpt lat="29.567352" lon="103.390429"><ele>743.22485</ele><time>2026-07-01T23:15:48.000Z</time></trkpt>
        <trkpt lat="29.567335" lon="103.390371"><ele>745.0259</ele><time>2026-07-01T23:15:50.000Z</time></trkpt>
        <trkpt lat="29.567308" lon="103.390327"><ele>747.5465</ele><time>2026-07-01T23:15:53.000Z</time></trkpt>
        <trkpt lat="29.567263" lon="103.390307"><ele>750.76337</ele><time>2026-07-01T23:15:56.000Z</time></trkpt>
        <trkpt lat="29.567231" lon="103.390259"><ele>756.0319</ele><time>2026-07-01T23:16:01.000Z</time></trkpt>
        <trkpt lat="29.567192" lon="103.39021"><ele>758.72736</ele><time>2026-07-01T23:16:04.000Z</time></trkpt>
        <trkpt lat="29.567154" lon="103.390181"><ele>760.59143</ele><time>2026-07-01T23:16:06.000Z</time></trkpt>
        <trkpt lat="29.567106" lon="103.390153"><ele>763.3562</ele><time>2026-07-01T23:16:10.000Z</time></trkpt>
        <trkpt lat="29.567068" lon="103.390123"><ele>765.5282</ele><time>2026-07-01T23:16:13.000Z</time></trkpt>
        <trkpt lat="29.567018" lon="103.390078"><ele>767.8025</ele><time>2026-07-01T23:16:17.000Z</time></trkpt>
        <trkpt lat="29.56697" lon="103.390059"><ele>769.4356</ele><time>2026-07-01T23:16:19.000Z</time></trkpt>
        <trkpt lat="29.566871" lon="103.390132"><ele>770.8013</ele><time>2026-07-01T23:16:24.000Z</time></trkpt>
        <trkpt lat="29.566858" lon="103.390081"><ele>772.88544</ele><time>2026-07-01T23:16:28.000Z</time></trkpt>
        <trkpt lat="29.566823" lon="103.390033"><ele>773.6594</ele><time>2026-07-01T23:16:35.000Z</time></trkpt>
        <trkpt lat="29.566818" lon="103.389963"><ele>773.2819</ele><time>2026-07-01T23:16:40.000Z</time></trkpt>
        <trkpt lat="29.566865" lon="103.389899"><ele>772.87604</ele><time>2026-07-01T23:16:42.000Z</time></trkpt>
        <trkpt lat="29.566899" lon="103.389843"><ele>772.4726</ele><time>2026-07-01T23:16:44.000Z</time></trkpt>
        <trkpt lat="29.566915" lon="103.389788"><ele>772.6949</ele><time>2026-07-01T23:16:46.000Z</time></trkpt>
        <trkpt lat="29.566892" lon="103.38974"><ele>771.942</ele><time>2026-07-01T23:16:53.000Z</time></trkpt>
        <trkpt lat="29.566863" lon="103.389813"><ele>769.5886</ele><time>2026-07-01T23:16:56.000Z</time></trkpt>
        <trkpt lat="29.566824" lon="103.389912"><ele>766.35077</ele><time>2026-07-01T23:16:58.000Z</time></trkpt>
        <trkpt lat="29.566781" lon="103.389953"><ele>765.8321</ele><time>2026-07-01T23:16:59.000Z</time></trkpt>
        <trkpt lat="29.566748" lon="103.39"><ele>758.6938</ele><time>2026-07-01T23:17:04.000Z</time></trkpt>
        <trkpt lat="29.566701" lon="103.389992"><ele>752.692</ele><time>2026-07-01T23:17:12.000Z</time></trkpt>
        <trkpt lat="29.56666" lon="103.38994"><ele>751.3262</ele><time>2026-07-01T23:17:18.000Z</time></trkpt>
        <trkpt lat="29.56662" lon="103.389909"><ele>748.27356</ele><time>2026-07-01T23:17:21.000Z</time></trkpt>
        <trkpt lat="29.566581" lon="103.389863"><ele>747.3381</ele><time>2026-07-01T23:17:27.000Z</time></trkpt>
        <trkpt lat="29.566547" lon="103.389815"><ele>745.07886</ele><time>2026-07-01T23:17:34.000Z</time></trkpt>
        <trkpt lat="29.566482" lon="103.389826"><ele>744.84357</ele><time>2026-07-01T23:17:37.000Z</time></trkpt>
        <trkpt lat="29.566435" lon="103.389825"><ele>743.09174</ele><time>2026-07-01T23:17:43.000Z</time></trkpt>
        <trkpt lat="29.566377" lon="103.389787"><ele>741.6727</ele><time>2026-07-01T23:17:48.000Z</time></trkpt>
        <trkpt lat="29.566331" lon="103.389789"><ele>741.2717</ele><time>2026-07-01T23:17:55.000Z</time></trkpt>
        <trkpt lat="29.566282" lon="103.389791"><ele>740.3069</ele><time>2026-07-01T23:17:57.000Z</time></trkpt>
        <trkpt lat="29.566245" lon="103.389758"><ele>739.4005</ele><time>2026-07-01T23:18:06.000Z</time></trkpt>
        <trkpt lat="29.56621" lon="103.389725"><ele>738.03125</ele><time>2026-07-01T23:18:11.000Z</time></trkpt>
        <trkpt lat="29.566166" lon="103.389696"><ele>735.9823</ele><time>2026-07-01T23:18:17.000Z</time></trkpt>
        <trkpt lat="29.566123" lon="103.389673"><ele>734.7393</ele><time>2026-07-01T23:18:22.000Z</time></trkpt>
        <trkpt lat="29.566077" lon="103.389659"><ele>737.8381</ele><time>2026-07-01T23:18:27.000Z</time></trkpt>
        <trkpt lat="29.566024" lon="103.389677"><ele>739.0884</ele><time>2026-07-01T23:18:32.000Z</time></trkpt>
        <trkpt lat="29.565975" lon="103.389684"><ele>740.45667</ele><time>2026-07-01T23:18:37.000Z</time></trkpt>
        <trkpt lat="29.565935" lon="103.389715"><ele>741.9275</ele><time>2026-07-01T23:18:48.000Z</time></trkpt>
        <trkpt lat="29.565913" lon="103.389764"><ele>742.43353</ele><time>2026-07-01T23:18:52.000Z</time></trkpt>
        <trkpt lat="29.565864" lon="103.389735"><ele>742.1203</ele><time>2026-07-01T23:18:56.000Z</time></trkpt>
        <trkpt lat="29.565824" lon="103.389682"><ele>741.9411</ele><time>2026-07-01T23:18:59.000Z</time></trkpt>
        <trkpt lat="29.565769" lon="103.389705"><ele>742.7135</ele><time>2026-07-01T23:19:06.000Z</time></trkpt>
        <trkpt lat="29.565734" lon="103.389752"><ele>743.0886</ele><time>2026-07-01T23:19:10.000Z</time></trkpt>
        <trkpt lat="29.565679" lon="103.389733"><ele>745.2815</ele><time>2026-07-01T23:19:21.000Z</time></trkpt>
        <trkpt lat="29.565662" lon="103.389681"><ele>744.16754</ele><time>2026-07-01T23:19:31.000Z</time></trkpt>
        <trkpt lat="29.565662" lon="103.389625"><ele>745.462</ele><time>2026-07-01T23:19:39.000Z</time></trkpt>
        <trkpt lat="29.565614" lon="103.389629"><ele>746.8784</ele><time>2026-07-01T23:19:48.000Z</time></trkpt>
        <trkpt lat="29.56557" lon="103.389602"><ele>747.9798</ele><time>2026-07-01T23:19:56.000Z</time></trkpt>
        <trkpt lat="29.565528" lon="103.389579"><ele>748.4508</ele><time>2026-07-01T23:20:00.000Z</time></trkpt>
        <trkpt lat="29.565488" lon="103.389542"><ele>751.83307</ele><time>2026-07-01T23:20:06.000Z</time></trkpt>
        <trkpt lat="29.565437" lon="103.389546"><ele>754.70953</ele><time>2026-07-01T23:20:14.000Z</time></trkpt>
        <trkpt lat="29.565391" lon="103.389555"><ele>754.5196</ele><time>2026-07-01T23:20:18.000Z</time></trkpt>
        <trkpt lat="29.565352" lon="103.389519"><ele>756.9968</ele><time>2026-07-01T23:20:25.000Z</time></trkpt>
        <trkpt lat="29.565307" lon="103.38948"><ele>758.15076</ele><time>2026-07-01T23:20:30.000Z</time></trkpt>
        <trkpt lat="29.565257" lon="103.389471"><ele>758.8049</ele><time>2026-07-01T23:20:33.000Z</time></trkpt>
        <trkpt lat="29.565201" lon="103.389481"><ele>757.5374</ele><time>2026-07-01T23:20:37.000Z</time></trkpt>
        <trkpt lat="29.565166" lon="103.389424"><ele>754.4576</ele><time>2026-07-01T23:20:42.000Z</time></trkpt>
        <trkpt lat="29.565157" lon="103.389372"><ele>754.3193</ele><time>2026-07-01T23:20:44.000Z</time></trkpt>
        <trkpt lat="29.565145" lon="103.389314"><ele>754.7578</ele><time>2026-07-01T23:20:47.000Z</time></trkpt>
        <trkpt lat="29.565099" lon="103.389274"><ele>755.84686</ele><time>2026-07-01T23:20:50.000Z</time></trkpt>
        <trkpt lat="29.565053" lon="103.389244"><ele>757.43677</ele><time>2026-07-01T23:20:54.000Z</time></trkpt>
        <trkpt lat="29.564999" lon="103.389217"><ele>759.42474</ele><time>2026-07-01T23:20:58.000Z</time></trkpt>
        <trkpt lat="29.56495" lon="103.389201"><ele>760.7442</ele><time>2026-07-01T23:21:01.000Z</time></trkpt>
        <trkpt lat="29.564906" lon="103.389171"><ele>764.5907</ele><time>2026-07-01T23:21:05.000Z</time></trkpt>
        <trkpt lat="29.564863" lon="103.389124"><ele>767.36456</ele><time>2026-07-01T23:21:10.000Z</time></trkpt>
        <trkpt lat="29.56482" lon="103.389084"><ele>769.045</ele><time>2026-07-01T23:21:14.000Z</time></trkpt>
        <trkpt lat="29.564789" lon="103.389045"><ele>772.1977</ele><time>2026-07-01T23:21:19.000Z</time></trkpt>
        <trkpt lat="29.564755" lon="103.389008"><ele>772.46295</ele><time>2026-07-01T23:21:24.000Z</time></trkpt>
        <trkpt lat="29.564739" lon="103.388948"><ele>770.6618</ele><time>2026-07-01T23:21:33.000Z</time></trkpt>
        <trkpt lat="29.564685" lon="103.388957"><ele>771.25525</ele><time>2026-07-01T23:21:39.000Z</time></trkpt>
        <trkpt lat="29.564653" lon="103.389"><ele>770.7434</ele><time>2026-07-01T23:21:46.000Z</time></trkpt>
        <trkpt lat="29.564595" lon="103.388999"><ele>770.0455</ele><time>2026-07-01T23:21:52.000Z</time></trkpt>
        <trkpt lat="29.56464" lon="103.389012"><ele>757.7352</ele><time>2026-07-01T23:22:00.000Z</time></trkpt>
        <trkpt lat="29.564593" lon="103.389021"><ele>752.93256</ele><time>2026-07-01T23:22:18.000Z</time></trkpt>
        <trkpt lat="29.564547" lon="103.389048"><ele>752.4931</ele><time>2026-07-01T23:22:22.000Z</time></trkpt>
        <trkpt lat="29.564496" lon="103.389066"><ele>753.58203</ele><time>2026-07-01T23:22:27.000Z</time></trkpt>
        <trkpt lat="29.564447" lon="103.389087"><ele>751.87195</ele><time>2026-07-01T23:22:33.000Z</time></trkpt>
        <trkpt lat="29.564399" lon="103.389094"><ele>752.00555</ele><time>2026-07-01T23:22:39.000Z</time></trkpt>
        <trkpt lat="29.564352" lon="103.389094"><ele>751.64215</ele><time>2026-07-01T23:22:44.000Z</time></trkpt>
        <trkpt lat="29.564307" lon="103.389086"><ele>750.40497</ele><time>2026-07-01T23:22:49.000Z</time></trkpt>
        <trkpt lat="29.56425" lon="103.389088"><ele>749.8974</ele><time>2026-07-01T23:22:54.000Z</time></trkpt>
        <trkpt lat="29.564197" lon="103.38908"><ele>750.2043</ele><time>2026-07-01T23:23:00.000Z</time></trkpt>
        <trkpt lat="29.564145" lon="103.389104"><ele>751.5008</ele><time>2026-07-01T23:23:06.000Z</time></trkpt>
        <trkpt lat="29.564102" lon="103.38913"><ele>751.5224</ele><time>2026-07-01T23:23:14.000Z</time></trkpt>
        <trkpt lat="29.564068" lon="103.389168"><ele>755.23126</ele><time>2026-07-01T23:24:35.000Z</time></trkpt>
        <trkpt lat="29.564038" lon="103.389209"><ele>755.73755</ele><time>2026-07-01T23:24:44.000Z</time></trkpt>
        <trkpt lat="29.564001" lon="103.389156"><ele>752.8587</ele><time>2026-07-01T23:24:57.000Z</time></trkpt>
        <trkpt lat="29.563982" lon="103.389106"><ele>751.83203</ele><time>2026-07-01T23:25:03.000Z</time></trkpt>
        <trkpt lat="29.563963" lon="103.389057"><ele>752.70386</ele><time>2026-07-01T23:25:10.000Z</time></trkpt>
        <trkpt lat="29.563909" lon="103.389054"><ele>757.127</ele><time>2026-07-01T23:25:19.000Z</time></trkpt>
        <trkpt lat="29.56386" lon="103.389058"><ele>756.05536</ele><time>2026-07-01T23:25:24.000Z</time></trkpt>
        <trkpt lat="29.563809" lon="103.389079"><ele>755.5882</ele><time>2026-07-01T23:25:30.000Z</time></trkpt>
        <trkpt lat="29.563764" lon="103.389087"><ele>755.152</ele><time>2026-07-01T23:25:35.000Z</time></trkpt>
        <trkpt lat="29.563718" lon="103.389069"><ele>755.7416</ele><time>2026-07-01T23:25:42.000Z</time></trkpt>
        <trkpt lat="29.563672" lon="103.389069"><ele>757.8853</ele><time>2026-07-01T23:25:48.000Z</time></trkpt>
        <trkpt lat="29.563622" lon="103.389051"><ele>757.3923</ele><time>2026-07-01T23:25:54.000Z</time></trkpt>
        <trkpt lat="29.563581" lon="103.389018"><ele>753.9799</ele><time>2026-07-01T23:25:58.000Z</time></trkpt>
        <trkpt lat="29.563535" lon="103.388999"><ele>752.21985</ele><time>2026-07-01T23:26:02.000Z</time></trkpt>
        <trkpt lat="29.563487" lon="103.388983"><ele>750.32227</ele><time>2026-07-01T23:26:10.000Z</time></trkpt>
        <trkpt lat="29.563443" lon="103.388998"><ele>752.70154</ele><time>2026-07-01T23:26:15.000Z</time></trkpt>
        <trkpt lat="29.563398" lon="103.38902"><ele>756.64197</ele><time>2026-07-01T23:26:21.000Z</time></trkpt>
        <trkpt lat="29.563364" lon="103.389074"><ele>759.7733</ele><time>2026-07-01T23:26:28.000Z</time></trkpt>
        <trkpt lat="29.563326" lon="103.389104"><ele>760.22174</ele><time>2026-07-01T23:26:32.000Z</time></trkpt>
        <trkpt lat="29.563286" lon="103.38913"><ele>761.7213</ele><time>2026-07-01T23:26:38.000Z</time></trkpt>
        <trkpt lat="29.563258" lon="103.389087"><ele>759.43384</ele><time>2026-07-01T23:27:18.000Z</time></trkpt>
        <trkpt lat="29.563207" lon="103.389074"><ele>756.2233</ele><time>2026-07-01T23:27:24.000Z</time></trkpt>
        <trkpt lat="29.56316" lon="103.389059"><ele>757.12994</ele><time>2026-07-01T23:27:31.000Z</time></trkpt>
        <trkpt lat="29.563113" lon="103.389039"><ele>757.6045</ele><time>2026-07-01T23:27:43.000Z</time></trkpt>
        <trkpt lat="29.563056" lon="103.389038"><ele>755.2051</ele><time>2026-07-01T23:27:48.000Z</time></trkpt>
        <trkpt lat="29.563014" lon="103.389056"><ele>759.97766</ele><time>2026-07-01T23:27:59.000Z</time></trkpt>
        <trkpt lat="29.562959" lon="103.389064"><ele>761.5825</ele><time>2026-07-01T23:28:04.000Z</time></trkpt>
        <trkpt lat="29.562917" lon="103.389104"><ele>768.2988</ele><time>2026-07-01T23:28:15.000Z</time></trkpt>
        <trkpt lat="29.562873" lon="103.389127"><ele>769.53424</ele><time>2026-07-01T23:28:21.000Z</time></trkpt>
        <trkpt lat="29.562826" lon="103.389143"><ele>770.2276</ele><time>2026-07-01T23:28:29.000Z</time></trkpt>
        <trkpt lat="29.562777" lon="103.389151"><ele>772.4309</ele><time>2026-07-01T23:28:37.000Z</time></trkpt>
        <trkpt lat="29.562737" lon="103.389122"><ele>770.26306</ele><time>2026-07-01T23:28:50.000Z</time></trkpt>
        <trkpt lat="29.562764" lon="103.389077"><ele>766.26874</ele><time>2026-07-01T23:28:57.000Z</time></trkpt>
        <trkpt lat="29.562719" lon="103.389105"><ele>775.027</ele><time>2026-07-01T23:29:10.000Z</time></trkpt>
        <trkpt lat="29.562678" lon="103.389134"><ele>782.73584</ele><time>2026-07-01T23:29:23.000Z</time></trkpt>
        <trkpt lat="29.562634" lon="103.389106"><ele>784.6517</ele><time>2026-07-01T23:29:30.000Z</time></trkpt>
        <trkpt lat="29.56259" lon="103.389082"><ele>779.06714</ele><time>2026-07-01T23:29:36.000Z</time></trkpt>
        <trkpt lat="29.562543" lon="103.38909"><ele>779.64374</ele><time>2026-07-01T23:30:03.000Z</time></trkpt>
        <trkpt lat="29.562495" lon="103.389083"><ele>787.3514</ele><time>2026-07-01T23:30:14.000Z</time></trkpt>
        <trkpt lat="29.562464" lon="103.389045"><ele>783.33527</ele><time>2026-07-01T23:30:19.000Z</time></trkpt>
        <trkpt lat="29.562417" lon="103.389001"><ele>780.9792</ele><time>2026-07-01T23:30:25.000Z</time></trkpt>
        <trkpt lat="29.562352" lon="103.389005"><ele>780.0381</ele><time>2026-07-01T23:30:30.000Z</time></trkpt>
        <trkpt lat="29.562305" lon="103.388999"><ele>779.6064</ele><time>2026-07-01T23:30:36.000Z</time></trkpt>
        <trkpt lat="29.562256" lon="103.389002"><ele>777.09875</ele><time>2026-07-01T23:30:40.000Z</time></trkpt>
        <trkpt lat="29.562213" lon="103.389028"><ele>781.64935</ele><time>2026-07-01T23:30:45.000Z</time></trkpt>
        <trkpt lat="29.56217" lon="103.389055"><ele>790.6465</ele><time>2026-07-01T23:30:51.000Z</time></trkpt>
        <trkpt lat="29.562118" lon="103.389065"><ele>787.5807</ele><time>2026-07-01T23:30:57.000Z</time></trkpt>
        <trkpt lat="29.562068" lon="103.389081"><ele>782.1554</ele><time>2026-07-01T23:31:04.000Z</time></trkpt>
        <trkpt lat="29.562024" lon="103.389098"><ele>779.81824</ele><time>2026-07-01T23:31:08.000Z</time></trkpt>
        <trkpt lat="29.561979" lon="103.389145"><ele>773.3725</ele><time>2026-07-01T23:31:19.000Z</time></trkpt>
        <trkpt lat="29.561977" lon="103.389203"><ele>778.5173</ele><time>2026-07-01T23:31:24.000Z</time></trkpt>
        <trkpt lat="29.562016" lon="103.389252"><ele>783.32605</ele><time>2026-07-01T23:31:31.000Z</time></trkpt>
        <trkpt lat="29.562053" lon="103.389301"><ele>785.1328</ele><time>2026-07-01T23:31:36.000Z</time></trkpt>
        <trkpt lat="29.562079" lon="103.389347"><ele>786.5612</ele><time>2026-07-01T23:31:41.000Z</time></trkpt>
        <trkpt lat="29.562087" lon="103.389398"><ele>784.0588</ele><time>2026-07-01T23:31:48.000Z</time></trkpt>
        <trkpt lat="29.562039" lon="103.389411"><ele>780.54877</ele><time>2026-07-01T23:31:57.000Z</time></trkpt>
        <trkpt lat="29.561998" lon="103.389387"><ele>782.2575</ele><time>2026-07-01T23:32:07.000Z</time></trkpt>
        <trkpt lat="29.561949" lon="103.389373"><ele>790.8142</ele><time>2026-07-01T23:32:22.000Z</time></trkpt>
        <trkpt lat="29.561897" lon="103.389379"><ele>791.73334</ele><time>2026-07-01T23:32:27.000Z</time></trkpt>
        <trkpt lat="29.561854" lon="103.389361"><ele>790.5285</ele><time>2026-07-01T23:32:32.000Z</time></trkpt>
        <trkpt lat="29.56181" lon="103.389337"><ele>790.398</ele><time>2026-07-01T23:32:39.000Z</time></trkpt>
        <trkpt lat="29.561778" lon="103.3893"><ele>790.36084</ele><time>2026-07-01T23:32:45.000Z</time></trkpt>
        <trkpt lat="29.561723" lon="103.389298"><ele>790.72504</ele><time>2026-07-01T23:32:52.000Z</time></trkpt>
        <trkpt lat="29.561678" lon="103.389286"><ele>792.869</ele><time>2026-07-01T23:32:58.000Z</time></trkpt>
        <trkpt lat="29.561632" lon="103.389297"><ele>793.2826</ele><time>2026-07-01T23:33:02.000Z</time></trkpt>
        <trkpt lat="29.561586" lon="103.389281"><ele>794.7972</ele><time>2026-07-01T23:33:07.000Z</time></trkpt>
        <trkpt lat="29.56154" lon="103.389278"><ele>794.66547</ele><time>2026-07-01T23:33:11.000Z</time></trkpt>
        <trkpt lat="29.561483" lon="103.389289"><ele>795.87384</ele><time>2026-07-01T23:33:15.000Z</time></trkpt>
        <trkpt lat="29.561438" lon="103.389299"><ele>797.1363</ele><time>2026-07-01T23:33:22.000Z</time></trkpt>
        <trkpt lat="29.561394" lon="103.389276"><ele>796.9772</ele><time>2026-07-01T23:33:25.000Z</time></trkpt>
        <trkpt lat="29.561344" lon="103.389277"><ele>796.9181</ele><time>2026-07-01T23:33:29.000Z</time></trkpt>
        <trkpt lat="29.561298" lon="103.389283"><ele>798.53265</ele><time>2026-07-01T23:33:34.000Z</time></trkpt>
        <trkpt lat="29.561252" lon="103.389283"><ele>797.6829</ele><time>2026-07-01T23:33:38.000Z</time></trkpt>
        <trkpt lat="29.561204" lon="103.389275"><ele>796.69</ele><time>2026-07-01T23:33:44.000Z</time></trkpt>
        <trkpt lat="29.561149" lon="103.389266"><ele>797.58374</ele><time>2026-07-01T23:33:50.000Z</time></trkpt>
        <trkpt lat="29.561103" lon="103.389262"><ele>797.60864</ele><time>2026-07-01T23:33:56.000Z</time></trkpt>
        <trkpt lat="29.561053" lon="103.389274"><ele>797.3101</ele><time>2026-07-01T23:34:01.000Z</time></trkpt>
        <trkpt lat="29.561012" lon="103.389296"><ele>798.0366</ele><time>2026-07-01T23:34:06.000Z</time></trkpt>
        <trkpt lat="29.560964" lon="103.389307"><ele>795.6484</ele><time>2026-07-01T23:34:10.000Z</time></trkpt>
        <trkpt lat="29.560906" lon="103.389315"><ele>794.9321</ele><time>2026-07-01T23:34:15.000Z</time></trkpt>
        <trkpt lat="29.560861" lon="103.389331"><ele>793.9916</ele><time>2026-07-01T23:34:18.000Z</time></trkpt>
        <trkpt lat="29.560808" lon="103.389351"><ele>793.95825</ele><time>2026-07-01T23:34:22.000Z</time></trkpt>
        <trkpt lat="29.56075" lon="103.389356"><ele>792.0992</ele><time>2026-07-01T23:34:27.000Z</time></trkpt>
        <trkpt lat="29.560689" lon="103.38936"><ele>790.32166</ele><time>2026-07-01T23:34:32.000Z</time></trkpt>
        <trkpt lat="29.560643" lon="103.389365"><ele>789.1562</ele><time>2026-07-01T23:34:37.000Z</time></trkpt>
        <trkpt lat="29.560589" lon="103.389379"><ele>788.4735</ele><time>2026-07-01T23:34:41.000Z</time></trkpt>
        <trkpt lat="29.560548" lon="103.389404"><ele>789.99066</ele><time>2026-07-01T23:34:46.000Z</time></trkpt>
        <trkpt lat="29.560502" lon="103.389412"><ele>791.5399</ele><time>2026-07-01T23:34:54.000Z</time></trkpt>
        <trkpt lat="29.560455" lon="103.389389"><ele>793.1704</ele><time>2026-07-01T23:35:02.000Z</time></trkpt>
        <trkpt lat="29.560408" lon="103.389364"><ele>795.4304</ele><time>2026-07-01T23:35:07.000Z</time></trkpt>
        <trkpt lat="29.560359" lon="103.389367"><ele>796.6389</ele><time>2026-07-01T23:35:16.000Z</time></trkpt>
        <trkpt lat="29.560309" lon="103.389357"><ele>798.4722</ele><time>2026-07-01T23:35:24.000Z</time></trkpt>
        <trkpt lat="29.560317" lon="103.389305"><ele>795.417</ele><time>2026-07-01T23:35:30.000Z</time></trkpt>
        <trkpt lat="29.560343" lon="103.389255"><ele>795.8916</ele><time>2026-07-01T23:35:46.000Z</time></trkpt>
        <trkpt lat="29.560307" lon="103.389216"><ele>796.6177</ele><time>2026-07-01T23:35:54.000Z</time></trkpt>
        <trkpt lat="29.560265" lon="103.389193"><ele>795.0607</ele><time>2026-07-01T23:36:00.000Z</time></trkpt>
        <trkpt lat="29.560261" lon="103.389138"><ele>795.91144</ele><time>2026-07-01T23:36:11.000Z</time></trkpt>
        <trkpt lat="29.560216" lon="103.389122"><ele>797.40826</ele><time>2026-07-01T23:36:18.000Z</time></trkpt>
        <trkpt lat="29.560192" lon="103.389074"><ele>797.2475</ele><time>2026-07-01T23:36:26.000Z</time></trkpt>
        <trkpt lat="29.560187" lon="103.389017"><ele>798.076</ele><time>2026-07-01T23:36:30.000Z</time></trkpt>
        <trkpt lat="29.560152" lon="103.388976"><ele>796.43677</ele><time>2026-07-01T23:36:35.000Z</time></trkpt>
        <trkpt lat="29.560124" lon="103.388927"><ele>797.33813</ele><time>2026-07-01T23:36:45.000Z</time></trkpt>
        <trkpt lat="29.560115" lon="103.388876"><ele>797.53754</ele><time>2026-07-01T23:36:51.000Z</time></trkpt>
        <trkpt lat="29.56015" lon="103.388828"><ele>799.5925</ele><time>2026-07-01T23:37:05.000Z</time></trkpt>
        <trkpt lat="29.560187" lon="103.388794"><ele>800.0359</ele><time>2026-07-01T23:37:11.000Z</time></trkpt>
        <trkpt lat="29.560173" lon="103.388744"><ele>800.7961</ele><time>2026-07-01T23:37:15.000Z</time></trkpt>
        <trkpt lat="29.560145" lon="103.388703"><ele>801.7432</ele><time>2026-07-01T23:37:18.000Z</time></trkpt>
        <trkpt lat="29.560107" lon="103.388671"><ele>801.5881</ele><time>2026-07-01T23:37:22.000Z</time></trkpt>
        <trkpt lat="29.560062" lon="103.388653"><ele>801.61914</ele><time>2026-07-01T23:37:26.000Z</time></trkpt>
        <trkpt lat="29.560016" lon="103.388654"><ele>800.8209</ele><time>2026-07-01T23:37:30.000Z</time></trkpt>
        <trkpt lat="29.559965" lon="103.388629"><ele>800.9662</ele><time>2026-07-01T23:37:35.000Z</time></trkpt>
        <trkpt lat="29.559932" lon="103.388591"><ele>799.7488</ele><time>2026-07-01T23:37:39.000Z</time></trkpt>
        <trkpt lat="29.559885" lon="103.388565"><ele>799.9166</ele><time>2026-07-01T23:37:44.000Z</time></trkpt>
        <trkpt lat="29.559848" lon="103.388535"><ele>799.4234</ele><time>2026-07-01T23:37:50.000Z</time></trkpt>
        <trkpt lat="29.55982" lon="103.388492"><ele>800.4872</ele><time>2026-07-01T23:37:55.000Z</time></trkpt>
        <trkpt lat="29.559786" lon="103.388448"><ele>801.232</ele><time>2026-07-01T23:38:01.000Z</time></trkpt>
        <trkpt lat="29.559736" lon="103.38843"><ele>802.67303</ele><time>2026-07-01T23:38:11.000Z</time></trkpt>
        <trkpt lat="29.559696" lon="103.388402"><ele>802.8403</ele><time>2026-07-01T23:38:17.000Z</time></trkpt>
        <trkpt lat="29.559678" lon="103.388344"><ele>802.93427</ele><time>2026-07-01T23:38:22.000Z</time></trkpt>
        <trkpt lat="29.559662" lon="103.388291"><ele>802.1139</ele><time>2026-07-01T23:38:28.000Z</time></trkpt>
        <trkpt lat="29.559659" lon="103.388236"><ele>802.01337</ele><time>2026-07-01T23:38:35.000Z</time></trkpt>
        <trkpt lat="29.559623" lon="103.388203"><ele>804.22845</ele><time>2026-07-01T23:38:40.000Z</time></trkpt>
        <trkpt lat="29.559592" lon="103.388161"><ele>804.13153</ele><time>2026-07-01T23:38:46.000Z</time></trkpt>
        <trkpt lat="29.559575" lon="103.388111"><ele>804.7618</ele><time>2026-07-01T23:38:54.000Z</time></trkpt>
        <trkpt lat="29.559594" lon="103.388044"><ele>805.0654</ele><time>2026-07-01T23:38:58.000Z</time></trkpt>
        <trkpt lat="29.559551" lon="103.388013"><ele>806.52014</ele><time>2026-07-01T23:39:05.000Z</time></trkpt>
        <trkpt lat="29.559529" lon="103.387966"><ele>805.7639</ele><time>2026-07-01T23:39:07.000Z</time></trkpt>
        <trkpt lat="29.559481" lon="103.387941"><ele>803.9588</ele><time>2026-07-01T23:39:14.000Z</time></trkpt>
        <trkpt lat="29.559439" lon="103.387897"><ele>804.2568</ele><time>2026-07-01T23:39:21.000Z</time></trkpt>
        <trkpt lat="29.559384" lon="103.387894"><ele>803.8992</ele><time>2026-07-01T23:39:26.000Z</time></trkpt>
        <trkpt lat="29.559338" lon="103.387877"><ele>803.35583</ele><time>2026-07-01T23:39:31.000Z</time></trkpt>
        <trkpt lat="29.559283" lon="103.387867"><ele>803.3503</ele><time>2026-07-01T23:39:38.000Z</time></trkpt>
        <trkpt lat="29.559267" lon="103.387801"><ele>803.0788</ele><time>2026-07-01T23:39:41.000Z</time></trkpt>
        <trkpt lat="29.559215" lon="103.387784"><ele>804.7355</ele><time>2026-07-01T23:39:47.000Z</time></trkpt>
        <trkpt lat="29.559157" lon="103.387791"><ele>805.4604</ele><time>2026-07-01T23:39:53.000Z</time></trkpt>
        <trkpt lat="29.559111" lon="103.387816"><ele>805.31024</ele><time>2026-07-01T23:39:57.000Z</time></trkpt>
        <trkpt lat="29.55906" lon="103.387799"><ele>805.27423</ele><time>2026-07-01T23:40:01.000Z</time></trkpt>
        <trkpt lat="29.559009" lon="103.387783"><ele>805.06555</ele><time>2026-07-01T23:40:07.000Z</time></trkpt>
        <trkpt lat="29.55896" lon="103.387796"><ele>806.1042</ele><time>2026-07-01T23:40:13.000Z</time></trkpt>
        <trkpt lat="29.558906" lon="103.387804"><ele>811.74164</ele><time>2026-07-01T23:40:20.000Z</time></trkpt>
        <trkpt lat="29.558855" lon="103.387813"><ele>817.3451</ele><time>2026-07-01T23:40:28.000Z</time></trkpt>
        <trkpt lat="29.558806" lon="103.387812"><ele>820.3064</ele><time>2026-07-01T23:40:33.000Z</time></trkpt>
        <trkpt lat="29.558755" lon="103.387788"><ele>821.4382</ele><time>2026-07-01T23:40:38.000Z</time></trkpt>
        <trkpt lat="29.55871" lon="103.387751"><ele>822.53534</ele><time>2026-07-01T23:40:45.000Z</time></trkpt>
        <trkpt lat="29.558678" lon="103.387708"><ele>823.0573</ele><time>2026-07-01T23:40:50.000Z</time></trkpt>
        <trkpt lat="29.558674" lon="103.387657"><ele>824.5787</ele><time>2026-07-01T23:40:54.000Z</time></trkpt>
        <trkpt lat="29.558619" lon="103.387672"><ele>826.3597</ele><time>2026-07-01T23:41:01.000Z</time></trkpt>
        <trkpt lat="29.558574" lon="103.387656"><ele>826.3465</ele><time>2026-07-01T23:41:07.000Z</time></trkpt>
        <trkpt lat="29.558532" lon="103.387634"><ele>824.2143</ele><time>2026-07-01T23:41:12.000Z</time></trkpt>
        <trkpt lat="29.558503" lon="103.38758"><ele>822.9853</ele><time>2026-07-01T23:41:16.000Z</time></trkpt>
        <trkpt lat="29.558474" lon="103.387541"><ele>821.42975</ele><time>2026-07-01T23:41:19.000Z</time></trkpt>
        <trkpt lat="29.558439" lon="103.38749"><ele>820.1272</ele><time>2026-07-01T23:41:23.000Z</time></trkpt>
        <trkpt lat="29.558402" lon="103.387453"><ele>818.90753</ele><time>2026-07-01T23:41:27.000Z</time></trkpt>
        <trkpt lat="29.558368" lon="103.387412"><ele>818.1034</ele><time>2026-07-01T23:41:33.000Z</time></trkpt>
        <trkpt lat="29.558327" lon="103.387373"><ele>816.3797</ele><time>2026-07-01T23:41:39.000Z</time></trkpt>
        <trkpt lat="29.558303" lon="103.38732"><ele>821.51465</ele><time>2026-07-01T23:41:49.000Z</time></trkpt>
        <trkpt lat="29.558255" lon="103.387327"><ele>826.375</ele><time>2026-07-01T23:41:56.000Z</time></trkpt>
        <trkpt lat="29.558236" lon="103.387272"><ele>829.2121</ele><time>2026-07-01T23:42:05.000Z</time></trkpt>
        <trkpt lat="29.558191" lon="103.387252"><ele>831.4761</ele><time>2026-07-01T23:42:16.000Z</time></trkpt>
        <trkpt lat="29.558139" lon="103.387215"><ele>831.01996</ele><time>2026-07-01T23:42:26.000Z</time></trkpt>
        <trkpt lat="29.558106" lon="103.387176"><ele>833.0168</ele><time>2026-07-01T23:42:34.000Z</time></trkpt>
        <trkpt lat="29.558065" lon="103.387144"><ele>832.54596</ele><time>2026-07-01T23:42:37.000Z</time></trkpt>
        <trkpt lat="29.558033" lon="103.387105"><ele>829.94867</ele><time>2026-07-01T23:42:42.000Z</time></trkpt>
        <trkpt lat="29.557988" lon="103.387113"><ele>831.0299</ele><time>2026-07-01T23:42:47.000Z</time></trkpt>
        <trkpt lat="29.557939" lon="103.387088"><ele>827.0411</ele><time>2026-07-01T23:42:51.000Z</time></trkpt>
        <trkpt lat="29.557895" lon="103.387067"><ele>826.84985</ele><time>2026-07-01T23:42:57.000Z</time></trkpt>
        <trkpt lat="29.557838" lon="103.387037"><ele>824.801</ele><time>2026-07-01T23:43:02.000Z</time></trkpt>
        <trkpt lat="29.557791" lon="103.387028"><ele>822.44403</ele><time>2026-07-01T23:43:07.000Z</time></trkpt>
        <trkpt lat="29.557751" lon="103.387003"><ele>822.6091</ele><time>2026-07-01T23:43:13.000Z</time></trkpt>
        <trkpt lat="29.557709" lon="103.386981"><ele>823.2919</ele><time>2026-07-01T23:43:26.000Z</time></trkpt>
        <trkpt lat="29.557718" lon="103.386924"><ele>823.85504</ele><time>2026-07-01T23:43:34.000Z</time></trkpt>
        <trkpt lat="29.557722" lon="103.386868"><ele>825.1317</ele><time>2026-07-01T23:43:40.000Z</time></trkpt>
        <trkpt lat="29.557712" lon="103.386816"><ele>825.0276</ele><time>2026-07-01T23:43:49.000Z</time></trkpt>
        <trkpt lat="29.557666" lon="103.386781"><ele>824.70685</ele><time>2026-07-01T23:43:57.000Z</time></trkpt>
        <trkpt lat="29.557628" lon="103.386752"><ele>826.7583</ele><time>2026-07-01T23:44:02.000Z</time></trkpt>
        <trkpt lat="29.557584" lon="103.386738"><ele>828.48334</ele><time>2026-07-01T23:44:07.000Z</time></trkpt>
        <trkpt lat="29.557551" lon="103.386685"><ele>830.98193</ele><time>2026-07-01T23:44:14.000Z</time></trkpt>
        <trkpt lat="29.55753" lon="103.386631"><ele>829.4303</ele><time>2026-07-01T23:44:18.000Z</time></trkpt>
        <trkpt lat="29.557482" lon="103.386605"><ele>828.1964</ele><time>2026-07-01T23:44:25.000Z</time></trkpt>
        <trkpt lat="29.557441" lon="103.386579"><ele>828.07007</ele><time>2026-07-01T23:44:30.000Z</time></trkpt>
        <trkpt lat="29.557394" lon="103.386558"><ele>829.2822</ele><time>2026-07-01T23:44:34.000Z</time></trkpt>
        <trkpt lat="29.557356" lon="103.386517"><ele>829.8153</ele><time>2026-07-01T23:44:40.000Z</time></trkpt>
        <trkpt lat="29.557312" lon="103.386499"><ele>830.84827</ele><time>2026-07-01T23:44:47.000Z</time></trkpt>
        <trkpt lat="29.557275" lon="103.386468"><ele>831.90106</ele><time>2026-07-01T23:44:54.000Z</time></trkpt>
        <trkpt lat="29.557233" lon="103.386432"><ele>833.59735</ele><time>2026-07-01T23:45:03.000Z</time></trkpt>
        <trkpt lat="29.557184" lon="103.386418"><ele>832.89185</ele><time>2026-07-01T23:45:10.000Z</time></trkpt>
        <trkpt lat="29.557141" lon="103.386444"><ele>832.01917</ele><time>2026-07-01T23:45:14.000Z</time></trkpt>
        <trkpt lat="29.557093" lon="103.386449"><ele>832.242</ele><time>2026-07-01T23:45:20.000Z</time></trkpt>
        <trkpt lat="29.557048" lon="103.386436"><ele>831.63245</ele><time>2026-07-01T23:45:27.000Z</time></trkpt>
        <trkpt lat="29.557021" lon="103.386394"><ele>831.8659</ele><time>2026-07-01T23:45:32.000Z</time></trkpt>
        <trkpt lat="29.557004" lon="103.386333"><ele>832.9646</ele><time>2026-07-01T23:45:38.000Z</time></trkpt>
        <trkpt lat="29.557009" lon="103.386278"><ele>833.09235</ele><time>2026-07-01T23:45:41.000Z</time></trkpt>
        <trkpt lat="29.556985" lon="103.386228"><ele>833.5594</ele><time>2026-07-01T23:45:46.000Z</time></trkpt>
        <trkpt lat="29.556971" lon="103.386174"><ele>833.64496</ele><time>2026-07-01T23:45:50.000Z</time></trkpt>
        <trkpt lat="29.556932" lon="103.386142"><ele>834.59845</ele><time>2026-07-01T23:45:53.000Z</time></trkpt>
        <trkpt lat="29.556892" lon="103.386117"><ele>835.2389</ele><time>2026-07-01T23:45:58.000Z</time></trkpt>
        <trkpt lat="29.556865" lon="103.386068"><ele>834.3775</ele><time>2026-07-01T23:46:04.000Z</time></trkpt>
        <trkpt lat="29.556853" lon="103.386018"><ele>833.7615</ele><time>2026-07-01T23:46:09.000Z</time></trkpt>
        <trkpt lat="29.556808" lon="103.385997"><ele>831.9671</ele><time>2026-07-01T23:46:17.000Z</time></trkpt>
        <trkpt lat="29.55676" lon="103.386008"><ele>832.1956</ele><time>2026-07-01T23:46:22.000Z</time></trkpt>
        <trkpt lat="29.556718" lon="103.386033"><ele>837.5754</ele><time>2026-07-01T23:46:32.000Z</time></trkpt>
        <trkpt lat="29.556765" lon="103.386048"><ele>840.08484</ele><time>2026-07-01T23:46:40.000Z</time></trkpt>
        <trkpt lat="29.55674" lon="103.386099"><ele>843.0253</ele><time>2026-07-01T23:46:50.000Z</time></trkpt>
        <trkpt lat="29.556736" lon="103.386159"><ele>845.3636</ele><time>2026-07-01T23:46:58.000Z</time></trkpt>
        <trkpt lat="29.556776" lon="103.386202"><ele>847.8307</ele><time>2026-07-01T23:47:55.000Z</time></trkpt>
        <trkpt lat="29.556817" lon="103.386168"><ele>849.60736</ele><time>2026-07-01T23:48:19.000Z</time></trkpt>
        <trkpt lat="29.556821" lon="103.386115"><ele>850.347</ele><time>2026-07-01T23:49:01.000Z</time></trkpt>
        <trkpt lat="29.556816" lon="103.386061"><ele>849.7226</ele><time>2026-07-01T23:49:18.000Z</time></trkpt>
        <trkpt lat="29.55678" lon="103.386118"><ele>850.1807</ele><time>2026-07-01T23:49:27.000Z</time></trkpt>
        <trkpt lat="29.556837" lon="103.386047"><ele>851.21545</ele><time>2026-07-01T23:50:00.000Z</time></trkpt>
        <trkpt lat="29.556839" lon="103.385978"><ele>853.1201</ele><time>2026-07-01T23:50:15.000Z</time></trkpt>
        <trkpt lat="29.556825" lon="103.385915"><ele>853.69073</ele><time>2026-07-01T23:50:19.000Z</time></trkpt>
        <trkpt lat="29.556797" lon="103.385987"><ele>853.8192</ele><time>2026-07-01T23:50:22.000Z</time></trkpt>
        <trkpt lat="29.556775" lon="103.386049"><ele>853.8472</ele><time>2026-07-01T23:50:24.000Z</time></trkpt>
        <trkpt lat="29.556705" lon="103.386085"><ele>842.12445</ele><time>2026-07-01T23:50:46.000Z</time></trkpt>
        <trkpt lat="29.55675" lon="103.386093"><ele>838.251</ele><time>2026-07-01T23:51:51.000Z</time></trkpt>
        <trkpt lat="29.556684" lon="103.386087"><ele>844.86035</ele><time>2026-07-01T23:53:01.000Z</time></trkpt>
        <trkpt lat="29.55664" lon="103.38611"><ele>848.1089</ele><time>2026-07-01T23:53:26.000Z</time></trkpt>
        <trkpt lat="29.556592" lon="103.386137"><ele>841.6676</ele><time>2026-07-01T23:53:43.000Z</time></trkpt>
        <trkpt lat="29.556556" lon="103.38619"><ele>844.05054</ele><time>2026-07-01T23:53:47.000Z</time></trkpt>
        <trkpt lat="29.556603" lon="103.386132"><ele>831.5866</ele><time>2026-07-01T23:54:09.000Z</time></trkpt>
        <trkpt lat="29.556686" lon="103.386141"><ele>831.26556</ele><time>2026-07-01T23:54:14.000Z</time></trkpt>
        <trkpt lat="29.55667" lon="103.386077"><ele>823.3249</ele><time>2026-07-01T23:54:31.000Z</time></trkpt>
        <trkpt lat="29.556715" lon="103.386074"><ele>832.8377</ele><time>2026-07-01T23:56:13.000Z</time></trkpt>
        <trkpt lat="29.556665" lon="103.386075"><ele>841.7621</ele><time>2026-07-01T23:56:28.000Z</time></trkpt>
        <trkpt lat="29.556618" lon="103.38614"><ele>841.9069</ele><time>2026-07-01T23:56:31.000Z</time></trkpt>
        <trkpt lat="29.556572" lon="103.386142"><ele>849.1199</ele><time>2026-07-01T23:57:12.000Z</time></trkpt>
        <trkpt lat="29.556524" lon="103.386139"><ele>847.36255</ele><time>2026-07-01T23:57:39.000Z</time></trkpt>
        <trkpt lat="29.556491" lon="103.386094"><ele>844.2927</ele><time>2026-07-01T23:57:46.000Z</time></trkpt>
        <trkpt lat="29.556485" lon="103.386042"><ele>841.33386</ele><time>2026-07-01T23:57:59.000Z</time></trkpt>
        <trkpt lat="29.556461" lon="103.385991"><ele>840.06665</ele><time>2026-07-01T23:58:09.000Z</time></trkpt>
        <trkpt lat="29.5565" lon="103.385961"><ele>852.43567</ele><time>2026-07-01T23:58:24.000Z</time></trkpt>
        <trkpt lat="29.556453" lon="103.385938"><ele>855.445</ele><time>2026-07-01T23:58:34.000Z</time></trkpt>
        <trkpt lat="29.556429" lon="103.385891"><ele>849.0715</ele><time>2026-07-01T23:58:43.000Z</time></trkpt>
        <trkpt lat="29.556384" lon="103.385921"><ele>851.3216</ele><time>2026-07-01T23:58:49.000Z</time></trkpt>
        <trkpt lat="29.556356" lon="103.385965"><ele>853.04395</ele><time>2026-07-01T23:58:56.000Z</time></trkpt>
        <trkpt lat="29.556336" lon="103.386011"><ele>854.9572</ele><time>2026-07-01T23:59:06.000Z</time></trkpt>
        <trkpt lat="29.556292" lon="103.386028"><ele>858.1455</ele><time>2026-07-01T23:59:19.000Z</time></trkpt>
        <trkpt lat="29.556255" lon="103.386058"><ele>860.2962</ele><time>2026-07-01T23:59:32.000Z</time></trkpt>
        <trkpt lat="29.556206" lon="103.386071"><ele>864.57855</ele><time>2026-07-01T23:59:48.000Z</time></trkpt>
        <trkpt lat="29.556159" lon="103.386088"><ele>865.6808</ele><time>2026-07-02T00:00:03.000Z</time></trkpt>
        <trkpt lat="29.556112" lon="103.386086"><ele>868.33765</ele><time>2026-07-02T00:00:17.000Z</time></trkpt>
        <trkpt lat="29.556073" lon="103.386057"><ele>869.24164</ele><time>2026-07-02T00:00:26.000Z</time></trkpt>
        <trkpt lat="29.556027" lon="103.386063"><ele>871.2776</ele><time>2026-07-02T00:00:40.000Z</time></trkpt>
        <trkpt lat="29.55599" lon="103.386029"><ele>873.41864</ele><time>2026-07-02T00:00:58.000Z</time></trkpt>
        <trkpt lat="29.555942" lon="103.385991"><ele>878.2246</ele><time>2026-07-02T00:01:10.000Z</time></trkpt>
        <trkpt lat="29.55589" lon="103.385994"><ele>879.069</ele><time>2026-07-02T00:01:19.000Z</time></trkpt>
        <trkpt lat="29.555942" lon="103.385996"><ele>882.3966</ele><time>2026-07-02T00:01:34.000Z</time></trkpt>
        <trkpt lat="29.555994" lon="103.386005"><ele>883.9982</ele><time>2026-07-02T00:01:43.000Z</time></trkpt>
        <trkpt lat="29.556039" lon="103.385997"><ele>883.44836</ele><time>2026-07-02T00:01:51.000Z</time></trkpt>
        <trkpt lat="29.556079" lon="103.385952"><ele>882.02747</ele><time>2026-07-02T00:01:57.000Z</time></trkpt>
        <trkpt lat="29.5561" lon="103.385897"><ele>882.5246</ele><time>2026-07-02T00:02:04.000Z</time></trkpt>
        <trkpt lat="29.556054" lon="103.385872"><ele>883.06616</ele><time>2026-07-02T00:02:11.000Z</time></trkpt>
        <trkpt lat="29.556005" lon="103.385864"><ele>883.59357</ele><time>2026-07-02T00:02:18.000Z</time></trkpt>
        <trkpt lat="29.555956" lon="103.385858"><ele>885.31213</ele><time>2026-07-02T00:02:27.000Z</time></trkpt>
        <trkpt lat="29.556002" lon="103.385872"><ele>889.7102</ele><time>2026-07-02T00:02:37.000Z</time></trkpt>
        <trkpt lat="29.556028" lon="103.385822"><ele>888.12634</ele><time>2026-07-02T00:02:46.000Z</time></trkpt>
        <trkpt lat="29.55604" lon="103.385764"><ele>888.10547</ele><time>2026-07-02T00:02:54.000Z</time></trkpt>
        <trkpt lat="29.556057" lon="103.385713"><ele>888.0666</ele><time>2026-07-02T00:03:03.000Z</time></trkpt>
        <trkpt lat="29.556081" lon="103.385663"><ele>887.96356</ele><time>2026-07-02T00:03:08.000Z</time></trkpt>
        <trkpt lat="29.556069" lon="103.385605"><ele>891.7698</ele><time>2026-07-02T00:03:14.000Z</time></trkpt>
        <trkpt lat="29.556094" lon="103.385561"><ele>896.98816</ele><time>2026-07-02T00:03:26.000Z</time></trkpt>
        <trkpt lat="29.556147" lon="103.385535"><ele>898.2724</ele><time>2026-07-02T00:03:32.000Z</time></trkpt>
        <trkpt lat="29.556133" lon="103.385482"><ele>898.9119</ele><time>2026-07-02T00:03:42.000Z</time></trkpt>
        <trkpt lat="29.556111" lon="103.385435"><ele>897.66675</ele><time>2026-07-02T00:03:54.000Z</time></trkpt>
        <trkpt lat="29.556079" lon="103.385472"><ele>898.9667</ele><time>2026-07-02T00:04:01.000Z</time></trkpt>
        <trkpt lat="29.556033" lon="103.3855"><ele>899.68335</ele><time>2026-07-02T00:04:07.000Z</time></trkpt>
        <trkpt lat="29.555999" lon="103.385553"><ele>903.8431</ele><time>2026-07-02T00:04:16.000Z</time></trkpt>
        <trkpt lat="29.555952" lon="103.385553"><ele>903.53253</ele><time>2026-07-02T00:04:27.000Z</time></trkpt>
        <trkpt lat="29.555916" lon="103.385588"><ele>903.02277</ele><time>2026-07-02T00:04:33.000Z</time></trkpt>
        <trkpt lat="29.555868" lon="103.385584"><ele>902.353</ele><time>2026-07-02T00:04:42.000Z</time></trkpt>
        <trkpt lat="29.555912" lon="103.385564"><ele>902.0894</ele><time>2026-07-02T00:04:52.000Z</time></trkpt>
        <trkpt lat="29.555901" lon="103.385513"><ele>906.2248</ele><time>2026-07-02T00:05:08.000Z</time></trkpt>
        <trkpt lat="29.555857" lon="103.385528"><ele>908.87024</ele><time>2026-07-02T00:05:16.000Z</time></trkpt>
        <trkpt lat="29.555811" lon="103.385545"><ele>910.4192</ele><time>2026-07-02T00:05:24.000Z</time></trkpt>
        <trkpt lat="29.555784" lon="103.38559"><ele>911.8216</ele><time>2026-07-02T00:05:38.000Z</time></trkpt>
        <trkpt lat="29.555747" lon="103.385549"><ele>913.272</ele><time>2026-07-02T00:05:51.000Z</time></trkpt>
        <trkpt lat="29.555731" lon="103.385493"><ele>912.2544</ele><time>2026-07-02T00:06:02.000Z</time></trkpt>
        <trkpt lat="29.555738" lon="103.385441"><ele>917.73193</ele><time>2026-07-02T00:06:24.000Z</time></trkpt>
        <trkpt lat="29.555696" lon="103.385409"><ele>923.33246</ele><time>2026-07-02T00:06:38.000Z</time></trkpt>
        <trkpt lat="29.555679" lon="103.385358"><ele>922.3202</ele><time>2026-07-02T00:06:56.000Z</time></trkpt>
        <trkpt lat="29.555665" lon="103.385308"><ele>927.05493</ele><time>2026-07-02T00:07:11.000Z</time></trkpt>
        <trkpt lat="29.555679" lon="103.385257"><ele>927.9949</ele><time>2026-07-02T00:07:27.000Z</time></trkpt>
        <trkpt lat="29.555667" lon="103.385203"><ele>928.03284</ele><time>2026-07-02T00:07:40.000Z</time></trkpt>
        <trkpt lat="29.555671" lon="103.385151"><ele>933.5597</ele><time>2026-07-02T00:07:52.000Z</time></trkpt>
        <trkpt lat="29.555687" lon="103.385102"><ele>934.7443</ele><time>2026-07-02T00:08:08.000Z</time></trkpt>
        <trkpt lat="29.555655" lon="103.385063"><ele>934.37164</ele><time>2026-07-02T00:08:14.000Z</time></trkpt>
        <trkpt lat="29.555607" lon="103.385068"><ele>938.69934</ele><time>2026-07-02T00:08:34.000Z</time></trkpt>
        <trkpt lat="29.555562" lon="103.385062"><ele>939.08527</ele><time>2026-07-02T00:08:42.000Z</time></trkpt>
        <trkpt lat="29.555509" lon="103.385029"><ele>943.21216</ele><time>2026-07-02T00:09:05.000Z</time></trkpt>
        <trkpt lat="29.555457" lon="103.385027"><ele>942.1031</ele><time>2026-07-02T00:09:09.000Z</time></trkpt>
        <trkpt lat="29.555415" lon="103.385005"><ele>945.26917</ele><time>2026-07-02T00:09:25.000Z</time></trkpt>
        <trkpt lat="29.555362" lon="103.384991"><ele>944.4074</ele><time>2026-07-02T00:09:34.000Z</time></trkpt>
        <trkpt lat="29.555313" lon="103.384982"><ele>945.63306</ele><time>2026-07-02T00:09:43.000Z</time></trkpt>
        <trkpt lat="29.555268" lon="103.384991"><ele>950.9366</ele><time>2026-07-02T00:09:54.000Z</time></trkpt>
        <trkpt lat="29.555228" lon="103.384964"><ele>952.2473</ele><time>2026-07-02T00:10:08.000Z</time></trkpt>
        <trkpt lat="29.555175" lon="103.384968"><ele>955.3744</ele><time>2026-07-02T00:10:25.000Z</time></trkpt>
        <trkpt lat="29.555138" lon="103.385003"><ele>957.1381</ele><time>2026-07-02T00:10:31.000Z</time></trkpt>
        <trkpt lat="29.5551" lon="103.384963"><ele>956.1208</ele><time>2026-07-02T00:10:36.000Z</time></trkpt>
        <trkpt lat="29.555055" lon="103.384955"><ele>956.73267</ele><time>2026-07-02T00:10:43.000Z</time></trkpt>
        <trkpt lat="29.555016" lon="103.384919"><ele>956.84686</ele><time>2026-07-02T00:10:50.000Z</time></trkpt>
        <trkpt lat="29.554978" lon="103.384875"><ele>956.9265</ele><time>2026-07-02T00:11:03.000Z</time></trkpt>
        <trkpt lat="29.554935" lon="103.384851"><ele>958.5552</ele><time>2026-07-02T00:11:18.000Z</time></trkpt>
        <trkpt lat="29.554931" lon="103.384789"><ele>959.2997</ele><time>2026-07-02T00:11:22.000Z</time></trkpt>
        <trkpt lat="29.55488" lon="103.384802"><ele>960.48706</ele><time>2026-07-02T00:11:27.000Z</time></trkpt>
        <trkpt lat="29.554831" lon="103.38481"><ele>966.564</ele><time>2026-07-02T00:11:34.000Z</time></trkpt>
        <trkpt lat="29.554808" lon="103.384751"><ele>967.0218</ele><time>2026-07-02T00:11:40.000Z</time></trkpt>
        <trkpt lat="29.554758" lon="103.384717"><ele>964.6693</ele><time>2026-07-02T00:11:48.000Z</time></trkpt>
        <trkpt lat="29.554742" lon="103.384663"><ele>965.20917</ele><time>2026-07-02T00:11:53.000Z</time></trkpt>
        <trkpt lat="29.554693" lon="103.384674"><ele>967.45233</ele><time>2026-07-02T00:12:06.000Z</time></trkpt>
        <trkpt lat="29.554649" lon="103.38464"><ele>970.1659</ele><time>2026-07-02T00:12:19.000Z</time></trkpt>
        <trkpt lat="29.554661" lon="103.384586"><ele>971.825</ele><time>2026-07-02T00:12:27.000Z</time></trkpt>
        <trkpt lat="29.554636" lon="103.384536"><ele>971.3356</ele><time>2026-07-02T00:12:30.000Z</time></trkpt>
        <trkpt lat="29.554627" lon="103.38459"><ele>977.23535</ele><time>2026-07-02T00:12:51.000Z</time></trkpt>
        <trkpt lat="29.554631" lon="103.384538"><ele>979.119</ele><time>2026-07-02T00:12:57.000Z</time></trkpt>
        <trkpt lat="29.55468" lon="103.384554"><ele>978.1636</ele><time>2026-07-02T00:13:06.000Z</time></trkpt>
        <trkpt lat="29.55471" lon="103.384513"><ele>976.77094</ele><time>2026-07-02T00:13:09.000Z</time></trkpt>
        <trkpt lat="29.554751" lon="103.384536"><ele>978.65314</ele><time>2026-07-02T00:13:29.000Z</time></trkpt>
        <trkpt lat="29.55478" lon="103.384485"><ele>981.73975</ele><time>2026-07-02T00:13:41.000Z</time></trkpt>
        <trkpt lat="29.554814" lon="103.384445"><ele>984.9423</ele><time>2026-07-02T00:13:52.000Z</time></trkpt>
        <trkpt lat="29.554843" lon="103.384388"><ele>991.8656</ele><time>2026-07-02T00:14:05.000Z</time></trkpt>
        <trkpt lat="29.554892" lon="103.384382"><ele>992.51855</ele><time>2026-07-02T00:14:17.000Z</time></trkpt>
        <trkpt lat="29.554941" lon="103.384375"><ele>993.1666</ele><time>2026-07-02T00:14:22.000Z</time></trkpt>
        <trkpt lat="29.554952" lon="103.384321"><ele>994.12933</ele><time>2026-07-02T00:14:31.000Z</time></trkpt>
        <trkpt lat="29.55499" lon="103.384292"><ele>995.83844</ele><time>2026-07-02T00:14:40.000Z</time></trkpt>
        <trkpt lat="29.555036" lon="103.384289"><ele>997.5522</ele><time>2026-07-02T00:14:51.000Z</time></trkpt>
        <trkpt lat="29.555049" lon="103.384238"><ele>998.0192</ele><time>2026-07-02T00:15:07.000Z</time></trkpt>
        <trkpt lat="29.555048" lon="103.384179"><ele>999.72736</ele><time>2026-07-02T00:15:16.000Z</time></trkpt>
        <trkpt lat="29.555017" lon="103.384132"><ele>998.39886</ele><time>2026-07-02T00:15:28.000Z</time></trkpt>
        <trkpt lat="29.554979" lon="103.384079"><ele>993.02905</ele><time>2026-07-02T00:15:35.000Z</time></trkpt>
        <trkpt lat="29.55495" lon="103.384031"><ele>995.6482</ele><time>2026-07-02T00:15:41.000Z</time></trkpt>
        <trkpt lat="29.554948" lon="103.383979"><ele>998.44556</ele><time>2026-07-02T00:15:45.000Z</time></trkpt>
        <trkpt lat="29.554986" lon="103.38394"><ele>1005.3637</ele><time>2026-07-02T00:15:54.000Z</time></trkpt>
        <trkpt lat="29.554965" lon="103.383893"><ele>1008.04486</ele><time>2026-07-02T00:16:17.000Z</time></trkpt>
        <trkpt lat="29.554935" lon="103.383842"><ele>1006.3585</ele><time>2026-07-02T00:16:26.000Z</time></trkpt>
        <trkpt lat="29.554945" lon="103.383791"><ele>1002.756</ele><time>2026-07-02T00:16:35.000Z</time></trkpt>
        <trkpt lat="29.55498" lon="103.383749"><ele>995.95184</ele><time>2026-07-02T00:16:55.000Z</time></trkpt>
        <trkpt lat="29.555008" lon="103.383699"><ele>996.29504</ele><time>2026-07-02T00:17:02.000Z</time></trkpt>
        <trkpt lat="29.555031" lon="103.383652"><ele>996.2041</ele><time>2026-07-02T00:17:07.000Z</time></trkpt>
        <trkpt lat="29.555021" lon="103.3836"><ele>996.18854</ele><time>2026-07-02T00:17:15.000Z</time></trkpt>
        <trkpt lat="29.555007" lon="103.383547"><ele>996.94574</ele><time>2026-07-02T00:17:21.000Z</time></trkpt>
        <trkpt lat="29.554983" lon="103.383503"><ele>996.554</ele><time>2026-07-02T00:17:27.000Z</time></trkpt>
        <trkpt lat="29.554957" lon="103.38346"><ele>996.9965</ele><time>2026-07-02T00:17:35.000Z</time></trkpt>
        <trkpt lat="29.554912" lon="103.383436"><ele>997.57745</ele><time>2026-07-02T00:17:41.000Z</time></trkpt>
        <trkpt lat="29.55487" lon="103.383398"><ele>997.9203</ele><time>2026-07-02T00:17:47.000Z</time></trkpt>
        <trkpt lat="29.554834" lon="103.383367"><ele>998.17584</ele><time>2026-07-02T00:17:54.000Z</time></trkpt>
        <trkpt lat="29.554799" lon="103.383327"><ele>999.4475</ele><time>2026-07-02T00:18:01.000Z</time></trkpt>
        <trkpt lat="29.554758" lon="103.383301"><ele>999.1143</ele><time>2026-07-02T00:18:06.000Z</time></trkpt>
        <trkpt lat="29.554713" lon="103.383292"><ele>999.30035</ele><time>2026-07-02T00:18:10.000Z</time></trkpt>
        <trkpt lat="29.554663" lon="103.383266"><ele>1000.44904</ele><time>2026-07-02T00:18:16.000Z</time></trkpt>
        <trkpt lat="29.554623" lon="103.383231"><ele>1001.83044</ele><time>2026-07-02T00:18:21.000Z</time></trkpt>
        <trkpt lat="29.554576" lon="103.383205"><ele>1003.68146</ele><time>2026-07-02T00:18:28.000Z</time></trkpt>
        <trkpt lat="29.554535" lon="103.383179"><ele>1004.2524</ele><time>2026-07-02T00:18:34.000Z</time></trkpt>
        <trkpt lat="29.554485" lon="103.383173"><ele>1003.6812</ele><time>2026-07-02T00:18:39.000Z</time></trkpt>
        <trkpt lat="29.554473" lon="103.383121"><ele>1004.3732</ele><time>2026-07-02T00:18:45.000Z</time></trkpt>
        <trkpt lat="29.554461" lon="103.383066"><ele>1006.4452</ele><time>2026-07-02T00:18:52.000Z</time></trkpt>
        <trkpt lat="29.554469" lon="103.383009"><ele>1010.0654</ele><time>2026-07-02T00:19:02.000Z</time></trkpt>
        <trkpt lat="29.554425" lon="103.382997"><ele>1009.2649</ele><time>2026-07-02T00:19:09.000Z</time></trkpt>
        <trkpt lat="29.554385" lon="103.38297"><ele>1012.4801</ele><time>2026-07-02T00:19:21.000Z</time></trkpt>
        <trkpt lat="29.554385" lon="103.382916"><ele>1010.2887</ele><time>2026-07-02T00:19:52.000Z</time></trkpt>
        <trkpt lat="29.554392" lon="103.382862"><ele>1011.3186</ele><time>2026-07-02T00:20:03.000Z</time></trkpt>
        <trkpt lat="29.554419" lon="103.382803"><ele>1010.5995</ele><time>2026-07-02T00:20:18.000Z</time></trkpt>
        <trkpt lat="29.554409" lon="103.38275"><ele>1014.6944</ele><time>2026-07-02T00:20:35.000Z</time></trkpt>
        <trkpt lat="29.554426" lon="103.3827"><ele>1016.9248</ele><time>2026-07-02T00:20:51.000Z</time></trkpt>
        <trkpt lat="29.554419" lon="103.382641"><ele>1018.20605</ele><time>2026-07-02T00:20:59.000Z</time></trkpt>
        <trkpt lat="29.554401" lon="103.382592"><ele>1020.2594</ele><time>2026-07-02T00:21:10.000Z</time></trkpt>
        <trkpt lat="29.554369" lon="103.382552"><ele>1021.56384</ele><time>2026-07-02T00:21:18.000Z</time></trkpt>
        <trkpt lat="29.554334" lon="103.382516"><ele>1022.78894</ele><time>2026-07-02T00:21:30.000Z</time></trkpt>
        <trkpt lat="29.554314" lon="103.382459"><ele>1025.6859</ele><time>2026-07-02T00:21:45.000Z</time></trkpt>
        <trkpt lat="29.554271" lon="103.38241"><ele>1025.5079</ele><time>2026-07-02T00:21:50.000Z</time></trkpt>
        <trkpt lat="29.554243" lon="103.382363"><ele>1026.2405</ele><time>2026-07-02T00:21:57.000Z</time></trkpt>
        <trkpt lat="29.554237" lon="103.382305"><ele>1027.0841</ele><time>2026-07-02T00:22:02.000Z</time></trkpt>
        <trkpt lat="29.554238" lon="103.382249"><ele>1031.5834</ele><time>2026-07-02T00:22:15.000Z</time></trkpt>
        <trkpt lat="29.554253" lon="103.382198"><ele>1032.1755</ele><time>2026-07-02T00:22:20.000Z</time></trkpt>
        <trkpt lat="29.554263" lon="103.382142"><ele>1032.4163</ele><time>2026-07-02T00:22:26.000Z</time></trkpt>
        <trkpt lat="29.554264" lon="103.382089"><ele>1033.3048</ele><time>2026-07-02T00:22:31.000Z</time></trkpt>
        <trkpt lat="29.554257" lon="103.382029"><ele>1030.9156</ele><time>2026-07-02T00:22:37.000Z</time></trkpt>
        <trkpt lat="29.55423" lon="103.381979"><ele>1031.886</ele><time>2026-07-02T00:22:42.000Z</time></trkpt>
        <trkpt lat="29.554202" lon="103.38193"><ele>1031.6211</ele><time>2026-07-02T00:22:47.000Z</time></trkpt>
        <trkpt lat="29.554181" lon="103.381881"><ele>1031.7748</ele><time>2026-07-02T00:22:53.000Z</time></trkpt>
        <trkpt lat="29.554159" lon="103.381829"><ele>1032.6871</ele><time>2026-07-02T00:22:57.000Z</time></trkpt>
        <trkpt lat="29.554178" lon="103.381778"><ele>1037.0986</ele><time>2026-07-02T00:23:11.000Z</time></trkpt>
        <trkpt lat="29.554176" lon="103.38172"><ele>1035.6913</ele><time>2026-07-02T00:23:20.000Z</time></trkpt>
        <trkpt lat="29.554137" lon="103.381688"><ele>1033.8573</ele><time>2026-07-02T00:23:25.000Z</time></trkpt>
        <trkpt lat="29.554119" lon="103.381629"><ele>1033.5015</ele><time>2026-07-02T00:23:31.000Z</time></trkpt>
        <trkpt lat="29.554107" lon="103.381569"><ele>1036.4158</ele><time>2026-07-02T00:23:37.000Z</time></trkpt>
        <trkpt lat="29.554087" lon="103.381518"><ele>1040.2937</ele><time>2026-07-02T00:23:43.000Z</time></trkpt>
        <trkpt lat="29.554072" lon="103.381461"><ele>1041.8278</ele><time>2026-07-02T00:23:50.000Z</time></trkpt>
        <trkpt lat="29.554058" lon="103.3814"><ele>1041.4348</ele><time>2026-07-02T00:23:58.000Z</time></trkpt>
        <trkpt lat="29.554043" lon="103.381351"><ele>1041.3894</ele><time>2026-07-02T00:24:05.000Z</time></trkpt>
        <trkpt lat="29.554068" lon="103.381308"><ele>1039.9209</ele><time>2026-07-02T00:24:09.000Z</time></trkpt>
        <trkpt lat="29.554045" lon="103.381252"><ele>1039.9729</ele><time>2026-07-02T00:24:15.000Z</time></trkpt>
        <trkpt lat="29.554019" lon="103.381205"><ele>1039.507</ele><time>2026-07-02T00:24:19.000Z</time></trkpt>
        <trkpt lat="29.554015" lon="103.381139"><ele>1040.4226</ele><time>2026-07-02T00:24:23.000Z</time></trkpt>
        <trkpt lat="29.553988" lon="103.38109"><ele>1043.0774</ele><time>2026-07-02T00:24:28.000Z</time></trkpt>
        <trkpt lat="29.553974" lon="103.38104"><ele>1044.925</ele><time>2026-07-02T00:24:37.000Z</time></trkpt>
        <trkpt lat="29.553994" lon="103.380981"><ele>1047.096</ele><time>2026-07-02T00:24:45.000Z</time></trkpt>
        <trkpt lat="29.553974" lon="103.380928"><ele>1045.3647</ele><time>2026-07-02T00:24:52.000Z</time></trkpt>
        <trkpt lat="29.55398" lon="103.380873"><ele>1045.9393</ele><time>2026-07-02T00:25:00.000Z</time></trkpt>
        <trkpt lat="29.554021" lon="103.380847"><ele>1046.7849</ele><time>2026-07-02T00:25:03.000Z</time></trkpt>
        <trkpt lat="29.554037" lon="103.380785"><ele>1047.0741</ele><time>2026-07-02T00:25:11.000Z</time></trkpt>
        <trkpt lat="29.55406" lon="103.380739"><ele>1045.8591</ele><time>2026-07-02T00:25:15.000Z</time></trkpt>
        <trkpt lat="29.554083" lon="103.380689"><ele>1044.7585</ele><time>2026-07-02T00:25:24.000Z</time></trkpt>
        <trkpt lat="29.554077" lon="103.380638"><ele>1045.2073</ele><time>2026-07-02T00:25:30.000Z</time></trkpt>
        <trkpt lat="29.554073" lon="103.38058"><ele>1047.059</ele><time>2026-07-02T00:25:39.000Z</time></trkpt>
        <trkpt lat="29.554056" lon="103.380529"><ele>1046.6005</ele><time>2026-07-02T00:25:45.000Z</time></trkpt>
        <trkpt lat="29.554061" lon="103.380475"><ele>1047.5896</ele><time>2026-07-02T00:25:48.000Z</time></trkpt>
        <trkpt lat="29.554056" lon="103.380414"><ele>1046.9193</ele><time>2026-07-02T00:25:53.000Z</time></trkpt>
        <trkpt lat="29.554051" lon="103.380353"><ele>1047.7977</ele><time>2026-07-02T00:25:58.000Z</time></trkpt>
        <trkpt lat="29.554031" lon="103.380302"><ele>1046.5078</ele><time>2026-07-02T00:26:03.000Z</time></trkpt>
        <trkpt lat="29.55403" lon="103.380248"><ele>1047.5392</ele><time>2026-07-02T00:26:10.000Z</time></trkpt>
        <trkpt lat="29.554048" lon="103.380194"><ele>1048.212</ele><time>2026-07-02T00:26:15.000Z</time></trkpt>
        <trkpt lat="29.55404" lon="103.380143"><ele>1048.4358</ele><time>2026-07-02T00:26:21.000Z</time></trkpt>
        <trkpt lat="29.554036" lon="103.380091"><ele>1048.3608</ele><time>2026-07-02T00:26:28.000Z</time></trkpt>
        <trkpt lat="29.554031" lon="103.38003"><ele>1049.417</ele><time>2026-07-02T00:26:34.000Z</time></trkpt>
        <trkpt lat="29.554011" lon="103.379981"><ele>1053.7579</ele><time>2026-07-02T00:26:40.000Z</time></trkpt>
        <trkpt lat="29.553983" lon="103.379938"><ele>1054.1552</ele><time>2026-07-02T00:26:48.000Z</time></trkpt>
        <trkpt lat="29.553972" lon="103.379879"><ele>1054.0508</ele><time>2026-07-02T00:26:58.000Z</time></trkpt>
        <trkpt lat="29.553964" lon="103.379827"><ele>1057.4402</ele><time>2026-07-02T00:27:08.000Z</time></trkpt>
        <trkpt lat="29.553942" lon="103.379781"><ele>1061.0928</ele><time>2026-07-02T00:27:23.000Z</time></trkpt>
        <trkpt lat="29.553939" lon="103.379727"><ele>1061.0426</ele><time>2026-07-02T00:27:38.000Z</time></trkpt>
        <trkpt lat="29.553931" lon="103.37967"><ele>1060.238</ele><time>2026-07-02T00:27:50.000Z</time></trkpt>
        <trkpt lat="29.553908" lon="103.379615"><ele>1062.4734</ele><time>2026-07-02T00:27:59.000Z</time></trkpt>
        <trkpt lat="29.553901" lon="103.379562"><ele>1063.3081</ele><time>2026-07-02T00:28:08.000Z</time></trkpt>
        <trkpt lat="29.553889" lon="103.379509"><ele>1067.1509</ele><time>2026-07-02T00:28:15.000Z</time></trkpt>
        <trkpt lat="29.553876" lon="103.379459"><ele>1070.7928</ele><time>2026-07-02T00:28:23.000Z</time></trkpt>
        <trkpt lat="29.553868" lon="103.379408"><ele>1071.1307</ele><time>2026-07-02T00:28:31.000Z</time></trkpt>
        <trkpt lat="29.553869" lon="103.379354"><ele>1072.8003</ele><time>2026-07-02T00:28:40.000Z</time></trkpt>
        <trkpt lat="29.553854" lon="103.379298"><ele>1072.2695</ele><time>2026-07-02T00:28:49.000Z</time></trkpt>
        <trkpt lat="29.55384" lon="103.379249"><ele>1072.932</ele><time>2026-07-02T00:28:56.000Z</time></trkpt>
        <trkpt lat="29.5538" lon="103.379221"><ele>1073.8258</ele><time>2026-07-02T00:29:03.000Z</time></trkpt>
        <trkpt lat="29.553788" lon="103.379162"><ele>1076.6791</ele><time>2026-07-02T00:29:10.000Z</time></trkpt>
        <trkpt lat="29.553777" lon="103.379108"><ele>1078.5868</ele><time>2026-07-02T00:29:18.000Z</time></trkpt>
        <trkpt lat="29.553809" lon="103.37906"><ele>1081.3895</ele><time>2026-07-02T00:29:25.000Z</time></trkpt>
        <trkpt lat="29.553804" lon="103.379004"><ele>1082.037</ele><time>2026-07-02T00:29:30.000Z</time></trkpt>
        <trkpt lat="29.553808" lon="103.37895"><ele>1080.9332</ele><time>2026-07-02T00:29:35.000Z</time></trkpt>
        <trkpt lat="29.55382" lon="103.378892"><ele>1079.1984</ele><time>2026-07-02T00:29:51.000Z</time></trkpt>
        <trkpt lat="29.553829" lon="103.378834"><ele>1078.5516</ele><time>2026-07-02T00:29:57.000Z</time></trkpt>
        <trkpt lat="29.55386" lon="103.378787"><ele>1079.3446</ele><time>2026-07-02T00:30:01.000Z</time></trkpt>
        <trkpt lat="29.553884" lon="103.378736"><ele>1079.5381</ele><time>2026-07-02T00:30:05.000Z</time></trkpt>
        <trkpt lat="29.553866" lon="103.378686"><ele>1077.8804</ele><time>2026-07-02T00:30:11.000Z</time></trkpt>
        <trkpt lat="29.553863" lon="103.378632"><ele>1078.4049</ele><time>2026-07-02T00:30:17.000Z</time></trkpt>
        <trkpt lat="29.553827" lon="103.378598"><ele>1079.2244</ele><time>2026-07-02T00:30:24.000Z</time></trkpt>
        <trkpt lat="29.553835" lon="103.378542"><ele>1079.5538</ele><time>2026-07-02T00:30:32.000Z</time></trkpt>
        <trkpt lat="29.553822" lon="103.37849"><ele>1084.6465</ele><time>2026-07-02T00:30:45.000Z</time></trkpt>
        <trkpt lat="29.553823" lon="103.378435"><ele>1088.1421</ele><time>2026-07-02T00:30:55.000Z</time></trkpt>
        <trkpt lat="29.553778" lon="103.3784"><ele>1090.0789</ele><time>2026-07-02T00:31:03.000Z</time></trkpt>
        <trkpt lat="29.553745" lon="103.378362"><ele>1089.789</ele><time>2026-07-02T00:31:11.000Z</time></trkpt>
        <trkpt lat="29.553706" lon="103.378316"><ele>1089.1268</ele><time>2026-07-02T00:31:22.000Z</time></trkpt>
        <trkpt lat="29.553681" lon="103.37827"><ele>1088.511</ele><time>2026-07-02T00:31:33.000Z</time></trkpt>
        <trkpt lat="29.55364" lon="103.378217"><ele>1091.0552</ele><time>2026-07-02T00:31:48.000Z</time></trkpt>
        <trkpt lat="29.553623" lon="103.378169"><ele>1091.1681</ele><time>2026-07-02T00:31:53.000Z</time></trkpt>
        <trkpt lat="29.553627" lon="103.378112"><ele>1095.7946</ele><time>2026-07-02T00:31:58.000Z</time></trkpt>
        <trkpt lat="29.553636" lon="103.378049"><ele>1100.0059</ele><time>2026-07-02T00:32:07.000Z</time></trkpt>
        <trkpt lat="29.553594" lon="103.378029"><ele>1100.952</ele><time>2026-07-02T00:32:20.000Z</time></trkpt>
        <trkpt lat="29.553574" lon="103.377977"><ele>1101.7617</ele><time>2026-07-02T00:32:36.000Z</time></trkpt>
        <trkpt lat="29.553544" lon="103.377935"><ele>1105.652</ele><time>2026-07-02T00:32:52.000Z</time></trkpt>
        <trkpt lat="29.553501" lon="103.377893"><ele>1106.7335</ele><time>2026-07-02T00:33:01.000Z</time></trkpt>
        <trkpt lat="29.553457" lon="103.377864"><ele>1104.5814</ele><time>2026-07-02T00:33:09.000Z</time></trkpt>
        <trkpt lat="29.553422" lon="103.377901"><ele>1112.7104</ele><time>2026-07-02T00:33:30.000Z</time></trkpt>
        <trkpt lat="29.553427" lon="103.377846"><ele>1111.7021</ele><time>2026-07-02T00:33:38.000Z</time></trkpt>
        <trkpt lat="29.553384" lon="103.377811"><ele>1112.8662</ele><time>2026-07-02T00:33:47.000Z</time></trkpt>
        <trkpt lat="29.553325" lon="103.377795"><ele>1111.4846</ele><time>2026-07-02T00:33:52.000Z</time></trkpt>
        <trkpt lat="29.553346" lon="103.37775"><ele>1114.9689</ele><time>2026-07-02T00:34:24.000Z</time></trkpt>
        <trkpt lat="29.553299" lon="103.377732"><ele>1118.2004</ele><time>2026-07-02T00:34:35.000Z</time></trkpt>
        <trkpt lat="29.55327" lon="103.377684"><ele>1122.0759</ele><time>2026-07-02T00:34:53.000Z</time></trkpt>
        <trkpt lat="29.553215" lon="103.377685"><ele>1124.9127</ele><time>2026-07-02T00:35:51.000Z</time></trkpt>
        <trkpt lat="29.553261" lon="103.377684"><ele>1124.4783</ele><time>2026-07-02T00:36:07.000Z</time></trkpt>
        <trkpt lat="29.553226" lon="103.377651"><ele>1129.1993</ele><time>2026-07-02T00:40:17.000Z</time></trkpt>
        <trkpt lat="29.553192" lon="103.377608"><ele>1131.8236</ele><time>2026-07-02T00:40:27.000Z</time></trkpt>
        <trkpt lat="29.553155" lon="103.377574"><ele>1131.4957</ele><time>2026-07-02T00:40:36.000Z</time></trkpt>
        <trkpt lat="29.553134" lon="103.377528"><ele>1130.5164</ele><time>2026-07-02T00:40:43.000Z</time></trkpt>
        <trkpt lat="29.553097" lon="103.37749"><ele>1130.8691</ele><time>2026-07-02T00:41:00.000Z</time></trkpt>
        <trkpt lat="29.553022" lon="103.377434"><ele>1131.8054</ele><time>2026-07-02T00:41:07.000Z</time></trkpt>
        <trkpt lat="29.55297" lon="103.377427"><ele>1132.4932</ele><time>2026-07-02T00:41:34.000Z</time></trkpt>
        <trkpt lat="29.552923" lon="103.377412"><ele>1132.3907</ele><time>2026-07-02T00:41:47.000Z</time></trkpt>
        <trkpt lat="29.552931" lon="103.377357"><ele>1133.6539</ele><time>2026-07-02T00:41:57.000Z</time></trkpt>
        <trkpt lat="29.552894" lon="103.377325"><ele>1137.611</ele><time>2026-07-02T00:42:06.000Z</time></trkpt>
        <trkpt lat="29.55286" lon="103.377289"><ele>1139.7734</ele><time>2026-07-02T00:42:15.000Z</time></trkpt>
        <trkpt lat="29.552822" lon="103.377257"><ele>1140.8118</ele><time>2026-07-02T00:42:25.000Z</time></trkpt>
        <trkpt lat="29.552772" lon="103.377252"><ele>1144.2151</ele><time>2026-07-02T00:42:42.000Z</time></trkpt>
        <trkpt lat="29.552729" lon="103.37723"><ele>1144.7242</ele><time>2026-07-02T00:42:58.000Z</time></trkpt>
        <trkpt lat="29.55269" lon="103.377204"><ele>1148.2522</ele><time>2026-07-02T00:43:08.000Z</time></trkpt>
        <trkpt lat="29.552673" lon="103.377155"><ele>1150.3251</ele><time>2026-07-02T00:43:15.000Z</time></trkpt>
        <trkpt lat="29.552635" lon="103.377123"><ele>1154.8885</ele><time>2026-07-02T00:43:28.000Z</time></trkpt>
        <trkpt lat="29.552586" lon="103.377124"><ele>1155.3038</ele><time>2026-07-02T00:43:41.000Z</time></trkpt>
        <trkpt lat="29.552539" lon="103.377129"><ele>1158.5535</ele><time>2026-07-02T00:43:57.000Z</time></trkpt>
        <trkpt lat="29.552509" lon="103.377086"><ele>1158.6765</ele><time>2026-07-02T00:44:13.000Z</time></trkpt>
        <trkpt lat="29.552456" lon="103.377073"><ele>1158.7404</ele><time>2026-07-02T00:44:30.000Z</time></trkpt>
        <trkpt lat="29.552413" lon="103.377056"><ele>1163.5343</ele><time>2026-07-02T00:44:49.000Z</time></trkpt>
        <trkpt lat="29.552382" lon="103.377017"><ele>1165.886</ele><time>2026-07-02T00:45:04.000Z</time></trkpt>
        <trkpt lat="29.552332" lon="103.377014"><ele>1169.9309</ele><time>2026-07-02T00:45:13.000Z</time></trkpt>
        <trkpt lat="29.552285" lon="103.377006"><ele>1167.7272</ele><time>2026-07-02T00:45:24.000Z</time></trkpt>
        <trkpt lat="29.552247" lon="103.376968"><ele>1167.6378</ele><time>2026-07-02T00:45:33.000Z</time></trkpt>
        <trkpt lat="29.552259" lon="103.376986"><ele>1165.743</ele><time>2026-07-02T00:45:34.000Z</time></trkpt>
        <trkpt lat="29.552219" lon="103.37696"><ele>1171.6167</ele><time>2026-07-02T00:45:45.000Z</time></trkpt>
        <trkpt lat="29.552188" lon="103.376916"><ele>1175.8573</ele><time>2026-07-02T00:45:55.000Z</time></trkpt>
        <trkpt lat="29.552151" lon="103.376884"><ele>1178.124</ele><time>2026-07-02T00:46:03.000Z</time></trkpt>
        <trkpt lat="29.552109" lon="103.376852"><ele>1179.8657</ele><time>2026-07-02T00:46:24.000Z</time></trkpt>
        <trkpt lat="29.552068" lon="103.376829"><ele>1183.8644</ele><time>2026-07-02T00:46:36.000Z</time></trkpt>
        <trkpt lat="29.552019" lon="103.376824"><ele>1186.0428</ele><time>2026-07-02T00:46:46.000Z</time></trkpt>
        <trkpt lat="29.551967" lon="103.376813"><ele>1187.5787</ele><time>2026-07-02T00:47:02.000Z</time></trkpt>
        <trkpt lat="29.551927" lon="103.376771"><ele>1187.3812</ele><time>2026-07-02T00:47:16.000Z</time></trkpt>
        <trkpt lat="29.551881" lon="103.376787"><ele>1183.2844</ele><time>2026-07-02T00:47:25.000Z</time></trkpt>
        <trkpt lat="29.551812" lon="103.376832"><ele>1182.1892</ele><time>2026-07-02T00:47:41.000Z</time></trkpt>
        <trkpt lat="29.551843" lon="103.376767"><ele>1182.1007</ele><time>2026-07-02T00:47:53.000Z</time></trkpt>
        <trkpt lat="29.551835" lon="103.376707"><ele>1181.7565</ele><time>2026-07-02T00:48:03.000Z</time></trkpt>
        <trkpt lat="29.551875" lon="103.376737"><ele>1192.3337</ele><time>2026-07-02T00:48:55.000Z</time></trkpt>
        <trkpt lat="29.551914" lon="103.376738"><ele>1192.3337</ele><time>2026-07-02T00:49:53.000Z</time></trkpt>
        <trkpt lat="29.551929" lon="103.376739"><ele>1192.3337</ele><time>2026-07-02T00:51:46.000Z</time></trkpt>
        <trkpt lat="29.551936" lon="103.376736"><ele>1192.3337</ele><time>2026-07-02T00:53:19.000Z</time></trkpt>
        <trkpt lat="29.551871" lon="103.37679"><ele>1188.1006</ele><time>2026-07-02T00:55:47.000Z</time></trkpt>
        <trkpt lat="29.551861" lon="103.376785"><ele>1188.1256</ele><time>2026-07-02T00:55:48.000Z</time></trkpt>
        <trkpt lat="29.551872" lon="103.376703"><ele>1188.3142</ele><time>2026-07-02T00:55:55.000Z</time></trkpt>
        <trkpt lat="29.55189" lon="103.376651"><ele>1188.9572</ele><time>2026-07-02T00:55:58.000Z</time></trkpt>
        <trkpt lat="29.55184" lon="103.376616"><ele>1189.6432</ele><time>2026-07-02T00:56:03.000Z</time></trkpt>
        <trkpt lat="29.551925" lon="103.376632"><ele>1201.4244</ele><time>2026-07-02T00:56:13.000Z</time></trkpt>
        <trkpt lat="29.55188" lon="103.376587"><ele>1200.8324</ele><time>2026-07-02T00:56:15.000Z</time></trkpt>
        <trkpt lat="29.551915" lon="103.376554"><ele>1203.1025</ele><time>2026-07-02T00:56:22.000Z</time></trkpt>
        <trkpt lat="29.551941" lon="103.376508"><ele>1202.4163</ele><time>2026-07-02T00:56:26.000Z</time></trkpt>
        <trkpt lat="29.551923" lon="103.376619"><ele>1202.1896</ele><time>2026-07-02T00:56:43.000Z</time></trkpt>
        <trkpt lat="29.551875" lon="103.376662"><ele>1201.6476</ele><time>2026-07-02T00:56:44.000Z</time></trkpt>
        <trkpt lat="29.551823" lon="103.376714"><ele>1200.7687</ele><time>2026-07-02T00:56:49.000Z</time></trkpt>
        <trkpt lat="29.551829" lon="103.376657"><ele>1195.5029</ele><time>2026-07-02T00:57:11.000Z</time></trkpt>
        <trkpt lat="29.551822" lon="103.376599"><ele>1195.3053</ele><time>2026-07-02T00:57:39.000Z</time></trkpt>
        <trkpt lat="29.551779" lon="103.376534"><ele>1194.998</ele><time>2026-07-02T00:57:47.000Z</time></trkpt>
        <trkpt lat="29.55181" lon="103.376583"><ele>1192.8761</ele><time>2026-07-02T00:57:56.000Z</time></trkpt>
        <trkpt lat="29.551809" lon="103.376645"><ele>1194.6528</ele><time>2026-07-02T00:58:01.000Z</time></trkpt>
        <trkpt lat="29.551834" lon="103.37669"><ele>1195.2849</ele><time>2026-07-02T00:58:07.000Z</time></trkpt>
        <trkpt lat="29.551829" lon="103.376633"><ele>1198.8746</ele><time>2026-07-02T00:58:24.000Z</time></trkpt>
        <trkpt lat="29.551782" lon="103.376638"><ele>1200.39</ele><time>2026-07-02T00:58:31.000Z</time></trkpt>
        <trkpt lat="29.551752" lon="103.376591"><ele>1199.4574</ele><time>2026-07-02T00:58:44.000Z</time></trkpt>
        <trkpt lat="29.551761" lon="103.37654"><ele>1202.8214</ele><time>2026-07-02T00:59:05.000Z</time></trkpt>
        <trkpt lat="29.551743" lon="103.376487"><ele>1206.1454</ele><time>2026-07-02T00:59:23.000Z</time></trkpt>
        <trkpt lat="29.551751" lon="103.376426"><ele>1205.5916</ele><time>2026-07-02T00:59:48.000Z</time></trkpt>
        <trkpt lat="29.551749" lon="103.376372"><ele>1204.3784</ele><time>2026-07-02T01:01:18.000Z</time></trkpt>
        <trkpt lat="29.55172" lon="103.376416"><ele>1208.5072</ele><time>2026-07-02T01:01:35.000Z</time></trkpt>
        <trkpt lat="29.551713" lon="103.376363"><ele>1209.6552</ele><time>2026-07-02T01:01:44.000Z</time></trkpt>
        <trkpt lat="29.551673" lon="103.376393"><ele>1212.1439</ele><time>2026-07-02T01:01:57.000Z</time></trkpt>
        <trkpt lat="29.551638" lon="103.376353"><ele>1211.4154</ele><time>2026-07-02T01:02:02.000Z</time></trkpt>
        <trkpt lat="29.551673" lon="103.376317"><ele>1214.635</ele><time>2026-07-02T01:02:07.000Z</time></trkpt>
        <trkpt lat="29.551683" lon="103.376263"><ele>1213.9757</ele><time>2026-07-02T01:02:19.000Z</time></trkpt>
        <trkpt lat="29.551712" lon="103.376219"><ele>1216.6523</ele><time>2026-07-02T01:02:29.000Z</time></trkpt>
        <trkpt lat="29.551717" lon="103.376167"><ele>1216.4185</ele><time>2026-07-02T01:02:45.000Z</time></trkpt>
        <trkpt lat="29.551708" lon="103.376116"><ele>1218.858</ele><time>2026-07-02T01:02:54.000Z</time></trkpt>
        <trkpt lat="29.551744" lon="103.376084"><ele>1218.8962</ele><time>2026-07-02T01:03:03.000Z</time></trkpt>
        <trkpt lat="29.551704" lon="103.376051"><ele>1219.5022</ele><time>2026-07-02T01:03:11.000Z</time></trkpt>
        <trkpt lat="29.5517" lon="103.375998"><ele>1222.8303</ele><time>2026-07-02T01:03:27.000Z</time></trkpt>
        <trkpt lat="29.551677" lon="103.375942"><ele>1225.718</ele><time>2026-07-02T01:03:37.000Z</time></trkpt>
        <trkpt lat="29.551712" lon="103.3759"><ele>1227.1539</ele><time>2026-07-02T01:03:50.000Z</time></trkpt>
        <trkpt lat="29.551762" lon="103.375843"><ele>1228.6799</ele><time>2026-07-02T01:03:55.000Z</time></trkpt>
        <trkpt lat="29.551716" lon="103.37582"><ele>1227.8326</ele><time>2026-07-02T01:04:01.000Z</time></trkpt>
        <trkpt lat="29.551701" lon="103.375769"><ele>1228.5282</ele><time>2026-07-02T01:04:08.000Z</time></trkpt>
        <trkpt lat="29.551675" lon="103.375714"><ele>1226.7594</ele><time>2026-07-02T01:04:15.000Z</time></trkpt>
        <trkpt lat="29.551644" lon="103.375663"><ele>1227.857</ele><time>2026-07-02T01:04:20.000Z</time></trkpt>
        <trkpt lat="29.551615" lon="103.375616"><ele>1228.5884</ele><time>2026-07-02T01:04:25.000Z</time></trkpt>
        <trkpt lat="29.5516" lon="103.37556"><ele>1228.9398</ele><time>2026-07-02T01:04:31.000Z</time></trkpt>
        <trkpt lat="29.551551" lon="103.375518"><ele>1229.2004</ele><time>2026-07-02T01:04:37.000Z</time></trkpt>
        <trkpt lat="29.551523" lon="103.375473"><ele>1230.6013</ele><time>2026-07-02T01:04:42.000Z</time></trkpt>
        <trkpt lat="29.551475" lon="103.375445"><ele>1230.6042</ele><time>2026-07-02T01:04:47.000Z</time></trkpt>
        <trkpt lat="29.551421" lon="103.375422"><ele>1230.3636</ele><time>2026-07-02T01:04:52.000Z</time></trkpt>
        <trkpt lat="29.551398" lon="103.375366"><ele>1232.7418</ele><time>2026-07-02T01:04:55.000Z</time></trkpt>
        <trkpt lat="29.551362" lon="103.37533"><ele>1234.5688</ele><time>2026-07-02T01:05:00.000Z</time></trkpt>
        <trkpt lat="29.551327" lon="103.375293"><ele>1238.5024</ele><time>2026-07-02T01:05:07.000Z</time></trkpt>
        <trkpt lat="29.551287" lon="103.375267"><ele>1241.0256</ele><time>2026-07-02T01:05:17.000Z</time></trkpt>
        <trkpt lat="29.551241" lon="103.375302"><ele>1244.8289</ele><time>2026-07-02T01:05:27.000Z</time></trkpt>
        <trkpt lat="29.551201" lon="103.375273"><ele>1245.9086</ele><time>2026-07-02T01:05:47.000Z</time></trkpt>
        <trkpt lat="29.551156" lon="103.375261"><ele>1246.688</ele><time>2026-07-02T01:05:54.000Z</time></trkpt>
        <trkpt lat="29.551118" lon="103.375205"><ele>1247.9052</ele><time>2026-07-02T01:06:00.000Z</time></trkpt>
        <trkpt lat="29.55107" lon="103.375184"><ele>1248.7278</ele><time>2026-07-02T01:06:05.000Z</time></trkpt>
        <trkpt lat="29.551032" lon="103.375218"><ele>1250.142</ele><time>2026-07-02T01:06:14.000Z</time></trkpt>
        <trkpt lat="29.550975" lon="103.37521"><ele>1248.7825</ele><time>2026-07-02T01:06:26.000Z</time></trkpt>
        <trkpt lat="29.550929" lon="103.375229"><ele>1251.1254</ele><time>2026-07-02T01:06:36.000Z</time></trkpt>
        <trkpt lat="29.550884" lon="103.37524"><ele>1251.726</ele><time>2026-07-02T01:06:43.000Z</time></trkpt>
        <trkpt lat="29.55084" lon="103.37521"><ele>1255.1891</ele><time>2026-07-02T01:06:50.000Z</time></trkpt>
        <trkpt lat="29.550816" lon="103.375166"><ele>1256.8884</ele><time>2026-07-02T01:06:55.000Z</time></trkpt>
        <trkpt lat="29.55078" lon="103.375129"><ele>1257.3013</ele><time>2026-07-02T01:07:01.000Z</time></trkpt>
        <trkpt lat="29.550728" lon="103.375128"><ele>1257.5437</ele><time>2026-07-02T01:07:08.000Z</time></trkpt>
        <trkpt lat="29.550728" lon="103.375076"><ele>1260.3889</ele><time>2026-07-02T01:07:21.000Z</time></trkpt>
        <trkpt lat="29.550683" lon="103.375079"><ele>1260.1642</ele><time>2026-07-02T01:07:39.000Z</time></trkpt>
        <trkpt lat="29.550633" lon="103.375073"><ele>1260.6632</ele><time>2026-07-02T01:07:45.000Z</time></trkpt>
        <trkpt lat="29.550595" lon="103.375039"><ele>1260.4489</ele><time>2026-07-02T01:07:49.000Z</time></trkpt>
        <trkpt lat="29.550558" lon="103.375007"><ele>1259.9543</ele><time>2026-07-02T01:07:54.000Z</time></trkpt>
        <trkpt lat="29.550511" lon="103.374991"><ele>1259.744</ele><time>2026-07-02T01:07:59.000Z</time></trkpt>
        <trkpt lat="29.550463" lon="103.374996"><ele>1258.2384</ele><time>2026-07-02T01:08:05.000Z</time></trkpt>
        <trkpt lat="29.550416" lon="103.37499"><ele>1257.7953</ele><time>2026-07-02T01:08:12.000Z</time></trkpt>
        <trkpt lat="29.550398" lon="103.374939"><ele>1258.4928</ele><time>2026-07-02T01:08:17.000Z</time></trkpt>
        <trkpt lat="29.550351" lon="103.37491"><ele>1259.7385</ele><time>2026-07-02T01:08:23.000Z</time></trkpt>
        <trkpt lat="29.5503" lon="103.374888"><ele>1260.3771</ele><time>2026-07-02T01:08:30.000Z</time></trkpt>
        <trkpt lat="29.550243" lon="103.374889"><ele>1260.7023</ele><time>2026-07-02T01:08:35.000Z</time></trkpt>
        <trkpt lat="29.550203" lon="103.374911"><ele>1262.0096</ele><time>2026-07-02T01:08:44.000Z</time></trkpt>
        <trkpt lat="29.550167" lon="103.374875"><ele>1268.2162</ele><time>2026-07-02T01:08:51.000Z</time></trkpt>
        <trkpt lat="29.550119" lon="103.37489"><ele>1268.2299</ele><time>2026-07-02T01:09:02.000Z</time></trkpt>
        <trkpt lat="29.550081" lon="103.374846"><ele>1270.5623</ele><time>2026-07-02T01:09:13.000Z</time></trkpt>
        <trkpt lat="29.550063" lon="103.374796"><ele>1269.77</ele><time>2026-07-02T01:09:17.000Z</time></trkpt>
        <trkpt lat="29.550007" lon="103.374779"><ele>1269.3739</ele><time>2026-07-02T01:09:19.000Z</time></trkpt>
        <trkpt lat="29.549951" lon="103.374753"><ele>1267.835</ele><time>2026-07-02T01:09:27.000Z</time></trkpt>
        <trkpt lat="29.549947" lon="103.374696"><ele>1264.7756</ele><time>2026-07-02T01:09:39.000Z</time></trkpt>
        <trkpt lat="29.549986" lon="103.374661"><ele>1263.7482</ele><time>2026-07-02T01:09:48.000Z</time></trkpt>
        <trkpt lat="29.550023" lon="103.374621"><ele>1263.3892</ele><time>2026-07-02T01:09:54.000Z</time></trkpt>
        <trkpt lat="29.550041" lon="103.374571"><ele>1263.7031</ele><time>2026-07-02T01:10:04.000Z</time></trkpt>
        <trkpt lat="29.550062" lon="103.37452"><ele>1265.2585</ele><time>2026-07-02T01:10:15.000Z</time></trkpt>
        <trkpt lat="29.550018" lon="103.374511"><ele>1267.2582</ele><time>2026-07-02T01:10:32.000Z</time></trkpt>
        <trkpt lat="29.550057" lon="103.374479"><ele>1269.359</ele><time>2026-07-02T01:10:48.000Z</time></trkpt>
        <trkpt lat="29.5501" lon="103.374464"><ele>1267.1265</ele><time>2026-07-02T01:11:01.000Z</time></trkpt>
        <trkpt lat="29.550144" lon="103.374421"><ele>1267.9387</ele><time>2026-07-02T01:11:12.000Z</time></trkpt>
        <trkpt lat="29.550187" lon="103.37439"><ele>1269.74</ele><time>2026-07-02T01:11:18.000Z</time></trkpt>
        <trkpt lat="29.55023" lon="103.374339"><ele>1270.435</ele><time>2026-07-02T01:11:23.000Z</time></trkpt>
        <trkpt lat="29.55028" lon="103.374297"><ele>1271.9191</ele><time>2026-07-02T01:11:38.000Z</time></trkpt>
        <trkpt lat="29.550316" lon="103.374261"><ele>1271.09</ele><time>2026-07-02T01:11:46.000Z</time></trkpt>
        <trkpt lat="29.550355" lon="103.374229"><ele>1270.747</ele><time>2026-07-02T01:11:55.000Z</time></trkpt>
        <trkpt lat="29.550378" lon="103.374181"><ele>1269.1099</ele><time>2026-07-02T01:12:00.000Z</time></trkpt>
        <trkpt lat="29.550414" lon="103.374141"><ele>1269.1946</ele><time>2026-07-02T01:12:05.000Z</time></trkpt>
        <trkpt lat="29.550447" lon="103.3741"><ele>1269.0632</ele><time>2026-07-02T01:12:13.000Z</time></trkpt>
        <trkpt lat="29.550486" lon="103.374056"><ele>1269.359</ele><time>2026-07-02T01:12:19.000Z</time></trkpt>
        <trkpt lat="29.550536" lon="103.37406"><ele>1271.1942</ele><time>2026-07-02T01:12:24.000Z</time></trkpt>
        <trkpt lat="29.550579" lon="103.37408"><ele>1274.8934</ele><time>2026-07-02T01:12:28.000Z</time></trkpt>
        <trkpt lat="29.550614" lon="103.374114"><ele>1275.9415</ele><time>2026-07-02T01:12:32.000Z</time></trkpt>
        <trkpt lat="29.550668" lon="103.374122"><ele>1273.7325</ele><time>2026-07-02T01:12:40.000Z</time></trkpt>
        <trkpt lat="29.550716" lon="103.374069"><ele>1277.1909</ele><time>2026-07-02T01:12:49.000Z</time></trkpt>
        <trkpt lat="29.55078" lon="103.373962"><ele>1277.6345</ele><time>2026-07-02T01:12:53.000Z</time></trkpt>
        <trkpt lat="29.550858" lon="103.374004"><ele>1279.3281</ele><time>2026-07-02T01:12:55.000Z</time></trkpt>
        <trkpt lat="29.55085" lon="103.373953"><ele>1274.7861</ele><time>2026-07-02T01:13:08.000Z</time></trkpt>
        <trkpt lat="29.550878" lon="103.373912"><ele>1273.3801</ele><time>2026-07-02T01:13:14.000Z</time></trkpt>
        <trkpt lat="29.550923" lon="103.373873"><ele>1272.9799</ele><time>2026-07-02T01:13:23.000Z</time></trkpt>
        <trkpt lat="29.550963" lon="103.373846"><ele>1272.9875</ele><time>2026-07-02T01:13:31.000Z</time></trkpt>
        <trkpt lat="29.551009" lon="103.373837"><ele>1272.715</ele><time>2026-07-02T01:13:38.000Z</time></trkpt>
        <trkpt lat="29.551028" lon="103.373789"><ele>1270.7185</ele><time>2026-07-02T01:13:44.000Z</time></trkpt>
        <trkpt lat="29.551074" lon="103.373807"><ele>1269.8971</ele><time>2026-07-02T01:13:51.000Z</time></trkpt>
        <trkpt lat="29.551109" lon="103.37377"><ele>1268.9393</ele><time>2026-07-02T01:13:56.000Z</time></trkpt>
        <trkpt lat="29.551157" lon="103.373756"><ele>1266.8147</ele><time>2026-07-02T01:14:03.000Z</time></trkpt>
        <trkpt lat="29.551202" lon="103.373731"><ele>1265.6818</ele><time>2026-07-02T01:14:08.000Z</time></trkpt>
        <trkpt lat="29.551236" lon="103.373696"><ele>1266.0028</ele><time>2026-07-02T01:14:14.000Z</time></trkpt>
        <trkpt lat="29.551291" lon="103.373677"><ele>1266.1246</ele><time>2026-07-02T01:14:20.000Z</time></trkpt>
        <trkpt lat="29.551278" lon="103.373609"><ele>1263.0276</ele><time>2026-07-02T01:14:26.000Z</time></trkpt>
        <trkpt lat="29.551246" lon="103.373552"><ele>1261.3848</ele><time>2026-07-02T01:14:30.000Z</time></trkpt>
        <trkpt lat="29.551258" lon="103.373501"><ele>1260.5894</ele><time>2026-07-02T01:14:41.000Z</time></trkpt>
        <trkpt lat="29.551289" lon="103.373461"><ele>1260.5026</ele><time>2026-07-02T01:14:45.000Z</time></trkpt>
        <trkpt lat="29.551309" lon="103.37341"><ele>1259.4591</ele><time>2026-07-02T01:14:51.000Z</time></trkpt>
        <trkpt lat="29.551326" lon="103.373358"><ele>1258.5278</ele><time>2026-07-02T01:14:56.000Z</time></trkpt>
        <trkpt lat="29.551331" lon="103.373299"><ele>1257.6709</ele><time>2026-07-02T01:15:01.000Z</time></trkpt>
        <trkpt lat="29.551321" lon="103.37324"><ele>1256.5846</ele><time>2026-07-02T01:15:06.000Z</time></trkpt>
        <trkpt lat="29.551311" lon="103.373186"><ele>1253.9448</ele><time>2026-07-02T01:15:11.000Z</time></trkpt>
        <trkpt lat="29.551314" lon="103.373134"><ele>1252.9397</ele><time>2026-07-02T01:15:15.000Z</time></trkpt>
        <trkpt lat="29.551281" lon="103.373099"><ele>1251.5847</ele><time>2026-07-02T01:15:20.000Z</time></trkpt>
        <trkpt lat="29.551233" lon="103.373076"><ele>1253.626</ele><time>2026-07-02T01:15:24.000Z</time></trkpt>
        <trkpt lat="29.551188" lon="103.373059"><ele>1254.6962</ele><time>2026-07-02T01:15:30.000Z</time></trkpt>
        <trkpt lat="29.55118" lon="103.373004"><ele>1257.613</ele><time>2026-07-02T01:15:35.000Z</time></trkpt>
        <trkpt lat="29.551143" lon="103.372963"><ele>1258.0808</ele><time>2026-07-02T01:15:43.000Z</time></trkpt>
        <trkpt lat="29.551112" lon="103.37291"><ele>1258.3962</ele><time>2026-07-02T01:15:52.000Z</time></trkpt>
        <trkpt lat="29.551063" lon="103.372924"><ele>1258.7572</ele><time>2026-07-02T01:16:02.000Z</time></trkpt>
        <trkpt lat="29.55101" lon="103.372911"><ele>1259.5908</ele><time>2026-07-02T01:16:11.000Z</time></trkpt>
        <trkpt lat="29.550966" lon="103.372894"><ele>1259.6222</ele><time>2026-07-02T01:16:17.000Z</time></trkpt>
        <trkpt lat="29.550928" lon="103.372865"><ele>1259.223</ele><time>2026-07-02T01:16:22.000Z</time></trkpt>
        <trkpt lat="29.55088" lon="103.372876"><ele>1258.0411</ele><time>2026-07-02T01:16:26.000Z</time></trkpt>
        <trkpt lat="29.550831" lon="103.372875"><ele>1257.2437</ele><time>2026-07-02T01:16:30.000Z</time></trkpt>
        <trkpt lat="29.550784" lon="103.372902"><ele>1258.1904</ele><time>2026-07-02T01:16:34.000Z</time></trkpt>
        <trkpt lat="29.550729" lon="103.372885"><ele>1258.8181</ele><time>2026-07-02T01:16:41.000Z</time></trkpt>
        <trkpt lat="29.550689" lon="103.372856"><ele>1259.8015</ele><time>2026-07-02T01:16:47.000Z</time></trkpt>
        <trkpt lat="29.550641" lon="103.372851"><ele>1261.5033</ele><time>2026-07-02T01:16:52.000Z</time></trkpt>
        <trkpt lat="29.5506" lon="103.372886"><ele>1262.132</ele><time>2026-07-02T01:16:57.000Z</time></trkpt>
        <trkpt lat="29.550546" lon="103.372906"><ele>1263.1029</ele><time>2026-07-02T01:17:02.000Z</time></trkpt>
        <trkpt lat="29.550507" lon="103.37294"><ele>1262.7764</ele><time>2026-07-02T01:17:08.000Z</time></trkpt>
        <trkpt lat="29.550475" lon="103.372896"><ele>1261.2365</ele><time>2026-07-02T01:17:15.000Z</time></trkpt>
        <trkpt lat="29.550405" lon="103.37293"><ele>1260.8818</ele><time>2026-07-02T01:17:20.000Z</time></trkpt>
        <trkpt lat="29.550358" lon="103.37296"><ele>1261.8257</ele><time>2026-07-02T01:17:28.000Z</time></trkpt>
        <trkpt lat="29.550178" lon="103.372974"><ele>1262.2662</ele><time>2026-07-02T01:17:37.000Z</time></trkpt>
        <trkpt lat="29.550313" lon="103.372733"><ele>1263.8945</ele><time>2026-07-02T01:17:52.000Z</time></trkpt>
        <trkpt lat="29.550255" lon="103.372767"><ele>1263.3346</ele><time>2026-07-02T01:18:03.000Z</time></trkpt>
        <trkpt lat="29.550397" lon="103.372708"><ele>1263.9735</ele><time>2026-07-02T01:18:05.000Z</time></trkpt>
        <trkpt lat="29.550404" lon="103.372761"><ele>1266.1146</ele><time>2026-07-02T01:18:10.000Z</time></trkpt>
        <trkpt lat="29.550445" lon="103.372722"><ele>1288.6698</ele><time>2026-07-02T01:18:26.000Z</time></trkpt>
        <trkpt lat="29.550483" lon="103.372676"><ele>1289.8071</ele><time>2026-07-02T01:18:32.000Z</time></trkpt>
        <trkpt lat="29.550501" lon="103.372617"><ele>1287.4377</ele><time>2026-07-02T01:18:40.000Z</time></trkpt>
        <trkpt lat="29.550546" lon="103.37259"><ele>1281.0028</ele><time>2026-07-02T01:18:45.000Z</time></trkpt>
        <trkpt lat="29.550568" lon="103.37254"><ele>1270.9982</ele><time>2026-07-02T01:18:53.000Z</time></trkpt>
        <trkpt lat="29.550605" lon="103.37251"><ele>1267.7866</ele><time>2026-07-02T01:19:00.000Z</time></trkpt>
        <trkpt lat="29.550615" lon="103.372458"><ele>1263.933</ele><time>2026-07-02T01:19:05.000Z</time></trkpt>
        <trkpt lat="29.550625" lon="103.372401"><ele>1261.4727</ele><time>2026-07-02T01:19:08.000Z</time></trkpt>
        <trkpt lat="29.550627" lon="103.372345"><ele>1258.5807</ele><time>2026-07-02T01:19:13.000Z</time></trkpt>
        <trkpt lat="29.550635" lon="103.372292"><ele>1257.0122</ele><time>2026-07-02T01:19:18.000Z</time></trkpt>
        <trkpt lat="29.550664" lon="103.37225"><ele>1256.4095</ele><time>2026-07-02T01:19:24.000Z</time></trkpt>
        <trkpt lat="29.550673" lon="103.372193"><ele>1256.0422</ele><time>2026-07-02T01:19:29.000Z</time></trkpt>
        <trkpt lat="29.55068" lon="103.372131"><ele>1255.4049</ele><time>2026-07-02T01:19:34.000Z</time></trkpt>
        <trkpt lat="29.550683" lon="103.372079"><ele>1256.0573</ele><time>2026-07-02T01:19:40.000Z</time></trkpt>
        <trkpt lat="29.550669" lon="103.372026"><ele>1254.0021</ele><time>2026-07-02T01:19:45.000Z</time></trkpt>
        <trkpt lat="29.550629" lon="103.371992"><ele>1251.7931</ele><time>2026-07-02T01:19:50.000Z</time></trkpt>
        <trkpt lat="29.550596" lon="103.371955"><ele>1251.3138</ele><time>2026-07-02T01:19:54.000Z</time></trkpt>
        <trkpt lat="29.550611" lon="103.371893"><ele>1248.3469</ele><time>2026-07-02T01:20:02.000Z</time></trkpt>
        <trkpt lat="29.550555" lon="103.371866"><ele>1249.4241</ele><time>2026-07-02T01:20:05.000Z</time></trkpt>
        <trkpt lat="29.550522" lon="103.371817"><ele>1251.5089</ele><time>2026-07-02T01:20:09.000Z</time></trkpt>
        <trkpt lat="29.550514" lon="103.371757"><ele>1252.6316</ele><time>2026-07-02T01:20:15.000Z</time></trkpt>
        <trkpt lat="29.550511" lon="103.3717"><ele>1253.5507</ele><time>2026-07-02T01:20:22.000Z</time></trkpt>
        <trkpt lat="29.55046" lon="103.371659"><ele>1254.7991</ele><time>2026-07-02T01:20:28.000Z</time></trkpt>
        <trkpt lat="29.550431" lon="103.37161"><ele>1253.7227</ele><time>2026-07-02T01:20:35.000Z</time></trkpt>
        <trkpt lat="29.550383" lon="103.371591"><ele>1252.7657</ele><time>2026-07-02T01:20:39.000Z</time></trkpt>
        <trkpt lat="29.550357" lon="103.371546"><ele>1253.0984</ele><time>2026-07-02T01:20:44.000Z</time></trkpt>
        <trkpt lat="29.550347" lon="103.37149"><ele>1253.916</ele><time>2026-07-02T01:20:49.000Z</time></trkpt>
        <trkpt lat="29.550296" lon="103.371493"><ele>1252.2334</ele><time>2026-07-02T01:20:55.000Z</time></trkpt>
        <trkpt lat="29.550261" lon="103.371443"><ele>1253.3678</ele><time>2026-07-02T01:21:01.000Z</time></trkpt>
        <trkpt lat="29.550319" lon="103.37144"><ele>1260.67</ele><time>2026-07-02T01:21:12.000Z</time></trkpt>
        <trkpt lat="29.550363" lon="103.371413"><ele>1266.311</ele><time>2026-07-02T01:21:21.000Z</time></trkpt>
        <trkpt lat="29.550392" lon="103.371369"><ele>1262.8363</ele><time>2026-07-02T01:21:27.000Z</time></trkpt>
        <trkpt lat="29.550384" lon="103.371308"><ele>1258.4337</ele><time>2026-07-02T01:21:32.000Z</time></trkpt>
        <trkpt lat="29.550406" lon="103.371248"><ele>1255.9333</ele><time>2026-07-02T01:21:37.000Z</time></trkpt>
        <trkpt lat="29.550438" lon="103.371194"><ele>1253.669</ele><time>2026-07-02T01:21:42.000Z</time></trkpt>
        <trkpt lat="29.550423" lon="103.371145"><ele>1252.374</ele><time>2026-07-02T01:21:48.000Z</time></trkpt>
        <trkpt lat="29.550443" lon="103.371097"><ele>1251.4948</ele><time>2026-07-02T01:21:52.000Z</time></trkpt>
        <trkpt lat="29.550464" lon="103.371049"><ele>1250.166</ele><time>2026-07-02T01:21:56.000Z</time></trkpt>
        <trkpt lat="29.550475" lon="103.370996"><ele>1249.6465</ele><time>2026-07-02T01:22:02.000Z</time></trkpt>
        <trkpt lat="29.550474" lon="103.370932"><ele>1249.6375</ele><time>2026-07-02T01:22:09.000Z</time></trkpt>
        <trkpt lat="29.550437" lon="103.370879"><ele>1249.7417</ele><time>2026-07-02T01:22:16.000Z</time></trkpt>
        <trkpt lat="29.550396" lon="103.370853"><ele>1251.5157</ele><time>2026-07-02T01:22:20.000Z</time></trkpt>
        <trkpt lat="29.550349" lon="103.370807"><ele>1253.4407</ele><time>2026-07-02T01:22:29.000Z</time></trkpt>
        <trkpt lat="29.550379" lon="103.370753"><ele>1254.6301</ele><time>2026-07-02T01:22:34.000Z</time></trkpt>
        <trkpt lat="29.550362" lon="103.370704"><ele>1252.3947</ele><time>2026-07-02T01:22:43.000Z</time></trkpt>
        <trkpt lat="29.550331" lon="103.370647"><ele>1250.2578</ele><time>2026-07-02T01:22:52.000Z</time></trkpt>
        <trkpt lat="29.550354" lon="103.370595"><ele>1252.7931</ele><time>2026-07-02T01:22:59.000Z</time></trkpt>
        <trkpt lat="29.550398" lon="103.370565"><ele>1247.1112</ele><time>2026-07-02T01:23:13.000Z</time></trkpt>
        <trkpt lat="29.550428" lon="103.370518"><ele>1244.7183</ele><time>2026-07-02T01:23:19.000Z</time></trkpt>
        <trkpt lat="29.550426" lon="103.370464"><ele>1244.0862</ele><time>2026-07-02T01:23:25.000Z</time></trkpt>
        <trkpt lat="29.55046" lon="103.370429"><ele>1241.6515</ele><time>2026-07-02T01:23:31.000Z</time></trkpt>
        <trkpt lat="29.550417" lon="103.370383"><ele>1242.4563</ele><time>2026-07-02T01:23:38.000Z</time></trkpt>
        <trkpt lat="29.550367" lon="103.370405"><ele>1245.0426</ele><time>2026-07-02T01:23:55.000Z</time></trkpt>
        <trkpt lat="29.550416" lon="103.370401"><ele>1244.1923</ele><time>2026-07-02T01:25:06.000Z</time></trkpt>
        <trkpt lat="29.550409" lon="103.370454"><ele>1245.1721</ele><time>2026-07-02T01:26:42.000Z</time></trkpt>
        <trkpt lat="29.550451" lon="103.370428"><ele>1245.0139</ele><time>2026-07-02T01:27:03.000Z</time></trkpt>
        <trkpt lat="29.550487" lon="103.37046"><ele>1248.7117</ele><time>2026-07-02T01:27:12.000Z</time></trkpt>
        <trkpt lat="29.550511" lon="103.370414"><ele>1251.7084</ele><time>2026-07-02T01:27:31.000Z</time></trkpt>
        <trkpt lat="29.550547" lon="103.37037"><ele>1253.6715</ele><time>2026-07-02T01:27:40.000Z</time></trkpt>
        <trkpt lat="29.550582" lon="103.370316"><ele>1252.7128</ele><time>2026-07-02T01:27:43.000Z</time></trkpt>
        <trkpt lat="29.550561" lon="103.37027"><ele>1250.6072</ele><time>2026-07-02T01:27:47.000Z</time></trkpt>
        <trkpt lat="29.550508" lon="103.370231"><ele>1247.1017</ele><time>2026-07-02T01:27:48.000Z</time></trkpt>
        <trkpt lat="29.550465" lon="103.370195"><ele>1244.5874</ele><time>2026-07-02T01:27:50.000Z</time></trkpt>
        <trkpt lat="29.550468" lon="103.370123"><ele>1242.1155</ele><time>2026-07-02T01:27:54.000Z</time></trkpt>
        <trkpt lat="29.550455" lon="103.370067"><ele>1238.1814</ele><time>2026-07-02T01:28:02.000Z</time></trkpt>
        <trkpt lat="29.550414" lon="103.370097"><ele>1242.5698</ele><time>2026-07-02T01:28:10.000Z</time></trkpt>
        <trkpt lat="29.550425" lon="103.370025"><ele>1241.5433</ele><time>2026-07-02T01:28:15.000Z</time></trkpt>
        <trkpt lat="29.550349" lon="103.369976"><ele>1245.1637</ele><time>2026-07-02T01:28:17.000Z</time></trkpt>
        <trkpt lat="29.550355" lon="103.369906"><ele>1246.889</ele><time>2026-07-02T01:28:20.000Z</time></trkpt>
        <trkpt lat="29.550299" lon="103.36994"><ele>1245.089</ele><time>2026-07-02T01:28:25.000Z</time></trkpt>
        <trkpt lat="29.550325" lon="103.369878"><ele>1246.9563</ele><time>2026-07-02T01:28:28.000Z</time></trkpt>
        <trkpt lat="29.550271" lon="103.369879"><ele>1245.3081</ele><time>2026-07-02T01:28:36.000Z</time></trkpt>
        <trkpt lat="29.550262" lon="103.369823"><ele>1245.2053</ele><time>2026-07-02T01:28:47.000Z</time></trkpt>
        <trkpt lat="29.550216" lon="103.36984"><ele>1254.4801</ele><time>2026-07-02T01:28:54.000Z</time></trkpt>
        <trkpt lat="29.550207" lon="103.369784"><ele>1255.038</ele><time>2026-07-02T01:29:04.000Z</time></trkpt>
        <trkpt lat="29.550204" lon="103.369711"><ele>1260.9291</ele><time>2026-07-02T01:29:29.000Z</time></trkpt>
        <trkpt lat="29.550171" lon="103.369672"><ele>1264.2163</ele><time>2026-07-02T01:29:42.000Z</time></trkpt>
        <trkpt lat="29.550217" lon="103.369685"><ele>1264.405</ele><time>2026-07-02T01:29:50.000Z</time></trkpt>
        <trkpt lat="29.550179" lon="103.369639"><ele>1273.2662</ele><time>2026-07-02T01:30:11.000Z</time></trkpt>
        <trkpt lat="29.550135" lon="103.369591"><ele>1269.5846</ele><time>2026-07-02T01:30:12.000Z</time></trkpt>
        <trkpt lat="29.550115" lon="103.369539"><ele>1268.5178</ele><time>2026-07-02T01:30:34.000Z</time></trkpt>
        <trkpt lat="29.55007" lon="103.369521"><ele>1271.4937</ele><time>2026-07-02T01:30:49.000Z</time></trkpt>
        <trkpt lat="29.550031" lon="103.36948"><ele>1275.6906</ele><time>2026-07-02T01:31:22.000Z</time></trkpt>
        <trkpt lat="29.550013" lon="103.369422"><ele>1273.9076</ele><time>2026-07-02T01:31:29.000Z</time></trkpt>
        <trkpt lat="29.550005" lon="103.369368"><ele>1272.8284</ele><time>2026-07-02T01:31:34.000Z</time></trkpt>
        <trkpt lat="29.549964" lon="103.369344"><ele>1273.6434</ele><time>2026-07-02T01:31:40.000Z</time></trkpt>
        <trkpt lat="29.549929" lon="103.36931"><ele>1275.1263</ele><time>2026-07-02T01:31:44.000Z</time></trkpt>
        <trkpt lat="29.549896" lon="103.369269"><ele>1276.7905</ele><time>2026-07-02T01:31:51.000Z</time></trkpt>
        <trkpt lat="29.549887" lon="103.369212"><ele>1276.5826</ele><time>2026-07-02T01:31:58.000Z</time></trkpt>
        <trkpt lat="29.549902" lon="103.369162"><ele>1278.0653</ele><time>2026-07-02T01:32:06.000Z</time></trkpt>
        <trkpt lat="29.549873" lon="103.369111"><ele>1285.3738</ele><time>2026-07-02T01:32:13.000Z</time></trkpt>
        <trkpt lat="29.54987" lon="103.369052"><ele>1293.4497</ele><time>2026-07-02T01:32:20.000Z</time></trkpt>
        <trkpt lat="29.549904" lon="103.369018"><ele>1295.8741</ele><time>2026-07-02T01:32:47.000Z</time></trkpt>
        <trkpt lat="29.549929" lon="103.368974"><ele>1291.7942</ele><time>2026-07-02T01:33:03.000Z</time></trkpt>
        <trkpt lat="29.549886" lon="103.36894"><ele>1293.991</ele><time>2026-07-02T01:33:26.000Z</time></trkpt>
        <trkpt lat="29.54991" lon="103.368892"><ele>1295.1398</ele><time>2026-07-02T01:33:40.000Z</time></trkpt>
        <trkpt lat="29.549954" lon="103.368868"><ele>1295.2832</ele><time>2026-07-02T01:33:54.000Z</time></trkpt>
        <trkpt lat="29.549906" lon="103.368874"><ele>1295.8121</ele><time>2026-07-02T01:34:02.000Z</time></trkpt>
        <trkpt lat="29.549861" lon="103.368861"><ele>1293.0532</ele><time>2026-07-02T01:34:09.000Z</time></trkpt>
        <trkpt lat="29.549818" lon="103.368878"><ele>1295.314</ele><time>2026-07-02T01:34:21.000Z</time></trkpt>
        <trkpt lat="29.549771" lon="103.368873"><ele>1295.7649</ele><time>2026-07-02T01:34:36.000Z</time></trkpt>
        <trkpt lat="29.549785" lon="103.368822"><ele>1296.0289</ele><time>2026-07-02T01:34:53.000Z</time></trkpt>
        <trkpt lat="29.549752" lon="103.368781"><ele>1298.1332</ele><time>2026-07-02T01:35:02.000Z</time></trkpt>
        <trkpt lat="29.549704" lon="103.368744"><ele>1297.7993</ele><time>2026-07-02T01:35:09.000Z</time></trkpt>
        <trkpt lat="29.549659" lon="103.368702"><ele>1298.497</ele><time>2026-07-02T01:35:20.000Z</time></trkpt>
        <trkpt lat="29.549637" lon="103.368654"><ele>1299.5667</ele><time>2026-07-02T01:35:35.000Z</time></trkpt>
        <trkpt lat="29.549596" lon="103.368696"><ele>1301.8475</ele><time>2026-07-02T01:35:47.000Z</time></trkpt>
        <trkpt lat="29.549624" lon="103.36865"><ele>1303.5166</ele><time>2026-07-02T01:36:00.000Z</time></trkpt>
        <trkpt lat="29.549644" lon="103.368602"><ele>1303.5883</ele><time>2026-07-02T01:36:15.000Z</time></trkpt>
        <trkpt lat="29.549665" lon="103.368555"><ele>1310.6497</ele><time>2026-07-02T01:36:59.000Z</time></trkpt>
        <trkpt lat="29.549661" lon="103.368501"><ele>1309.865</ele><time>2026-07-02T01:37:09.000Z</time></trkpt>
        <trkpt lat="29.549694" lon="103.368538"><ele>1317.1704</ele><time>2026-07-02T01:37:33.000Z</time></trkpt>
        <trkpt lat="29.549685" lon="103.368593"><ele>1321.713</ele><time>2026-07-02T01:37:56.000Z</time></trkpt>
        <trkpt lat="29.549727" lon="103.36857"><ele>1321.7775</ele><time>2026-07-02T01:38:07.000Z</time></trkpt>
        <trkpt lat="29.549756" lon="103.368526"><ele>1321.8982</ele><time>2026-07-02T01:38:21.000Z</time></trkpt>
        <trkpt lat="29.549696" lon="103.368524"><ele>1320.8376</ele><time>2026-07-02T01:38:27.000Z</time></trkpt>
        <trkpt lat="29.549733" lon="103.368495"><ele>1321.1284</ele><time>2026-07-02T01:38:32.000Z</time></trkpt>
        <trkpt lat="29.549765" lon="103.36843"><ele>1320.7571</ele><time>2026-07-02T01:38:33.000Z</time></trkpt>
        <trkpt lat="29.549715" lon="103.3685"><ele>1323.5613</ele><time>2026-07-02T01:38:56.000Z</time></trkpt>
        <trkpt lat="29.549686" lon="103.368545"><ele>1323.6873</ele><time>2026-07-02T01:39:09.000Z</time></trkpt>
        <trkpt lat="29.549724" lon="103.368438"><ele>1325.1969</ele><time>2026-07-02T01:40:04.000Z</time></trkpt>
        <trkpt lat="29.549775" lon="103.368422"><ele>1326.9783</ele><time>2026-07-02T01:40:16.000Z</time></trkpt>
        <trkpt lat="29.549747" lon="103.368462"><ele>1336.4679</ele><time>2026-07-02T01:40:25.000Z</time></trkpt>
        <trkpt lat="29.549693" lon="103.368477"><ele>1337.7936</ele><time>2026-07-02T01:40:31.000Z</time></trkpt>
        <trkpt lat="29.549734" lon="103.368415"><ele>1334.862</ele><time>2026-07-02T01:40:35.000Z</time></trkpt>
        <trkpt lat="29.549784" lon="103.368409"><ele>1336.4043</ele><time>2026-07-02T01:40:40.000Z</time></trkpt>
        <trkpt lat="29.549815" lon="103.368369"><ele>1336.1001</ele><time>2026-07-02T01:40:44.000Z</time></trkpt>
        <trkpt lat="29.549789" lon="103.368325"><ele>1335.645</ele><time>2026-07-02T01:41:00.000Z</time></trkpt>
        <trkpt lat="29.549834" lon="103.36832"><ele>1339.505</ele><time>2026-07-02T01:41:25.000Z</time></trkpt>
        <trkpt lat="29.549878" lon="103.368302"><ele>1340.6836</ele><time>2026-07-02T01:41:38.000Z</time></trkpt>
        <trkpt lat="29.549913" lon="103.368266"><ele>1342.3187</ele><time>2026-07-02T01:41:50.000Z</time></trkpt>
        <trkpt lat="29.549941" lon="103.368222"><ele>1343.9575</ele><time>2026-07-02T01:42:04.000Z</time></trkpt>
        <trkpt lat="29.549927" lon="103.368172"><ele>1350.7521</ele><time>2026-07-02T01:42:20.000Z</time></trkpt>
        <trkpt lat="29.549874" lon="103.368153"><ele>1351.7119</ele><time>2026-07-02T01:42:51.000Z</time></trkpt>
        <trkpt lat="29.549896" lon="103.368102"><ele>1353.1837</ele><time>2026-07-02T01:44:28.000Z</time></trkpt>
        <trkpt lat="29.549911" lon="103.368045"><ele>1353.3097</ele><time>2026-07-02T01:44:37.000Z</time></trkpt>
        <trkpt lat="29.549916" lon="103.367994"><ele>1351.9224</ele><time>2026-07-02T01:44:45.000Z</time></trkpt>
        <trkpt lat="29.549875" lon="103.368023"><ele>1360.5978</ele><time>2026-07-02T01:45:12.000Z</time></trkpt>
        <trkpt lat="29.549829" lon="103.368025"><ele>1359.7933</ele><time>2026-07-02T01:45:22.000Z</time></trkpt>
        <trkpt lat="29.549867" lon="103.367992"><ele>1360.3834</ele><time>2026-07-02T01:45:31.000Z</time></trkpt>
        <trkpt lat="29.549871" lon="103.367938"><ele>1363.8314</ele><time>2026-07-02T01:45:43.000Z</time></trkpt>
        <trkpt lat="29.549864" lon="103.367885"><ele>1368.3569</ele><time>2026-07-02T01:46:04.000Z</time></trkpt>
        <trkpt lat="29.549911" lon="103.367891"><ele>1381.1239</ele><time>2026-07-02T01:46:48.000Z</time></trkpt>
        <trkpt lat="29.549895" lon="103.36784"><ele>1385.026</ele><time>2026-07-02T01:47:38.000Z</time></trkpt>
        <trkpt lat="29.549936" lon="103.36787"><ele>1385.4357</ele><time>2026-07-02T01:48:07.000Z</time></trkpt>
        <trkpt lat="29.549983" lon="103.367869"><ele>1384.3331</ele><time>2026-07-02T01:48:20.000Z</time></trkpt>
        <trkpt lat="29.549998" lon="103.367819"><ele>1386.6086</ele><time>2026-07-02T01:48:37.000Z</time></trkpt>
        <trkpt lat="29.54996" lon="103.367787"><ele>1389.2716</ele><time>2026-07-02T01:48:48.000Z</time></trkpt>
        <trkpt lat="29.550006" lon="103.36779"><ele>1396.0051</ele><time>2026-07-02T01:49:29.000Z</time></trkpt>
        <trkpt lat="29.550044" lon="103.367756"><ele>1397.5422</ele><time>2026-07-02T01:49:45.000Z</time></trkpt>
        <trkpt lat="29.550088" lon="103.367719"><ele>1400.5385</ele><time>2026-07-02T01:50:03.000Z</time></trkpt>
        <trkpt lat="29.55013" lon="103.367693"><ele>1401.4933</ele><time>2026-07-02T01:50:13.000Z</time></trkpt>
        <trkpt lat="29.550163" lon="103.367642"><ele>1401.5244</ele><time>2026-07-02T01:50:24.000Z</time></trkpt>
        <trkpt lat="29.550181" lon="103.36759"><ele>1402.8433</ele><time>2026-07-02T01:50:31.000Z</time></trkpt>
        <trkpt lat="29.550198" lon="103.367538"><ele>1403.3656</ele><time>2026-07-02T01:50:39.000Z</time></trkpt>
        <trkpt lat="29.550217" lon="103.367487"><ele>1409.2085</ele><time>2026-07-02T01:51:07.000Z</time></trkpt>
        <trkpt lat="29.550231" lon="103.367434"><ele>1411.5638</ele><time>2026-07-02T01:51:25.000Z</time></trkpt>
        <trkpt lat="29.550257" lon="103.367388"><ele>1413.6469</ele><time>2026-07-02T01:51:41.000Z</time></trkpt>
        <trkpt lat="29.550215" lon="103.367357"><ele>1416.7535</ele><time>2026-07-02T01:54:42.000Z</time></trkpt>
        <trkpt lat="29.55017" lon="103.367326"><ele>1418.521</ele><time>2026-07-02T01:54:49.000Z</time></trkpt>
        <trkpt lat="29.55013" lon="103.367356"><ele>1420.7498</ele><time>2026-07-02T01:54:56.000Z</time></trkpt>
        <trkpt lat="29.55008" lon="103.367366"><ele>1420.62</ele><time>2026-07-02T01:55:09.000Z</time></trkpt>
        <trkpt lat="29.550073" lon="103.367315"><ele>1419.8821</ele><time>2026-07-02T01:55:15.000Z</time></trkpt>
        <trkpt lat="29.550114" lon="103.367276"><ele>1421.748</ele><time>2026-07-02T01:55:51.000Z</time></trkpt>
        <trkpt lat="29.550138" lon="103.367231"><ele>1423.4102</ele><time>2026-07-02T01:56:01.000Z</time></trkpt>
        <trkpt lat="29.550161" lon="103.367177"><ele>1426.8885</ele><time>2026-07-02T01:56:11.000Z</time></trkpt>
        <trkpt lat="29.550173" lon="103.367124"><ele>1428.7235</ele><time>2026-07-02T01:56:22.000Z</time></trkpt>
        <trkpt lat="29.550211" lon="103.36708"><ele>1431.2192</ele><time>2026-07-02T01:56:32.000Z</time></trkpt>
        <trkpt lat="29.550238" lon="103.36703"><ele>1435.4447</ele><time>2026-07-02T01:56:42.000Z</time></trkpt>
        <trkpt lat="29.550292" lon="103.367028"><ele>1437.577</ele><time>2026-07-02T01:56:50.000Z</time></trkpt>
        <trkpt lat="29.550249" lon="103.366999"><ele>1450.7715</ele><time>2026-07-02T01:57:10.000Z</time></trkpt>
        <trkpt lat="29.550263" lon="103.366945"><ele>1449.7483</ele><time>2026-07-02T01:57:16.000Z</time></trkpt>
        <trkpt lat="29.550308" lon="103.366954"><ele>1449.4218</ele><time>2026-07-02T01:57:18.000Z</time></trkpt>
        <trkpt lat="29.550254" lon="103.366935"><ele>1452.587</ele><time>2026-07-02T01:57:37.000Z</time></trkpt>
        <trkpt lat="29.550209" lon="103.366911"><ele>1452.7109</ele><time>2026-07-02T01:57:49.000Z</time></trkpt>
        <trkpt lat="29.550174" lon="103.36687"><ele>1452.0167</ele><time>2026-07-02T01:58:08.000Z</time></trkpt>
        <trkpt lat="29.550163" lon="103.366816"><ele>1447.8853</ele><time>2026-07-02T01:58:16.000Z</time></trkpt>
        <trkpt lat="29.55016" lon="103.366756"><ele>1446.5463</ele><time>2026-07-02T01:58:19.000Z</time></trkpt>
        <trkpt lat="29.550115" lon="103.366731"><ele>1452.9329</ele><time>2026-07-02T01:58:53.000Z</time></trkpt>
        <trkpt lat="29.550081" lon="103.366689"><ele>1453.0784</ele><time>2026-07-02T01:59:07.000Z</time></trkpt>
        <trkpt lat="29.550041" lon="103.366662"><ele>1459.1997</ele><time>2026-07-02T01:59:27.000Z</time></trkpt>
        <trkpt lat="29.549998" lon="103.366694"><ele>1468.8027</ele><time>2026-07-02T01:59:42.000Z</time></trkpt>
        <trkpt lat="29.54996" lon="103.366667"><ele>1470.0851</ele><time>2026-07-02T01:59:52.000Z</time></trkpt>
        <trkpt lat="29.549915" lon="103.366693"><ele>1469.1621</ele><time>2026-07-02T02:00:05.000Z</time></trkpt>
        <trkpt lat="29.549908" lon="103.366631"><ele>1468.9294</ele><time>2026-07-02T02:00:15.000Z</time></trkpt>
        <trkpt lat="29.549856" lon="103.366618"><ele>1468.3201</ele><time>2026-07-02T02:00:23.000Z</time></trkpt>
        <trkpt lat="29.549815" lon="103.366643"><ele>1469.7665</ele><time>2026-07-02T02:00:34.000Z</time></trkpt>
        <trkpt lat="29.54977" lon="103.366631"><ele>1470.4637</ele><time>2026-07-02T02:00:49.000Z</time></trkpt>
        <trkpt lat="29.549726" lon="103.366616"><ele>1472.6863</ele><time>2026-07-02T02:01:01.000Z</time></trkpt>
        <trkpt lat="29.549687" lon="103.366586"><ele>1470.9835</ele><time>2026-07-02T02:01:35.000Z</time></trkpt>
        <trkpt lat="29.54966" lon="103.366634"><ele>1475.8864</ele><time>2026-07-02T02:02:29.000Z</time></trkpt>
        <trkpt lat="29.549649" lon="103.366584"><ele>1472.9264</ele><time>2026-07-02T02:03:31.000Z</time></trkpt>
        <trkpt lat="29.54961" lon="103.366548"><ele>1473.997</ele><time>2026-07-02T02:03:48.000Z</time></trkpt>
        <trkpt lat="29.549594" lon="103.366498"><ele>1472.7334</ele><time>2026-07-02T02:03:57.000Z</time></trkpt>
        <trkpt lat="29.54955" lon="103.366513"><ele>1472.8793</ele><time>2026-07-02T02:04:01.000Z</time></trkpt>
        <trkpt lat="29.54952" lon="103.366467"><ele>1470.61</ele><time>2026-07-02T02:04:11.000Z</time></trkpt>
        <trkpt lat="29.549484" lon="103.36643"><ele>1477.1029</ele><time>2026-07-02T02:04:34.000Z</time></trkpt>
        <trkpt lat="29.549452" lon="103.366388"><ele>1482.8068</ele><time>2026-07-02T02:05:00.000Z</time></trkpt>
        <trkpt lat="29.549415" lon="103.366357"><ele>1491.1199</ele><time>2026-07-02T02:05:23.000Z</time></trkpt>
        <trkpt lat="29.549415" lon="103.366299"><ele>1489.7609</ele><time>2026-07-02T02:05:32.000Z</time></trkpt>
        <trkpt lat="29.549412" lon="103.366245"><ele>1484.1688</ele><time>2026-07-02T02:06:55.000Z</time></trkpt>
        <trkpt lat="29.549401" lon="103.3663"><ele>1485.475</ele><time>2026-07-02T02:07:35.000Z</time></trkpt>
        <trkpt lat="29.549412" lon="103.366245"><ele>1491.2097</ele><time>2026-07-02T02:10:02.000Z</time></trkpt>
        <trkpt lat="29.549395" lon="103.366301"><ele>1492.0488</ele><time>2026-07-02T02:10:24.000Z</time></trkpt>
        <trkpt lat="29.549411" lon="103.366244"><ele>1491.0702</ele><time>2026-07-02T02:10:36.000Z</time></trkpt>
        <trkpt lat="29.54946" lon="103.366293"><ele>1492.8226</ele><time>2026-07-02T02:10:41.000Z</time></trkpt>
        <trkpt lat="29.549515" lon="103.366323"><ele>1493.1069</ele><time>2026-07-02T02:10:43.000Z</time></trkpt>
        <trkpt lat="29.549562" lon="103.366348"><ele>1493.019</ele><time>2026-07-02T02:10:44.000Z</time></trkpt>
        <trkpt lat="29.549516" lon="103.366329"><ele>1488.89</ele><time>2026-07-02T02:10:58.000Z</time></trkpt>
        <trkpt lat="29.549476" lon="103.366303"><ele>1488.4867</ele><time>2026-07-02T02:11:03.000Z</time></trkpt>
        <trkpt lat="29.549441" lon="103.366264"><ele>1488.2599</ele><time>2026-07-02T02:11:05.000Z</time></trkpt>
        <trkpt lat="29.549481" lon="103.366223"><ele>1489.8962</ele><time>2026-07-02T02:11:17.000Z</time></trkpt>
        <trkpt lat="29.549524" lon="103.366192"><ele>1488.8271</ele><time>2026-07-02T02:11:28.000Z</time></trkpt>
        <trkpt lat="29.549566" lon="103.366171"><ele>1487.1556</ele><time>2026-07-02T02:11:36.000Z</time></trkpt>
        <trkpt lat="29.549608" lon="103.366148"><ele>1486.1328</ele><time>2026-07-02T02:11:41.000Z</time></trkpt>
        <trkpt lat="29.549648" lon="103.366123"><ele>1486.8401</ele><time>2026-07-02T02:11:45.000Z</time></trkpt>
        <trkpt lat="29.549678" lon="103.366069"><ele>1486.9933</ele><time>2026-07-02T02:11:50.000Z</time></trkpt>
        <trkpt lat="29.549718" lon="103.366001"><ele>1487.9037</ele><time>2026-07-02T02:11:52.000Z</time></trkpt>
        <trkpt lat="29.549758" lon="103.365957"><ele>1488.876</ele><time>2026-07-02T02:11:55.000Z</time></trkpt>
        <trkpt lat="29.549758" lon="103.365887"><ele>1490.5269</ele><time>2026-07-02T02:12:01.000Z</time></trkpt>
        <trkpt lat="29.549727" lon="103.365844"><ele>1490.292</ele><time>2026-07-02T02:12:03.000Z</time></trkpt>
        <trkpt lat="29.549682" lon="103.365806"><ele>1492.2343</ele><time>2026-07-02T02:12:09.000Z</time></trkpt>
        <trkpt lat="29.549718" lon="103.365849"><ele>1493.6924</ele><time>2026-07-02T02:12:15.000Z</time></trkpt>
        <trkpt lat="29.54969" lon="103.365797"><ele>1496.7118</ele><time>2026-07-02T02:12:33.000Z</time></trkpt>
        <trkpt lat="29.549643" lon="103.365784"><ele>1499.3329</ele><time>2026-07-02T02:12:39.000Z</time></trkpt>
        <trkpt lat="29.54963" lon="103.365734"><ele>1499.2526</ele><time>2026-07-02T02:12:51.000Z</time></trkpt>
        <trkpt lat="29.549628" lon="103.365675"><ele>1499.7299</ele><time>2026-07-02T02:12:59.000Z</time></trkpt>
        <trkpt lat="29.549631" lon="103.365622"><ele>1498.4496</ele><time>2026-07-02T02:13:05.000Z</time></trkpt>
        <trkpt lat="29.54959" lon="103.365598"><ele>1502.3757</ele><time>2026-07-02T02:13:12.000Z</time></trkpt>
        <trkpt lat="29.549543" lon="103.365573"><ele>1502.9404</ele><time>2026-07-02T02:13:18.000Z</time></trkpt>
        <trkpt lat="29.549536" lon="103.365521"><ele>1499.9082</ele><time>2026-07-02T02:13:24.000Z</time></trkpt>
        <trkpt lat="29.549542" lon="103.365468"><ele>1496.3647</ele><time>2026-07-02T02:13:30.000Z</time></trkpt>
        <trkpt lat="29.549585" lon="103.365429"><ele>1497.7611</ele><time>2026-07-02T02:13:35.000Z</time></trkpt>
        <trkpt lat="29.549622" lon="103.365398"><ele>1498.1326</ele><time>2026-07-02T02:13:39.000Z</time></trkpt>
        <trkpt lat="29.549661" lon="103.365358"><ele>1498.6808</ele><time>2026-07-02T02:13:43.000Z</time></trkpt>
        <trkpt lat="29.549693" lon="103.365312"><ele>1498.3448</ele><time>2026-07-02T02:13:49.000Z</time></trkpt>
        <trkpt lat="29.549703" lon="103.365254"><ele>1499.2279</ele><time>2026-07-02T02:13:51.000Z</time></trkpt>
        <trkpt lat="29.549737" lon="103.365205"><ele>1498.9083</ele><time>2026-07-02T02:13:57.000Z</time></trkpt>
        <trkpt lat="29.549776" lon="103.365163"><ele>1498.8812</ele><time>2026-07-02T02:14:01.000Z</time></trkpt>
        <trkpt lat="29.549827" lon="103.365132"><ele>1499.9729</ele><time>2026-07-02T02:14:05.000Z</time></trkpt>
        <trkpt lat="29.549862" lon="103.365089"><ele>1501.9474</ele><time>2026-07-02T02:14:09.000Z</time></trkpt>
        <trkpt lat="29.549881" lon="103.365037"><ele>1501.7542</ele><time>2026-07-02T02:14:15.000Z</time></trkpt>
        <trkpt lat="29.549901" lon="103.364984"><ele>1503.4141</ele><time>2026-07-02T02:14:21.000Z</time></trkpt>
        <trkpt lat="29.54993" lon="103.364939"><ele>1505.3127</ele><time>2026-07-02T02:14:26.000Z</time></trkpt>
        <trkpt lat="29.549949" lon="103.364889"><ele>1508.2845</ele><time>2026-07-02T02:14:30.000Z</time></trkpt>
        <trkpt lat="29.549992" lon="103.364861"><ele>1506.9354</ele><time>2026-07-02T02:14:37.000Z</time></trkpt>
        <trkpt lat="29.550023" lon="103.364822"><ele>1506.1003</ele><time>2026-07-02T02:14:41.000Z</time></trkpt>
        <trkpt lat="29.550059" lon="103.364788"><ele>1508.3014</ele><time>2026-07-02T02:14:44.000Z</time></trkpt>
        <trkpt lat="29.550094" lon="103.364743"><ele>1511.0083</ele><time>2026-07-02T02:14:49.000Z</time></trkpt>
        <trkpt lat="29.550128" lon="103.364698"><ele>1511.9738</ele><time>2026-07-02T02:14:52.000Z</time></trkpt>
        <trkpt lat="29.550133" lon="103.364645"><ele>1515.3572</ele><time>2026-07-02T02:15:00.000Z</time></trkpt>
        <trkpt lat="29.550118" lon="103.364594"><ele>1516.7699</ele><time>2026-07-02T02:15:04.000Z</time></trkpt>
        <trkpt lat="29.550082" lon="103.364543"><ele>1516.1603</ele><time>2026-07-02T02:15:08.000Z</time></trkpt>
        <trkpt lat="29.550116" lon="103.3645"><ele>1512.7804</ele><time>2026-07-02T02:15:13.000Z</time></trkpt>
        <trkpt lat="29.550153" lon="103.364469"><ele>1509.5692</ele><time>2026-07-02T02:15:18.000Z</time></trkpt>
        <trkpt lat="29.550191" lon="103.364435"><ele>1509.8455</ele><time>2026-07-02T02:15:24.000Z</time></trkpt>
        <trkpt lat="29.550225" lon="103.364398"><ele>1510.1359</ele><time>2026-07-02T02:15:28.000Z</time></trkpt>
        <trkpt lat="29.550239" lon="103.364342"><ele>1511.5482</ele><time>2026-07-02T02:15:34.000Z</time></trkpt>
        <trkpt lat="29.550292" lon="103.364324"><ele>1510.122</ele><time>2026-07-02T02:15:38.000Z</time></trkpt>
        <trkpt lat="29.550307" lon="103.364275"><ele>1511.496</ele><time>2026-07-02T02:15:41.000Z</time></trkpt>
        <trkpt lat="29.550321" lon="103.36422"><ele>1517.5067</ele><time>2026-07-02T02:15:47.000Z</time></trkpt>
        <trkpt lat="29.55033" lon="103.364155"><ele>1519.9832</ele><time>2026-07-02T02:15:54.000Z</time></trkpt>
        <trkpt lat="29.550346" lon="103.364106"><ele>1523.4716</ele><time>2026-07-02T02:16:03.000Z</time></trkpt>
        <trkpt lat="29.550388" lon="103.364079"><ele>1523.6588</ele><time>2026-07-02T02:16:06.000Z</time></trkpt>
        <trkpt lat="29.550351" lon="103.364043"><ele>1520.5553</ele><time>2026-07-02T02:16:22.000Z</time></trkpt>
        <trkpt lat="29.550396" lon="103.364033"><ele>1527.8016</ele><time>2026-07-02T02:16:44.000Z</time></trkpt>
        <trkpt lat="29.550439" lon="103.363993"><ele>1534.773</ele><time>2026-07-02T02:17:05.000Z</time></trkpt>
        <trkpt lat="29.550443" lon="103.363936"><ele>1531.5808</ele><time>2026-07-02T02:17:15.000Z</time></trkpt>
        <trkpt lat="29.550465" lon="103.363883"><ele>1525.8821</ele><time>2026-07-02T02:17:21.000Z</time></trkpt>
        <trkpt lat="29.550454" lon="103.363829"><ele>1527.3837</ele><time>2026-07-02T02:17:29.000Z</time></trkpt>
        <trkpt lat="29.550504" lon="103.363815"><ele>1529.5634</ele><time>2026-07-02T02:17:40.000Z</time></trkpt>
        <trkpt lat="29.550555" lon="103.363813"><ele>1530.3523</ele><time>2026-07-02T02:17:46.000Z</time></trkpt>
        <trkpt lat="29.550596" lon="103.363786"><ele>1532.6533</ele><time>2026-07-02T02:17:51.000Z</time></trkpt>
        <trkpt lat="29.550629" lon="103.363743"><ele>1537.0796</ele><time>2026-07-02T02:17:56.000Z</time></trkpt>
        <trkpt lat="29.550668" lon="103.363705"><ele>1534.2812</ele><time>2026-07-02T02:18:06.000Z</time></trkpt>
        <trkpt lat="29.550711" lon="103.36367"><ele>1537.6194</ele><time>2026-07-02T02:18:09.000Z</time></trkpt>
        <trkpt lat="29.550758" lon="103.3637"><ele>1537.7052</ele><time>2026-07-02T02:18:13.000Z</time></trkpt>
        <trkpt lat="29.550754" lon="103.363641"><ele>1536.7312</ele><time>2026-07-02T02:18:20.000Z</time></trkpt>
        <trkpt lat="29.550768" lon="103.363584"><ele>1538.934</ele><time>2026-07-02T02:18:25.000Z</time></trkpt>
        <trkpt lat="29.55076" lon="103.363532"><ele>1545.3827</ele><time>2026-07-02T02:18:29.000Z</time></trkpt>
        <trkpt lat="29.550725" lon="103.363495"><ele>1545.5947</ele><time>2026-07-02T02:18:33.000Z</time></trkpt>
        <trkpt lat="29.55072" lon="103.363441"><ele>1542.8346</ele><time>2026-07-02T02:18:38.000Z</time></trkpt>
        <trkpt lat="29.550721" lon="103.363388"><ele>1538.7476</ele><time>2026-07-02T02:18:52.000Z</time></trkpt>
        <trkpt lat="29.550698" lon="103.363335"><ele>1540.0648</ele><time>2026-07-02T02:19:03.000Z</time></trkpt>
        <trkpt lat="29.550712" lon="103.363397"><ele>1550.4677</ele><time>2026-07-02T02:19:16.000Z</time></trkpt>
        <trkpt lat="29.550705" lon="103.363456"><ele>1556.2391</ele><time>2026-07-02T02:19:22.000Z</time></trkpt>
        <trkpt lat="29.55071" lon="103.36351"><ele>1558.3977</ele><time>2026-07-02T02:19:30.000Z</time></trkpt>
        <trkpt lat="29.550759" lon="103.36352"><ele>1559.3268</ele><time>2026-07-02T02:19:38.000Z</time></trkpt>
        <trkpt lat="29.550766" lon="103.36346"><ele>1559.7698</ele><time>2026-07-02T02:19:43.000Z</time></trkpt>
        <trkpt lat="29.550807" lon="103.363386"><ele>1558.2694</ele><time>2026-07-02T02:19:52.000Z</time></trkpt>
        <trkpt lat="29.550813" lon="103.363325"><ele>1556.305</ele><time>2026-07-02T02:19:56.000Z</time></trkpt>
        <trkpt lat="29.550832" lon="103.363272"><ele>1553.8927</ele><time>2026-07-02T02:20:38.000Z</time></trkpt>
        <trkpt lat="29.55081" lon="103.363225"><ele>1553.4563</ele><time>2026-07-02T02:21:01.000Z</time></trkpt>
        <trkpt lat="29.55078" lon="103.363185"><ele>1556.76</ele><time>2026-07-02T02:21:09.000Z</time></trkpt>
        <trkpt lat="29.550721" lon="103.363204"><ele>1575.8385</ele><time>2026-07-02T02:21:38.000Z</time></trkpt>
        <trkpt lat="29.550768" lon="103.363222"><ele>1574.1597</ele><time>2026-07-02T02:21:45.000Z</time></trkpt>
        <trkpt lat="29.550791" lon="103.36327"><ele>1577.7084</ele><time>2026-07-02T02:21:49.000Z</time></trkpt>
        <trkpt lat="29.550831" lon="103.36324"><ele>1574.5634</ele><time>2026-07-02T02:22:07.000Z</time></trkpt>
        <trkpt lat="29.550813" lon="103.363182"><ele>1579.3662</ele><time>2026-07-02T02:22:20.000Z</time></trkpt>
        <trkpt lat="29.550779" lon="103.363144"><ele>1582.511</ele><time>2026-07-02T02:22:40.000Z</time></trkpt>
        <trkpt lat="29.550756" lon="103.363099"><ele>1584.6157</ele><time>2026-07-02T02:23:02.000Z</time></trkpt>
        <trkpt lat="29.550744" lon="103.363044"><ele>1583.4532</ele><time>2026-07-02T02:23:11.000Z</time></trkpt>
        <trkpt lat="29.550686" lon="103.363028"><ele>1583.0977</ele><time>2026-07-02T02:23:20.000Z</time></trkpt>
        <trkpt lat="29.550645" lon="103.363"><ele>1582.9359</ele><time>2026-07-02T02:23:39.000Z</time></trkpt>
        <trkpt lat="29.550604" lon="103.362971"><ele>1583.9075</ele><time>2026-07-02T02:23:49.000Z</time></trkpt>
        <trkpt lat="29.550604" lon="103.362919"><ele>1582.0476</ele><time>2026-07-02T02:23:57.000Z</time></trkpt>
        <trkpt lat="29.550588" lon="103.36287"><ele>1579.5076</ele><time>2026-07-02T02:24:05.000Z</time></trkpt>
        <trkpt lat="29.550616" lon="103.362827"><ele>1578.6294</ele><time>2026-07-02T02:26:42.000Z</time></trkpt>
        <trkpt lat="29.550608" lon="103.362776"><ele>1581.4567</ele><time>2026-07-02T02:26:55.000Z</time></trkpt>
        <trkpt lat="29.550601" lon="103.362719"><ele>1580.0563</ele><time>2026-07-02T02:27:04.000Z</time></trkpt>
        <trkpt lat="29.550626" lon="103.362671"><ele>1578.332</ele><time>2026-07-02T02:27:16.000Z</time></trkpt>
        <trkpt lat="29.550645" lon="103.362624"><ele>1578.1956</ele><time>2026-07-02T02:27:27.000Z</time></trkpt>
        <trkpt lat="29.550643" lon="103.362572"><ele>1578.3175</ele><time>2026-07-02T02:27:37.000Z</time></trkpt>
        <trkpt lat="29.55066" lon="103.362523"><ele>1582.0518</ele><time>2026-07-02T02:27:51.000Z</time></trkpt>
        <trkpt lat="29.550699" lon="103.362495"><ele>1582.8333</ele><time>2026-07-02T02:28:04.000Z</time></trkpt>
        <trkpt lat="29.550698" lon="103.362443"><ele>1590.5079</ele><time>2026-07-02T02:28:24.000Z</time></trkpt>
        <trkpt lat="29.550727" lon="103.362398"><ele>1589.3448</ele><time>2026-07-02T02:28:38.000Z</time></trkpt>
        <trkpt lat="29.55071" lon="103.362341"><ele>1590.6271</ele><time>2026-07-02T02:28:50.000Z</time></trkpt>
        <trkpt lat="29.55068" lon="103.362302"><ele>1591.5208</ele><time>2026-07-02T02:29:01.000Z</time></trkpt>
        <trkpt lat="29.550665" lon="103.362247"><ele>1592.4647</ele><time>2026-07-02T02:29:13.000Z</time></trkpt>
        <trkpt lat="29.550643" lon="103.3622"><ele>1591.139</ele><time>2026-07-02T02:29:21.000Z</time></trkpt>
        <trkpt lat="29.550607" lon="103.362167"><ele>1598.8523</ele><time>2026-07-02T02:29:36.000Z</time></trkpt>
        <trkpt lat="29.550587" lon="103.36212"><ele>1597.524</ele><time>2026-07-02T02:29:57.000Z</time></trkpt>
        <trkpt lat="29.550579" lon="103.362068"><ele>1600.2368</ele><time>2026-07-02T02:30:11.000Z</time></trkpt>
        <trkpt lat="29.550579" lon="103.362012"><ele>1603.9205</ele><time>2026-07-02T02:31:56.000Z</time></trkpt>
        <trkpt lat="29.550584" lon="103.36196"><ele>1605.6066</ele><time>2026-07-02T02:32:04.000Z</time></trkpt>
        <trkpt lat="29.550615" lon="103.361913"><ele>1608.8151</ele><time>2026-07-02T02:32:24.000Z</time></trkpt>
        <trkpt lat="29.550617" lon="103.361859"><ele>1613.065</ele><time>2026-07-02T02:32:42.000Z</time></trkpt>
        <trkpt lat="29.550608" lon="103.361801"><ele>1619.3384</ele><time>2026-07-02T02:33:00.000Z</time></trkpt>
        <trkpt lat="29.55058" lon="103.361752"><ele>1622.9927</ele><time>2026-07-02T02:33:12.000Z</time></trkpt>
        <trkpt lat="29.550545" lon="103.361714"><ele>1623.0535</ele><time>2026-07-02T02:33:27.000Z</time></trkpt>
        <trkpt lat="29.550515" lon="103.361673"><ele>1624.1464</ele><time>2026-07-02T02:33:36.000Z</time></trkpt>
        <trkpt lat="29.550485" lon="103.361625"><ele>1622.7969</ele><time>2026-07-02T02:33:43.000Z</time></trkpt>
        <trkpt lat="29.550442" lon="103.361642"><ele>1623.9259</ele><time>2026-07-02T02:33:53.000Z</time></trkpt>
        <trkpt lat="29.550404" lon="103.361603"><ele>1623.9344</ele><time>2026-07-02T02:34:00.000Z</time></trkpt>
        <trkpt lat="29.550379" lon="103.361559"><ele>1622.3063</ele><time>2026-07-02T02:34:12.000Z</time></trkpt>
        <trkpt lat="29.550412" lon="103.361518"><ele>1621.6987</ele><time>2026-07-02T02:34:27.000Z</time></trkpt>
        <trkpt lat="29.550457" lon="103.361523"><ele>1631.9049</ele><time>2026-07-02T02:34:42.000Z</time></trkpt>
        <trkpt lat="29.550412" lon="103.361516"><ele>1636.3763</ele><time>2026-07-02T02:34:48.000Z</time></trkpt>
        <trkpt lat="29.550387" lon="103.361471"><ele>1637.4111</ele><time>2026-07-02T02:34:55.000Z</time></trkpt>
        <trkpt lat="29.550363" lon="103.361422"><ele>1636.1062</ele><time>2026-07-02T02:35:05.000Z</time></trkpt>
        <trkpt lat="29.55033" lon="103.361374"><ele>1637.2957</ele><time>2026-07-02T02:35:17.000Z</time></trkpt>
        <trkpt lat="29.550308" lon="103.361328"><ele>1641.4812</ele><time>2026-07-02T02:35:33.000Z</time></trkpt>
        <trkpt lat="29.550269" lon="103.361297"><ele>1646.2789</ele><time>2026-07-02T02:35:49.000Z</time></trkpt>
        <trkpt lat="29.550223" lon="103.361302"><ele>1648.2062</ele><time>2026-07-02T02:36:00.000Z</time></trkpt>
        <trkpt lat="29.550183" lon="103.36133"><ele>1649.4839</ele><time>2026-07-02T02:36:09.000Z</time></trkpt>
        <trkpt lat="29.550159" lon="103.361285"><ele>1648.6466</ele><time>2026-07-02T02:36:19.000Z</time></trkpt>
        <trkpt lat="29.550129" lon="103.361241"><ele>1651.2826</ele><time>2026-07-02T02:36:26.000Z</time></trkpt>
        <trkpt lat="29.55007" lon="103.361222"><ele>1651.3544</ele><time>2026-07-02T02:36:35.000Z</time></trkpt>
        <trkpt lat="29.550018" lon="103.361218"><ele>1651.4575</ele><time>2026-07-02T02:36:40.000Z</time></trkpt>
        <trkpt lat="29.54997" lon="103.361208"><ele>1651.1973</ele><time>2026-07-02T02:36:47.000Z</time></trkpt>
        <trkpt lat="29.54995" lon="103.361148"><ele>1652.9836</ele><time>2026-07-02T02:36:53.000Z</time></trkpt>
        <trkpt lat="29.549937" lon="103.361098"><ele>1657.22</ele><time>2026-07-02T02:36:59.000Z</time></trkpt>
        <trkpt lat="29.549934" lon="103.361042"><ele>1659.5599</ele><time>2026-07-02T02:37:06.000Z</time></trkpt>
        <trkpt lat="29.549905" lon="103.360995"><ele>1660.4224</ele><time>2026-07-02T02:37:13.000Z</time></trkpt>
        <trkpt lat="29.549893" lon="103.360943"><ele>1660.7992</ele><time>2026-07-02T02:37:21.000Z</time></trkpt>
        <trkpt lat="29.549883" lon="103.360888"><ele>1660.2572</ele><time>2026-07-02T02:37:28.000Z</time></trkpt>
        <trkpt lat="29.549841" lon="103.360852"><ele>1661.3143</ele><time>2026-07-02T02:37:34.000Z</time></trkpt>
        <trkpt lat="29.54985" lon="103.360799"><ele>1657.9719</ele><time>2026-07-02T02:37:39.000Z</time></trkpt>
        <trkpt lat="29.549872" lon="103.360753"><ele>1653.8619</ele><time>2026-07-02T02:37:47.000Z</time></trkpt>
        <trkpt lat="29.549887" lon="103.360696"><ele>1651.8738</ele><time>2026-07-02T02:37:54.000Z</time></trkpt>
        <trkpt lat="29.549914" lon="103.360636"><ele>1651.6865</ele><time>2026-07-02T02:38:00.000Z</time></trkpt>
        <trkpt lat="29.549952" lon="103.360602"><ele>1647.9424</ele><time>2026-07-02T02:38:07.000Z</time></trkpt>
        <trkpt lat="29.549977" lon="103.360544"><ele>1650.1824</ele><time>2026-07-02T02:38:15.000Z</time></trkpt>
        <trkpt lat="29.550002" lon="103.3605"><ele>1650.9896</ele><time>2026-07-02T02:38:21.000Z</time></trkpt>
        <trkpt lat="29.55003" lon="103.360448"><ele>1651.3248</ele><time>2026-07-02T02:38:27.000Z</time></trkpt>
        <trkpt lat="29.550055" lon="103.360404"><ele>1653.227</ele><time>2026-07-02T02:38:32.000Z</time></trkpt>
        <trkpt lat="29.550069" lon="103.360347"><ele>1654.598</ele><time>2026-07-02T02:38:40.000Z</time></trkpt>
        <trkpt lat="29.550081" lon="103.360294"><ele>1655.1721</ele><time>2026-07-02T02:38:44.000Z</time></trkpt>
        <trkpt lat="29.550101" lon="103.360241"><ele>1655.1155</ele><time>2026-07-02T02:38:51.000Z</time></trkpt>
        <trkpt lat="29.55013" lon="103.360189"><ele>1654.585</ele><time>2026-07-02T02:39:02.000Z</time></trkpt>
        <trkpt lat="29.550152" lon="103.360143"><ele>1652.394</ele><time>2026-07-02T02:39:14.000Z</time></trkpt>
        <trkpt lat="29.550155" lon="103.360089"><ele>1651.9689</ele><time>2026-07-02T02:39:22.000Z</time></trkpt>
        <trkpt lat="29.550145" lon="103.360036"><ele>1654.4365</ele><time>2026-07-02T02:39:31.000Z</time></trkpt>
        <trkpt lat="29.550139" lon="103.359979"><ele>1660.1791</ele><time>2026-07-02T02:39:45.000Z</time></trkpt>
        <trkpt lat="29.550125" lon="103.359924"><ele>1664.2394</ele><time>2026-07-02T02:40:20.000Z</time></trkpt>
        <trkpt lat="29.550104" lon="103.359873"><ele>1665.8628</ele><time>2026-07-02T02:40:39.000Z</time></trkpt>
        <trkpt lat="29.550076" lon="103.359833"><ele>1668.4005</ele><time>2026-07-02T02:40:50.000Z</time></trkpt>
        <trkpt lat="29.550063" lon="103.359781"><ele>1672.38</ele><time>2026-07-02T02:41:10.000Z</time></trkpt>
        <trkpt lat="29.550028" lon="103.359814"><ele>1675.6641</ele><time>2026-07-02T02:46:09.000Z</time></trkpt>
        <trkpt lat="29.549991" lon="103.359766"><ele>1674.9634</ele><time>2026-07-02T02:46:18.000Z</time></trkpt>
        <trkpt lat="29.549973" lon="103.359718"><ele>1672.208</ele><time>2026-07-02T02:46:25.000Z</time></trkpt>
        <trkpt lat="29.549971" lon="103.359665"><ele>1674.6182</ele><time>2026-07-02T02:46:32.000Z</time></trkpt>
        <trkpt lat="29.549931" lon="103.359624"><ele>1675.8635</ele><time>2026-07-02T02:46:45.000Z</time></trkpt>
        <trkpt lat="29.5499" lon="103.359586"><ele>1677.6373</ele><time>2026-07-02T02:46:58.000Z</time></trkpt>
        <trkpt lat="29.54987" lon="103.359535"><ele>1681.038</ele><time>2026-07-02T02:47:12.000Z</time></trkpt>
        <trkpt lat="29.54987" lon="103.359481"><ele>1683.0094</ele><time>2026-07-02T02:47:21.000Z</time></trkpt>
        <trkpt lat="29.549857" lon="103.359425"><ele>1683.0319</ele><time>2026-07-02T02:47:30.000Z</time></trkpt>
        <trkpt lat="29.549861" lon="103.359368"><ele>1682.2372</ele><time>2026-07-02T02:47:48.000Z</time></trkpt>
        <trkpt lat="29.549907" lon="103.359355"><ele>1685.3956</ele><time>2026-07-02T02:47:59.000Z</time></trkpt>
        <trkpt lat="29.549953" lon="103.359343"><ele>1687.6124</ele><time>2026-07-02T02:48:06.000Z</time></trkpt>
        <trkpt lat="29.549996" lon="103.359324"><ele>1693.621</ele><time>2026-07-02T02:48:21.000Z</time></trkpt>
        <trkpt lat="29.550044" lon="103.359295"><ele>1694.9951</ele><time>2026-07-02T02:48:28.000Z</time></trkpt>
        <trkpt lat="29.550081" lon="103.359265"><ele>1698.619</ele><time>2026-07-02T02:48:35.000Z</time></trkpt>
        <trkpt lat="29.550088" lon="103.359212"><ele>1697.22</ele><time>2026-07-02T02:48:39.000Z</time></trkpt>
        <trkpt lat="29.550139" lon="103.359197"><ele>1696.9521</ele><time>2026-07-02T02:48:46.000Z</time></trkpt>
        <trkpt lat="29.550195" lon="103.35921"><ele>1697.9547</ele><time>2026-07-02T02:48:55.000Z</time></trkpt>
        <trkpt lat="29.550245" lon="103.359184"><ele>1696.4841</ele><time>2026-07-02T02:49:02.000Z</time></trkpt>
        <trkpt lat="29.550251" lon="103.35912"><ele>1691.9368</ele><time>2026-07-02T02:49:05.000Z</time></trkpt>
        <trkpt lat="29.550258" lon="103.359068"><ele>1691.844</ele><time>2026-07-02T02:49:08.000Z</time></trkpt>
        <trkpt lat="29.550267" lon="103.359008"><ele>1691.9573</ele><time>2026-07-02T02:49:12.000Z</time></trkpt>
        <trkpt lat="29.550282" lon="103.35895"><ele>1695.2252</ele><time>2026-07-02T02:49:17.000Z</time></trkpt>
        <trkpt lat="29.550275" lon="103.358899"><ele>1699.7925</ele><time>2026-07-02T02:49:32.000Z</time></trkpt>
        <trkpt lat="29.550283" lon="103.358846"><ele>1699.2406</ele><time>2026-07-02T02:49:44.000Z</time></trkpt>
        <trkpt lat="29.550271" lon="103.358794"><ele>1699.7429</ele><time>2026-07-02T02:49:51.000Z</time></trkpt>
        <trkpt lat="29.550288" lon="103.358743"><ele>1701.6504</ele><time>2026-07-02T02:50:00.000Z</time></trkpt>
        <trkpt lat="29.550283" lon="103.358679"><ele>1701.9813</ele><time>2026-07-02T02:50:08.000Z</time></trkpt>
        <trkpt lat="29.550286" lon="103.358624"><ele>1703.1575</ele><time>2026-07-02T02:50:18.000Z</time></trkpt>
        <trkpt lat="29.550294" lon="103.358566"><ele>1707.8047</ele><time>2026-07-02T02:50:36.000Z</time></trkpt>
        <trkpt lat="29.550316" lon="103.35852"><ele>1708.943</ele><time>2026-07-02T02:50:57.000Z</time></trkpt>
        <trkpt lat="29.550345" lon="103.358478"><ele>1710.1072</ele><time>2026-07-02T02:51:10.000Z</time></trkpt>
        <trkpt lat="29.550329" lon="103.358419"><ele>1711.5706</ele><time>2026-07-02T02:51:23.000Z</time></trkpt>
        <trkpt lat="29.550303" lon="103.358376"><ele>1713.3457</ele><time>2026-07-02T02:51:29.000Z</time></trkpt>
        <trkpt lat="29.550288" lon="103.358319"><ele>1710.6772</ele><time>2026-07-02T02:51:37.000Z</time></trkpt>
        <trkpt lat="29.550297" lon="103.358267"><ele>1715.7905</ele><time>2026-07-02T02:52:04.000Z</time></trkpt>
        <trkpt lat="29.550293" lon="103.358208"><ele>1716.0592</ele><time>2026-07-02T02:52:16.000Z</time></trkpt>
        <trkpt lat="29.55027" lon="103.358159"><ele>1718.0194</ele><time>2026-07-02T02:52:25.000Z</time></trkpt>
        <trkpt lat="29.550298" lon="103.358118"><ele>1722.4772</ele><time>2026-07-02T02:52:46.000Z</time></trkpt>
        <trkpt lat="29.550311" lon="103.358067"><ele>1720.532</ele><time>2026-07-02T02:52:54.000Z</time></trkpt>
        <trkpt lat="29.550321" lon="103.358005"><ele>1719.2906</ele><time>2026-07-02T02:53:02.000Z</time></trkpt>
        <trkpt lat="29.550353" lon="103.357968"><ele>1722.4432</ele><time>2026-07-02T02:53:09.000Z</time></trkpt>
        <trkpt lat="29.550344" lon="103.357914"><ele>1722.256</ele><time>2026-07-02T02:53:19.000Z</time></trkpt>
        <trkpt lat="29.550383" lon="103.357882"><ele>1723.6165</ele><time>2026-07-02T02:53:26.000Z</time></trkpt>
        <trkpt lat="29.550403" lon="103.357834"><ele>1724.1571</ele><time>2026-07-02T02:53:32.000Z</time></trkpt>
        <trkpt lat="29.550417" lon="103.357774"><ele>1725.2095</ele><time>2026-07-02T02:53:42.000Z</time></trkpt>
        <trkpt lat="29.550413" lon="103.357716"><ele>1725.304</ele><time>2026-07-02T02:53:55.000Z</time></trkpt>
        <trkpt lat="29.550416" lon="103.357659"><ele>1730.1757</ele><time>2026-07-02T02:54:29.000Z</time></trkpt>
        <trkpt lat="29.550391" lon="103.357611"><ele>1731.0055</ele><time>2026-07-02T02:55:25.000Z</time></trkpt>
        <trkpt lat="29.550367" lon="103.357547"><ele>1727.2067</ele><time>2026-07-02T02:55:32.000Z</time></trkpt>
        <trkpt lat="29.550358" lon="103.357493"><ele>1727.8862</ele><time>2026-07-02T02:55:38.000Z</time></trkpt>
        <trkpt lat="29.550358" lon="103.357439"><ele>1730.382</ele><time>2026-07-02T02:55:50.000Z</time></trkpt>
        <trkpt lat="29.550374" lon="103.357386"><ele>1730.7803</ele><time>2026-07-02T02:56:08.000Z</time></trkpt>
        <trkpt lat="29.550392" lon="103.357338"><ele>1734.0242</ele><time>2026-07-02T02:56:19.000Z</time></trkpt>
        <trkpt lat="29.550387" lon="103.357274"><ele>1735.2219</ele><time>2026-07-02T02:56:27.000Z</time></trkpt>
        <trkpt lat="29.550392" lon="103.357221"><ele>1735.6869</ele><time>2026-07-02T02:56:37.000Z</time></trkpt>
        <trkpt lat="29.550384" lon="103.357168"><ele>1738.4293</ele><time>2026-07-02T02:56:48.000Z</time></trkpt>
        <trkpt lat="29.550371" lon="103.357118"><ele>1737.6088</ele><time>2026-07-02T02:56:53.000Z</time></trkpt>
        <trkpt lat="29.550369" lon="103.357055"><ele>1737.7997</ele><time>2026-07-02T02:57:00.000Z</time></trkpt>
        <trkpt lat="29.550344" lon="103.357003"><ele>1739.4712</ele><time>2026-07-02T02:57:06.000Z</time></trkpt>
        <trkpt lat="29.550318" lon="103.356958"><ele>1738.4059</ele><time>2026-07-02T02:57:13.000Z</time></trkpt>
        <trkpt lat="29.550268" lon="103.356945"><ele>1740.8136</ele><time>2026-07-02T02:57:32.000Z</time></trkpt>
        <trkpt lat="29.550238" lon="103.3569"><ele>1740.4111</ele><time>2026-07-02T02:57:37.000Z</time></trkpt>
        <trkpt lat="29.550196" lon="103.356875"><ele>1742.4823</ele><time>2026-07-02T02:57:41.000Z</time></trkpt>
        <trkpt lat="29.550167" lon="103.356916"><ele>1745.2119</ele><time>2026-07-02T02:57:46.000Z</time></trkpt>
        <trkpt lat="29.550126" lon="103.356943"><ele>1744.7614</ele><time>2026-07-02T02:57:52.000Z</time></trkpt>
        <trkpt lat="29.550089" lon="103.356991"><ele>1747.6658</ele><time>2026-07-02T02:57:57.000Z</time></trkpt>
        <trkpt lat="29.550043" lon="103.356966"><ele>1747.1678</ele><time>2026-07-02T02:58:08.000Z</time></trkpt>
        <trkpt lat="29.550001" lon="103.356991"><ele>1745.8741</ele><time>2026-07-02T02:58:14.000Z</time></trkpt>
        <trkpt lat="29.55002" lon="103.357041"><ele>1748.2542</ele><time>2026-07-02T02:58:28.000Z</time></trkpt>
        <trkpt lat="29.550023" lon="103.356983"><ele>1751.5552</ele><time>2026-07-02T03:03:49.000Z</time></trkpt>
        <trkpt lat="29.55002" lon="103.357036"><ele>1748.5256</ele><time>2026-07-02T03:04:02.000Z</time></trkpt>
        <trkpt lat="29.550006" lon="103.356987"><ele>1746.8446</ele><time>2026-07-02T03:04:50.000Z</time></trkpt>
        <trkpt lat="29.54997" lon="103.356955"><ele>1744.5762</ele><time>2026-07-02T03:11:24.000Z</time></trkpt>
        <trkpt lat="29.549926" lon="103.356935"><ele>1745.6377</ele><time>2026-07-02T03:11:29.000Z</time></trkpt>
        <trkpt lat="29.549877" lon="103.356924"><ele>1744.7832</ele><time>2026-07-02T03:11:39.000Z</time></trkpt>
        <trkpt lat="29.549832" lon="103.356905"><ele>1743.5376</ele><time>2026-07-02T03:11:44.000Z</time></trkpt>
        <trkpt lat="29.549785" lon="103.356882"><ele>1743.6213</ele><time>2026-07-02T03:11:50.000Z</time></trkpt>
        <trkpt lat="29.549732" lon="103.356867"><ele>1742.7654</ele><time>2026-07-02T03:11:55.000Z</time></trkpt>
        <trkpt lat="29.549688" lon="103.356844"><ele>1746.0155</ele><time>2026-07-02T03:12:00.000Z</time></trkpt>
        <trkpt lat="29.549648" lon="103.356876"><ele>1749.7555</ele><time>2026-07-02T03:12:08.000Z</time></trkpt>
        <trkpt lat="29.549649" lon="103.356932"><ele>1750.0248</ele><time>2026-07-02T03:12:25.000Z</time></trkpt>
        <trkpt lat="29.549658" lon="103.356996"><ele>1752.1298</ele><time>2026-07-02T03:12:35.000Z</time></trkpt>
        <trkpt lat="29.549677" lon="103.357049"><ele>1752.8833</ele><time>2026-07-02T03:12:40.000Z</time></trkpt>
        <trkpt lat="29.54964" lon="103.357094"><ele>1753.6461</ele><time>2026-07-02T03:12:47.000Z</time></trkpt>
        <trkpt lat="29.5496" lon="103.357069"><ele>1753.3601</ele><time>2026-07-02T03:13:01.000Z</time></trkpt>
        <trkpt lat="29.549582" lon="103.35702"><ele>1751.2135</ele><time>2026-07-02T03:13:06.000Z</time></trkpt>
        <trkpt lat="29.549601" lon="103.35697"><ele>1756.9264</ele><time>2026-07-02T03:13:14.000Z</time></trkpt>
        <trkpt lat="29.549569" lon="103.356924"><ele>1766.9733</ele><time>2026-07-02T03:13:20.000Z</time></trkpt>
        <trkpt lat="29.549312" lon="103.356969"><ele>1780.035</ele><time>2026-07-02T03:13:30.000Z</time></trkpt>
        <trkpt lat="29.54939" lon="103.356972"><ele>1780.7219</ele><time>2026-07-02T03:13:32.000Z</time></trkpt>
        <trkpt lat="29.549364" lon="103.357019"><ele>1781.2864</ele><time>2026-07-02T03:13:35.000Z</time></trkpt>
        <trkpt lat="29.54933" lon="103.357054"><ele>1787.3064</ele><time>2026-07-02T03:13:40.000Z</time></trkpt>
        <trkpt lat="29.549376" lon="103.357018"><ele>1792.1714</ele><time>2026-07-02T03:13:53.000Z</time></trkpt>
        <trkpt lat="29.549297" lon="103.356954"><ele>1798.3297</ele><time>2026-07-02T03:14:00.000Z</time></trkpt>
        <trkpt lat="29.549373" lon="103.356926"><ele>1794.4623</ele><time>2026-07-02T03:14:02.000Z</time></trkpt>
        <trkpt lat="29.54936" lon="103.356925"><ele>1800.6171</ele><time>2026-07-02T03:14:03.000Z</time></trkpt>
        <trkpt lat="29.549567" lon="103.356797"><ele>1762.0809</ele><time>2026-07-02T03:14:31.000Z</time></trkpt>
        <trkpt lat="29.549747" lon="103.356761"><ele>1761.9609</ele><time>2026-07-02T03:14:43.000Z</time></trkpt>
        <trkpt lat="29.549665" lon="103.35687"><ele>1780.8176</ele><time>2026-07-02T03:15:04.000Z</time></trkpt>
        <trkpt lat="29.549819" lon="103.356809"><ele>1757.5618</ele><time>2026-07-02T03:15:16.000Z</time></trkpt>
        <trkpt lat="29.549411" lon="103.356989"><ele>1802.8728</ele><time>2026-07-02T03:15:36.000Z</time></trkpt>
        <trkpt lat="29.549695" lon="103.356925"><ele>1793.1273</ele><time>2026-07-02T03:16:58.000Z</time></trkpt>
        <trkpt lat="29.549574" lon="103.356959"><ele>1794.5349</ele><time>2026-07-02T03:17:01.000Z</time></trkpt>
        <trkpt lat="29.549524" lon="103.356985"><ele>1796.7732</ele><time>2026-07-02T03:17:05.000Z</time></trkpt>
        <trkpt lat="29.549355" lon="103.357031"><ele>1797.7797</ele><time>2026-07-02T03:17:09.000Z</time></trkpt>
        <trkpt lat="29.549401" lon="103.357031"><ele>1790.8567</ele><time>2026-07-02T03:17:16.000Z</time></trkpt>
        <trkpt lat="29.549432" lon="103.356901"><ele>1788.7457</ele><time>2026-07-02T03:17:21.000Z</time></trkpt>
        <trkpt lat="29.549414" lon="103.356853"><ele>1790.6797</ele><time>2026-07-02T03:17:24.000Z</time></trkpt>
        <trkpt lat="29.54945" lon="103.356885"><ele>1792.9136</ele><time>2026-07-02T03:17:27.000Z</time></trkpt>
        <trkpt lat="29.549412" lon="103.357044"><ele>1790.9192</ele><time>2026-07-02T03:17:30.000Z</time></trkpt>
        <trkpt lat="29.5494" lon="103.357116"><ele>1789.9144</ele><time>2026-07-02T03:17:31.000Z</time></trkpt>
        <trkpt lat="29.549336" lon="103.357173"><ele>1789.0886</ele><time>2026-07-02T03:17:32.000Z</time></trkpt>
        <trkpt lat="29.549319" lon="103.357221"><ele>1789.2198</ele><time>2026-07-02T03:17:34.000Z</time></trkpt>
        <trkpt lat="29.549271" lon="103.357201"><ele>1788.4866</ele><time>2026-07-02T03:17:37.000Z</time></trkpt>
        <trkpt lat="29.549221" lon="103.357161"><ele>1789.4596</ele><time>2026-07-02T03:17:40.000Z</time></trkpt>
        <trkpt lat="29.549643" lon="103.357171"><ele>1785.4086</ele><time>2026-07-02T03:17:54.000Z</time></trkpt>
        <trkpt lat="29.549646" lon="103.357205"><ele>1784.5612</ele><time>2026-07-02T03:17:55.000Z</time></trkpt>
        <trkpt lat="29.549704" lon="103.357186"><ele>1781.253</ele><time>2026-07-02T03:17:58.000Z</time></trkpt>
        <trkpt lat="29.54968" lon="103.357129"><ele>1763.2019</ele><time>2026-07-02T03:18:07.000Z</time></trkpt>
        <trkpt lat="29.549685" lon="103.357071"><ele>1753.3579</ele><time>2026-07-02T03:18:15.000Z</time></trkpt>
        <trkpt lat="29.549672" lon="103.357016"><ele>1751.3896</ele><time>2026-07-02T03:18:19.000Z</time></trkpt>
        <trkpt lat="29.549666" lon="103.356958"><ele>1750.8861</ele><time>2026-07-02T03:18:25.000Z</time></trkpt>
        <trkpt lat="29.549663" lon="103.356906"><ele>1749.5508</ele><time>2026-07-02T03:18:33.000Z</time></trkpt>
        <trkpt lat="29.54965" lon="103.356851"><ele>1748.914</ele><time>2026-07-02T03:18:38.000Z</time></trkpt>
        <trkpt lat="29.549701" lon="103.356842"><ele>1748.2177</ele><time>2026-07-02T03:18:46.000Z</time></trkpt>
        <trkpt lat="29.549747" lon="103.356883"><ele>1745.2764</ele><time>2026-07-02T03:18:51.000Z</time></trkpt>
        <trkpt lat="29.549789" lon="103.356907"><ele>1743.8142</ele><time>2026-07-02T03:18:56.000Z</time></trkpt>
        <trkpt lat="29.549834" lon="103.356923"><ele>1742.9558</ele><time>2026-07-02T03:19:01.000Z</time></trkpt>
        <trkpt lat="29.549879" lon="103.356939"><ele>1743.9955</ele><time>2026-07-02T03:19:05.000Z</time></trkpt>
        <trkpt lat="29.549925" lon="103.356931"><ele>1740.9384</ele><time>2026-07-02T03:19:15.000Z</time></trkpt>
        <trkpt lat="29.549976" lon="103.356928"><ele>1740.2505</ele><time>2026-07-02T03:19:23.000Z</time></trkpt>
        <trkpt lat="29.550018" lon="103.356953"><ele>1742.0597</ele><time>2026-07-02T03:19:28.000Z</time></trkpt>
        <trkpt lat="29.550015" lon="103.35689"><ele>1745.2656</ele><time>2026-07-02T03:21:03.000Z</time></trkpt>
        <trkpt lat="29.549986" lon="103.356938"><ele>1747.452</ele><time>2026-07-02T03:21:27.000Z</time></trkpt>
        <trkpt lat="29.549972" lon="103.356987"><ele>1747.0256</ele><time>2026-07-02T03:21:40.000Z</time></trkpt>
        <trkpt lat="29.54999" lon="103.357054"><ele>1749.5945</ele><time>2026-07-02T03:21:47.000Z</time></trkpt>
        <trkpt lat="29.549995" lon="103.35711"><ele>1756.5992</ele><time>2026-07-02T03:22:12.000Z</time></trkpt>
        <trkpt lat="29.550003" lon="103.357038"><ele>1753.411</ele><time>2026-07-02T03:22:17.000Z</time></trkpt>
        <trkpt lat="29.549989" lon="103.356985"><ele>1753.8704</ele><time>2026-07-02T03:22:20.000Z</time></trkpt>
        <trkpt lat="29.549975" lon="103.356928"><ele>1754.4215</ele><time>2026-07-02T03:22:24.000Z</time></trkpt>
        <trkpt lat="29.549958" lon="103.356862"><ele>1751.897</ele><time>2026-07-02T03:22:28.000Z</time></trkpt>
        <trkpt lat="29.549957" lon="103.356917"><ele>1753.4501</ele><time>2026-07-02T03:23:14.000Z</time></trkpt>
        <trkpt lat="29.549941" lon="103.356991"><ele>1761.8491</ele><time>2026-07-02T03:23:24.000Z</time></trkpt>
        <trkpt lat="29.549901" lon="103.357032"><ele>1764.7295</ele><time>2026-07-02T03:23:34.000Z</time></trkpt>
        <trkpt lat="29.549882" lon="103.356941"><ele>1767.4404</ele><time>2026-07-02T03:23:42.000Z</time></trkpt>
        <trkpt lat="29.549903" lon="103.357001"><ele>1769.5974</ele><time>2026-07-02T03:23:53.000Z</time></trkpt>
        <trkpt lat="29.549938" lon="103.35705"><ele>1768.5983</ele><time>2026-07-02T03:23:55.000Z</time></trkpt>
        <trkpt lat="29.549992" lon="103.357063"><ele>1759.4117</ele><time>2026-07-02T03:24:01.000Z</time></trkpt>
        <trkpt lat="29.550032" lon="103.357039"><ele>1753.458</ele><time>2026-07-02T03:24:12.000Z</time></trkpt>
        <trkpt lat="29.549979" lon="103.356952"><ele>1750.0226</ele><time>2026-07-02T03:25:21.000Z</time></trkpt>
        <trkpt lat="29.550017" lon="103.356982"><ele>1748.7677</ele><time>2026-07-02T03:25:42.000Z</time></trkpt>
        <trkpt lat="29.549978" lon="103.356936"><ele>1747.3799</ele><time>2026-07-02T03:55:03.000Z</time></trkpt>
        <trkpt lat="29.549958" lon="103.356883"><ele>1746.989</ele><time>2026-07-02T03:55:09.000Z</time></trkpt>
        <trkpt lat="29.549938" lon="103.356837"><ele>1744.8519</ele><time>2026-07-02T03:55:17.000Z</time></trkpt>
        <trkpt lat="29.549918" lon="103.356787"><ele>1743.4867</ele><time>2026-07-02T03:55:23.000Z</time></trkpt>
        <trkpt lat="29.549927" lon="103.35673"><ele>1745.7075</ele><time>2026-07-02T03:55:26.000Z</time></trkpt>
        <trkpt lat="29.549941" lon="103.356679"><ele>1750.9951</ele><time>2026-07-02T03:55:47.000Z</time></trkpt>
        <trkpt lat="29.549942" lon="103.356617"><ele>1748.8127</ele><time>2026-07-02T03:55:51.000Z</time></trkpt>
        <trkpt lat="29.549938" lon="103.356564"><ele>1746.2489</ele><time>2026-07-02T03:55:56.000Z</time></trkpt>
        <trkpt lat="29.549952" lon="103.356511"><ele>1744.5028</ele><time>2026-07-02T03:56:01.000Z</time></trkpt>
        <trkpt lat="29.549986" lon="103.356476"><ele>1748.899</ele><time>2026-07-02T03:56:12.000Z</time></trkpt>
        <trkpt lat="29.550015" lon="103.356436"><ele>1750.7716</ele><time>2026-07-02T03:56:22.000Z</time></trkpt>
        <trkpt lat="29.550051" lon="103.356392"><ele>1756.4978</ele><time>2026-07-02T03:56:30.000Z</time></trkpt>
        <trkpt lat="29.550094" lon="103.356366"><ele>1756.2343</ele><time>2026-07-02T03:56:35.000Z</time></trkpt>
        <trkpt lat="29.550124" lon="103.356309"><ele>1756.1582</ele><time>2026-07-02T03:56:40.000Z</time></trkpt>
        <trkpt lat="29.550138" lon="103.356248"><ele>1753.5912</ele><time>2026-07-02T03:56:44.000Z</time></trkpt>
        <trkpt lat="29.550155" lon="103.35619"><ele>1750.6615</ele><time>2026-07-02T03:56:49.000Z</time></trkpt>
        <trkpt lat="29.550164" lon="103.356135"><ele>1749.6095</ele><time>2026-07-02T03:56:53.000Z</time></trkpt>
        <trkpt lat="29.550185" lon="103.356079"><ele>1747.322</ele><time>2026-07-02T03:56:59.000Z</time></trkpt>
        <trkpt lat="29.550198" lon="103.356029"><ele>1743.8181</ele><time>2026-07-02T03:57:03.000Z</time></trkpt>
        <trkpt lat="29.550213" lon="103.355973"><ele>1744.1266</ele><time>2026-07-02T03:57:08.000Z</time></trkpt>
        <trkpt lat="29.550239" lon="103.35593"><ele>1744.802</ele><time>2026-07-02T03:57:13.000Z</time></trkpt>
        <trkpt lat="29.550269" lon="103.35588"><ele>1743.9307</ele><time>2026-07-02T03:57:20.000Z</time></trkpt>
        <trkpt lat="29.550299" lon="103.35583"><ele>1742.2288</ele><time>2026-07-02T03:57:26.000Z</time></trkpt>
        <trkpt lat="29.550352" lon="103.355823"><ele>1738.0352</ele><time>2026-07-02T03:57:35.000Z</time></trkpt>
        <trkpt lat="29.550401" lon="103.355802"><ele>1731.5128</ele><time>2026-07-02T03:57:41.000Z</time></trkpt>
        <trkpt lat="29.550453" lon="103.355781"><ele>1729.0016</ele><time>2026-07-02T03:57:46.000Z</time></trkpt>
        <trkpt lat="29.550507" lon="103.355784"><ele>1727.1669</ele><time>2026-07-02T03:57:51.000Z</time></trkpt>
        <trkpt lat="29.550559" lon="103.355795"><ele>1726.4082</ele><time>2026-07-02T03:57:59.000Z</time></trkpt>
        <trkpt lat="29.550613" lon="103.355813"><ele>1729.7352</ele><time>2026-07-02T03:58:05.000Z</time></trkpt>
        <trkpt lat="29.550658" lon="103.355822"><ele>1728.6265</ele><time>2026-07-02T03:58:10.000Z</time></trkpt>
        <trkpt lat="29.550705" lon="103.355812"><ele>1729.599</ele><time>2026-07-02T03:58:15.000Z</time></trkpt>
        <trkpt lat="29.550752" lon="103.355781"><ele>1728.8613</ele><time>2026-07-02T03:58:19.000Z</time></trkpt>
        <trkpt lat="29.550805" lon="103.355759"><ele>1727.7871</ele><time>2026-07-02T03:58:25.000Z</time></trkpt>
        <trkpt lat="29.550845" lon="103.355727"><ele>1726.2704</ele><time>2026-07-02T03:58:29.000Z</time></trkpt>
        <trkpt lat="29.550888" lon="103.355698"><ele>1727.3892</ele><time>2026-07-02T03:58:35.000Z</time></trkpt>
        <trkpt lat="29.550926" lon="103.355667"><ele>1725.5021</ele><time>2026-07-02T03:58:40.000Z</time></trkpt>
        <trkpt lat="29.550965" lon="103.35564"><ele>1722.2285</ele><time>2026-07-02T03:58:47.000Z</time></trkpt>
        <trkpt lat="29.551011" lon="103.355614"><ele>1719.6848</ele><time>2026-07-02T03:58:53.000Z</time></trkpt>
        <trkpt lat="29.551054" lon="103.355591"><ele>1716.8328</ele><time>2026-07-02T03:58:59.000Z</time></trkpt>
        <trkpt lat="29.551096" lon="103.355566"><ele>1716.5571</ele><time>2026-07-02T03:59:07.000Z</time></trkpt>
        <trkpt lat="29.551135" lon="103.355537"><ele>1714.8674</ele><time>2026-07-02T03:59:15.000Z</time></trkpt>
        <trkpt lat="29.551171" lon="103.3555"><ele>1711.8257</ele><time>2026-07-02T03:59:23.000Z</time></trkpt>
        <trkpt lat="29.55121" lon="103.355467"><ele>1712.8341</ele><time>2026-07-02T03:59:35.000Z</time></trkpt>
        <trkpt lat="29.551251" lon="103.355428"><ele>1713.3206</ele><time>2026-07-02T03:59:48.000Z</time></trkpt>
        <trkpt lat="29.55127" lon="103.35537"><ele>1713.4032</ele><time>2026-07-02T03:59:55.000Z</time></trkpt>
        <trkpt lat="29.551295" lon="103.355321"><ele>1709.13</ele><time>2026-07-02T04:00:01.000Z</time></trkpt>
        <trkpt lat="29.551322" lon="103.355277"><ele>1707.1428</ele><time>2026-07-02T04:00:12.000Z</time></trkpt>
        <trkpt lat="29.551349" lon="103.355233"><ele>1705.3387</ele><time>2026-07-02T04:00:19.000Z</time></trkpt>
        <trkpt lat="29.55137" lon="103.355169"><ele>1707.4576</ele><time>2026-07-02T04:00:33.000Z</time></trkpt>
        <trkpt lat="29.551408" lon="103.355141"><ele>1709.8062</ele><time>2026-07-02T04:00:41.000Z</time></trkpt>
        <trkpt lat="29.551436" lon="103.35509"><ele>1711.0635</ele><time>2026-07-02T04:00:51.000Z</time></trkpt>
        <trkpt lat="29.551465" lon="103.355035"><ele>1708.9668</ele><time>2026-07-02T04:00:57.000Z</time></trkpt>
        <trkpt lat="29.551495" lon="103.354986"><ele>1707.5398</ele><time>2026-07-02T04:01:04.000Z</time></trkpt>
        <trkpt lat="29.551515" lon="103.354939"><ele>1705.6381</ele><time>2026-07-02T04:01:10.000Z</time></trkpt>
        <trkpt lat="29.551529" lon="103.354881"><ele>1705.0103</ele><time>2026-07-02T04:01:17.000Z</time></trkpt>
        <trkpt lat="29.551549" lon="103.354825"><ele>1703.6023</ele><time>2026-07-02T04:01:23.000Z</time></trkpt>
        <trkpt lat="29.551564" lon="103.354762"><ele>1699.8418</ele><time>2026-07-02T04:01:29.000Z</time></trkpt>
        <trkpt lat="29.55159" lon="103.354711"><ele>1699.4893</ele><time>2026-07-02T04:01:36.000Z</time></trkpt>
        <trkpt lat="29.551627" lon="103.354672"><ele>1698.8064</ele><time>2026-07-02T04:01:42.000Z</time></trkpt>
        <trkpt lat="29.551653" lon="103.354621"><ele>1696.5674</ele><time>2026-07-02T04:01:47.000Z</time></trkpt>
        <trkpt lat="29.55169" lon="103.354577"><ele>1695.0197</ele><time>2026-07-02T04:01:53.000Z</time></trkpt>
        <trkpt lat="29.55173" lon="103.354548"><ele>1697.4014</ele><time>2026-07-02T04:02:00.000Z</time></trkpt>
        <trkpt lat="29.551759" lon="103.354507"><ele>1697.7997</ele><time>2026-07-02T04:02:08.000Z</time></trkpt>
        <trkpt lat="29.551772" lon="103.354452"><ele>1696.3611</ele><time>2026-07-02T04:02:12.000Z</time></trkpt>
        <trkpt lat="29.551767" lon="103.3544"><ele>1690.5991</ele><time>2026-07-02T04:02:17.000Z</time></trkpt>
        <trkpt lat="29.551764" lon="103.354338"><ele>1687.0449</ele><time>2026-07-02T04:02:21.000Z</time></trkpt>
        <trkpt lat="29.551777" lon="103.354281"><ele>1686.4738</ele><time>2026-07-02T04:02:26.000Z</time></trkpt>
        <trkpt lat="29.551808" lon="103.354229"><ele>1690.9008</ele><time>2026-07-02T04:02:34.000Z</time></trkpt>
        <trkpt lat="29.551855" lon="103.354216"><ele>1689.7653</ele><time>2026-07-02T04:02:45.000Z</time></trkpt>
        <trkpt lat="29.551894" lon="103.354181"><ele>1692.8518</ele><time>2026-07-02T04:02:52.000Z</time></trkpt>
        <trkpt lat="29.55191" lon="103.354125"><ele>1692.1218</ele><time>2026-07-02T04:02:58.000Z</time></trkpt>
        <trkpt lat="29.551918" lon="103.354068"><ele>1691.7817</ele><time>2026-07-02T04:03:03.000Z</time></trkpt>
        <trkpt lat="29.551908" lon="103.354011"><ele>1690.185</ele><time>2026-07-02T04:03:08.000Z</time></trkpt>
        <trkpt lat="29.551874" lon="103.353974"><ele>1691.8751</ele><time>2026-07-02T04:03:15.000Z</time></trkpt>
        <trkpt lat="29.551846" lon="103.353927"><ele>1689.7218</ele><time>2026-07-02T04:03:20.000Z</time></trkpt>
        <trkpt lat="29.551828" lon="103.353873"><ele>1685.9482</ele><time>2026-07-02T04:03:24.000Z</time></trkpt>
        <trkpt lat="29.551817" lon="103.353817"><ele>1682.9734</ele><time>2026-07-02T04:03:29.000Z</time></trkpt>
        <trkpt lat="29.55179" lon="103.353771"><ele>1679.0366</ele><time>2026-07-02T04:03:34.000Z</time></trkpt>
        <trkpt lat="29.551755" lon="103.353732"><ele>1678.0009</ele><time>2026-07-02T04:03:38.000Z</time></trkpt>
        <trkpt lat="29.551724" lon="103.353688"><ele>1678.288</ele><time>2026-07-02T04:03:45.000Z</time></trkpt>
        <trkpt lat="29.551704" lon="103.353637"><ele>1676.7795</ele><time>2026-07-02T04:03:50.000Z</time></trkpt>
        <trkpt lat="29.551686" lon="103.353579"><ele>1674.997</ele><time>2026-07-02T04:03:57.000Z</time></trkpt>
        <trkpt lat="29.551679" lon="103.35352"><ele>1675.6952</ele><time>2026-07-02T04:04:03.000Z</time></trkpt>
        <trkpt lat="29.551682" lon="103.353456"><ele>1674.7131</ele><time>2026-07-02T04:04:09.000Z</time></trkpt>
        <trkpt lat="29.551703" lon="103.353397"><ele>1673.6505</ele><time>2026-07-02T04:04:18.000Z</time></trkpt>
        <trkpt lat="29.551727" lon="103.353333"><ele>1672.293</ele><time>2026-07-02T04:04:24.000Z</time></trkpt>
        <trkpt lat="29.551738" lon="103.353272"><ele>1669.9064</ele><time>2026-07-02T04:04:30.000Z</time></trkpt>
        <trkpt lat="29.551746" lon="103.35321"><ele>1668.5614</ele><time>2026-07-02T04:04:35.000Z</time></trkpt>
        <trkpt lat="29.551755" lon="103.353159"><ele>1667.1466</ele><time>2026-07-02T04:04:41.000Z</time></trkpt>
        <trkpt lat="29.551769" lon="103.353101"><ele>1665.9164</ele><time>2026-07-02T04:04:47.000Z</time></trkpt>
        <trkpt lat="29.55177" lon="103.353047"><ele>1663.9965</ele><time>2026-07-02T04:04:54.000Z</time></trkpt>
        <trkpt lat="29.551778" lon="103.352995"><ele>1662.3154</ele><time>2026-07-02T04:05:01.000Z</time></trkpt>
        <trkpt lat="29.551805" lon="103.352934"><ele>1659.9603</ele><time>2026-07-02T04:05:11.000Z</time></trkpt>
        <trkpt lat="29.551827" lon="103.352887"><ele>1659.2344</ele><time>2026-07-02T04:05:28.000Z</time></trkpt>
        <trkpt lat="29.55185" lon="103.352841"><ele>1657.1558</ele><time>2026-07-02T04:05:41.000Z</time></trkpt>
        <trkpt lat="29.551878" lon="103.352795"><ele>1655.7595</ele><time>2026-07-02T04:05:55.000Z</time></trkpt>
        <trkpt lat="29.551899" lon="103.352747"><ele>1650.4875</ele><time>2026-07-02T04:06:05.000Z</time></trkpt>
        <trkpt lat="29.551939" lon="103.352719"><ele>1650.1508</ele><time>2026-07-02T04:06:21.000Z</time></trkpt>
        <trkpt lat="29.551988" lon="103.352708"><ele>1650.1677</ele><time>2026-07-02T04:06:33.000Z</time></trkpt>
        <trkpt lat="29.552032" lon="103.35269"><ele>1644.3087</ele><time>2026-07-02T04:06:44.000Z</time></trkpt>
        <trkpt lat="29.552075" lon="103.35271"><ele>1641.4235</ele><time>2026-07-02T04:06:55.000Z</time></trkpt>
        <trkpt lat="29.552124" lon="103.352725"><ele>1640.5128</ele><time>2026-07-02T04:07:06.000Z</time></trkpt>
        <trkpt lat="29.552172" lon="103.352693"><ele>1632.934</ele><time>2026-07-02T04:07:33.000Z</time></trkpt>
        <trkpt lat="29.552169" lon="103.352637"><ele>1630.9515</ele><time>2026-07-02T04:07:46.000Z</time></trkpt>
        <trkpt lat="29.552162" lon="103.352583"><ele>1631.6985</ele><time>2026-07-02T04:08:03.000Z</time></trkpt>
        <trkpt lat="29.552164" lon="103.352532"><ele>1629.0531</ele><time>2026-07-02T04:08:13.000Z</time></trkpt>
        <trkpt lat="29.552178" lon="103.352479"><ele>1627.5565</ele><time>2026-07-02T04:08:24.000Z</time></trkpt>
        <trkpt lat="29.552181" lon="103.35242"><ele>1621.4957</ele><time>2026-07-02T04:08:35.000Z</time></trkpt>
        <trkpt lat="29.552176" lon="103.352366"><ele>1621.4338</ele><time>2026-07-02T04:08:48.000Z</time></trkpt>
        <trkpt lat="29.55222" lon="103.352329"><ele>1619.096</ele><time>2026-07-02T04:09:10.000Z</time></trkpt>
        <trkpt lat="29.552269" lon="103.352318"><ele>1617.9789</ele><time>2026-07-02T04:09:18.000Z</time></trkpt>
        <trkpt lat="29.552306" lon="103.352279"><ele>1618.0763</ele><time>2026-07-02T04:09:23.000Z</time></trkpt>
        <trkpt lat="29.552284" lon="103.352324"><ele>1619.9363</ele><time>2026-07-02T04:09:32.000Z</time></trkpt>
        <trkpt lat="29.552284" lon="103.352379"><ele>1619.9017</ele><time>2026-07-02T04:09:34.000Z</time></trkpt>
        <trkpt lat="29.55225" lon="103.352421"><ele>1618.0593</ele><time>2026-07-02T04:09:37.000Z</time></trkpt>
        <trkpt lat="29.552236" lon="103.352474"><ele>1616.2164</ele><time>2026-07-02T04:09:42.000Z</time></trkpt>
        <trkpt lat="29.552211" lon="103.35252"><ele>1614.6266</ele><time>2026-07-02T04:09:46.000Z</time></trkpt>
        <trkpt lat="29.552225" lon="103.352569"><ele>1613.0763</ele><time>2026-07-02T04:09:54.000Z</time></trkpt>
        <trkpt lat="29.552284" lon="103.352567"><ele>1614.4921</ele><time>2026-07-02T04:10:00.000Z</time></trkpt>
        <trkpt lat="29.55234" lon="103.352553"><ele>1611.7415</ele><time>2026-07-02T04:10:04.000Z</time></trkpt>
        <trkpt lat="29.552388" lon="103.352543"><ele>1615.5717</ele><time>2026-07-02T04:10:09.000Z</time></trkpt>
        <trkpt lat="29.552434" lon="103.352543"><ele>1617.632</ele><time>2026-07-02T04:10:13.000Z</time></trkpt>
        <trkpt lat="29.552483" lon="103.352567"><ele>1621.7151</ele><time>2026-07-02T04:10:18.000Z</time></trkpt>
        <trkpt lat="29.552534" lon="103.352548"><ele>1620.9822</ele><time>2026-07-02T04:10:24.000Z</time></trkpt>
        <trkpt lat="29.552581" lon="103.352542"><ele>1623.3866</ele><time>2026-07-02T04:10:34.000Z</time></trkpt>
        <trkpt lat="29.552622" lon="103.352516"><ele>1624.5464</ele><time>2026-07-02T04:10:40.000Z</time></trkpt>
        <trkpt lat="29.552653" lon="103.352477"><ele>1624.1707</ele><time>2026-07-02T04:10:46.000Z</time></trkpt>
        <trkpt lat="29.552669" lon="103.352425"><ele>1623.4298</ele><time>2026-07-02T04:10:52.000Z</time></trkpt>
        <trkpt lat="29.552698" lon="103.352481"><ele>1627.3926</ele><time>2026-07-02T04:11:01.000Z</time></trkpt>
        <trkpt lat="29.552735" lon="103.352518"><ele>1628.666</ele><time>2026-07-02T04:11:09.000Z</time></trkpt>
        <trkpt lat="29.552776" lon="103.352555"><ele>1631.4594</ele><time>2026-07-02T04:11:14.000Z</time></trkpt>
        <trkpt lat="29.552766" lon="103.35261"><ele>1630.5719</ele><time>2026-07-02T04:11:18.000Z</time></trkpt>
        <trkpt lat="29.552734" lon="103.352671"><ele>1631.0974</ele><time>2026-07-02T04:11:22.000Z</time></trkpt>
        <trkpt lat="29.552737" lon="103.352725"><ele>1632.2943</ele><time>2026-07-02T04:11:26.000Z</time></trkpt>
        <trkpt lat="29.552675" lon="103.352715"><ele>1632.5636</ele><time>2026-07-02T04:11:29.000Z</time></trkpt>
        <trkpt lat="29.552634" lon="103.352688"><ele>1632.758</ele><time>2026-07-02T04:11:32.000Z</time></trkpt>
        <trkpt lat="29.552603" lon="103.352631"><ele>1633.3015</ele><time>2026-07-02T04:11:34.000Z</time></trkpt>
        <trkpt lat="29.552557" lon="103.352603"><ele>1632.3995</ele><time>2026-07-02T04:11:35.000Z</time></trkpt>
        <trkpt lat="29.552585" lon="103.352562"><ele>1633.9015</ele><time>2026-07-02T04:11:38.000Z</time></trkpt>
        <trkpt lat="29.552625" lon="103.352593"><ele>1635.4653</ele><time>2026-07-02T04:11:41.000Z</time></trkpt>
        <trkpt lat="29.552696" lon="103.352611"><ele>1636.5015</ele><time>2026-07-02T04:11:43.000Z</time></trkpt>
        <trkpt lat="29.552741" lon="103.352636"><ele>1637.0183</ele><time>2026-07-02T04:11:45.000Z</time></trkpt>
        <trkpt lat="29.552805" lon="103.35269"><ele>1637.7849</ele><time>2026-07-02T04:11:48.000Z</time></trkpt>
        <trkpt lat="29.552865" lon="103.352686"><ele>1638.798</ele><time>2026-07-02T04:11:52.000Z</time></trkpt>
        <trkpt lat="29.552922" lon="103.352691"><ele>1639.7251</ele><time>2026-07-02T04:11:55.000Z</time></trkpt>
        <trkpt lat="29.552992" lon="103.352718"><ele>1638.0758</ele><time>2026-07-02T04:11:58.000Z</time></trkpt>
        <trkpt lat="29.553033" lon="103.352743"><ele>1638.259</ele><time>2026-07-02T04:12:01.000Z</time></trkpt>
        <trkpt lat="29.553079" lon="103.352752"><ele>1640.7456</ele><time>2026-07-02T04:12:05.000Z</time></trkpt>
        <trkpt lat="29.553128" lon="103.352781"><ele>1642.5514</ele><time>2026-07-02T04:12:09.000Z</time></trkpt>
        <trkpt lat="29.553169" lon="103.352743"><ele>1640.4119</ele><time>2026-07-02T04:12:13.000Z</time></trkpt>
        <trkpt lat="29.553215" lon="103.352739"><ele>1638.0845</ele><time>2026-07-02T04:12:18.000Z</time></trkpt>
        <trkpt lat="29.553261" lon="103.352736"><ele>1637.4341</ele><time>2026-07-02T04:12:22.000Z</time></trkpt>
        <trkpt lat="29.553316" lon="103.352707"><ele>1637.1816</ele><time>2026-07-02T04:12:27.000Z</time></trkpt>
        <trkpt lat="29.553351" lon="103.352669"><ele>1635.0458</ele><time>2026-07-02T04:12:33.000Z</time></trkpt>
        <trkpt lat="29.553394" lon="103.352637"><ele>1632.6553</ele><time>2026-07-02T04:12:40.000Z</time></trkpt>
        <trkpt lat="29.553441" lon="103.352634"><ele>1631.6968</ele><time>2026-07-02T04:12:45.000Z</time></trkpt>
        <trkpt lat="29.553485" lon="103.352644"><ele>1632.4028</ele><time>2026-07-02T04:12:51.000Z</time></trkpt>
        <trkpt lat="29.553531" lon="103.35261"><ele>1630.0802</ele><time>2026-07-02T04:12:56.000Z</time></trkpt>
        <trkpt lat="29.553586" lon="103.352629"><ele>1632.6046</ele><time>2026-07-02T04:13:01.000Z</time></trkpt>
        <trkpt lat="29.553631" lon="103.352628"><ele>1633.0363</ele><time>2026-07-02T04:13:06.000Z</time></trkpt>
        <trkpt lat="29.553677" lon="103.352595"><ele>1633.2712</ele><time>2026-07-02T04:13:10.000Z</time></trkpt>
        <trkpt lat="29.553709" lon="103.352556"><ele>1631.8055</ele><time>2026-07-02T04:13:14.000Z</time></trkpt>
        <trkpt lat="29.553765" lon="103.352566"><ele>1631.762</ele><time>2026-07-02T04:13:20.000Z</time></trkpt>
        <trkpt lat="29.553804" lon="103.352613"><ele>1634.7164</ele><time>2026-07-02T04:13:31.000Z</time></trkpt>
        <trkpt lat="29.553841" lon="103.35265"><ele>1642.7555</ele><time>2026-07-02T04:13:45.000Z</time></trkpt>
        <trkpt lat="29.553895" lon="103.35267"><ele>1640.7167</ele><time>2026-07-02T04:13:51.000Z</time></trkpt>
        <trkpt lat="29.553952" lon="103.352676"><ele>1635.3756</ele><time>2026-07-02T04:13:56.000Z</time></trkpt>
        <trkpt lat="29.553997" lon="103.352672"><ele>1633.5039</ele><time>2026-07-02T04:14:01.000Z</time></trkpt>
        <trkpt lat="29.554044" lon="103.352672"><ele>1632.4478</ele><time>2026-07-02T04:14:07.000Z</time></trkpt>
        <trkpt lat="29.55409" lon="103.352675"><ele>1632.5975</ele><time>2026-07-02T04:14:11.000Z</time></trkpt>
        <trkpt lat="29.55414" lon="103.352695"><ele>1634.3558</ele><time>2026-07-02T04:14:19.000Z</time></trkpt>
        <trkpt lat="29.554142" lon="103.352753"><ele>1639.1168</ele><time>2026-07-02T04:14:27.000Z</time></trkpt>
        <trkpt lat="29.554185" lon="103.352774"><ele>1641.1067</ele><time>2026-07-02T04:14:33.000Z</time></trkpt>
        <trkpt lat="29.554231" lon="103.352762"><ele>1641.5281</ele><time>2026-07-02T04:14:37.000Z</time></trkpt>
        <trkpt lat="29.554277" lon="103.352763"><ele>1642.8617</ele><time>2026-07-02T04:14:44.000Z</time></trkpt>
        <trkpt lat="29.554324" lon="103.352767"><ele>1643.8751</ele><time>2026-07-02T04:14:48.000Z</time></trkpt>
        <trkpt lat="29.554369" lon="103.352747"><ele>1642.8762</ele><time>2026-07-02T04:14:52.000Z</time></trkpt>
        <trkpt lat="29.554402" lon="103.352788"><ele>1644.2161</ele><time>2026-07-02T04:15:01.000Z</time></trkpt>
        <trkpt lat="29.554407" lon="103.352853"><ele>1641.9166</ele><time>2026-07-02T04:15:12.000Z</time></trkpt>
        <trkpt lat="29.554391" lon="103.352915"><ele>1644.4092</ele><time>2026-07-02T04:15:17.000Z</time></trkpt>
        <trkpt lat="29.554409" lon="103.352969"><ele>1645.542</ele><time>2026-07-02T04:15:21.000Z</time></trkpt>
        <trkpt lat="29.554435" lon="103.353022"><ele>1647.7728</ele><time>2026-07-02T04:15:30.000Z</time></trkpt>
        <trkpt lat="29.554437" lon="103.353079"><ele>1647.7064</ele><time>2026-07-02T04:15:41.000Z</time></trkpt>
        <trkpt lat="29.554462" lon="103.353126"><ele>1650.4506</ele><time>2026-07-02T04:15:54.000Z</time></trkpt>
        <trkpt lat="29.5545" lon="103.353156"><ele>1652.6831</ele><time>2026-07-02T04:16:08.000Z</time></trkpt>
        <trkpt lat="29.554539" lon="103.353188"><ele>1653.9203</ele><time>2026-07-02T04:16:20.000Z</time></trkpt>
        <trkpt lat="29.554554" lon="103.353237"><ele>1653.4921</ele><time>2026-07-02T04:16:28.000Z</time></trkpt>
        <trkpt lat="29.554558" lon="103.353292"><ele>1657.0388</ele><time>2026-07-02T04:16:38.000Z</time></trkpt>
        <trkpt lat="29.554573" lon="103.353351"><ele>1660.8711</ele><time>2026-07-02T04:16:55.000Z</time></trkpt>
        <trkpt lat="29.554581" lon="103.353402"><ele>1661.8458</ele><time>2026-07-02T04:17:04.000Z</time></trkpt>
        <trkpt lat="29.55457" lon="103.353458"><ele>1664.7516</ele><time>2026-07-02T04:17:12.000Z</time></trkpt>
        <trkpt lat="29.554557" lon="103.353521"><ele>1669.6962</ele><time>2026-07-02T04:17:23.000Z</time></trkpt>
        <trkpt lat="29.554578" lon="103.353582"><ele>1665.9138</ele><time>2026-07-02T04:17:31.000Z</time></trkpt>
        <trkpt lat="29.554585" lon="103.35364"><ele>1670.2856</ele><time>2026-07-02T04:17:35.000Z</time></trkpt>
        <trkpt lat="29.554633" lon="103.353684"><ele>1671.1093</ele><time>2026-07-02T04:17:41.000Z</time></trkpt>
        <trkpt lat="29.55467" lon="103.35374"><ele>1671.459</ele><time>2026-07-02T04:17:47.000Z</time></trkpt>
        <trkpt lat="29.554715" lon="103.353748"><ele>1671.8055</ele><time>2026-07-02T04:17:51.000Z</time></trkpt>
        <trkpt lat="29.554761" lon="103.353761"><ele>1669.0923</ele><time>2026-07-02T04:17:55.000Z</time></trkpt>
        <trkpt lat="29.554819" lon="103.353765"><ele>1667.2825</ele><time>2026-07-02T04:18:00.000Z</time></trkpt>
        <trkpt lat="29.554866" lon="103.353755"><ele>1665.7987</ele><time>2026-07-02T04:18:09.000Z</time></trkpt>
        <trkpt lat="29.554896" lon="103.353714"><ele>1658.5702</ele><time>2026-07-02T04:18:18.000Z</time></trkpt>
        <trkpt lat="29.554949" lon="103.353713"><ele>1651.373</ele><time>2026-07-02T04:19:00.000Z</time></trkpt>
        <trkpt lat="29.554981" lon="103.35367"><ele>1656.0475</ele><time>2026-07-02T04:19:21.000Z</time></trkpt>
        <trkpt lat="29.555028" lon="103.353658"><ele>1659.092</ele><time>2026-07-02T04:19:37.000Z</time></trkpt>
        <trkpt lat="29.555066" lon="103.353629"><ele>1659.9229</ele><time>2026-07-02T04:19:48.000Z</time></trkpt>
        <trkpt lat="29.555114" lon="103.353632"><ele>1660.9492</ele><time>2026-07-02T04:19:58.000Z</time></trkpt>
        <trkpt lat="29.555134" lon="103.353577"><ele>1657.7311</ele><time>2026-07-02T04:20:05.000Z</time></trkpt>
        <trkpt lat="29.555165" lon="103.353532"><ele>1655.5231</ele><time>2026-07-02T04:20:15.000Z</time></trkpt>
        <trkpt lat="29.555222" lon="103.353531"><ele>1658.5532</ele><time>2026-07-02T04:20:20.000Z</time></trkpt>
        <trkpt lat="29.555277" lon="103.353514"><ele>1658.4148</ele><time>2026-07-02T04:20:25.000Z</time></trkpt>
        <trkpt lat="29.555327" lon="103.353516"><ele>1659.7195</ele><time>2026-07-02T04:20:30.000Z</time></trkpt>
        <trkpt lat="29.555371" lon="103.353538"><ele>1659.5662</ele><time>2026-07-02T04:20:35.000Z</time></trkpt>
        <trkpt lat="29.555424" lon="103.353535"><ele>1656.0034</ele><time>2026-07-02T04:20:43.000Z</time></trkpt>
        <trkpt lat="29.555473" lon="103.353508"><ele>1653.4192</ele><time>2026-07-02T04:20:49.000Z</time></trkpt>
        <trkpt lat="29.555513" lon="103.353479"><ele>1653.0835</ele><time>2026-07-02T04:20:55.000Z</time></trkpt>
        <trkpt lat="29.555557" lon="103.353439"><ele>1649.4558</ele><time>2026-07-02T04:21:01.000Z</time></trkpt>
        <trkpt lat="29.555604" lon="103.353446"><ele>1648.4613</ele><time>2026-07-02T04:21:11.000Z</time></trkpt>
        <trkpt lat="29.555662" lon="103.353454"><ele>1646.0573</ele><time>2026-07-02T04:21:14.000Z</time></trkpt>
        <trkpt lat="29.55572" lon="103.353459"><ele>1647.3064</ele><time>2026-07-02T04:21:18.000Z</time></trkpt>
        <trkpt lat="29.555742" lon="103.353413"><ele>1644.9891</ele><time>2026-07-02T04:21:22.000Z</time></trkpt>
        <trkpt lat="29.555794" lon="103.353442"><ele>1643.4841</ele><time>2026-07-02T04:21:29.000Z</time></trkpt>
        <trkpt lat="29.555828" lon="103.353476"><ele>1643.198</ele><time>2026-07-02T04:21:35.000Z</time></trkpt>
        <trkpt lat="29.555888" lon="103.353481"><ele>1639.978</ele><time>2026-07-02T04:21:41.000Z</time></trkpt>
        <trkpt lat="29.555939" lon="103.353496"><ele>1641.3313</ele><time>2026-07-02T04:21:46.000Z</time></trkpt>
        <trkpt lat="29.555992" lon="103.353527"><ele>1639.4711</ele><time>2026-07-02T04:21:51.000Z</time></trkpt>
        <trkpt lat="29.556041" lon="103.353543"><ele>1641.543</ele><time>2026-07-02T04:21:57.000Z</time></trkpt>
        <trkpt lat="29.556091" lon="103.353546"><ele>1643.7523</ele><time>2026-07-02T04:22:04.000Z</time></trkpt>
        <trkpt lat="29.556138" lon="103.353548"><ele>1643.0144</ele><time>2026-07-02T04:22:10.000Z</time></trkpt>
        <trkpt lat="29.556187" lon="103.353535"><ele>1640.3424</ele><time>2026-07-02T04:22:18.000Z</time></trkpt>
        <trkpt lat="29.556233" lon="103.353509"><ele>1639.6833</ele><time>2026-07-02T04:22:26.000Z</time></trkpt>
        <trkpt lat="29.556274" lon="103.353482"><ele>1641.4102</ele><time>2026-07-02T04:22:32.000Z</time></trkpt>
        <trkpt lat="29.556317" lon="103.353467"><ele>1643.0697</ele><time>2026-07-02T04:22:39.000Z</time></trkpt>
        <trkpt lat="29.556345" lon="103.353425"><ele>1643.2797</ele><time>2026-07-02T04:22:43.000Z</time></trkpt>
        <trkpt lat="29.556387" lon="103.353391"><ele>1645.633</ele><time>2026-07-02T04:22:49.000Z</time></trkpt>
        <trkpt lat="29.556436" lon="103.353375"><ele>1650.0494</ele><time>2026-07-02T04:22:56.000Z</time></trkpt>
        <trkpt lat="29.556467" lon="103.353333"><ele>1648.926</ele><time>2026-07-02T04:23:02.000Z</time></trkpt>
        <trkpt lat="29.556502" lon="103.353291"><ele>1649.7955</ele><time>2026-07-02T04:23:06.000Z</time></trkpt>
        <trkpt lat="29.556537" lon="103.353247"><ele>1647.9155</ele><time>2026-07-02T04:23:12.000Z</time></trkpt>
        <trkpt lat="29.55657" lon="103.353207"><ele>1645.1672</ele><time>2026-07-02T04:23:17.000Z</time></trkpt>
        <trkpt lat="29.556611" lon="103.353169"><ele>1644.863</ele><time>2026-07-02T04:23:23.000Z</time></trkpt>
        <trkpt lat="29.556636" lon="103.353115"><ele>1640.5782</ele><time>2026-07-02T04:23:27.000Z</time></trkpt>
        <trkpt lat="29.556677" lon="103.35309"><ele>1638.1764</ele><time>2026-07-02T04:23:33.000Z</time></trkpt>
        <trkpt lat="29.55672" lon="103.353067"><ele>1638.2787</ele><time>2026-07-02T04:23:39.000Z</time></trkpt>
        <trkpt lat="29.556765" lon="103.35303"><ele>1638.783</ele><time>2026-07-02T04:23:47.000Z</time></trkpt>
        <trkpt lat="29.556795" lon="103.352985"><ele>1639.3965</ele><time>2026-07-02T04:23:53.000Z</time></trkpt>
        <trkpt lat="29.556823" lon="103.352941"><ele>1637.9867</ele><time>2026-07-02T04:23:57.000Z</time></trkpt>
        <trkpt lat="29.556845" lon="103.35289"><ele>1635.7083</ele><time>2026-07-02T04:24:02.000Z</time></trkpt>
        <trkpt lat="29.556865" lon="103.352834"><ele>1636.0486</ele><time>2026-07-02T04:24:09.000Z</time></trkpt>
        <trkpt lat="29.556889" lon="103.352789"><ele>1636.7207</ele><time>2026-07-02T04:24:15.000Z</time></trkpt>
        <trkpt lat="29.556921" lon="103.352744"><ele>1635.0876</ele><time>2026-07-02T04:24:22.000Z</time></trkpt>
        <trkpt lat="29.556943" lon="103.352695"><ele>1632.8079</ele><time>2026-07-02T04:24:28.000Z</time></trkpt>
        <trkpt lat="29.556984" lon="103.352665"><ele>1629.4938</ele><time>2026-07-02T04:24:35.000Z</time></trkpt>
        <trkpt lat="29.55702" lon="103.352619"><ele>1626.7563</ele><time>2026-07-02T04:24:41.000Z</time></trkpt>
        <trkpt lat="29.557066" lon="103.352601"><ele>1625.0127</ele><time>2026-07-02T04:24:47.000Z</time></trkpt>
        <trkpt lat="29.557092" lon="103.352549"><ele>1620.9043</ele><time>2026-07-02T04:24:52.000Z</time></trkpt>
        <trkpt lat="29.557118" lon="103.352504"><ele>1619.9001</ele><time>2026-07-02T04:24:58.000Z</time></trkpt>
        <trkpt lat="29.557152" lon="103.352465"><ele>1617.9592</ele><time>2026-07-02T04:25:25.000Z</time></trkpt>
        <trkpt lat="29.557202" lon="103.352453"><ele>1619.5935</ele><time>2026-07-02T04:25:51.000Z</time></trkpt>
        <trkpt lat="29.557235" lon="103.352415"><ele>1616.455</ele><time>2026-07-02T04:26:00.000Z</time></trkpt>
        <trkpt lat="29.557276" lon="103.352379"><ele>1614.734</ele><time>2026-07-02T04:26:09.000Z</time></trkpt>
        <trkpt lat="29.557316" lon="103.35234"><ele>1613.5396</ele><time>2026-07-02T04:26:17.000Z</time></trkpt>
        <trkpt lat="29.557339" lon="103.35229"><ele>1610.5901</ele><time>2026-07-02T04:26:22.000Z</time></trkpt>
        <trkpt lat="29.557372" lon="103.352251"><ele>1610.7117</ele><time>2026-07-02T04:26:27.000Z</time></trkpt>
        <trkpt lat="29.557414" lon="103.352213"><ele>1610.8207</ele><time>2026-07-02T04:26:36.000Z</time></trkpt>
        <trkpt lat="29.557445" lon="103.352167"><ele>1609.6547</ele><time>2026-07-02T04:26:44.000Z</time></trkpt>
        <trkpt lat="29.557455" lon="103.352115"><ele>1608.5703</ele><time>2026-07-02T04:26:52.000Z</time></trkpt>
        <trkpt lat="29.557472" lon="103.35206"><ele>1606.2646</ele><time>2026-07-02T04:26:59.000Z</time></trkpt>
        <trkpt lat="29.557486" lon="103.35201"><ele>1605.0715</ele><time>2026-07-02T04:27:04.000Z</time></trkpt>
        <trkpt lat="29.557497" lon="103.351958"><ele>1606.9819</ele><time>2026-07-02T04:27:12.000Z</time></trkpt>
        <trkpt lat="29.557507" lon="103.351903"><ele>1607.213</ele><time>2026-07-02T04:27:18.000Z</time></trkpt>
        <trkpt lat="29.557515" lon="103.351847"><ele>1605.9447</ele><time>2026-07-02T04:27:25.000Z</time></trkpt>
        <trkpt lat="29.557559" lon="103.351815"><ele>1607.463</ele><time>2026-07-02T04:27:33.000Z</time></trkpt>
        <trkpt lat="29.557585" lon="103.351763"><ele>1603.969</ele><time>2026-07-02T04:27:46.000Z</time></trkpt>
        <trkpt lat="29.557597" lon="103.351713"><ele>1605.3767</ele><time>2026-07-02T04:27:57.000Z</time></trkpt>
        <trkpt lat="29.557614" lon="103.35166"><ele>1603.0885</ele><time>2026-07-02T04:28:10.000Z</time></trkpt>
        <trkpt lat="29.557654" lon="103.351634"><ele>1609.0858</ele><time>2026-07-02T04:28:22.000Z</time></trkpt>
        <trkpt lat="29.557685" lon="103.351596"><ele>1613.9728</ele><time>2026-07-02T04:28:42.000Z</time></trkpt>
        <trkpt lat="29.557731" lon="103.351604"><ele>1616.0647</ele><time>2026-07-02T04:29:40.000Z</time></trkpt>
        <trkpt lat="29.55777" lon="103.35157"><ele>1604.0522</ele><time>2026-07-02T04:29:50.000Z</time></trkpt>
        <trkpt lat="29.557797" lon="103.351528"><ele>1590.4884</ele><time>2026-07-02T04:30:09.000Z</time></trkpt>
        <trkpt lat="29.557848" lon="103.351519"><ele>1587.4359</ele><time>2026-07-02T04:30:54.000Z</time></trkpt>
        <trkpt lat="29.557897" lon="103.351521"><ele>1586.9165</ele><time>2026-07-02T04:31:02.000Z</time></trkpt>
        <trkpt lat="29.557943" lon="103.351517"><ele>1587.7542</ele><time>2026-07-02T04:31:19.000Z</time></trkpt>
        <trkpt lat="29.557981" lon="103.351546"><ele>1588.8014</ele><time>2026-07-02T04:31:30.000Z</time></trkpt>
        <trkpt lat="29.55803" lon="103.351559"><ele>1589.9972</ele><time>2026-07-02T04:31:39.000Z</time></trkpt>
        <trkpt lat="29.558075" lon="103.351569"><ele>1590.2715</ele><time>2026-07-02T04:31:43.000Z</time></trkpt>
        <trkpt lat="29.558126" lon="103.351533"><ele>1589.0573</ele><time>2026-07-02T04:31:49.000Z</time></trkpt>
        <trkpt lat="29.558169" lon="103.35151"><ele>1590.2843</ele><time>2026-07-02T04:31:59.000Z</time></trkpt>
        <trkpt lat="29.558219" lon="103.351511"><ele>1589.5206</ele><time>2026-07-02T04:32:06.000Z</time></trkpt>
        <trkpt lat="29.558274" lon="103.351493"><ele>1587.6555</ele><time>2026-07-02T04:32:13.000Z</time></trkpt>
        <trkpt lat="29.55832" lon="103.351463"><ele>1587.4221</ele><time>2026-07-02T04:32:18.000Z</time></trkpt>
        <trkpt lat="29.558359" lon="103.351436"><ele>1585.3953</ele><time>2026-07-02T04:32:24.000Z</time></trkpt>
        <trkpt lat="29.558409" lon="103.351429"><ele>1585.8837</ele><time>2026-07-02T04:32:31.000Z</time></trkpt>
        <trkpt lat="29.558468" lon="103.351422"><ele>1586.3654</ele><time>2026-07-02T04:32:36.000Z</time></trkpt>
        <trkpt lat="29.558514" lon="103.351386"><ele>1585.4575</ele><time>2026-07-02T04:32:41.000Z</time></trkpt>
        <trkpt lat="29.558558" lon="103.351355"><ele>1584.8695</ele><time>2026-07-02T04:32:46.000Z</time></trkpt>
        <trkpt lat="29.558588" lon="103.351312"><ele>1584.0334</ele><time>2026-07-02T04:32:51.000Z</time></trkpt>
        <trkpt lat="29.558629" lon="103.351286"><ele>1584.5094</ele><time>2026-07-02T04:32:56.000Z</time></trkpt>
        <trkpt lat="29.558668" lon="103.351257"><ele>1584.8975</ele><time>2026-07-02T04:33:01.000Z</time></trkpt>
        <trkpt lat="29.558715" lon="103.351247"><ele>1584.8391</ele><time>2026-07-02T04:33:11.000Z</time></trkpt>
        <trkpt lat="29.558763" lon="103.351255"><ele>1583.9783</ele><time>2026-07-02T04:33:21.000Z</time></trkpt>
        <trkpt lat="29.558809" lon="103.351226"><ele>1584.5142</ele><time>2026-07-02T04:33:26.000Z</time></trkpt>
        <trkpt lat="29.558849" lon="103.351198"><ele>1581.4481</ele><time>2026-07-02T04:33:30.000Z</time></trkpt>
        <trkpt lat="29.558898" lon="103.351198"><ele>1585.4584</ele><time>2026-07-02T04:33:34.000Z</time></trkpt>
        <trkpt lat="29.558929" lon="103.351158"><ele>1585.6317</ele><time>2026-07-02T04:33:39.000Z</time></trkpt>
        <trkpt lat="29.558962" lon="103.351112"><ele>1585.4974</ele><time>2026-07-02T04:33:45.000Z</time></trkpt>
        <trkpt lat="29.558999" lon="103.351076"><ele>1587.173</ele><time>2026-07-02T04:33:51.000Z</time></trkpt>
        <trkpt lat="29.559017" lon="103.351024"><ele>1587.6896</ele><time>2026-07-02T04:33:57.000Z</time></trkpt>
        <trkpt lat="29.559047" lon="103.350984"><ele>1587.8497</ele><time>2026-07-02T04:34:02.000Z</time></trkpt>
        <trkpt lat="29.559084" lon="103.350953"><ele>1589.333</ele><time>2026-07-02T04:34:08.000Z</time></trkpt>
        <trkpt lat="29.559121" lon="103.350922"><ele>1589.935</ele><time>2026-07-02T04:34:13.000Z</time></trkpt>
        <trkpt lat="29.55916" lon="103.350887"><ele>1592.3665</ele><time>2026-07-02T04:34:24.000Z</time></trkpt>
        <trkpt lat="29.559205" lon="103.350908"><ele>1593.9364</ele><time>2026-07-02T04:34:31.000Z</time></trkpt>
        <trkpt lat="29.55926" lon="103.350902"><ele>1591.2722</ele><time>2026-07-02T04:34:37.000Z</time></trkpt>
        <trkpt lat="29.559306" lon="103.350868"><ele>1587.4662</ele><time>2026-07-02T04:34:42.000Z</time></trkpt>
        <trkpt lat="29.559335" lon="103.350817"><ele>1586.3531</ele><time>2026-07-02T04:34:51.000Z</time></trkpt>
        <trkpt lat="29.559376" lon="103.350785"><ele>1584.6871</ele><time>2026-07-02T04:34:59.000Z</time></trkpt>
        <trkpt lat="29.559403" lon="103.350744"><ele>1583.1115</ele><time>2026-07-02T04:35:05.000Z</time></trkpt>
        <trkpt lat="29.559447" lon="103.350713"><ele>1583.2422</ele><time>2026-07-02T04:35:14.000Z</time></trkpt>
        <trkpt lat="29.559501" lon="103.350714"><ele>1583.8589</ele><time>2026-07-02T04:35:20.000Z</time></trkpt>
        <trkpt lat="29.559541" lon="103.350689"><ele>1584.6129</ele><time>2026-07-02T04:35:26.000Z</time></trkpt>
        <trkpt lat="29.559569" lon="103.350646"><ele>1585.3087</ele><time>2026-07-02T04:35:30.000Z</time></trkpt>
        <trkpt lat="29.559596" lon="103.350596"><ele>1587.5005</ele><time>2026-07-02T04:35:37.000Z</time></trkpt>
        <trkpt lat="29.559639" lon="103.350579"><ele>1589.1965</ele><time>2026-07-02T04:35:47.000Z</time></trkpt>
        <trkpt lat="29.559686" lon="103.35055"><ele>1594.8336</ele><time>2026-07-02T04:36:06.000Z</time></trkpt>
        <trkpt lat="29.559724" lon="103.350517"><ele>1597.4069</ele><time>2026-07-02T04:36:22.000Z</time></trkpt>
        <trkpt lat="29.559747" lon="103.350469"><ele>1595.4073</ele><time>2026-07-02T04:36:32.000Z</time></trkpt>
        <trkpt lat="29.559784" lon="103.350438"><ele>1596.4204</ele><time>2026-07-02T04:36:45.000Z</time></trkpt>
        <trkpt lat="29.55982" lon="103.350402"><ele>1598.5076</ele><time>2026-07-02T04:37:01.000Z</time></trkpt>
        <trkpt lat="29.559872" lon="103.350402"><ele>1598.1772</ele><time>2026-07-02T04:37:17.000Z</time></trkpt>
        <trkpt lat="29.559921" lon="103.350399"><ele>1602.5227</ele><time>2026-07-02T04:37:36.000Z</time></trkpt>
        <trkpt lat="29.559965" lon="103.350409"><ele>1603.408</ele><time>2026-07-02T04:37:51.000Z</time></trkpt>
        <trkpt lat="29.560007" lon="103.350433"><ele>1604.5907</ele><time>2026-07-02T04:38:11.000Z</time></trkpt>
        <trkpt lat="29.560046" lon="103.350459"><ele>1608.1333</ele><time>2026-07-02T04:38:29.000Z</time></trkpt>
        <trkpt lat="29.560085" lon="103.350492"><ele>1608.531</ele><time>2026-07-02T04:38:53.000Z</time></trkpt>
        <trkpt lat="29.56012" lon="103.350528"><ele>1612.9795</ele><time>2026-07-02T04:39:16.000Z</time></trkpt>
        <trkpt lat="29.560161" lon="103.350551"><ele>1615.754</ele><time>2026-07-02T04:39:32.000Z</time></trkpt>
        <trkpt lat="29.560166" lon="103.350604"><ele>1621.8292</ele><time>2026-07-02T04:40:04.000Z</time></trkpt>
        <trkpt lat="29.560207" lon="103.350635"><ele>1620.2964</ele><time>2026-07-02T04:40:40.000Z</time></trkpt>
        <trkpt lat="29.560218" lon="103.350686"><ele>1631.2594</ele><time>2026-07-02T04:43:14.000Z</time></trkpt>
        <trkpt lat="29.560193" lon="103.350733"><ele>1627.8118</ele><time>2026-07-02T04:43:23.000Z</time></trkpt>
        <trkpt lat="29.560187" lon="103.350789"><ele>1630.7479</ele><time>2026-07-02T04:43:34.000Z</time></trkpt>
        <trkpt lat="29.560198" lon="103.350842"><ele>1633.9686</ele><time>2026-07-02T04:43:45.000Z</time></trkpt>
        <trkpt lat="29.560204" lon="103.350896"><ele>1634.567</ele><time>2026-07-02T04:43:56.000Z</time></trkpt>
        <trkpt lat="29.560211" lon="103.350948"><ele>1636.163</ele><time>2026-07-02T04:44:13.000Z</time></trkpt>
        <trkpt lat="29.56022" lon="103.351006"><ele>1634.6156</ele><time>2026-07-02T04:44:25.000Z</time></trkpt>
        <trkpt lat="29.560212" lon="103.351058"><ele>1644.1202</ele><time>2026-07-02T04:44:40.000Z</time></trkpt>
        <trkpt lat="29.560247" lon="103.351091"><ele>1653.8771</ele><time>2026-07-02T04:45:12.000Z</time></trkpt>
        <trkpt lat="29.560291" lon="103.351075"><ele>1651.6638</ele><time>2026-07-02T04:45:21.000Z</time></trkpt>
        <trkpt lat="29.560337" lon="103.351071"><ele>1651.6031</ele><time>2026-07-02T04:45:31.000Z</time></trkpt>
        <trkpt lat="29.560375" lon="103.351042"><ele>1655.2565</ele><time>2026-07-02T04:45:48.000Z</time></trkpt>
        <trkpt lat="29.560423" lon="103.351041"><ele>1657.2778</ele><time>2026-07-02T04:46:04.000Z</time></trkpt>
        <trkpt lat="29.560471" lon="103.351034"><ele>1661.0358</ele><time>2026-07-02T04:46:23.000Z</time></trkpt>
        <trkpt lat="29.560513" lon="103.351053"><ele>1653.4126</ele><time>2026-07-02T04:48:54.000Z</time></trkpt>
        <trkpt lat="29.560552" lon="103.351087"><ele>1663.939</ele><time>2026-07-02T04:50:36.000Z</time></trkpt>
        <trkpt lat="29.560569" lon="103.351134"><ele>1676.6051</ele><time>2026-07-02T04:51:14.000Z</time></trkpt>
        <trkpt lat="29.560531" lon="103.351163"><ele>1677.6229</ele><time>2026-07-02T04:51:33.000Z</time></trkpt>
        <trkpt lat="29.560568" lon="103.351196"><ele>1690.2787</ele><time>2026-07-02T04:52:19.000Z</time></trkpt>
        <trkpt lat="29.560616" lon="103.351205"><ele>1691.2859</ele><time>2026-07-02T04:52:32.000Z</time></trkpt>
        <trkpt lat="29.560657" lon="103.351238"><ele>1689.07</ele><time>2026-07-02T04:52:47.000Z</time></trkpt>
        <trkpt lat="29.560633" lon="103.351282"><ele>1689.8481</ele><time>2026-07-02T04:53:21.000Z</time></trkpt>
        <trkpt lat="29.560597" lon="103.351317"><ele>1689.0126</ele><time>2026-07-02T04:53:34.000Z</time></trkpt>
        <trkpt lat="29.560566" lon="103.351361"><ele>1688.2819</ele><time>2026-07-02T04:53:45.000Z</time></trkpt>
        <trkpt lat="29.560529" lon="103.351401"><ele>1690.569</ele><time>2026-07-02T04:53:54.000Z</time></trkpt>
        <trkpt lat="29.560504" lon="103.35145"><ele>1689.511</ele><time>2026-07-02T04:54:00.000Z</time></trkpt>
        <trkpt lat="29.560489" lon="103.351499"><ele>1688.3478</ele><time>2026-07-02T04:54:12.000Z</time></trkpt>
        <trkpt lat="29.560514" lon="103.351546"><ele>1692.1959</ele><time>2026-07-02T04:54:34.000Z</time></trkpt>
        <trkpt lat="29.560529" lon="103.351596"><ele>1695.328</ele><time>2026-07-02T04:54:56.000Z</time></trkpt>
        <trkpt lat="29.560574" lon="103.351593"><ele>1697.5463</ele><time>2026-07-02T04:55:13.000Z</time></trkpt>
        <trkpt lat="29.560612" lon="103.351564"><ele>1698.5183</ele><time>2026-07-02T04:55:27.000Z</time></trkpt>
        <trkpt lat="29.560632" lon="103.351517"><ele>1701.7162</ele><time>2026-07-02T04:55:46.000Z</time></trkpt>
        <trkpt lat="29.560684" lon="103.351511"><ele>1701.026</ele><time>2026-07-02T04:55:53.000Z</time></trkpt>
        <trkpt lat="29.56073" lon="103.351523"><ele>1705.5735</ele><time>2026-07-02T04:56:05.000Z</time></trkpt>
        <trkpt lat="29.560766" lon="103.351487"><ele>1709.6458</ele><time>2026-07-02T04:56:22.000Z</time></trkpt>
        <trkpt lat="29.560809" lon="103.351464"><ele>1710.218</ele><time>2026-07-02T04:56:31.000Z</time></trkpt>
        <trkpt lat="29.560844" lon="103.351418"><ele>1708.158</ele><time>2026-07-02T04:56:43.000Z</time></trkpt>
        <trkpt lat="29.560883" lon="103.351378"><ele>1708.2606</ele><time>2026-07-02T04:58:18.000Z</time></trkpt>
        <trkpt lat="29.560887" lon="103.351432"><ele>1706.3959</ele><time>2026-07-02T05:01:31.000Z</time></trkpt>
        <trkpt lat="29.560861" lon="103.351479"><ele>1702.5924</ele><time>2026-07-02T05:02:36.000Z</time></trkpt>
        <trkpt lat="29.560904" lon="103.351496"><ele>1705.7627</ele><time>2026-07-02T05:02:53.000Z</time></trkpt>
        <trkpt lat="29.560944" lon="103.351526"><ele>1707.9047</ele><time>2026-07-02T05:03:07.000Z</time></trkpt>
        <trkpt lat="29.560994" lon="103.351537"><ele>1707.6576</ele><time>2026-07-02T05:03:15.000Z</time></trkpt>
        <trkpt lat="29.561044" lon="103.351534"><ele>1709.8824</ele><time>2026-07-02T05:03:21.000Z</time></trkpt>
        <trkpt lat="29.56109" lon="103.351574"><ele>1704.6399</ele><time>2026-07-02T05:03:28.000Z</time></trkpt>
        <trkpt lat="29.56114" lon="103.351597"><ele>1703.5907</ele><time>2026-07-02T05:03:32.000Z</time></trkpt>
        <trkpt lat="29.561187" lon="103.351632"><ele>1704.1898</ele><time>2026-07-02T05:03:38.000Z</time></trkpt>
        <trkpt lat="29.561234" lon="103.351638"><ele>1708.027</ele><time>2026-07-02T05:03:45.000Z</time></trkpt>
        <trkpt lat="29.561279" lon="103.35164"><ele>1712.2881</ele><time>2026-07-02T05:03:53.000Z</time></trkpt>
        <trkpt lat="29.561325" lon="103.351642"><ele>1717.3132</ele><time>2026-07-02T05:04:11.000Z</time></trkpt>
        <trkpt lat="29.561375" lon="103.351653"><ele>1723.6578</ele><time>2026-07-02T05:04:30.000Z</time></trkpt>
        <trkpt lat="29.561417" lon="103.351686"><ele>1725.0902</ele><time>2026-07-02T05:04:46.000Z</time></trkpt>
        <trkpt lat="29.561433" lon="103.351741"><ele>1720.6458</ele><time>2026-07-02T05:04:52.000Z</time></trkpt>
        <trkpt lat="29.561394" lon="103.351715"><ele>1726.2356</ele><time>2026-07-02T05:05:08.000Z</time></trkpt>
        <trkpt lat="29.561417" lon="103.351761"><ele>1727.3672</ele><time>2026-07-02T05:05:31.000Z</time></trkpt>
        <trkpt lat="29.561396" lon="103.351808"><ele>1732.282</ele><time>2026-07-02T05:05:56.000Z</time></trkpt>
        <trkpt lat="29.561436" lon="103.351836"><ele>1737.0848</ele><time>2026-07-02T05:06:26.000Z</time></trkpt>
        <trkpt lat="29.561469" lon="103.351872"><ele>1737.7673</ele><time>2026-07-02T05:06:42.000Z</time></trkpt>
        <trkpt lat="29.561517" lon="103.351872"><ele>1745.4</ele><time>2026-07-02T05:07:21.000Z</time></trkpt>
        <trkpt lat="29.561564" lon="103.351871"><ele>1746.0256</ele><time>2026-07-02T05:07:28.000Z</time></trkpt>
        <trkpt lat="29.561606" lon="103.351894"><ele>1745.5175</ele><time>2026-07-02T05:07:38.000Z</time></trkpt>
        <trkpt lat="29.561646" lon="103.351919"><ele>1745.9921</ele><time>2026-07-02T05:07:51.000Z</time></trkpt>
        <trkpt lat="29.561687" lon="103.351944"><ele>1747.7247</ele><time>2026-07-02T05:08:01.000Z</time></trkpt>
        <trkpt lat="29.561727" lon="103.351974"><ele>1752.8895</ele><time>2026-07-02T05:08:16.000Z</time></trkpt>
        <trkpt lat="29.561729" lon="103.352026"><ele>1755.8364</ele><time>2026-07-02T05:08:47.000Z</time></trkpt>
        <trkpt lat="29.561721" lon="103.352079"><ele>1759.8392</ele><time>2026-07-02T05:09:12.000Z</time></trkpt>
        <trkpt lat="29.561766" lon="103.3521"><ele>1763.3983</ele><time>2026-07-02T05:09:32.000Z</time></trkpt>
        <trkpt lat="29.561808" lon="103.352124"><ele>1764.7429</ele><time>2026-07-02T05:09:48.000Z</time></trkpt>
        <trkpt lat="29.561845" lon="103.352155"><ele>1768.098</ele><time>2026-07-02T05:10:09.000Z</time></trkpt>
        <trkpt lat="29.561887" lon="103.352186"><ele>1769.0557</ele><time>2026-07-02T05:10:21.000Z</time></trkpt>
        <trkpt lat="29.561933" lon="103.352201"><ele>1772.0338</ele><time>2026-07-02T05:12:00.000Z</time></trkpt>
        <trkpt lat="29.56195" lon="103.352148"><ele>1773.911</ele><time>2026-07-02T05:12:53.000Z</time></trkpt>
        <trkpt lat="29.561995" lon="103.352128"><ele>1774.4747</ele><time>2026-07-02T05:13:01.000Z</time></trkpt>
        <trkpt lat="29.562042" lon="103.352115"><ele>1777.4849</ele><time>2026-07-02T05:13:14.000Z</time></trkpt>
        <trkpt lat="29.562091" lon="103.352121"><ele>1779.3494</ele><time>2026-07-02T05:13:24.000Z</time></trkpt>
        <trkpt lat="29.562137" lon="103.352109"><ele>1784.0961</ele><time>2026-07-02T05:13:39.000Z</time></trkpt>
        <trkpt lat="29.562185" lon="103.352119"><ele>1782.6074</ele><time>2026-07-02T05:13:47.000Z</time></trkpt>
        <trkpt lat="29.562233" lon="103.352118"><ele>1784.3474</ele><time>2026-07-02T05:14:02.000Z</time></trkpt>
        <trkpt lat="29.562281" lon="103.352094"><ele>1789.4731</ele><time>2026-07-02T05:14:16.000Z</time></trkpt>
        <trkpt lat="29.562328" lon="103.352101"><ele>1791.464</ele><time>2026-07-02T05:14:28.000Z</time></trkpt>
        <trkpt lat="29.562375" lon="103.352111"><ele>1793.7335</ele><time>2026-07-02T05:14:44.000Z</time></trkpt>
        <trkpt lat="29.562419" lon="103.352124"><ele>1797.2723</ele><time>2026-07-02T05:14:59.000Z</time></trkpt>
        <trkpt lat="29.562443" lon="103.352172"><ele>1799.9197</ele><time>2026-07-02T05:15:14.000Z</time></trkpt>
        <trkpt lat="29.562489" lon="103.352175"><ele>1800.5123</ele><time>2026-07-02T05:15:26.000Z</time></trkpt>
        <trkpt lat="29.562532" lon="103.352193"><ele>1810.8657</ele><time>2026-07-02T05:16:10.000Z</time></trkpt>
        <trkpt lat="29.562573" lon="103.352163"><ele>1815.867</ele><time>2026-07-02T05:16:23.000Z</time></trkpt>
        <trkpt lat="29.562607" lon="103.352128"><ele>1816.7365</ele><time>2026-07-02T05:17:07.000Z</time></trkpt>
        <trkpt lat="29.562658" lon="103.352116"><ele>1814.3356</ele><time>2026-07-02T05:17:13.000Z</time></trkpt>
        <trkpt lat="29.562627" lon="103.35207"><ele>1816.5125</ele><time>2026-07-02T05:17:21.000Z</time></trkpt>
        <trkpt lat="29.562599" lon="103.352029"><ele>1817.221</ele><time>2026-07-02T05:17:26.000Z</time></trkpt>
        <trkpt lat="29.562562" lon="103.351997"><ele>1815.1802</ele><time>2026-07-02T05:17:32.000Z</time></trkpt>
        <trkpt lat="29.562528" lon="103.35196"><ele>1814.9551</ele><time>2026-07-02T05:17:37.000Z</time></trkpt>
        <trkpt lat="29.562507" lon="103.351913"><ele>1811.6405</ele><time>2026-07-02T05:17:41.000Z</time></trkpt>
        <trkpt lat="29.562473" lon="103.351856"><ele>1810.889</ele><time>2026-07-02T05:17:46.000Z</time></trkpt>
        <trkpt lat="29.562446" lon="103.351802"><ele>1810.2092</ele><time>2026-07-02T05:17:52.000Z</time></trkpt>
        <trkpt lat="29.562474" lon="103.351755"><ele>1809.2036</ele><time>2026-07-02T05:17:58.000Z</time></trkpt>
        <trkpt lat="29.562492" lon="103.351708"><ele>1810.4193</ele><time>2026-07-02T05:18:08.000Z</time></trkpt>
        <trkpt lat="29.562526" lon="103.351665"><ele>1810.9767</ele><time>2026-07-02T05:18:20.000Z</time></trkpt>
        <trkpt lat="29.562561" lon="103.351626"><ele>1815.0051</ele><time>2026-07-02T05:18:42.000Z</time></trkpt>
        <trkpt lat="29.562574" lon="103.351575"><ele>1818.9082</ele><time>2026-07-02T05:18:59.000Z</time></trkpt>
        <trkpt lat="29.562592" lon="103.351526"><ele>1818.256</ele><time>2026-07-02T05:19:07.000Z</time></trkpt>
        <trkpt lat="29.562602" lon="103.351471"><ele>1819.555</ele><time>2026-07-02T05:19:14.000Z</time></trkpt>
        <trkpt lat="29.562623" lon="103.351415"><ele>1820.424</ele><time>2026-07-02T05:19:21.000Z</time></trkpt>
        <trkpt lat="29.562644" lon="103.351365"><ele>1820.3972</ele><time>2026-07-02T05:19:28.000Z</time></trkpt>
        <trkpt lat="29.562669" lon="103.351307"><ele>1820.1124</ele><time>2026-07-02T05:19:35.000Z</time></trkpt>
        <trkpt lat="29.562692" lon="103.351257"><ele>1823.5171</ele><time>2026-07-02T05:19:44.000Z</time></trkpt>
        <trkpt lat="29.56272" lon="103.351212"><ele>1825.1194</ele><time>2026-07-02T05:19:53.000Z</time></trkpt>
        <trkpt lat="29.562747" lon="103.351166"><ele>1826.6797</ele><time>2026-07-02T05:20:04.000Z</time></trkpt>
        <trkpt lat="29.562771" lon="103.351114"><ele>1828.1305</ele><time>2026-07-02T05:20:18.000Z</time></trkpt>
        <trkpt lat="29.562784" lon="103.351062"><ele>1828.9834</ele><time>2026-07-02T05:20:31.000Z</time></trkpt>
        <trkpt lat="29.562786" lon="103.351007"><ele>1830.4067</ele><time>2026-07-02T05:20:44.000Z</time></trkpt>
        <trkpt lat="29.562787" lon="103.350952"><ele>1831.1604</ele><time>2026-07-02T05:20:55.000Z</time></trkpt>
        <trkpt lat="29.562782" lon="103.350897"><ele>1832.7728</ele><time>2026-07-02T05:21:07.000Z</time></trkpt>
        <trkpt lat="29.562784" lon="103.35084"><ele>1832.0493</ele><time>2026-07-02T05:21:15.000Z</time></trkpt>
        <trkpt lat="29.562793" lon="103.350785"><ele>1832.5305</ele><time>2026-07-02T05:21:28.000Z</time></trkpt>
        <trkpt lat="29.562824" lon="103.350745"><ele>1834.3772</ele><time>2026-07-02T05:22:25.000Z</time></trkpt>
        <trkpt lat="29.562808" lon="103.350688"><ele>1834.372</ele><time>2026-07-02T05:31:08.000Z</time></trkpt>
        <trkpt lat="29.562796" lon="103.350634"><ele>1836.9396</ele><time>2026-07-02T05:31:15.000Z</time></trkpt>
        <trkpt lat="29.562802" lon="103.350577"><ele>1835.7552</ele><time>2026-07-02T05:31:23.000Z</time></trkpt>
        <trkpt lat="29.562825" lon="103.350528"><ele>1834.7637</ele><time>2026-07-02T05:31:34.000Z</time></trkpt>
        <trkpt lat="29.562834" lon="103.350472"><ele>1832.1072</ele><time>2026-07-02T05:31:40.000Z</time></trkpt>
        <trkpt lat="29.562838" lon="103.350415"><ele>1830.1787</ele><time>2026-07-02T05:31:44.000Z</time></trkpt>
        <trkpt lat="29.562859" lon="103.350367"><ele>1828.6598</ele><time>2026-07-02T05:31:50.000Z</time></trkpt>
        <trkpt lat="29.562878" lon="103.350313"><ele>1828.501</ele><time>2026-07-02T05:31:55.000Z</time></trkpt>
        <trkpt lat="29.562884" lon="103.350258"><ele>1827.6492</ele><time>2026-07-02T05:32:01.000Z</time></trkpt>
        <trkpt lat="29.5629" lon="103.350205"><ele>1825.8832</ele><time>2026-07-02T05:32:07.000Z</time></trkpt>
        <trkpt lat="29.562909" lon="103.350151"><ele>1825.327</ele><time>2026-07-02T05:32:12.000Z</time></trkpt>
        <trkpt lat="29.562919" lon="103.350092"><ele>1824.7489</ele><time>2026-07-02T05:32:17.000Z</time></trkpt>
        <trkpt lat="29.562918" lon="103.350034"><ele>1823.4916</ele><time>2026-07-02T05:32:22.000Z</time></trkpt>
        <trkpt lat="29.562938" lon="103.349981"><ele>1823.1914</ele><time>2026-07-02T05:32:26.000Z</time></trkpt>
        <trkpt lat="29.562943" lon="103.349924"><ele>1825.5082</ele><time>2026-07-02T05:32:31.000Z</time></trkpt>
        <trkpt lat="29.562956" lon="103.349874"><ele>1826.3751</ele><time>2026-07-02T05:32:35.000Z</time></trkpt>
        <trkpt lat="29.56296" lon="103.349818"><ele>1826.4626</ele><time>2026-07-02T05:32:41.000Z</time></trkpt>
        <trkpt lat="29.562976" lon="103.349766"><ele>1826.8893</ele><time>2026-07-02T05:32:46.000Z</time></trkpt>
        <trkpt lat="29.562993" lon="103.349714"><ele>1826.4689</ele><time>2026-07-02T05:32:51.000Z</time></trkpt>
        <trkpt lat="29.563011" lon="103.349667"><ele>1826.0509</ele><time>2026-07-02T05:32:56.000Z</time></trkpt>
        <trkpt lat="29.563032" lon="103.349621"><ele>1827.7369</ele><time>2026-07-02T05:33:01.000Z</time></trkpt>
        <trkpt lat="29.563053" lon="103.349573"><ele>1826.1836</ele><time>2026-07-02T05:33:05.000Z</time></trkpt>
        <trkpt lat="29.563076" lon="103.349522"><ele>1825.2711</ele><time>2026-07-02T05:33:09.000Z</time></trkpt>
        <trkpt lat="29.56309" lon="103.349473"><ele>1825.1702</ele><time>2026-07-02T05:33:16.000Z</time></trkpt>
        <trkpt lat="29.563111" lon="103.349426"><ele>1825.0889</ele><time>2026-07-02T05:33:21.000Z</time></trkpt>
        <trkpt lat="29.563135" lon="103.349379"><ele>1828.2574</ele><time>2026-07-02T05:33:26.000Z</time></trkpt>
        <trkpt lat="29.563154" lon="103.349331"><ele>1828.609</ele><time>2026-07-02T05:33:30.000Z</time></trkpt>
        <trkpt lat="29.563185" lon="103.349279"><ele>1828.4406</ele><time>2026-07-02T05:33:35.000Z</time></trkpt>
        <trkpt lat="29.563206" lon="103.349229"><ele>1827.7789</ele><time>2026-07-02T05:33:41.000Z</time></trkpt>
        <trkpt lat="29.56322" lon="103.349167"><ele>1827.7268</ele><time>2026-07-02T05:33:46.000Z</time></trkpt>
        <trkpt lat="29.563217" lon="103.349104"><ele>1827.1564</ele><time>2026-07-02T05:33:51.000Z</time></trkpt>
        <trkpt lat="29.563216" lon="103.349051"><ele>1827.5739</ele><time>2026-07-02T05:33:56.000Z</time></trkpt>
        <trkpt lat="29.563227" lon="103.349"><ele>1829.0374</ele><time>2026-07-02T05:34:03.000Z</time></trkpt>
        <trkpt lat="29.563246" lon="103.348952"><ele>1830.984</ele><time>2026-07-02T05:34:10.000Z</time></trkpt>
        <trkpt lat="29.563251" lon="103.348899"><ele>1830.2808</ele><time>2026-07-02T05:34:16.000Z</time></trkpt>
        <trkpt lat="29.563258" lon="103.348847"><ele>1830.12</ele><time>2026-07-02T05:34:21.000Z</time></trkpt>
        <trkpt lat="29.563263" lon="103.348792"><ele>1831.0343</ele><time>2026-07-02T05:34:27.000Z</time></trkpt>
        <trkpt lat="29.563256" lon="103.348741"><ele>1829.6306</ele><time>2026-07-02T05:34:31.000Z</time></trkpt>
        <trkpt lat="29.563256" lon="103.348683"><ele>1829.3732</ele><time>2026-07-02T05:34:36.000Z</time></trkpt>
        <trkpt lat="29.563254" lon="103.348625"><ele>1829.201</ele><time>2026-07-02T05:34:42.000Z</time></trkpt>
        <trkpt lat="29.563267" lon="103.348572"><ele>1831.3594</ele><time>2026-07-02T05:34:48.000Z</time></trkpt>
        <trkpt lat="29.563288" lon="103.348519"><ele>1833.4185</ele><time>2026-07-02T05:34:54.000Z</time></trkpt>
        <trkpt lat="29.563294" lon="103.348459"><ele>1832.9529</ele><time>2026-07-02T05:35:00.000Z</time></trkpt>
        <trkpt lat="29.563307" lon="103.348402"><ele>1832.9518</ele><time>2026-07-02T05:35:06.000Z</time></trkpt>
        <trkpt lat="29.563338" lon="103.348355"><ele>1834.7195</ele><time>2026-07-02T05:35:13.000Z</time></trkpt>
        <trkpt lat="29.563368" lon="103.348306"><ele>1835.8098</ele><time>2026-07-02T05:35:21.000Z</time></trkpt>
        <trkpt lat="29.563402" lon="103.348258"><ele>1836.8375</ele><time>2026-07-02T05:35:29.000Z</time></trkpt>
        <trkpt lat="29.563424" lon="103.348208"><ele>1835.5527</ele><time>2026-07-02T05:35:35.000Z</time></trkpt>
        <trkpt lat="29.563413" lon="103.348149"><ele>1831.9062</ele><time>2026-07-02T05:35:43.000Z</time></trkpt>
        <trkpt lat="29.56343" lon="103.348094"><ele>1828.9451</ele><time>2026-07-02T05:37:07.000Z</time></trkpt>
        <trkpt lat="29.563443" lon="103.348043"><ele>1827.0087</ele><time>2026-07-02T05:37:13.000Z</time></trkpt>
        <trkpt lat="29.563492" lon="103.34802"><ele>1827.4595</ele><time>2026-07-02T05:37:32.000Z</time></trkpt>
        <trkpt lat="29.563523" lon="103.347979"><ele>1827.3715</ele><time>2026-07-02T05:37:36.000Z</time></trkpt>
        <trkpt lat="29.563555" lon="103.347938"><ele>1828.9297</ele><time>2026-07-02T05:37:42.000Z</time></trkpt>
        <trkpt lat="29.563564" lon="103.347882"><ele>1829.0304</ele><time>2026-07-02T05:37:48.000Z</time></trkpt>
        <trkpt lat="29.563565" lon="103.347829"><ele>1827.8881</ele><time>2026-07-02T05:37:54.000Z</time></trkpt>
        <trkpt lat="29.563574" lon="103.347771"><ele>1825.3167</ele><time>2026-07-02T05:38:01.000Z</time></trkpt>
        <trkpt lat="29.563558" lon="103.34772"><ele>1825.6263</ele><time>2026-07-02T05:38:06.000Z</time></trkpt>
        <trkpt lat="29.563559" lon="103.347662"><ele>1823.3575</ele><time>2026-07-02T05:38:12.000Z</time></trkpt>
        <trkpt lat="29.563572" lon="103.347612"><ele>1821.3662</ele><time>2026-07-02T05:38:17.000Z</time></trkpt>
        <trkpt lat="29.563575" lon="103.347559"><ele>1820.6714</ele><time>2026-07-02T05:38:25.000Z</time></trkpt>
        <trkpt lat="29.563562" lon="103.347496"><ele>1820.6707</ele><time>2026-07-02T05:38:30.000Z</time></trkpt>
        <trkpt lat="29.563535" lon="103.347444"><ele>1821.2417</ele><time>2026-07-02T05:38:34.000Z</time></trkpt>
        <trkpt lat="29.563529" lon="103.347389"><ele>1822.1609</ele><time>2026-07-02T05:38:39.000Z</time></trkpt>
        <trkpt lat="29.563492" lon="103.347346"><ele>1822.7432</ele><time>2026-07-02T05:38:44.000Z</time></trkpt>
        <trkpt lat="29.563466" lon="103.347288"><ele>1821.3511</ele><time>2026-07-02T05:38:50.000Z</time></trkpt>
        <trkpt lat="29.563427" lon="103.347253"><ele>1820.4675</ele><time>2026-07-02T05:38:54.000Z</time></trkpt>
        <trkpt lat="29.563388" lon="103.347219"><ele>1819.7324</ele><time>2026-07-02T05:38:58.000Z</time></trkpt>
        <trkpt lat="29.563347" lon="103.347192"><ele>1819.5261</ele><time>2026-07-02T05:39:02.000Z</time></trkpt>
        <trkpt lat="29.563302" lon="103.347157"><ele>1820.9341</ele><time>2026-07-02T05:39:07.000Z</time></trkpt>
        <trkpt lat="29.563262" lon="103.347118"><ele>1819.2758</ele><time>2026-07-02T05:39:12.000Z</time></trkpt>
        <trkpt lat="29.563223" lon="103.347073"><ele>1819.2626</ele><time>2026-07-02T05:39:17.000Z</time></trkpt>
        <trkpt lat="29.563194" lon="103.347033"><ele>1819.0646</ele><time>2026-07-02T05:39:21.000Z</time></trkpt>
        <trkpt lat="29.563163" lon="103.346993"><ele>1818.7415</ele><time>2026-07-02T05:39:25.000Z</time></trkpt>
        <trkpt lat="29.563126" lon="103.346952"><ele>1817.7788</ele><time>2026-07-02T05:39:30.000Z</time></trkpt>
        <trkpt lat="29.563099" lon="103.346911"><ele>1817.903</ele><time>2026-07-02T05:39:33.000Z</time></trkpt>
        <trkpt lat="29.563063" lon="103.346872"><ele>1818.9545</ele><time>2026-07-02T05:39:42.000Z</time></trkpt>
        <trkpt lat="29.563041" lon="103.34682"><ele>1816.4323</ele><time>2026-07-02T05:39:49.000Z</time></trkpt>
        <trkpt lat="29.563008" lon="103.34677"><ele>1816.5039</ele><time>2026-07-02T05:39:55.000Z</time></trkpt>
        <trkpt lat="29.562971" lon="103.34674"><ele>1816.1971</ele><time>2026-07-02T05:40:00.000Z</time></trkpt>
        <trkpt lat="29.56294" lon="103.346688"><ele>1814.3147</ele><time>2026-07-02T05:40:06.000Z</time></trkpt>
        <trkpt lat="29.562915" lon="103.346633"><ele>1814.0968</ele><time>2026-07-02T05:40:11.000Z</time></trkpt>
        <trkpt lat="29.562886" lon="103.346582"><ele>1813.3759</ele><time>2026-07-02T05:40:16.000Z</time></trkpt>
        <trkpt lat="29.56285" lon="103.346541"><ele>1813.627</ele><time>2026-07-02T05:40:20.000Z</time></trkpt>
        <trkpt lat="29.562808" lon="103.346515"><ele>1813.691</ele><time>2026-07-02T05:40:24.000Z</time></trkpt>
        <trkpt lat="29.562758" lon="103.346503"><ele>1813.203</ele><time>2026-07-02T05:40:30.000Z</time></trkpt>
        <trkpt lat="29.562719" lon="103.346458"><ele>1813.9656</ele><time>2026-07-02T05:40:37.000Z</time></trkpt>
        <trkpt lat="29.562683" lon="103.346425"><ele>1815.699</ele><time>2026-07-02T05:40:41.000Z</time></trkpt>
        <trkpt lat="29.562631" lon="103.346404"><ele>1816.5358</ele><time>2026-07-02T05:40:47.000Z</time></trkpt>
        <trkpt lat="29.562599" lon="103.346362"><ele>1816.156</ele><time>2026-07-02T05:40:53.000Z</time></trkpt>
        <trkpt lat="29.562574" lon="103.346303"><ele>1817.5269</ele><time>2026-07-02T05:41:01.000Z</time></trkpt>
        <trkpt lat="29.562539" lon="103.34626"><ele>1815.8214</ele><time>2026-07-02T05:41:06.000Z</time></trkpt>
        <trkpt lat="29.562504" lon="103.346216"><ele>1816.0154</ele><time>2026-07-02T05:41:12.000Z</time></trkpt>
        <trkpt lat="29.562469" lon="103.346179"><ele>1817.0659</ele><time>2026-07-02T05:41:16.000Z</time></trkpt>
        <trkpt lat="29.562418" lon="103.34615"><ele>1815.2228</ele><time>2026-07-02T05:41:21.000Z</time></trkpt>
        <trkpt lat="29.562369" lon="103.346126"><ele>1810.7396</ele><time>2026-07-02T05:41:26.000Z</time></trkpt>
        <trkpt lat="29.562337" lon="103.346081"><ele>1810.4236</ele><time>2026-07-02T05:41:31.000Z</time></trkpt>
        <trkpt lat="29.562314" lon="103.346033"><ele>1810.0865</ele><time>2026-07-02T05:41:36.000Z</time></trkpt>
        <trkpt lat="29.562282" lon="103.345986"><ele>1809.1619</ele><time>2026-07-02T05:41:41.000Z</time></trkpt>
        <trkpt lat="29.562248" lon="103.345933"><ele>1807.894</ele><time>2026-07-02T05:41:46.000Z</time></trkpt>
        <trkpt lat="29.562252" lon="103.345881"><ele>1808.9873</ele><time>2026-07-02T05:41:51.000Z</time></trkpt>
        <trkpt lat="29.562237" lon="103.345832"><ele>1808.9221</ele><time>2026-07-02T05:41:57.000Z</time></trkpt>
        <trkpt lat="29.562206" lon="103.345779"><ele>1810.0775</ele><time>2026-07-02T05:42:00.000Z</time></trkpt>
        <trkpt lat="29.562185" lon="103.345731"><ele>1811.3777</ele><time>2026-07-02T05:42:07.000Z</time></trkpt>
        <trkpt lat="29.56214" lon="103.345699"><ele>1810.8711</ele><time>2026-07-02T05:42:15.000Z</time></trkpt>
        <trkpt lat="29.562108" lon="103.345647"><ele>1810.4753</ele><time>2026-07-02T05:42:20.000Z</time></trkpt>
        <trkpt lat="29.562063" lon="103.345618"><ele>1810.2444</ele><time>2026-07-02T05:42:26.000Z</time></trkpt>
        <trkpt lat="29.562021" lon="103.3456"><ele>1811.0736</ele><time>2026-07-02T05:42:30.000Z</time></trkpt>
        <trkpt lat="29.561979" lon="103.345571"><ele>1812.7858</ele><time>2026-07-02T05:42:36.000Z</time></trkpt>
        <trkpt lat="29.561932" lon="103.345564"><ele>1811.9927</ele><time>2026-07-02T05:42:40.000Z</time></trkpt>
        <trkpt lat="29.561874" lon="103.345562"><ele>1811.9092</ele><time>2026-07-02T05:42:45.000Z</time></trkpt>
        <trkpt lat="29.561826" lon="103.345568"><ele>1813.4255</ele><time>2026-07-02T05:42:51.000Z</time></trkpt>
        <trkpt lat="29.561776" lon="103.345562"><ele>1814.0621</ele><time>2026-07-02T05:42:56.000Z</time></trkpt>
        <trkpt lat="29.561723" lon="103.345561"><ele>1817.2211</ele><time>2026-07-02T05:43:03.000Z</time></trkpt>
        <trkpt lat="29.561676" lon="103.345569"><ele>1815.1049</ele><time>2026-07-02T05:43:09.000Z</time></trkpt>
        <trkpt lat="29.56163" lon="103.34555"><ele>1813.2833</ele><time>2026-07-02T05:43:17.000Z</time></trkpt>
        <trkpt lat="29.56158" lon="103.345528"><ele>1812.0299</ele><time>2026-07-02T05:43:22.000Z</time></trkpt>
        <trkpt lat="29.561533" lon="103.345489"><ele>1811.596</ele><time>2026-07-02T05:43:27.000Z</time></trkpt>
        <trkpt lat="29.561496" lon="103.345451"><ele>1811.7603</ele><time>2026-07-02T05:43:31.000Z</time></trkpt>
        <trkpt lat="29.561464" lon="103.345402"><ele>1811.8699</ele><time>2026-07-02T05:43:36.000Z</time></trkpt>
        <trkpt lat="29.56143" lon="103.34536"><ele>1812.0161</ele><time>2026-07-02T05:43:42.000Z</time></trkpt>
        <trkpt lat="29.5614" lon="103.345321"><ele>1812.7289</ele><time>2026-07-02T05:43:53.000Z</time></trkpt>
        <trkpt lat="29.561371" lon="103.345281"><ele>1814.9225</ele><time>2026-07-02T05:44:02.000Z</time></trkpt>
        <trkpt lat="29.561347" lon="103.345237"><ele>1816.7103</ele><time>2026-07-02T05:44:13.000Z</time></trkpt>
        <trkpt lat="29.561312" lon="103.345201"><ele>1817.2358</ele><time>2026-07-02T05:44:25.000Z</time></trkpt>
        <trkpt lat="29.561269" lon="103.345178"><ele>1820.4154</ele><time>2026-07-02T05:44:41.000Z</time></trkpt>
        <trkpt lat="29.561235" lon="103.345136"><ele>1824.1112</ele><time>2026-07-02T05:45:01.000Z</time></trkpt>
        <trkpt lat="29.561222" lon="103.345083"><ele>1828.5814</ele><time>2026-07-02T05:45:30.000Z</time></trkpt>
        <trkpt lat="29.561178" lon="103.345063"><ele>1829.0045</ele><time>2026-07-02T05:45:45.000Z</time></trkpt>
        <trkpt lat="29.56114" lon="103.345031"><ele>1830.2325</ele><time>2026-07-02T05:46:03.000Z</time></trkpt>
        <trkpt lat="29.561093" lon="103.345052"><ele>1833.6277</ele><time>2026-07-02T05:46:23.000Z</time></trkpt>
        <trkpt lat="29.56106" lon="103.345017"><ele>1836.243</ele><time>2026-07-02T05:47:02.000Z</time></trkpt>
        <trkpt lat="29.561016" lon="103.344992"><ele>1840.1396</ele><time>2026-07-02T05:47:24.000Z</time></trkpt>
        <trkpt lat="29.560977" lon="103.345025"><ele>1843.6987</ele><time>2026-07-02T05:47:44.000Z</time></trkpt>
        <trkpt lat="29.560933" lon="103.345053"><ele>1846.5541</ele><time>2026-07-02T05:48:02.000Z</time></trkpt>
        <trkpt lat="29.560884" lon="103.345063"><ele>1847.9813</ele><time>2026-07-02T05:48:52.000Z</time></trkpt>
        <trkpt lat="29.560838" lon="103.345052"><ele>1849.6736</ele><time>2026-07-02T05:52:06.000Z</time></trkpt>
        <trkpt lat="29.560813" lon="103.344992"><ele>1850.6652</ele><time>2026-07-02T05:52:25.000Z</time></trkpt>
        <trkpt lat="29.560806" lon="103.344941"><ele>1855.027</ele><time>2026-07-02T05:52:41.000Z</time></trkpt>
        <trkpt lat="29.560803" lon="103.344889"><ele>1857.6195</ele><time>2026-07-02T05:52:54.000Z</time></trkpt>
        <trkpt lat="29.560787" lon="103.344938"><ele>1860.0033</ele><time>2026-07-02T05:53:04.000Z</time></trkpt>
        <trkpt lat="29.560739" lon="103.34493"><ele>1863.1067</ele><time>2026-07-02T05:53:20.000Z</time></trkpt>
        <trkpt lat="29.560696" lon="103.344911"><ele>1867.3666</ele><time>2026-07-02T05:53:36.000Z</time></trkpt>
        <trkpt lat="29.560693" lon="103.344855"><ele>1869.4462</ele><time>2026-07-02T05:53:53.000Z</time></trkpt>
        <trkpt lat="29.5607" lon="103.344793"><ele>1870.0115</ele><time>2026-07-02T05:54:02.000Z</time></trkpt>
        <trkpt lat="29.560681" lon="103.344746"><ele>1872.5171</ele><time>2026-07-02T05:54:16.000Z</time></trkpt>
        <trkpt lat="29.560649" lon="103.344704"><ele>1876.9518</ele><time>2026-07-02T05:54:36.000Z</time></trkpt>
      </trkseg>
      <trkseg>
        <trkpt lat="29.560582" lon="103.344679"><ele>1882.69</ele><time>2026-07-02T05:58:11.000Z</time></trkpt>
        <trkpt lat="29.560535" lon="103.344667"><ele>1886.9347</ele><time>2026-07-02T05:58:30.000Z</time></trkpt>
        <trkpt lat="29.560487" lon="103.344658"><ele>1890.6527</ele><time>2026-07-02T05:58:46.000Z</time></trkpt>
        <trkpt lat="29.560443" lon="103.34464"><ele>1895.6266</ele><time>2026-07-02T05:59:03.000Z</time></trkpt>
        <trkpt lat="29.560406" lon="103.344609"><ele>1896.9269</ele><time>2026-07-02T05:59:15.000Z</time></trkpt>
        <trkpt lat="29.560361" lon="103.344591"><ele>1899.6627</ele><time>2026-07-02T05:59:29.000Z</time></trkpt>
        <trkpt lat="29.560328" lon="103.344556"><ele>1901.0609</ele><time>2026-07-02T05:59:41.000Z</time></trkpt>
        <trkpt lat="29.560292" lon="103.344521"><ele>1902.4307</ele><time>2026-07-02T05:59:57.000Z</time></trkpt>
        <trkpt lat="29.560249" lon="103.344488"><ele>1906.6069</ele><time>2026-07-02T06:00:15.000Z</time></trkpt>
        <trkpt lat="29.560207" lon="103.344463"><ele>1912.3535</ele><time>2026-07-02T06:00:37.000Z</time></trkpt>
        <trkpt lat="29.560172" lon="103.344427"><ele>1914.3823</ele><time>2026-07-02T06:00:52.000Z</time></trkpt>
        <trkpt lat="29.560144" lon="103.344385"><ele>1916.2219</ele><time>2026-07-02T06:01:08.000Z</time></trkpt>
        <trkpt lat="29.560164" lon="103.344338"><ele>1921.9237</ele><time>2026-07-02T06:01:43.000Z</time></trkpt>
        <trkpt lat="29.560154" lon="103.344287"><ele>1925.1135</ele><time>2026-07-02T06:02:03.000Z</time></trkpt>
        <trkpt lat="29.560108" lon="103.344278"><ele>1927.4603</ele><time>2026-07-02T06:02:20.000Z</time></trkpt>
        <trkpt lat="29.560066" lon="103.344255"><ele>1929.2379</ele><time>2026-07-02T06:02:35.000Z</time></trkpt>
        <trkpt lat="29.560045" lon="103.344208"><ele>1932.5042</ele><time>2026-07-02T06:02:59.000Z</time></trkpt>
        <trkpt lat="29.560071" lon="103.344164"><ele>1937.2172</ele><time>2026-07-02T06:03:22.000Z</time></trkpt>
        <trkpt lat="29.560075" lon="103.344109"><ele>1937.6012</ele><time>2026-07-02T06:03:38.000Z</time></trkpt>
        <trkpt lat="29.560061" lon="103.344058"><ele>1937.4357</ele><time>2026-07-02T06:04:26.000Z</time></trkpt>
        <trkpt lat="29.560083" lon="103.34401"><ele>1947.4683</ele><time>2026-07-02T06:05:15.000Z</time></trkpt>
        <trkpt lat="29.560078" lon="103.343955"><ele>1947.526</ele><time>2026-07-02T06:05:31.000Z</time></trkpt>
        <trkpt lat="29.56005" lon="103.343915"><ele>1948.9812</ele><time>2026-07-02T06:06:10.000Z</time></trkpt>
        <trkpt lat="29.560009" lon="103.343885"><ele>1950.5175</ele><time>2026-07-02T06:06:26.000Z</time></trkpt>
        <trkpt lat="29.559969" lon="103.343859"><ele>1953.9928</ele><time>2026-07-02T06:06:41.000Z</time></trkpt>
        <trkpt lat="29.559937" lon="103.343822"><ele>1958.055</ele><time>2026-07-02T06:07:06.000Z</time></trkpt>
        <trkpt lat="29.559908" lon="103.343781"><ele>1960.5764</ele><time>2026-07-02T06:07:26.000Z</time></trkpt>
        <trkpt lat="29.559867" lon="103.34375"><ele>1963.9075</ele><time>2026-07-02T06:07:42.000Z</time></trkpt>
        <trkpt lat="29.559826" lon="103.343728"><ele>1966.3387</ele><time>2026-07-02T06:08:01.000Z</time></trkpt>
        <trkpt lat="29.559796" lon="103.343686"><ele>1968.4138</ele><time>2026-07-02T06:08:15.000Z</time></trkpt>
        <trkpt lat="29.55977" lon="103.343642"><ele>1968.1544</ele><time>2026-07-02T06:11:30.000Z</time></trkpt>
        <trkpt lat="29.559742" lon="103.343599"><ele>1971.5383</ele><time>2026-07-02T06:11:46.000Z</time></trkpt>
        <trkpt lat="29.559712" lon="103.343555"><ele>1974.0214</ele><time>2026-07-02T06:12:01.000Z</time></trkpt>
        <trkpt lat="29.55968" lon="103.343515"><ele>1976.8889</ele><time>2026-07-02T06:12:16.000Z</time></trkpt>
        <trkpt lat="29.559649" lon="103.343552"><ele>1980.8401</ele><time>2026-07-02T06:12:35.000Z</time></trkpt>
        <trkpt lat="29.559633" lon="103.343602"><ele>1983.5106</ele><time>2026-07-02T06:12:49.000Z</time></trkpt>
        <trkpt lat="29.559585" lon="103.343592"><ele>1983.7732</ele><time>2026-07-02T06:13:05.000Z</time></trkpt>
        <trkpt lat="29.559544" lon="103.343562"><ele>1987.385</ele><time>2026-07-02T06:13:25.000Z</time></trkpt>
        <trkpt lat="29.559505" lon="103.34353"><ele>1993.6958</ele><time>2026-07-02T06:13:46.000Z</time></trkpt>
        <trkpt lat="29.559466" lon="103.343557"><ele>1998.1649</ele><time>2026-07-02T06:14:08.000Z</time></trkpt>
        <trkpt lat="29.559439" lon="103.3436"><ele>2004.0663</ele><time>2026-07-02T06:14:27.000Z</time></trkpt>
        <trkpt lat="29.559391" lon="103.34361"><ele>2003.442</ele><time>2026-07-02T06:14:53.000Z</time></trkpt>
        <trkpt lat="29.559346" lon="103.343605"><ele>2004.0837</ele><time>2026-07-02T06:15:09.000Z</time></trkpt>
        <trkpt lat="29.559302" lon="103.34359"><ele>2007.3508</ele><time>2026-07-02T06:17:44.000Z</time></trkpt>
        <trkpt lat="29.559263" lon="103.343625"><ele>2004.7871</ele><time>2026-07-02T06:24:00.000Z</time></trkpt>
        <trkpt lat="29.559237" lon="103.343672"><ele>2010.5818</ele><time>2026-07-02T06:24:12.000Z</time></trkpt>
        <trkpt lat="29.559224" lon="103.343725"><ele>2011.2504</ele><time>2026-07-02T06:24:25.000Z</time></trkpt>
        <trkpt lat="29.559213" lon="103.343783"><ele>2016.2308</ele><time>2026-07-02T06:24:48.000Z</time></trkpt>
        <trkpt lat="29.559185" lon="103.343828"><ele>2016.1301</ele><time>2026-07-02T06:24:58.000Z</time></trkpt>
        <trkpt lat="29.55914" lon="103.343823"><ele>2018.445</ele><time>2026-07-02T06:25:20.000Z</time></trkpt>
        <trkpt lat="29.559113" lon="103.343779"><ele>2019.6028</ele><time>2026-07-02T06:25:36.000Z</time></trkpt>
        <trkpt lat="29.559089" lon="103.343732"><ele>2022.4828</ele><time>2026-07-02T06:25:57.000Z</time></trkpt>
        <trkpt lat="29.559046" lon="103.343716"><ele>2027.6621</ele><time>2026-07-02T06:26:18.000Z</time></trkpt>
        <trkpt lat="29.559005" lon="103.343691"><ele>2029.2933</ele><time>2026-07-02T06:26:33.000Z</time></trkpt>
        <trkpt lat="29.558955" lon="103.343694"><ele>2036.6211</ele><time>2026-07-02T06:27:07.000Z</time></trkpt>
        <trkpt lat="29.558976" lon="103.343748"><ele>2038.1215</ele><time>2026-07-02T06:27:22.000Z</time></trkpt>
        <trkpt lat="29.558927" lon="103.343754"><ele>2039.5681</ele><time>2026-07-02T06:27:38.000Z</time></trkpt>
        <trkpt lat="29.558882" lon="103.343768"><ele>2038.8091</ele><time>2026-07-02T06:27:50.000Z</time></trkpt>
        <trkpt lat="29.558868" lon="103.343822"><ele>2042.2504</ele><time>2026-07-02T06:28:07.000Z</time></trkpt>
        <trkpt lat="29.558859" lon="103.343874"><ele>2042.3062</ele><time>2026-07-02T06:28:13.000Z</time></trkpt>
        <trkpt lat="29.558864" lon="103.343933"><ele>2043.2703</ele><time>2026-07-02T06:28:18.000Z</time></trkpt>
        <trkpt lat="29.558881" lon="103.343982"><ele>2043.703</ele><time>2026-07-02T06:28:24.000Z</time></trkpt>
        <trkpt lat="29.558891" lon="103.344035"><ele>2043.0868</ele><time>2026-07-02T06:28:30.000Z</time></trkpt>
        <trkpt lat="29.558919" lon="103.344089"><ele>2043.6403</ele><time>2026-07-02T06:28:36.000Z</time></trkpt>
        <trkpt lat="29.558934" lon="103.344139"><ele>2044.7134</ele><time>2026-07-02T06:28:42.000Z</time></trkpt>
        <trkpt lat="29.558888" lon="103.344145"><ele>2044.1713</ele><time>2026-07-02T06:28:52.000Z</time></trkpt>
        <trkpt lat="29.558874" lon="103.344088"><ele>2044.6622</ele><time>2026-07-02T06:29:01.000Z</time></trkpt>
        <trkpt lat="29.558868" lon="103.344141"><ele>2052.3215</ele><time>2026-07-02T06:29:22.000Z</time></trkpt>
        <trkpt lat="29.558866" lon="103.344194"><ele>2052.5403</ele><time>2026-07-02T06:29:34.000Z</time></trkpt>
        <trkpt lat="29.558862" lon="103.344246"><ele>2051.9473</ele><time>2026-07-02T06:29:46.000Z</time></trkpt>
        <trkpt lat="29.55884" lon="103.344295"><ele>2053.0625</ele><time>2026-07-02T06:30:01.000Z</time></trkpt>
        <trkpt lat="29.55883" lon="103.344348"><ele>2054.1233</ele><time>2026-07-02T06:30:15.000Z</time></trkpt>
        <trkpt lat="29.55879" lon="103.344322"><ele>2056.2576</ele><time>2026-07-02T06:30:30.000Z</time></trkpt>
        <trkpt lat="29.558754" lon="103.344289"><ele>2056.5503</ele><time>2026-07-02T06:30:37.000Z</time></trkpt>
        <trkpt lat="29.558724" lon="103.344238"><ele>2056.1177</ele><time>2026-07-02T06:30:48.000Z</time></trkpt>
        <trkpt lat="29.558675" lon="103.34424"><ele>2060.187</ele><time>2026-07-02T06:32:42.000Z</time></trkpt>
        <trkpt lat="29.558621" lon="103.344229"><ele>2059.6194</ele><time>2026-07-02T06:32:52.000Z</time></trkpt>
        <trkpt lat="29.55857" lon="103.344228"><ele>2058.1526</ele><time>2026-07-02T06:32:56.000Z</time></trkpt>
        <trkpt lat="29.558529" lon="103.3442"><ele>2063.1035</ele><time>2026-07-02T06:33:11.000Z</time></trkpt>
        <trkpt lat="29.558484" lon="103.344187"><ele>2063.9832</ele><time>2026-07-02T06:33:24.000Z</time></trkpt>
        <trkpt lat="29.558439" lon="103.344174"><ele>2066.2874</ele><time>2026-07-02T06:33:41.000Z</time></trkpt>
        <trkpt lat="29.558397" lon="103.344151"><ele>2068.6843</ele><time>2026-07-02T06:34:09.000Z</time></trkpt>
        <trkpt lat="29.558354" lon="103.344128"><ele>2070.751</ele><time>2026-07-02T06:34:24.000Z</time></trkpt>
        <trkpt lat="29.558309" lon="103.344116"><ele>2071.5105</ele><time>2026-07-02T06:34:34.000Z</time></trkpt>
        <trkpt lat="29.558284" lon="103.344073"><ele>2071.9934</ele><time>2026-07-02T06:35:03.000Z</time></trkpt>
        <trkpt lat="29.558279" lon="103.344081"><ele>2070.7605</ele><time>2026-07-02T06:35:07.000Z</time></trkpt>
        <trkpt lat="29.558227" lon="103.34406"><ele>2068.5</ele><time>2026-07-02T06:35:24.000Z</time></trkpt>
        <trkpt lat="29.558228" lon="103.344061"><ele>2068.6948</ele><time>2026-07-02T06:35:43.000Z</time></trkpt>
        <trkpt lat="29.558289" lon="103.344074"><ele>2068.6296</ele><time>2026-07-02T06:35:55.000Z</time></trkpt>
        <trkpt lat="29.558291" lon="103.344076"><ele>2068.442</ele><time>2026-07-02T06:36:13.000Z</time></trkpt>
        <trkpt lat="29.558242" lon="103.34406"><ele>2068.4558</ele><time>2026-07-02T06:37:07.000Z</time></trkpt>
        <trkpt lat="29.558193" lon="103.344031"><ele>2068.32</ele><time>2026-07-02T06:37:42.000Z</time></trkpt>
        <trkpt lat="29.558291" lon="103.344057"><ele>2068.2368</ele><time>2026-07-02T06:38:25.000Z</time></trkpt>
        <trkpt lat="29.558224" lon="103.344057"><ele>2068.5103</ele><time>2026-07-02T06:38:49.000Z</time></trkpt>
        <trkpt lat="29.558144" lon="103.344039"><ele>2068.7424</ele><time>2026-07-02T06:39:54.000Z</time></trkpt>
        <trkpt lat="29.558175" lon="103.344044"><ele>2068.7773</ele><time>2026-07-02T06:40:00.000Z</time></trkpt>
        <trkpt lat="29.558223" lon="103.344058"><ele>2068.771</ele><time>2026-07-02T06:40:06.000Z</time></trkpt>
        <trkpt lat="29.558281" lon="103.34407"><ele>2068.6128</ele><time>2026-07-02T06:40:42.000Z</time></trkpt>
        <trkpt lat="29.558227" lon="103.344061"><ele>2068.3696</ele><time>2026-07-02T06:41:30.000Z</time></trkpt>
        <trkpt lat="29.558254" lon="103.344065"><ele>2068.7053</ele><time>2026-07-02T06:41:42.000Z</time></trkpt>
        <trkpt lat="29.558175" lon="103.344032"><ele>2068.831</ele><time>2026-07-02T06:44:08.000Z</time></trkpt>
        <trkpt lat="29.558238" lon="103.344059"><ele>2068.5396</ele><time>2026-07-02T06:44:26.000Z</time></trkpt>
        <trkpt lat="29.558203" lon="103.344051"><ele>2064.5454</ele><time>2026-07-02T06:45:45.000Z</time></trkpt>
        <trkpt lat="29.55817" lon="103.344015"><ele>2065.1892</ele><time>2026-07-02T06:45:55.000Z</time></trkpt>
        <trkpt lat="29.558205" lon="103.344049"><ele>2067.9077</ele><time>2026-07-02T06:46:59.000Z</time></trkpt>
        <trkpt lat="29.55807" lon="103.34403"><ele>2066.2305</ele><time>2026-07-02T06:47:13.000Z</time></trkpt>
        <trkpt lat="29.558065" lon="103.344104"><ele>2065.6165</ele><time>2026-07-02T06:47:18.000Z</time></trkpt>
        <trkpt lat="29.558029" lon="103.344222"><ele>2065.1716</ele><time>2026-07-02T06:47:24.000Z</time></trkpt>
        <trkpt lat="29.55803" lon="103.344008"><ele>2069.1099</ele><time>2026-07-02T06:47:29.000Z</time></trkpt>
        <trkpt lat="29.557693" lon="103.343795"><ele>2065.379</ele><time>2026-07-02T06:48:30.000Z</time></trkpt>
        <trkpt lat="29.557779" lon="103.343921"><ele>2069.5437</ele><time>2026-07-02T06:49:05.000Z</time></trkpt>
        <trkpt lat="29.557737" lon="103.343898"><ele>2072.1936</ele><time>2026-07-02T06:49:20.000Z</time></trkpt>
        <trkpt lat="29.5577" lon="103.343869"><ele>2071.7695</ele><time>2026-07-02T06:50:03.000Z</time></trkpt>
        <trkpt lat="29.557656" lon="103.343836"><ele>2071.7249</ele><time>2026-07-02T06:50:35.000Z</time></trkpt>
        <trkpt lat="29.557715" lon="103.34388"><ele>2071.7588</ele><time>2026-07-02T06:50:43.000Z</time></trkpt>
        <trkpt lat="29.557688" lon="103.343857"><ele>2071.258</ele><time>2026-07-02T06:51:07.000Z</time></trkpt>
        <trkpt lat="29.557606" lon="103.343803"><ele>2071.3042</ele><time>2026-07-02T06:51:45.000Z</time></trkpt>
        <trkpt lat="29.557802" lon="103.343956"><ele>2069.5532</ele><time>2026-07-02T06:52:03.000Z</time></trkpt>
        <trkpt lat="29.557717" lon="103.343888"><ele>2071.868</ele><time>2026-07-02T06:52:17.000Z</time></trkpt>
        <trkpt lat="29.557779" lon="103.343938"><ele>2069.5437</ele><time>2026-07-02T06:52:40.000Z</time></trkpt>
        <trkpt lat="29.55771" lon="103.343876"><ele>2071.7727</ele><time>2026-07-02T06:52:58.000Z</time></trkpt>
        <trkpt lat="29.557802" lon="103.343956"><ele>2069.5532</ele><time>2026-07-02T06:53:15.000Z</time></trkpt>
        <trkpt lat="29.557747" lon="103.343908"><ele>2071.5176</ele><time>2026-07-02T06:53:58.000Z</time></trkpt>
        <trkpt lat="29.557763" lon="103.343921"><ele>2071.4158</ele><time>2026-07-02T06:54:35.000Z</time></trkpt>
        <trkpt lat="29.557802" lon="103.343956"><ele>2069.5437</ele><time>2026-07-02T06:54:47.000Z</time></trkpt>
        <trkpt lat="29.557739" lon="103.343901"><ele>2071.6724</ele><time>2026-07-02T06:55:07.000Z</time></trkpt>
        <trkpt lat="29.557765" lon="103.343924"><ele>2069.553</ele><time>2026-07-02T06:55:24.000Z</time></trkpt>
        <trkpt lat="29.557663" lon="103.343835"><ele>2071.8179</ele><time>2026-07-02T06:55:45.000Z</time></trkpt>
        <trkpt lat="29.5578" lon="103.343952"><ele>2069.5627</ele><time>2026-07-02T06:56:03.000Z</time></trkpt>
        <trkpt lat="29.557747" lon="103.343816"><ele>2066.0725</ele><time>2026-07-02T06:56:11.000Z</time></trkpt>
        <trkpt lat="29.557739" lon="103.34376"><ele>2074.025</ele><time>2026-07-02T06:56:17.000Z</time></trkpt>
        <trkpt lat="29.557715" lon="103.343708"><ele>2077.3584</ele><time>2026-07-02T06:56:23.000Z</time></trkpt>
        <trkpt lat="29.557674" lon="103.343681"><ele>2077.3733</ele><time>2026-07-02T06:56:28.000Z</time></trkpt>
        <trkpt lat="29.557628" lon="103.343693"><ele>2074.7627</ele><time>2026-07-02T06:56:32.000Z</time></trkpt>
        <trkpt lat="29.557577" lon="103.343673"><ele>2074.369</ele><time>2026-07-02T06:56:37.000Z</time></trkpt>
        <trkpt lat="29.557522" lon="103.343677"><ele>2073.7778</ele><time>2026-07-02T06:56:42.000Z</time></trkpt>
        <trkpt lat="29.557474" lon="103.343682"><ele>2072.7788</ele><time>2026-07-02T06:56:49.000Z</time></trkpt>
        <trkpt lat="29.557415" lon="103.343654"><ele>2068.341</ele><time>2026-07-02T06:56:59.000Z</time></trkpt>
        <trkpt lat="29.557365" lon="103.343627"><ele>2069.3447</ele><time>2026-07-02T06:57:03.000Z</time></trkpt>
        <trkpt lat="29.55732" lon="103.343618"><ele>2070.5896</ele><time>2026-07-02T06:57:11.000Z</time></trkpt>
        <trkpt lat="29.557274" lon="103.343605"><ele>2076.482</ele><time>2026-07-02T06:57:29.000Z</time></trkpt>
        <trkpt lat="29.557228" lon="103.343592"><ele>2079.639</ele><time>2026-07-02T06:57:50.000Z</time></trkpt>
        <trkpt lat="29.55718" lon="103.34358"><ele>2083.0647</ele><time>2026-07-02T06:58:11.000Z</time></trkpt>
        <trkpt lat="29.557135" lon="103.343583"><ele>2083.0117</ele><time>2026-07-02T06:58:21.000Z</time></trkpt>
        <trkpt lat="29.557088" lon="103.34359"><ele>2088.3137</ele><time>2026-07-02T06:58:40.000Z</time></trkpt>
        <trkpt lat="29.557044" lon="103.343606"><ele>2091.1555</ele><time>2026-07-02T06:58:53.000Z</time></trkpt>
        <trkpt lat="29.557001" lon="103.343632"><ele>2095.3625</ele><time>2026-07-02T06:59:12.000Z</time></trkpt>
        <trkpt lat="29.556951" lon="103.34366"><ele>2095.4226</ele><time>2026-07-02T06:59:20.000Z</time></trkpt>
        <trkpt lat="29.556896" lon="103.343675"><ele>2096.5686</ele><time>2026-07-02T06:59:26.000Z</time></trkpt>
        <trkpt lat="29.556855" lon="103.343697"><ele>2096.167</ele><time>2026-07-02T06:59:45.000Z</time></trkpt>
        <trkpt lat="29.556805" lon="103.343683"><ele>2098.1833</ele><time>2026-07-02T06:59:56.000Z</time></trkpt>
        <trkpt lat="29.556765" lon="103.343654"><ele>2099.1206</ele><time>2026-07-02T07:00:09.000Z</time></trkpt>
        <trkpt lat="29.55672" lon="103.343663"><ele>2099.8953</ele><time>2026-07-02T07:00:21.000Z</time></trkpt>
        <trkpt lat="29.556676" lon="103.343677"><ele>2101.5547</ele><time>2026-07-02T07:00:34.000Z</time></trkpt>
        <trkpt lat="29.556633" lon="103.343695"><ele>2103.247</ele><time>2026-07-02T07:00:46.000Z</time></trkpt>
        <trkpt lat="29.556595" lon="103.343731"><ele>2108.1924</ele><time>2026-07-02T07:01:05.000Z</time></trkpt>
        <trkpt lat="29.556565" lon="103.343771"><ele>2113.2285</ele><time>2026-07-02T07:01:23.000Z</time></trkpt>
        <trkpt lat="29.556542" lon="103.343816"><ele>2113.9448</ele><time>2026-07-02T07:01:31.000Z</time></trkpt>
        <trkpt lat="29.556554" lon="103.343869"><ele>2115.3347</ele><time>2026-07-02T07:01:43.000Z</time></trkpt>
        <trkpt lat="29.556546" lon="103.343922"><ele>2115.9294</ele><time>2026-07-02T07:02:03.000Z</time></trkpt>
        <trkpt lat="29.556527" lon="103.343971"><ele>2123.0312</ele><time>2026-07-02T07:02:22.000Z</time></trkpt>
        <trkpt lat="29.556515" lon="103.344021"><ele>2124.5332</ele><time>2026-07-02T07:02:41.000Z</time></trkpt>
        <trkpt lat="29.556499" lon="103.344071"><ele>2124.5957</ele><time>2026-07-02T07:02:52.000Z</time></trkpt>
        <trkpt lat="29.556455" lon="103.344094"><ele>2128.4795</ele><time>2026-07-02T07:03:07.000Z</time></trkpt>
        <trkpt lat="29.556426" lon="103.344134"><ele>2131.894</ele><time>2026-07-02T07:03:20.000Z</time></trkpt>
        <trkpt lat="29.556391" lon="103.34417"><ele>2132.49</ele><time>2026-07-02T07:03:35.000Z</time></trkpt>
        <trkpt lat="29.556345" lon="103.344195"><ele>2134.803</ele><time>2026-07-02T07:03:49.000Z</time></trkpt>
        <trkpt lat="29.556295" lon="103.34419"><ele>2136.8848</ele><time>2026-07-02T07:03:59.000Z</time></trkpt>
        <trkpt lat="29.556258" lon="103.34422"><ele>2136.965</ele><time>2026-07-02T07:04:13.000Z</time></trkpt>
        <trkpt lat="29.556237" lon="103.34427"><ele>2136.9417</ele><time>2026-07-02T07:04:27.000Z</time></trkpt>
        <trkpt lat="29.556201" lon="103.344308"><ele>2141.0498</ele><time>2026-07-02T07:04:40.000Z</time></trkpt>
        <trkpt lat="29.556185" lon="103.344356"><ele>2143.3328</ele><time>2026-07-02T07:04:48.000Z</time></trkpt>
        <trkpt lat="29.556168" lon="103.344412"><ele>2146.942</ele><time>2026-07-02T07:04:57.000Z</time></trkpt>
        <trkpt lat="29.556156" lon="103.344464"><ele>2149.9915</ele><time>2026-07-02T07:09:18.000Z</time></trkpt>
        <trkpt lat="29.556109" lon="103.344472"><ele>2151.6042</ele><time>2026-07-02T07:12:38.000Z</time></trkpt>
        <trkpt lat="29.556067" lon="103.344491"><ele>2153.9329</ele><time>2026-07-02T07:12:49.000Z</time></trkpt>
        <trkpt lat="29.556044" lon="103.344538"><ele>2155.3215</ele><time>2026-07-02T07:13:00.000Z</time></trkpt>
        <trkpt lat="29.556013" lon="103.344576"><ele>2155.7842</ele><time>2026-07-02T07:13:13.000Z</time></trkpt>
        <trkpt lat="29.555981" lon="103.34462"><ele>2156.8445</ele><time>2026-07-02T07:13:31.000Z</time></trkpt>
        <trkpt lat="29.555945" lon="103.344663"><ele>2158.4746</ele><time>2026-07-02T07:13:41.000Z</time></trkpt>
        <trkpt lat="29.555935" lon="103.344714"><ele>2158.0698</ele><time>2026-07-02T07:13:55.000Z</time></trkpt>
        <trkpt lat="29.555898" lon="103.344751"><ele>2162.7705</ele><time>2026-07-02T07:14:13.000Z</time></trkpt>
        <trkpt lat="29.555881" lon="103.344801"><ele>2162.5205</ele><time>2026-07-02T07:14:21.000Z</time></trkpt>
        <trkpt lat="29.555886" lon="103.344854"><ele>2163.3933</ele><time>2026-07-02T07:14:30.000Z</time></trkpt>
        <trkpt lat="29.555867" lon="103.344905"><ele>2165.3464</ele><time>2026-07-02T07:14:34.000Z</time></trkpt>
        <trkpt lat="29.555823" lon="103.344927"><ele>2171.2063</ele><time>2026-07-02T07:14:55.000Z</time></trkpt>
        <trkpt lat="29.555774" lon="103.344933"><ele>2169.2737</ele><time>2026-07-02T07:15:08.000Z</time></trkpt>
        <trkpt lat="29.555727" lon="103.344905"><ele>2171.1846</ele><time>2026-07-02T07:15:19.000Z</time></trkpt>
        <trkpt lat="29.555676" lon="103.344895"><ele>2172.4683</ele><time>2026-07-02T07:15:40.000Z</time></trkpt>
        <trkpt lat="29.555631" lon="103.344889"><ele>2173.9521</ele><time>2026-07-02T07:15:54.000Z</time></trkpt>
        <trkpt lat="29.555583" lon="103.344886"><ele>2176.511</ele><time>2026-07-02T07:16:09.000Z</time></trkpt>
        <trkpt lat="29.555545" lon="103.344919"><ele>2179.2861</ele><time>2026-07-02T07:16:28.000Z</time></trkpt>
        <trkpt lat="29.555517" lon="103.344962"><ele>2180.2275</ele><time>2026-07-02T07:16:42.000Z</time></trkpt>
        <trkpt lat="29.555494" lon="103.34501"><ele>2183.341</ele><time>2026-07-02T07:17:04.000Z</time></trkpt>
        <trkpt lat="29.555479" lon="103.345061"><ele>2186.6467</ele><time>2026-07-02T07:17:31.000Z</time></trkpt>
        <trkpt lat="29.555443" lon="103.345094"><ele>2193.4492</ele><time>2026-07-02T07:17:57.000Z</time></trkpt>
        <trkpt lat="29.555398" lon="103.345086"><ele>2193.7207</ele><time>2026-07-02T07:18:08.000Z</time></trkpt>
        <trkpt lat="29.555375" lon="103.345039"><ele>2195.2546</ele><time>2026-07-02T07:18:24.000Z</time></trkpt>
        <trkpt lat="29.555358" lon="103.344991"><ele>2195.3076</ele><time>2026-07-02T07:18:33.000Z</time></trkpt>
        <trkpt lat="29.555318" lon="103.344952"><ele>2195.2004</ele><time>2026-07-02T07:18:41.000Z</time></trkpt>
        <trkpt lat="29.555279" lon="103.344922"><ele>2197.8818</ele><time>2026-07-02T07:18:51.000Z</time></trkpt>
        <trkpt lat="29.555243" lon="103.344955"><ele>2197.7246</ele><time>2026-07-02T07:18:58.000Z</time></trkpt>
        <trkpt lat="29.555226" lon="103.345011"><ele>2198.4539</ele><time>2026-07-02T07:19:09.000Z</time></trkpt>
        <trkpt lat="29.555192" lon="103.345049"><ele>2200.5928</ele><time>2026-07-02T07:19:17.000Z</time></trkpt>
        <trkpt lat="29.555148" lon="103.345075"><ele>2202.147</ele><time>2026-07-02T07:19:24.000Z</time></trkpt>
        <trkpt lat="29.555126" lon="103.345121"><ele>2201.566</ele><time>2026-07-02T07:20:11.000Z</time></trkpt>
        <trkpt lat="29.55508" lon="103.345121"><ele>2204.313</ele><time>2026-07-02T07:24:51.000Z</time></trkpt>
        <trkpt lat="29.555033" lon="103.345123"><ele>2206.5396</ele><time>2026-07-02T07:25:11.000Z</time></trkpt>
        <trkpt lat="29.554988" lon="103.345132"><ele>2205.3826</ele><time>2026-07-02T07:25:21.000Z</time></trkpt>
        <trkpt lat="29.554938" lon="103.345138"><ele>2206.5203</ele><time>2026-07-02T07:25:31.000Z</time></trkpt>
        <trkpt lat="29.554889" lon="103.345145"><ele>2207.1663</ele><time>2026-07-02T07:25:40.000Z</time></trkpt>
        <trkpt lat="29.55485" lon="103.345178"><ele>2208.2676</ele><time>2026-07-02T07:25:50.000Z</time></trkpt>
        <trkpt lat="29.554816" lon="103.345213"><ele>2210.3428</ele><time>2026-07-02T07:26:02.000Z</time></trkpt>
        <trkpt lat="29.554773" lon="103.345237"><ele>2214.5227</ele><time>2026-07-02T07:26:19.000Z</time></trkpt>
        <trkpt lat="29.554731" lon="103.345258"><ele>2218.635</ele><time>2026-07-02T07:26:40.000Z</time></trkpt>
        <trkpt lat="29.554685" lon="103.34526"><ele>2222.8552</ele><time>2026-07-02T07:26:55.000Z</time></trkpt>
        <trkpt lat="29.554635" lon="103.345284"><ele>2224.7544</ele><time>2026-07-02T07:27:08.000Z</time></trkpt>
        <trkpt lat="29.554596" lon="103.345312"><ele>2225.127</ele><time>2026-07-02T07:27:21.000Z</time></trkpt>
        <trkpt lat="29.554549" lon="103.345318"><ele>2227.757</ele><time>2026-07-02T07:27:39.000Z</time></trkpt>
        <trkpt lat="29.554504" lon="103.345318"><ele>2230.851</ele><time>2026-07-02T07:27:56.000Z</time></trkpt>
        <trkpt lat="29.554458" lon="103.345312"><ele>2234.3901</ele><time>2026-07-02T07:28:12.000Z</time></trkpt>
        <trkpt lat="29.554412" lon="103.345334"><ele>2235.0781</ele><time>2026-07-02T07:28:25.000Z</time></trkpt>
        <trkpt lat="29.55437" lon="103.345358"><ele>2237.2175</ele><time>2026-07-02T07:28:39.000Z</time></trkpt>
        <trkpt lat="29.554326" lon="103.345374"><ele>2237.4368</ele><time>2026-07-02T07:28:50.000Z</time></trkpt>
        <trkpt lat="29.554284" lon="103.345393"><ele>2240.2231</ele><time>2026-07-02T07:29:05.000Z</time></trkpt>
        <trkpt lat="29.554239" lon="103.345407"><ele>2243.4146</ele><time>2026-07-02T07:29:22.000Z</time></trkpt>
        <trkpt lat="29.554195" lon="103.345421"><ele>2244.3484</ele><time>2026-07-02T07:29:39.000Z</time></trkpt>
        <trkpt lat="29.554148" lon="103.345423"><ele>2248.6067</ele><time>2026-07-02T07:29:56.000Z</time></trkpt>
        <trkpt lat="29.554098" lon="103.345433"><ele>2251.2146</ele><time>2026-07-02T07:30:12.000Z</time></trkpt>
        <trkpt lat="29.554057" lon="103.345413"><ele>2253.8877</ele><time>2026-07-02T07:30:27.000Z</time></trkpt>
        <trkpt lat="29.554007" lon="103.345401"><ele>2253.4226</ele><time>2026-07-02T07:30:41.000Z</time></trkpt>
        <trkpt lat="29.553968" lon="103.345368"><ele>2256.2014</ele><time>2026-07-02T07:30:56.000Z</time></trkpt>
        <trkpt lat="29.553924" lon="103.345347"><ele>2256.6206</ele><time>2026-07-02T07:31:06.000Z</time></trkpt>
        <trkpt lat="29.553873" lon="103.345346"><ele>2257.2478</ele><time>2026-07-02T07:31:17.000Z</time></trkpt>
        <trkpt lat="29.553832" lon="103.345326"><ele>2259.5032</ele><time>2026-07-02T07:31:26.000Z</time></trkpt>
        <trkpt lat="29.553783" lon="103.345318"><ele>2262.573</ele><time>2026-07-02T07:31:37.000Z</time></trkpt>
        <trkpt lat="29.553742" lon="103.345291"><ele>2263.8323</ele><time>2026-07-02T07:31:46.000Z</time></trkpt>
        <trkpt lat="29.553686" lon="103.345272"><ele>2264.7373</ele><time>2026-07-02T07:31:59.000Z</time></trkpt>
        <trkpt lat="29.553638" lon="103.345289"><ele>2264.2593</ele><time>2026-07-02T07:32:09.000Z</time></trkpt>
        <trkpt lat="29.553586" lon="103.345281"><ele>2263.5876</ele><time>2026-07-02T07:32:16.000Z</time></trkpt>
        <trkpt lat="29.553538" lon="103.345275"><ele>2266.381</ele><time>2026-07-02T07:32:28.000Z</time></trkpt>
        <trkpt lat="29.553489" lon="103.345279"><ele>2268.2307</ele><time>2026-07-02T07:32:35.000Z</time></trkpt>
        <trkpt lat="29.553437" lon="103.345293"><ele>2266.9958</ele><time>2026-07-02T07:32:42.000Z</time></trkpt>
        <trkpt lat="29.55339" lon="103.34531"><ele>2271.098</ele><time>2026-07-02T07:32:51.000Z</time></trkpt>
        <trkpt lat="29.553346" lon="103.345324"><ele>2272.574</ele><time>2026-07-02T07:33:02.000Z</time></trkpt>
        <trkpt lat="29.553294" lon="103.345328"><ele>2271.7612</ele><time>2026-07-02T07:33:09.000Z</time></trkpt>
        <trkpt lat="29.553307" lon="103.345378"><ele>2272.4792</ele><time>2026-07-02T07:33:29.000Z</time></trkpt>
        <trkpt lat="29.553262" lon="103.34537"><ele>2270.4978</ele><time>2026-07-02T07:39:32.000Z</time></trkpt>
        <trkpt lat="29.553211" lon="103.345354"><ele>2271.5112</ele><time>2026-07-02T07:39:40.000Z</time></trkpt>
        <trkpt lat="29.553163" lon="103.345342"><ele>2270.7415</ele><time>2026-07-02T07:39:47.000Z</time></trkpt>
        <trkpt lat="29.553115" lon="103.345336"><ele>2272.492</ele><time>2026-07-02T07:39:52.000Z</time></trkpt>
        <trkpt lat="29.55305" lon="103.345328"><ele>2273.505</ele><time>2026-07-02T07:39:59.000Z</time></trkpt>
        <trkpt lat="29.552999" lon="103.345342"><ele>2272.8296</ele><time>2026-07-02T07:40:06.000Z</time></trkpt>
        <trkpt lat="29.552948" lon="103.345365"><ele>2276.0352</ele><time>2026-07-02T07:40:19.000Z</time></trkpt>
        <trkpt lat="29.552902" lon="103.34537"><ele>2275.901</ele><time>2026-07-02T07:40:26.000Z</time></trkpt>
        <trkpt lat="29.552852" lon="103.345389"><ele>2275.8914</ele><time>2026-07-02T07:40:34.000Z</time></trkpt>
        <trkpt lat="29.552806" lon="103.345382"><ele>2275.2585</ele><time>2026-07-02T07:40:41.000Z</time></trkpt>
        <trkpt lat="29.552759" lon="103.345368"><ele>2275.7537</ele><time>2026-07-02T07:40:46.000Z</time></trkpt>
        <trkpt lat="29.552713" lon="103.34538"><ele>2276.1877</ele><time>2026-07-02T07:40:53.000Z</time></trkpt>
        <trkpt lat="29.552662" lon="103.345377"><ele>2275.2334</ele><time>2026-07-02T07:41:00.000Z</time></trkpt>
        <trkpt lat="29.55261" lon="103.34539"><ele>2275.1392</ele><time>2026-07-02T07:41:06.000Z</time></trkpt>
        <trkpt lat="29.55256" lon="103.345388"><ele>2276.8464</ele><time>2026-07-02T07:41:13.000Z</time></trkpt>
        <trkpt lat="29.552538" lon="103.345438"><ele>2276.3281</ele><time>2026-07-02T07:41:18.000Z</time></trkpt>
        <trkpt lat="29.552485" lon="103.345431"><ele>2278.3247</ele><time>2026-07-02T07:41:24.000Z</time></trkpt>
        <trkpt lat="29.552443" lon="103.345398"><ele>2276.9285</ele><time>2026-07-02T07:41:35.000Z</time></trkpt>
        <trkpt lat="29.552453" lon="103.34534"><ele>2276.9905</ele><time>2026-07-02T07:41:39.000Z</time></trkpt>
        <trkpt lat="29.552479" lon="103.345286"><ele>2277.6697</ele><time>2026-07-02T07:41:49.000Z</time></trkpt>
        <trkpt lat="29.552491" lon="103.345235"><ele>2277.5955</ele><time>2026-07-02T07:41:58.000Z</time></trkpt>
        <trkpt lat="29.55245" lon="103.345214"><ele>2276.675</ele><time>2026-07-02T07:42:04.000Z</time></trkpt>
        <trkpt lat="29.552405" lon="103.34518"><ele>2277.2368</ele><time>2026-07-02T07:42:11.000Z</time></trkpt>
        <trkpt lat="29.552357" lon="103.345153"><ele>2276.64</ele><time>2026-07-02T07:42:15.000Z</time></trkpt>
        <trkpt lat="29.552307" lon="103.345132"><ele>2276.0945</ele><time>2026-07-02T07:42:20.000Z</time></trkpt>
        <trkpt lat="29.552264" lon="103.345111"><ele>2277.5264</ele><time>2026-07-02T07:42:25.000Z</time></trkpt>
        <trkpt lat="29.552214" lon="103.345094"><ele>2277.1167</ele><time>2026-07-02T07:42:30.000Z</time></trkpt>
        <trkpt lat="29.552163" lon="103.345092"><ele>2276.6353</ele><time>2026-07-02T07:42:35.000Z</time></trkpt>
        <trkpt lat="29.552114" lon="103.345062"><ele>2275.3428</ele><time>2026-07-02T07:42:41.000Z</time></trkpt>
        <trkpt lat="29.552068" lon="103.34505"><ele>2278.3147</ele><time>2026-07-02T07:42:45.000Z</time></trkpt>
        <trkpt lat="29.552034" lon="103.345006"><ele>2275.3525</ele><time>2026-07-02T07:42:52.000Z</time></trkpt>
        <trkpt lat="29.55203" lon="103.344952"><ele>2274.989</ele><time>2026-07-02T07:43:01.000Z</time></trkpt>
        <trkpt lat="29.552052" lon="103.344902"><ele>2275.8164</ele><time>2026-07-02T07:43:07.000Z</time></trkpt>
        <trkpt lat="29.55202" lon="103.344854"><ele>2274.753</ele><time>2026-07-02T07:43:13.000Z</time></trkpt>
        <trkpt lat="29.551988" lon="103.344806"><ele>2275.636</ele><time>2026-07-02T07:43:20.000Z</time></trkpt>
        <trkpt lat="29.551958" lon="103.344766"><ele>2273.9006</ele><time>2026-07-02T07:43:26.000Z</time></trkpt>
        <trkpt lat="29.551932" lon="103.34472"><ele>2271.0422</ele><time>2026-07-02T07:43:31.000Z</time></trkpt>
        <trkpt lat="29.5519" lon="103.344675"><ele>2271.2576</ele><time>2026-07-02T07:43:36.000Z</time></trkpt>
        <trkpt lat="29.551871" lon="103.344629"><ele>2271.2651</ele><time>2026-07-02T07:43:42.000Z</time></trkpt>
        <trkpt lat="29.551835" lon="103.344581"><ele>2271.6135</ele><time>2026-07-02T07:43:48.000Z</time></trkpt>
        <trkpt lat="29.551812" lon="103.344536"><ele>2271.9062</ele><time>2026-07-02T07:43:54.000Z</time></trkpt>
        <trkpt lat="29.551784" lon="103.344495"><ele>2272.8271</ele><time>2026-07-02T07:44:01.000Z</time></trkpt>
        <trkpt lat="29.551747" lon="103.344461"><ele>2271.2412</ele><time>2026-07-02T07:44:07.000Z</time></trkpt>
        <trkpt lat="29.551715" lon="103.344421"><ele>2270.8586</ele><time>2026-07-02T07:44:13.000Z</time></trkpt>
        <trkpt lat="29.551672" lon="103.34439"><ele>2269.489</ele><time>2026-07-02T07:44:18.000Z</time></trkpt>
        <trkpt lat="29.551641" lon="103.344339"><ele>2268.518</ele><time>2026-07-02T07:44:23.000Z</time></trkpt>
        <trkpt lat="29.551619" lon="103.344294"><ele>2268.4983</ele><time>2026-07-02T07:44:30.000Z</time></trkpt>
        <trkpt lat="29.551581" lon="103.344251"><ele>2268.2944</ele><time>2026-07-02T07:44:37.000Z</time></trkpt>
        <trkpt lat="29.551529" lon="103.344247"><ele>2268.816</ele><time>2026-07-02T07:44:42.000Z</time></trkpt>
        <trkpt lat="29.551488" lon="103.344211"><ele>2268.666</ele><time>2026-07-02T07:44:48.000Z</time></trkpt>
        <trkpt lat="29.551447" lon="103.344189"><ele>2269.7312</ele><time>2026-07-02T07:44:53.000Z</time></trkpt>
        <trkpt lat="29.551394" lon="103.344169"><ele>2269.322</ele><time>2026-07-02T07:45:01.000Z</time></trkpt>
        <trkpt lat="29.551345" lon="103.344171"><ele>2270.2422</ele><time>2026-07-02T07:45:07.000Z</time></trkpt>
        <trkpt lat="29.551297" lon="103.344157"><ele>2266.027</ele><time>2026-07-02T07:45:15.000Z</time></trkpt>
        <trkpt lat="29.55124" lon="103.344168"><ele>2264.9055</ele><time>2026-07-02T07:45:20.000Z</time></trkpt>
        <trkpt lat="29.551193" lon="103.344167"><ele>2267.0168</ele><time>2026-07-02T07:45:25.000Z</time></trkpt>
        <trkpt lat="29.551136" lon="103.344172"><ele>2266.6218</ele><time>2026-07-02T07:45:31.000Z</time></trkpt>
        <trkpt lat="29.551088" lon="103.344177"><ele>2263.6897</ele><time>2026-07-02T07:45:38.000Z</time></trkpt>
        <trkpt lat="29.551054" lon="103.344138"><ele>2265.2612</ele><time>2026-07-02T07:45:45.000Z</time></trkpt>
        <trkpt lat="29.551013" lon="103.344111"><ele>2265.595</ele><time>2026-07-02T07:45:49.000Z</time></trkpt>
        <trkpt lat="29.550967" lon="103.344108"><ele>2265.2397</ele><time>2026-07-02T07:45:54.000Z</time></trkpt>
        <trkpt lat="29.55092" lon="103.344092"><ele>2267.2485</ele><time>2026-07-02T07:45:58.000Z</time></trkpt>
        <trkpt lat="29.550868" lon="103.344094"><ele>2268.3213</ele><time>2026-07-02T07:46:05.000Z</time></trkpt>
        <trkpt lat="29.550815" lon="103.344086"><ele>2268.161</ele><time>2026-07-02T07:46:11.000Z</time></trkpt>
        <trkpt lat="29.550769" lon="103.344081"><ele>2268.9902</ele><time>2026-07-02T07:46:18.000Z</time></trkpt>
        <trkpt lat="29.550731" lon="103.344046"><ele>2265.767</ele><time>2026-07-02T07:46:25.000Z</time></trkpt>
        <trkpt lat="29.550741" lon="103.343994"><ele>2263.412</ele><time>2026-07-02T07:46:29.000Z</time></trkpt>
        <trkpt lat="29.550728" lon="103.343943"><ele>2263.2712</ele><time>2026-07-02T07:46:42.000Z</time></trkpt>
        <trkpt lat="29.550692" lon="103.343899"><ele>2265.6133</ele><time>2026-07-02T07:46:49.000Z</time></trkpt>
        <trkpt lat="29.550643" lon="103.343893"><ele>2266.8403</ele><time>2026-07-02T07:46:54.000Z</time></trkpt>
        <trkpt lat="29.550595" lon="103.343895"><ele>2270.8564</ele><time>2026-07-02T07:47:00.000Z</time></trkpt>
        <trkpt lat="29.550572" lon="103.34385"><ele>2269.5706</ele><time>2026-07-02T07:47:07.000Z</time></trkpt>
        <trkpt lat="29.55053" lon="103.343802"><ele>2268.8604</ele><time>2026-07-02T07:47:13.000Z</time></trkpt>
        <trkpt lat="29.55051" lon="103.343748"><ele>2269.962</ele><time>2026-07-02T07:47:21.000Z</time></trkpt>
        <trkpt lat="29.550478" lon="103.343706"><ele>2268.6287</ele><time>2026-07-02T07:47:27.000Z</time></trkpt>
        <trkpt lat="29.550435" lon="103.343685"><ele>2268.9995</ele><time>2026-07-02T07:47:32.000Z</time></trkpt>
        <trkpt lat="29.550404" lon="103.343641"><ele>2268.5134</ele><time>2026-07-02T07:47:38.000Z</time></trkpt>
        <trkpt lat="29.550375" lon="103.343595"><ele>2265.5808</ele><time>2026-07-02T07:47:43.000Z</time></trkpt>
        <trkpt lat="29.550349" lon="103.343543"><ele>2268.8884</ele><time>2026-07-02T07:47:50.000Z</time></trkpt>
        <trkpt lat="29.550319" lon="103.343496"><ele>2267.5576</ele><time>2026-07-02T07:47:57.000Z</time></trkpt>
        <trkpt lat="29.550294" lon="103.343451"><ele>2268.3281</ele><time>2026-07-02T07:48:04.000Z</time></trkpt>
        <trkpt lat="29.550278" lon="103.343397"><ele>2270.2278</ele><time>2026-07-02T07:48:09.000Z</time></trkpt>
        <trkpt lat="29.550255" lon="103.34334"><ele>2272.1719</ele><time>2026-07-02T07:48:14.000Z</time></trkpt>
        <trkpt lat="29.550229" lon="103.343293"><ele>2270.9497</ele><time>2026-07-02T07:48:20.000Z</time></trkpt>
        <trkpt lat="29.550182" lon="103.343264"><ele>2268.3894</ele><time>2026-07-02T07:48:25.000Z</time></trkpt>
        <trkpt lat="29.550146" lon="103.343227"><ele>2270.4949</ele><time>2026-07-02T07:48:32.000Z</time></trkpt>
        <trkpt lat="29.550118" lon="103.343187"><ele>2271.6006</ele><time>2026-07-02T07:48:38.000Z</time></trkpt>
        <trkpt lat="29.550075" lon="103.343168"><ele>2271.1187</ele><time>2026-07-02T07:48:43.000Z</time></trkpt>
        <trkpt lat="29.550037" lon="103.343137"><ele>2270.7454</ele><time>2026-07-02T07:48:48.000Z</time></trkpt>
        <trkpt lat="29.550005" lon="103.343098"><ele>2269.8833</ele><time>2026-07-02T07:48:55.000Z</time></trkpt>
        <trkpt lat="29.549986" lon="103.343045"><ele>2270.2441</ele><time>2026-07-02T07:49:02.000Z</time></trkpt>
        <trkpt lat="29.549953" lon="103.343004"><ele>2272.3032</ele><time>2026-07-02T07:49:07.000Z</time></trkpt>
        <trkpt lat="29.549955" lon="103.342942"><ele>2275.1384</ele><time>2026-07-02T07:49:12.000Z</time></trkpt>
        <trkpt lat="29.549922" lon="103.342902"><ele>2274.6323</ele><time>2026-07-02T07:49:19.000Z</time></trkpt>
        <trkpt lat="29.549885" lon="103.342861"><ele>2273.9153</ele><time>2026-07-02T07:49:24.000Z</time></trkpt>
        <trkpt lat="29.549872" lon="103.342811"><ele>2274.0002</ele><time>2026-07-02T07:49:30.000Z</time></trkpt>
        <trkpt lat="29.549847" lon="103.342765"><ele>2274.231</ele><time>2026-07-02T07:49:36.000Z</time></trkpt>
        <trkpt lat="29.54982" lon="103.342718"><ele>2275.0718</ele><time>2026-07-02T07:49:41.000Z</time></trkpt>
        <trkpt lat="29.549795" lon="103.342669"><ele>2274.2786</ele><time>2026-07-02T07:49:47.000Z</time></trkpt>
        <trkpt lat="29.549764" lon="103.342629"><ele>2275.0713</ele><time>2026-07-02T07:49:52.000Z</time></trkpt>
        <trkpt lat="29.549741" lon="103.342577"><ele>2274.313</ele><time>2026-07-02T07:49:57.000Z</time></trkpt>
        <trkpt lat="29.549716" lon="103.342526"><ele>2275.1096</ele><time>2026-07-02T07:50:02.000Z</time></trkpt>
        <trkpt lat="29.549677" lon="103.342488"><ele>2275.2456</ele><time>2026-07-02T07:50:07.000Z</time></trkpt>
        <trkpt lat="29.54964" lon="103.342452"><ele>2273.6995</ele><time>2026-07-02T07:50:12.000Z</time></trkpt>
        <trkpt lat="29.549597" lon="103.342423"><ele>2274.542</ele><time>2026-07-02T07:50:17.000Z</time></trkpt>
        <trkpt lat="29.549563" lon="103.342379"><ele>2275.8691</ele><time>2026-07-02T07:50:22.000Z</time></trkpt>
        <trkpt lat="29.549531" lon="103.342338"><ele>2275.9238</ele><time>2026-07-02T07:50:28.000Z</time></trkpt>
        <trkpt lat="29.549496" lon="103.342296"><ele>2277.0073</ele><time>2026-07-02T07:50:34.000Z</time></trkpt>
        <trkpt lat="29.549464" lon="103.342249"><ele>2277.198</ele><time>2026-07-02T07:50:39.000Z</time></trkpt>
        <trkpt lat="29.549427" lon="103.342215"><ele>2276.6187</ele><time>2026-07-02T07:50:44.000Z</time></trkpt>
        <trkpt lat="29.549408" lon="103.342166"><ele>2277.5066</ele><time>2026-07-02T07:50:50.000Z</time></trkpt>
        <trkpt lat="29.549382" lon="103.342119"><ele>2277.951</ele><time>2026-07-02T07:50:58.000Z</time></trkpt>
        <trkpt lat="29.549369" lon="103.342065"><ele>2278.5447</ele><time>2026-07-02T07:51:08.000Z</time></trkpt>
        <trkpt lat="29.54936" lon="103.342006"><ele>2279.3713</ele><time>2026-07-02T07:51:14.000Z</time></trkpt>
        <trkpt lat="29.549348" lon="103.341955"><ele>2278.98</ele><time>2026-07-02T07:51:19.000Z</time></trkpt>
        <trkpt lat="29.549338" lon="103.341895"><ele>2277.8052</ele><time>2026-07-02T07:51:25.000Z</time></trkpt>
        <trkpt lat="29.549331" lon="103.341837"><ele>2277.016</ele><time>2026-07-02T07:51:31.000Z</time></trkpt>
        <trkpt lat="29.549309" lon="103.341789"><ele>2277.5952</ele><time>2026-07-02T07:51:36.000Z</time></trkpt>
        <trkpt lat="29.549279" lon="103.341733"><ele>2275.1653</ele><time>2026-07-02T07:51:42.000Z</time></trkpt>
        <trkpt lat="29.549268" lon="103.341674"><ele>2276.601</ele><time>2026-07-02T07:51:47.000Z</time></trkpt>
        <trkpt lat="29.549258" lon="103.341618"><ele>2276.188</ele><time>2026-07-02T07:51:54.000Z</time></trkpt>
        <trkpt lat="29.549245" lon="103.341555"><ele>2277.0098</ele><time>2026-07-02T07:52:01.000Z</time></trkpt>
        <trkpt lat="29.549242" lon="103.341503"><ele>2277.0898</ele><time>2026-07-02T07:52:07.000Z</time></trkpt>
        <trkpt lat="29.549246" lon="103.341449"><ele>2279.2168</ele><time>2026-07-02T07:52:17.000Z</time></trkpt>
        <trkpt lat="29.549213" lon="103.341412"><ele>2278.2886</ele><time>2026-07-02T07:52:26.000Z</time></trkpt>
        <trkpt lat="29.549186" lon="103.34137"><ele>2280.9143</ele><time>2026-07-02T07:52:42.000Z</time></trkpt>
        <trkpt lat="29.549147" lon="103.341334"><ele>2283.408</ele><time>2026-07-02T07:52:56.000Z</time></trkpt>
        <trkpt lat="29.549133" lon="103.341279"><ele>2285.7393</ele><time>2026-07-02T07:53:10.000Z</time></trkpt>
        <trkpt lat="29.549122" lon="103.341228"><ele>2284.1392</ele><time>2026-07-02T07:53:21.000Z</time></trkpt>
        <trkpt lat="29.549087" lon="103.341189"><ele>2284.547</ele><time>2026-07-02T07:53:31.000Z</time></trkpt>
        <trkpt lat="29.549047" lon="103.341165"><ele>2286.1165</ele><time>2026-07-02T07:53:37.000Z</time></trkpt>
        <trkpt lat="29.549002" lon="103.341153"><ele>2286.777</ele><time>2026-07-02T07:53:42.000Z</time></trkpt>
        <trkpt lat="29.548962" lon="103.341124"><ele>2288.059</ele><time>2026-07-02T07:53:48.000Z</time></trkpt>
        <trkpt lat="29.548914" lon="103.341124"><ele>2290.2883</ele><time>2026-07-02T07:53:59.000Z</time></trkpt>
        <trkpt lat="29.548866" lon="103.341121"><ele>2293.8506</ele><time>2026-07-02T07:54:11.000Z</time></trkpt>
        <trkpt lat="29.548816" lon="103.341129"><ele>2296.2358</ele><time>2026-07-02T07:54:25.000Z</time></trkpt>
        <trkpt lat="29.548768" lon="103.341138"><ele>2298.8818</ele><time>2026-07-02T07:54:45.000Z</time></trkpt>
        <trkpt lat="29.548716" lon="103.341128"><ele>2301.1565</ele><time>2026-07-02T07:54:54.000Z</time></trkpt>
        <trkpt lat="29.548669" lon="103.341137"><ele>2304.653</ele><time>2026-07-02T07:55:15.000Z</time></trkpt>
        <trkpt lat="29.548621" lon="103.341142"><ele>2310.5483</ele><time>2026-07-02T07:55:38.000Z</time></trkpt>
        <trkpt lat="29.548575" lon="103.34116"><ele>2311.7656</ele><time>2026-07-02T07:55:50.000Z</time></trkpt>
        <trkpt lat="29.54853" lon="103.341182"><ele>2309.929</ele><time>2026-07-02T07:56:01.000Z</time></trkpt>
        <trkpt lat="29.548486" lon="103.341208"><ele>2311.0806</ele><time>2026-07-02T07:56:11.000Z</time></trkpt>
        <trkpt lat="29.548444" lon="103.341234"><ele>2313.5952</ele><time>2026-07-02T07:56:29.000Z</time></trkpt>
        <trkpt lat="29.548395" lon="103.341243"><ele>2317.2866</ele><time>2026-07-02T07:56:49.000Z</time></trkpt>
        <trkpt lat="29.548349" lon="103.341235"><ele>2317.9973</ele><time>2026-07-02T07:57:03.000Z</time></trkpt>
        <trkpt lat="29.548311" lon="103.341208"><ele>2317.974</ele><time>2026-07-02T07:57:19.000Z</time></trkpt>
        <trkpt lat="29.548266" lon="103.341199"><ele>2320.797</ele><time>2026-07-02T07:57:30.000Z</time></trkpt>
        <trkpt lat="29.548213" lon="103.341191"><ele>2323.5327</ele><time>2026-07-02T07:57:43.000Z</time></trkpt>
        <trkpt lat="29.548167" lon="103.341184"><ele>2324.1794</ele><time>2026-07-02T07:57:56.000Z</time></trkpt>
        <trkpt lat="29.548124" lon="103.341165"><ele>2324.9915</ele><time>2026-07-02T07:58:02.000Z</time></trkpt>
        <trkpt lat="29.548076" lon="103.341152"><ele>2328.7249</ele><time>2026-07-02T07:58:09.000Z</time></trkpt>
        <trkpt lat="29.548036" lon="103.341187"><ele>2334.8281</ele><time>2026-07-02T08:01:17.000Z</time></trkpt>
        <trkpt lat="29.548081" lon="103.341183"><ele>2331.724</ele><time>2026-07-02T08:05:08.000Z</time></trkpt>
        <trkpt lat="29.548033" lon="103.341174"><ele>2330.0056</ele><time>2026-07-02T08:05:39.000Z</time></trkpt>
        <trkpt lat="29.547999" lon="103.341217"><ele>2332.534</ele><time>2026-07-02T08:05:47.000Z</time></trkpt>
        <trkpt lat="29.54794" lon="103.341213"><ele>2334.0288</ele><time>2026-07-02T08:05:56.000Z</time></trkpt>
        <trkpt lat="29.547894" lon="103.341198"><ele>2332.8665</ele><time>2026-07-02T08:06:01.000Z</time></trkpt>
        <trkpt lat="29.547851" lon="103.341175"><ele>2333.612</ele><time>2026-07-02T08:06:09.000Z</time></trkpt>
        <trkpt lat="29.547806" lon="103.341155"><ele>2333.8784</ele><time>2026-07-02T08:06:15.000Z</time></trkpt>
        <trkpt lat="29.54776" lon="103.341133"><ele>2332.044</ele><time>2026-07-02T08:06:21.000Z</time></trkpt>
        <trkpt lat="29.547716" lon="103.341118"><ele>2331.7334</ele><time>2026-07-02T08:06:28.000Z</time></trkpt>
        <trkpt lat="29.547666" lon="103.341092"><ele>2332.4517</ele><time>2026-07-02T08:06:37.000Z</time></trkpt>
        <trkpt lat="29.547616" lon="103.341079"><ele>2333.0195</ele><time>2026-07-02T08:06:47.000Z</time></trkpt>
        <trkpt lat="29.547564" lon="103.341094"><ele>2331.9998</ele><time>2026-07-02T08:06:57.000Z</time></trkpt>
        <trkpt lat="29.54752" lon="103.341081"><ele>2339.211</ele><time>2026-07-02T08:09:20.000Z</time></trkpt>
        <trkpt lat="29.547477" lon="103.341062"><ele>2337.2336</ele><time>2026-07-02T08:09:29.000Z</time></trkpt>
        <trkpt lat="29.54743" lon="103.341051"><ele>2338.4175</ele><time>2026-07-02T08:09:45.000Z</time></trkpt>
        <trkpt lat="29.547386" lon="103.341019"><ele>2338.8315</ele><time>2026-07-02T08:09:56.000Z</time></trkpt>
        <trkpt lat="29.547364" lon="103.340974"><ele>2335.8682</ele><time>2026-07-02T08:10:06.000Z</time></trkpt>
        <trkpt lat="29.547365" lon="103.34092"><ele>2339.694</ele><time>2026-07-02T08:10:11.000Z</time></trkpt>
        <trkpt lat="29.547348" lon="103.340872"><ele>2341.8284</ele><time>2026-07-02T08:10:20.000Z</time></trkpt>
        <trkpt lat="29.547312" lon="103.34083"><ele>2339.6758</ele><time>2026-07-02T08:10:25.000Z</time></trkpt>
        <trkpt lat="29.547296" lon="103.340776"><ele>2340.076</ele><time>2026-07-02T08:10:32.000Z</time></trkpt>
        <trkpt lat="29.547278" lon="103.340729"><ele>2340.7678</ele><time>2026-07-02T08:10:36.000Z</time></trkpt>
        <trkpt lat="29.547262" lon="103.34068"><ele>2342.9648</ele><time>2026-07-02T08:10:43.000Z</time></trkpt>
        <trkpt lat="29.547253" lon="103.340617"><ele>2345.5925</ele><time>2026-07-02T08:10:49.000Z</time></trkpt>
        <trkpt lat="29.547204" lon="103.340613"><ele>2345.7947</ele><time>2026-07-02T08:10:53.000Z</time></trkpt>
        <trkpt lat="29.547187" lon="103.340563"><ele>2339.6143</ele><time>2026-07-02T08:11:09.000Z</time></trkpt>
        <trkpt lat="29.547157" lon="103.340523"><ele>2342.311</ele><time>2026-07-02T08:11:20.000Z</time></trkpt>
        <trkpt lat="29.547175" lon="103.340474"><ele>2346.1506</ele><time>2026-07-02T08:11:30.000Z</time></trkpt>
        <trkpt lat="29.547199" lon="103.340415"><ele>2348.5261</ele><time>2026-07-02T08:11:47.000Z</time></trkpt>
        <trkpt lat="29.547178" lon="103.340367"><ele>2348.6763</ele><time>2026-07-02T08:11:55.000Z</time></trkpt>
        <trkpt lat="29.547179" lon="103.340313"><ele>2355.7664</ele><time>2026-07-02T08:12:15.000Z</time></trkpt>
        <trkpt lat="29.547123" lon="103.34037"><ele>2355.2078</ele><time>2026-07-02T08:12:24.000Z</time></trkpt>
        <trkpt lat="29.547169" lon="103.340355"><ele>2360.4966</ele><time>2026-07-02T08:12:36.000Z</time></trkpt>
        <trkpt lat="29.547122" lon="103.340349"><ele>2364.6213</ele><time>2026-07-02T08:12:42.000Z</time></trkpt>
        <trkpt lat="29.54713" lon="103.340298"><ele>2365.9841</ele><time>2026-07-02T08:12:44.000Z</time></trkpt>
        <trkpt lat="29.547084" lon="103.340323"><ele>2366.6394</ele><time>2026-07-02T08:12:45.000Z</time></trkpt>
        <trkpt lat="29.547034" lon="103.340334"><ele>2366.6785</ele><time>2026-07-02T08:12:46.000Z</time></trkpt>
        <trkpt lat="29.547062" lon="103.340282"><ele>2367.6523</ele><time>2026-07-02T08:13:00.000Z</time></trkpt>
        <trkpt lat="29.546968" lon="103.340275"><ele>2367.1702</ele><time>2026-07-02T08:13:04.000Z</time></trkpt>
        <trkpt lat="29.546914" lon="103.340251"><ele>2367.3113</ele><time>2026-07-02T08:13:09.000Z</time></trkpt>
        <trkpt lat="29.546961" lon="103.340235"><ele>2368.0854</ele><time>2026-07-02T08:13:16.000Z</time></trkpt>
        <trkpt lat="29.547011" lon="103.340231"><ele>2368.8801</ele><time>2026-07-02T08:13:21.000Z</time></trkpt>
        <trkpt lat="29.547051" lon="103.340181"><ele>2370.2673</ele><time>2026-07-02T08:13:23.000Z</time></trkpt>
        <trkpt lat="29.547068" lon="103.340133"><ele>2371.1208</ele><time>2026-07-02T08:13:25.000Z</time></trkpt>
        <trkpt lat="29.547118" lon="103.340129"><ele>2373.2979</ele><time>2026-07-02T08:13:31.000Z</time></trkpt>
        <trkpt lat="29.547071" lon="103.340133"><ele>2369.4995</ele><time>2026-07-02T08:13:44.000Z</time></trkpt>
        <trkpt lat="29.547091" lon="103.340079"><ele>2371.216</ele><time>2026-07-02T08:14:36.000Z</time></trkpt>
        <trkpt lat="29.547079" lon="103.340029"><ele>2372.1453</ele><time>2026-07-02T08:14:51.000Z</time></trkpt>
        <trkpt lat="29.547061" lon="103.33998"><ele>2376.0088</ele><time>2026-07-02T08:15:13.000Z</time></trkpt>
        <trkpt lat="29.547073" lon="103.339927"><ele>2378.6104</ele><time>2026-07-02T08:15:25.000Z</time></trkpt>
        <trkpt lat="29.547084" lon="103.339876"><ele>2381.2415</ele><time>2026-07-02T08:15:39.000Z</time></trkpt>
        <trkpt lat="29.547085" lon="103.339823"><ele>2380.4775</ele><time>2026-07-02T08:15:51.000Z</time></trkpt>
        <trkpt lat="29.54707" lon="103.339773"><ele>2384.41</ele><time>2026-07-02T08:16:07.000Z</time></trkpt>
        <trkpt lat="29.547045" lon="103.339723"><ele>2385.2305</ele><time>2026-07-02T08:16:20.000Z</time></trkpt>
        <trkpt lat="29.547036" lon="103.339672"><ele>2385.8662</ele><time>2026-07-02T08:16:34.000Z</time></trkpt>
        <trkpt lat="29.546988" lon="103.33966"><ele>2388.977</ele><time>2026-07-02T08:16:53.000Z</time></trkpt>
        <trkpt lat="29.546948" lon="103.339629"><ele>2388.9094</ele><time>2026-07-02T08:17:05.000Z</time></trkpt>
        <trkpt lat="29.546922" lon="103.339585"><ele>2389.3972</ele><time>2026-07-02T08:17:18.000Z</time></trkpt>
        <trkpt lat="29.546885" lon="103.339546"><ele>2392.7058</ele><time>2026-07-02T08:17:33.000Z</time></trkpt>
        <trkpt lat="29.54688" lon="103.339492"><ele>2395.1648</ele><time>2026-07-02T08:17:49.000Z</time></trkpt>
        <trkpt lat="29.546868" lon="103.339441"><ele>2396.3777</ele><time>2026-07-02T08:18:00.000Z</time></trkpt>
        <trkpt lat="29.546855" lon="103.33939"><ele>2401.3396</ele><time>2026-07-02T08:18:20.000Z</time></trkpt>
        <trkpt lat="29.54681" lon="103.339374"><ele>2404.0242</ele><time>2026-07-02T08:18:38.000Z</time></trkpt>
        <trkpt lat="29.546822" lon="103.339321"><ele>2405.8835</ele><time>2026-07-02T08:18:57.000Z</time></trkpt>
        <trkpt lat="29.546772" lon="103.339307"><ele>2406.9045</ele><time>2026-07-02T08:28:54.000Z</time></trkpt>
        <trkpt lat="29.546751" lon="103.339261"><ele>2409.4958</ele><time>2026-07-02T08:29:06.000Z</time></trkpt>
        <trkpt lat="29.546722" lon="103.339217"><ele>2411.4785</ele><time>2026-07-02T08:29:22.000Z</time></trkpt>
        <trkpt lat="29.546688" lon="103.339174"><ele>2413.9978</ele><time>2026-07-02T08:29:38.000Z</time></trkpt>
        <trkpt lat="29.546669" lon="103.339123"><ele>2417.5117</ele><time>2026-07-02T08:29:51.000Z</time></trkpt>
        <trkpt lat="29.546643" lon="103.339076"><ele>2418.4407</ele><time>2026-07-02T08:30:02.000Z</time></trkpt>
        <trkpt lat="29.546612" lon="103.339032"><ele>2419.7573</ele><time>2026-07-02T08:30:14.000Z</time></trkpt>
        <trkpt lat="29.54659" lon="103.338982"><ele>2422.5513</ele><time>2026-07-02T08:30:25.000Z</time></trkpt>
        <trkpt lat="29.546554" lon="103.338945"><ele>2423.9727</ele><time>2026-07-02T08:30:41.000Z</time></trkpt>
        <trkpt lat="29.546528" lon="103.338894"><ele>2426.0708</ele><time>2026-07-02T08:30:57.000Z</time></trkpt>
        <trkpt lat="29.546487" lon="103.338865"><ele>2429.5793</ele><time>2026-07-02T08:31:13.000Z</time></trkpt>
        <trkpt lat="29.546437" lon="103.338828"><ele>2431.8257</ele><time>2026-07-02T08:31:32.000Z</time></trkpt>
        <trkpt lat="29.546393" lon="103.338809"><ele>2434.5803</ele><time>2026-07-02T08:31:54.000Z</time></trkpt>
        <trkpt lat="29.546351" lon="103.338787"><ele>2436.2888</ele><time>2026-07-02T08:32:04.000Z</time></trkpt>
        <trkpt lat="29.546324" lon="103.338746"><ele>2437.3665</ele><time>2026-07-02T08:32:23.000Z</time></trkpt>
        <trkpt lat="29.546305" lon="103.338686"><ele>2437.3499</ele><time>2026-07-02T08:32:34.000Z</time></trkpt>
        <trkpt lat="29.546293" lon="103.338636"><ele>2437.1067</ele><time>2026-07-02T08:32:53.000Z</time></trkpt>
        <trkpt lat="29.546275" lon="103.338584"><ele>2440.7356</ele><time>2026-07-02T08:33:07.000Z</time></trkpt>
        <trkpt lat="29.54626" lon="103.338532"><ele>2443.5789</ele><time>2026-07-02T08:33:18.000Z</time></trkpt>
        <trkpt lat="29.546234" lon="103.338483"><ele>2445.1584</ele><time>2026-07-02T08:33:27.000Z</time></trkpt>
        <trkpt lat="29.546221" lon="103.338428"><ele>2446.0608</ele><time>2026-07-02T08:33:37.000Z</time></trkpt>
        <trkpt lat="29.546208" lon="103.338374"><ele>2448.2998</ele><time>2026-07-02T08:33:47.000Z</time></trkpt>
        <trkpt lat="29.546207" lon="103.338321"><ele>2448.96</ele><time>2026-07-02T08:33:58.000Z</time></trkpt>
        <trkpt lat="29.546218" lon="103.338262"><ele>2449.8855</ele><time>2026-07-02T08:34:12.000Z</time></trkpt>
        <trkpt lat="29.546232" lon="103.338205"><ele>2453.9192</ele><time>2026-07-02T08:34:36.000Z</time></trkpt>
        <trkpt lat="29.546246" lon="103.338153"><ele>2456.1582</ele><time>2026-07-02T08:34:52.000Z</time></trkpt>
        <trkpt lat="29.546261" lon="103.338103"><ele>2458.4067</ele><time>2026-07-02T08:35:05.000Z</time></trkpt>
        <trkpt lat="29.546276" lon="103.338045"><ele>2459.3027</ele><time>2026-07-02T08:35:16.000Z</time></trkpt>
        <trkpt lat="29.546298" lon="103.337994"><ele>2458.7708</ele><time>2026-07-02T08:35:22.000Z</time></trkpt>
        <trkpt lat="29.546324" lon="103.337945"><ele>2457.7825</ele><time>2026-07-02T08:35:30.000Z</time></trkpt>
        <trkpt lat="29.546359" lon="103.337905"><ele>2457.6858</ele><time>2026-07-02T08:35:36.000Z</time></trkpt>
        <trkpt lat="29.546385" lon="103.337854"><ele>2456.6052</ele><time>2026-07-02T08:35:41.000Z</time></trkpt>
        <trkpt lat="29.546402" lon="103.337795"><ele>2457.3506</ele><time>2026-07-02T08:35:48.000Z</time></trkpt>
        <trkpt lat="29.546423" lon="103.337742"><ele>2457.658</ele><time>2026-07-02T08:35:54.000Z</time></trkpt>
        <trkpt lat="29.546443" lon="103.337689"><ele>2459.1423</ele><time>2026-07-02T08:36:03.000Z</time></trkpt>
        <trkpt lat="29.546454" lon="103.337628"><ele>2458.462</ele><time>2026-07-02T08:36:09.000Z</time></trkpt>
        <trkpt lat="29.546476" lon="103.337576"><ele>2458.7178</ele><time>2026-07-02T08:36:14.000Z</time></trkpt>
        <trkpt lat="29.546504" lon="103.337526"><ele>2459.3762</ele><time>2026-07-02T08:36:20.000Z</time></trkpt>
        <trkpt lat="29.546544" lon="103.337493"><ele>2459.5393</ele><time>2026-07-02T08:36:26.000Z</time></trkpt>
        <trkpt lat="29.546566" lon="103.337446"><ele>2459.0708</ele><time>2026-07-02T08:36:30.000Z</time></trkpt>
        <trkpt lat="29.546577" lon="103.337396"><ele>2459.407</ele><time>2026-07-02T08:36:35.000Z</time></trkpt>
        <trkpt lat="29.546593" lon="103.337347"><ele>2459.0122</ele><time>2026-07-02T08:36:42.000Z</time></trkpt>
        <trkpt lat="29.5466" lon="103.337284"><ele>2459.0334</ele><time>2026-07-02T08:36:48.000Z</time></trkpt>
        <trkpt lat="29.546615" lon="103.337228"><ele>2460.5288</ele><time>2026-07-02T08:36:56.000Z</time></trkpt>
        <trkpt lat="29.546619" lon="103.337175"><ele>2461.2214</ele><time>2026-07-02T08:37:01.000Z</time></trkpt>
        <trkpt lat="29.546616" lon="103.337121"><ele>2460.715</ele><time>2026-07-02T08:37:05.000Z</time></trkpt>
        <trkpt lat="29.546595" lon="103.337073"><ele>2461.6223</ele><time>2026-07-02T08:37:11.000Z</time></trkpt>
        <trkpt lat="29.546542" lon="103.337079"><ele>2463.6626</ele><time>2026-07-02T08:37:33.000Z</time></trkpt>
        <trkpt lat="29.546527" lon="103.337029"><ele>2465.356</ele><time>2026-07-02T08:42:24.000Z</time></trkpt>
        <trkpt lat="29.546506" lon="103.336979"><ele>2463.821</ele><time>2026-07-02T08:42:31.000Z</time></trkpt>
        <trkpt lat="29.546484" lon="103.336925"><ele>2463.9136</ele><time>2026-07-02T08:42:39.000Z</time></trkpt>
        <trkpt lat="29.546483" lon="103.336864"><ele>2463.3792</ele><time>2026-07-02T08:42:46.000Z</time></trkpt>
        <trkpt lat="29.54646" lon="103.336819"><ele>2462.9766</ele><time>2026-07-02T08:42:53.000Z</time></trkpt>
        <trkpt lat="29.546458" lon="103.336764"><ele>2460.7217</ele><time>2026-07-02T08:43:02.000Z</time></trkpt>
        <trkpt lat="29.546458" lon="103.336711"><ele>2461.064</ele><time>2026-07-02T08:43:15.000Z</time></trkpt>
        <trkpt lat="29.546463" lon="103.336652"><ele>2460.0208</ele><time>2026-07-02T08:43:22.000Z</time></trkpt>
        <trkpt lat="29.546475" lon="103.3366"><ele>2460.0886</ele><time>2026-07-02T08:43:29.000Z</time></trkpt>
        <trkpt lat="29.546473" lon="103.336545"><ele>2459.2915</ele><time>2026-07-02T08:43:36.000Z</time></trkpt>
        <trkpt lat="29.546493" lon="103.336493"><ele>2457.202</ele><time>2026-07-02T08:43:46.000Z</time></trkpt>
        <trkpt lat="29.546499" lon="103.336433"><ele>2453.9976</ele><time>2026-07-02T08:43:58.000Z</time></trkpt>
        <trkpt lat="29.546516" lon="103.336382"><ele>2452.0132</ele><time>2026-07-02T08:44:04.000Z</time></trkpt>
        <trkpt lat="29.54652" lon="103.336324"><ele>2451.7214</ele><time>2026-07-02T08:44:14.000Z</time></trkpt>
        <trkpt lat="29.546525" lon="103.336266"><ele>2449.1187</ele><time>2026-07-02T08:44:22.000Z</time></trkpt>
        <trkpt lat="29.546523" lon="103.336213"><ele>2449.17</ele><time>2026-07-02T08:44:28.000Z</time></trkpt>
        <trkpt lat="29.54654" lon="103.336163"><ele>2445.9</ele><time>2026-07-02T08:44:39.000Z</time></trkpt>
        <trkpt lat="29.546567" lon="103.336122"><ele>2445.2947</ele><time>2026-07-02T08:44:47.000Z</time></trkpt>
        <trkpt lat="29.546583" lon="103.336065"><ele>2443.717</ele><time>2026-07-02T08:44:55.000Z</time></trkpt>
        <trkpt lat="29.546577" lon="103.336007"><ele>2440.9524</ele><time>2026-07-02T08:45:03.000Z</time></trkpt>
        <trkpt lat="29.546602" lon="103.335956"><ele>2441.1306</ele><time>2026-07-02T08:45:10.000Z</time></trkpt>
        <trkpt lat="29.546615" lon="103.335905"><ele>2440.4023</ele><time>2026-07-02T08:45:17.000Z</time></trkpt>
        <trkpt lat="29.546647" lon="103.335861"><ele>2439.1494</ele><time>2026-07-02T08:45:22.000Z</time></trkpt>
        <trkpt lat="29.546668" lon="103.335814"><ele>2439.7458</ele><time>2026-07-02T08:45:28.000Z</time></trkpt>
        <trkpt lat="29.546675" lon="103.33576"><ele>2440.0615</ele><time>2026-07-02T08:45:33.000Z</time></trkpt>
        <trkpt lat="29.546693" lon="103.335709"><ele>2438.9458</ele><time>2026-07-02T08:45:39.000Z</time></trkpt>
        <trkpt lat="29.546708" lon="103.335657"><ele>2437.93</ele><time>2026-07-02T08:45:45.000Z</time></trkpt>
        <trkpt lat="29.546704" lon="103.335603"><ele>2437.954</ele><time>2026-07-02T08:45:51.000Z</time></trkpt>
        <trkpt lat="29.546714" lon="103.335545"><ele>2437.3904</ele><time>2026-07-02T08:45:57.000Z</time></trkpt>
        <trkpt lat="29.54674" lon="103.335498"><ele>2437.574</ele><time>2026-07-02T08:46:04.000Z</time></trkpt>
        <trkpt lat="29.546749" lon="103.335439"><ele>2437.4685</ele><time>2026-07-02T08:46:12.000Z</time></trkpt>
        <trkpt lat="29.546761" lon="103.335389"><ele>2437.7397</ele><time>2026-07-02T08:46:17.000Z</time></trkpt>
        <trkpt lat="29.546776" lon="103.335332"><ele>2438.313</ele><time>2026-07-02T08:46:24.000Z</time></trkpt>
        <trkpt lat="29.5468" lon="103.335283"><ele>2436.5508</ele><time>2026-07-02T08:46:34.000Z</time></trkpt>
        <trkpt lat="29.546838" lon="103.335251"><ele>2435.0947</ele><time>2026-07-02T08:46:44.000Z</time></trkpt>
        <trkpt lat="29.546852" lon="103.335202"><ele>2436.6558</ele><time>2026-07-02T08:46:53.000Z</time></trkpt>
        <trkpt lat="29.546831" lon="103.335149"><ele>2436.2712</ele><time>2026-07-02T08:46:59.000Z</time></trkpt>
        <trkpt lat="29.546813" lon="103.335097"><ele>2436.3628</ele><time>2026-07-02T08:47:04.000Z</time></trkpt>
        <trkpt lat="29.546783" lon="103.335049"><ele>2436.0903</ele><time>2026-07-02T08:47:14.000Z</time></trkpt>
        <trkpt lat="29.546766" lon="103.334998"><ele>2433.2534</ele><time>2026-07-02T08:47:23.000Z</time></trkpt>
        <trkpt lat="29.546727" lon="103.334956"><ele>2435.104</ele><time>2026-07-02T08:47:31.000Z</time></trkpt>
        <trkpt lat="29.546688" lon="103.334927"><ele>2433.5308</ele><time>2026-07-02T08:47:37.000Z</time></trkpt>
        <trkpt lat="29.546636" lon="103.334903"><ele>2431.8633</ele><time>2026-07-02T08:47:43.000Z</time></trkpt>
        <trkpt lat="29.546596" lon="103.334871"><ele>2432.9478</ele><time>2026-07-02T08:47:48.000Z</time></trkpt>
        <trkpt lat="29.546563" lon="103.334835"><ele>2434.9858</ele><time>2026-07-02T08:47:56.000Z</time></trkpt>
        <trkpt lat="29.546521" lon="103.334808"><ele>2436.843</ele><time>2026-07-02T08:48:03.000Z</time></trkpt>
        <trkpt lat="29.546479" lon="103.334768"><ele>2439.9722</ele><time>2026-07-02T08:48:12.000Z</time></trkpt>
        <trkpt lat="29.546428" lon="103.334761"><ele>2441.7214</ele><time>2026-07-02T08:48:19.000Z</time></trkpt>
        <trkpt lat="29.546383" lon="103.334755"><ele>2440.4075</ele><time>2026-07-02T08:48:34.000Z</time></trkpt>
        <trkpt lat="29.546345" lon="103.334727"><ele>2441.1482</ele><time>2026-07-02T08:48:46.000Z</time></trkpt>
        <trkpt lat="29.546302" lon="103.334709"><ele>2440.968</ele><time>2026-07-02T08:48:58.000Z</time></trkpt>
        <trkpt lat="29.546255" lon="103.334704"><ele>2442.6506</ele><time>2026-07-02T08:49:09.000Z</time></trkpt>
        <trkpt lat="29.546218" lon="103.334734"><ele>2443.3794</ele><time>2026-07-02T08:49:44.000Z</time></trkpt>
        <trkpt lat="29.546184" lon="103.334771"><ele>2443.9658</ele><time>2026-07-02T08:51:11.000Z</time></trkpt>
        <trkpt lat="29.546137" lon="103.334754"><ele>2445.3413</ele><time>2026-07-02T08:51:46.000Z</time></trkpt>
        <trkpt lat="29.546089" lon="103.334744"><ele>2442.7715</ele><time>2026-07-02T08:51:55.000Z</time></trkpt>
        <trkpt lat="29.546041" lon="103.334729"><ele>2439.8376</ele><time>2026-07-02T08:52:03.000Z</time></trkpt>
        <trkpt lat="29.545991" lon="103.334717"><ele>2437.492</ele><time>2026-07-02T08:52:14.000Z</time></trkpt>
        <trkpt lat="29.545946" lon="103.334707"><ele>2437.0142</ele><time>2026-07-02T08:52:23.000Z</time></trkpt>
        <trkpt lat="29.545915" lon="103.334666"><ele>2435.6614</ele><time>2026-07-02T08:52:34.000Z</time></trkpt>
        <trkpt lat="29.545888" lon="103.33462"><ele>2433.4917</ele><time>2026-07-02T08:52:40.000Z</time></trkpt>
        <trkpt lat="29.545865" lon="103.334574"><ele>2431.2825</ele><time>2026-07-02T08:52:49.000Z</time></trkpt>
        <trkpt lat="29.545827" lon="103.334535"><ele>2429.2783</ele><time>2026-07-02T08:52:57.000Z</time></trkpt>
        <trkpt lat="29.545786" lon="103.334503"><ele>2428.188</ele><time>2026-07-02T08:53:01.000Z</time></trkpt>
        <trkpt lat="29.545738" lon="103.334484"><ele>2429.6294</ele><time>2026-07-02T08:53:09.000Z</time></trkpt>
        <trkpt lat="29.545703" lon="103.334449"><ele>2430.3645</ele><time>2026-07-02T08:53:15.000Z</time></trkpt>
        <trkpt lat="29.545657" lon="103.334435"><ele>2430.0706</ele><time>2026-07-02T08:53:23.000Z</time></trkpt>
        <trkpt lat="29.545613" lon="103.334414"><ele>2428.2178</ele><time>2026-07-02T08:53:33.000Z</time></trkpt>
        <trkpt lat="29.545589" lon="103.334367"><ele>2429.877</ele><time>2026-07-02T08:53:42.000Z</time></trkpt>
        <trkpt lat="29.545546" lon="103.334329"><ele>2432.5403</ele><time>2026-07-02T08:53:48.000Z</time></trkpt>
        <trkpt lat="29.545497" lon="103.334328"><ele>2433.734</ele><time>2026-07-02T08:54:07.000Z</time></trkpt>
        <trkpt lat="29.545455" lon="103.334301"><ele>2434.8274</ele><time>2026-07-02T08:54:21.000Z</time></trkpt>
        <trkpt lat="29.54541" lon="103.334275"><ele>2435.709</ele><time>2026-07-02T08:54:28.000Z</time></trkpt>
        <trkpt lat="29.545368" lon="103.334254"><ele>2435.3174</ele><time>2026-07-02T08:54:35.000Z</time></trkpt>
        <trkpt lat="29.545335" lon="103.334211"><ele>2434.9724</ele><time>2026-07-02T08:54:42.000Z</time></trkpt>
        <trkpt lat="29.5453" lon="103.334172"><ele>2436.8374</ele><time>2026-07-02T08:54:48.000Z</time></trkpt>
        <trkpt lat="29.545263" lon="103.334139"><ele>2440.3906</ele><time>2026-07-02T08:54:58.000Z</time></trkpt>
        <trkpt lat="29.545227" lon="103.334096"><ele>2437.8586</ele><time>2026-07-02T08:55:08.000Z</time></trkpt>
        <trkpt lat="29.545184" lon="103.334065"><ele>2440.7896</ele><time>2026-07-02T08:55:16.000Z</time></trkpt>
        <trkpt lat="29.545145" lon="103.334039"><ele>2442.2373</ele><time>2026-07-02T08:55:23.000Z</time></trkpt>
        <trkpt lat="29.545103" lon="103.334017"><ele>2442.4944</ele><time>2026-07-02T08:55:28.000Z</time></trkpt>
        <trkpt lat="29.545054" lon="103.334031"><ele>2441.3293</ele><time>2026-07-02T08:55:33.000Z</time></trkpt>
        <trkpt lat="29.545013" lon="103.334056"><ele>2438.3938</ele><time>2026-07-02T08:55:42.000Z</time></trkpt>
        <trkpt lat="29.544959" lon="103.334053"><ele>2434.921</ele><time>2026-07-02T08:55:50.000Z</time></trkpt>
        <trkpt lat="29.544904" lon="103.334047"><ele>2436.3716</ele><time>2026-07-02T08:55:56.000Z</time></trkpt>
        <trkpt lat="29.544859" lon="103.334061"><ele>2436.6802</ele><time>2026-07-02T08:56:01.000Z</time></trkpt>
        <trkpt lat="29.544821" lon="103.334094"><ele>2435.3481</ele><time>2026-07-02T08:56:08.000Z</time></trkpt>
        <trkpt lat="29.544789" lon="103.334144"><ele>2434.4065</ele><time>2026-07-02T08:56:14.000Z</time></trkpt>
        <trkpt lat="29.544761" lon="103.334185"><ele>2435.6467</ele><time>2026-07-02T08:56:19.000Z</time></trkpt>
        <trkpt lat="29.544722" lon="103.334213"><ele>2435.9841</ele><time>2026-07-02T08:56:23.000Z</time></trkpt>
        <trkpt lat="29.544672" lon="103.334235"><ele>2436.242</ele><time>2026-07-02T08:56:29.000Z</time></trkpt>
        <trkpt lat="29.544621" lon="103.334246"><ele>2435.491</ele><time>2026-07-02T08:56:36.000Z</time></trkpt>
        <trkpt lat="29.544586" lon="103.334213"><ele>2434.0103</ele><time>2026-07-02T08:56:43.000Z</time></trkpt>
        <trkpt lat="29.544538" lon="103.334188"><ele>2432.5999</ele><time>2026-07-02T08:56:50.000Z</time></trkpt>
        <trkpt lat="29.544489" lon="103.334172"><ele>2432.7695</ele><time>2026-07-02T08:56:54.000Z</time></trkpt>
        <trkpt lat="29.54445" lon="103.334146"><ele>2431.6562</ele><time>2026-07-02T08:57:00.000Z</time></trkpt>
        <trkpt lat="29.544397" lon="103.334161"><ele>2431.2808</ele><time>2026-07-02T08:57:08.000Z</time></trkpt>
        <trkpt lat="29.544348" lon="103.334168"><ele>2431.927</ele><time>2026-07-02T08:57:13.000Z</time></trkpt>
        <trkpt lat="29.544304" lon="103.334144"><ele>2431.4521</ele><time>2026-07-02T08:57:19.000Z</time></trkpt>
        <trkpt lat="29.544271" lon="103.334097"><ele>2435.5403</ele><time>2026-07-02T08:57:32.000Z</time></trkpt>
        <trkpt lat="29.544224" lon="103.334083"><ele>2434.7302</ele><time>2026-07-02T08:57:42.000Z</time></trkpt>
        <trkpt lat="29.544179" lon="103.334077"><ele>2434.7812</ele><time>2026-07-02T08:57:48.000Z</time></trkpt>
        <trkpt lat="29.544131" lon="103.334082"><ele>2434.5686</ele><time>2026-07-02T08:57:55.000Z</time></trkpt>
        <trkpt lat="29.544074" lon="103.334072"><ele>2433.8042</ele><time>2026-07-02T08:58:00.000Z</time></trkpt>
        <trkpt lat="29.544027" lon="103.334048"><ele>2432.3474</ele><time>2026-07-02T08:58:08.000Z</time></trkpt>
        <trkpt lat="29.543984" lon="103.334027"><ele>2433.8013</ele><time>2026-07-02T08:58:27.000Z</time></trkpt>
        <trkpt lat="29.543957" lon="103.333981"><ele>2433.202</ele><time>2026-07-02T08:58:33.000Z</time></trkpt>
        <trkpt lat="29.543924" lon="103.333942"><ele>2433.0054</ele><time>2026-07-02T08:58:40.000Z</time></trkpt>
        <trkpt lat="29.543907" lon="103.333886"><ele>2433.4546</ele><time>2026-07-02T08:58:46.000Z</time></trkpt>
        <trkpt lat="29.543859" lon="103.333877"><ele>2435.368</ele><time>2026-07-02T08:58:51.000Z</time></trkpt>
        <trkpt lat="29.543809" lon="103.333889"><ele>2434.6726</ele><time>2026-07-02T08:58:58.000Z</time></trkpt>
        <trkpt lat="29.543767" lon="103.33391"><ele>2431.989</ele><time>2026-07-02T08:59:04.000Z</time></trkpt>
        <trkpt lat="29.543719" lon="103.333915"><ele>2429.6235</ele><time>2026-07-02T08:59:11.000Z</time></trkpt>
        <trkpt lat="29.543677" lon="103.333892"><ele>2430.2373</ele><time>2026-07-02T08:59:16.000Z</time></trkpt>
        <trkpt lat="29.54363" lon="103.333859"><ele>2429.2107</ele><time>2026-07-02T08:59:21.000Z</time></trkpt>
        <trkpt lat="29.543594" lon="103.333824"><ele>2428.2341</ele><time>2026-07-02T08:59:27.000Z</time></trkpt>
        <trkpt lat="29.543565" lon="103.333773"><ele>2428.8123</ele><time>2026-07-02T08:59:37.000Z</time></trkpt>
        <trkpt lat="29.54353" lon="103.333738"><ele>2430.873</ele><time>2026-07-02T08:59:44.000Z</time></trkpt>
        <trkpt lat="29.543496" lon="103.333702"><ele>2431.131</ele><time>2026-07-02T08:59:59.000Z</time></trkpt>
        <trkpt lat="29.543457" lon="103.333672"><ele>2430.7776</ele><time>2026-07-02T09:00:10.000Z</time></trkpt>
        <trkpt lat="29.543421" lon="103.333633"><ele>2428.121</ele><time>2026-07-02T09:00:20.000Z</time></trkpt>
        <trkpt lat="29.543406" lon="103.333581"><ele>2427.4968</ele><time>2026-07-02T09:00:28.000Z</time></trkpt>
        <trkpt lat="29.543391" lon="103.333527"><ele>2430.3801</ele><time>2026-07-02T09:00:33.000Z</time></trkpt>
        <trkpt lat="29.543381" lon="103.333473"><ele>2426.8076</ele><time>2026-07-02T09:00:40.000Z</time></trkpt>
        <trkpt lat="29.543368" lon="103.33342"><ele>2428.0266</ele><time>2026-07-02T09:00:45.000Z</time></trkpt>
        <trkpt lat="29.543364" lon="103.333368"><ele>2428.8022</ele><time>2026-07-02T09:00:52.000Z</time></trkpt>
        <trkpt lat="29.54334" lon="103.333317"><ele>2428.1497</ele><time>2026-07-02T09:01:03.000Z</time></trkpt>
        <trkpt lat="29.543328" lon="103.333266"><ele>2426.18</ele><time>2026-07-02T09:01:12.000Z</time></trkpt>
        <trkpt lat="29.543306" lon="103.333215"><ele>2424.346</ele><time>2026-07-02T09:01:22.000Z</time></trkpt>
        <trkpt lat="29.543267" lon="103.333177"><ele>2425.9597</ele><time>2026-07-02T09:01:29.000Z</time></trkpt>
        <trkpt lat="29.543262" lon="103.333125"><ele>2427.603</ele><time>2026-07-02T09:01:48.000Z</time></trkpt>
        <trkpt lat="29.543245" lon="103.333073"><ele>2426.095</ele><time>2026-07-02T09:01:55.000Z</time></trkpt>
        <trkpt lat="29.54321" lon="103.33304"><ele>2424.5105</ele><time>2026-07-02T09:02:04.000Z</time></trkpt>
        <trkpt lat="29.543179" lon="103.332992"><ele>2424.6736</ele><time>2026-07-02T09:02:10.000Z</time></trkpt>
        <trkpt lat="29.543127" lon="103.332972"><ele>2425.2256</ele><time>2026-07-02T09:02:18.000Z</time></trkpt>
        <trkpt lat="29.543074" lon="103.332971"><ele>2425.533</ele><time>2026-07-02T09:02:24.000Z</time></trkpt>
        <trkpt lat="29.543021" lon="103.332972"><ele>2425.3162</ele><time>2026-07-02T09:02:30.000Z</time></trkpt>
        <trkpt lat="29.542973" lon="103.332967"><ele>2428.5232</ele><time>2026-07-02T09:02:38.000Z</time></trkpt>
        <trkpt lat="29.542954" lon="103.332916"><ele>2429.1963</ele><time>2026-07-02T09:02:44.000Z</time></trkpt>
        <trkpt lat="29.542912" lon="103.332892"><ele>2430.9749</ele><time>2026-07-02T09:02:52.000Z</time></trkpt>
        <trkpt lat="29.542883" lon="103.332851"><ele>2429.0234</ele><time>2026-07-02T09:03:03.000Z</time></trkpt>
        <trkpt lat="29.542857" lon="103.332805"><ele>2427.576</ele><time>2026-07-02T09:03:11.000Z</time></trkpt>
        <trkpt lat="29.542824" lon="103.332758"><ele>2428.171</ele><time>2026-07-02T09:03:16.000Z</time></trkpt>
        <trkpt lat="29.5428" lon="103.332702"><ele>2427.9666</ele><time>2026-07-02T09:03:24.000Z</time></trkpt>
        <trkpt lat="29.542761" lon="103.332662"><ele>2427.8188</ele><time>2026-07-02T09:03:31.000Z</time></trkpt>
        <trkpt lat="29.542714" lon="103.332635"><ele>2429.379</ele><time>2026-07-02T09:03:37.000Z</time></trkpt>
        <trkpt lat="29.542655" lon="103.332615"><ele>2430.876</ele><time>2026-07-02T09:03:42.000Z</time></trkpt>
        <trkpt lat="29.542607" lon="103.332602"><ele>2430.5576</ele><time>2026-07-02T09:03:47.000Z</time></trkpt>
        <trkpt lat="29.542576" lon="103.332563"><ele>2430.0066</ele><time>2026-07-02T09:03:52.000Z</time></trkpt>
        <trkpt lat="29.542566" lon="103.332512"><ele>2429.1833</ele><time>2026-07-02T09:03:58.000Z</time></trkpt>
        <trkpt lat="29.542559" lon="103.332451"><ele>2428.3547</ele><time>2026-07-02T09:04:04.000Z</time></trkpt>
        <trkpt lat="29.54254" lon="103.3324"><ele>2426.2192</ele><time>2026-07-02T09:04:19.000Z</time></trkpt>
        <trkpt lat="29.542519" lon="103.332347"><ele>2426.9893</ele><time>2026-07-02T09:04:26.000Z</time></trkpt>
        <trkpt lat="29.542491" lon="103.332305"><ele>2426.7388</ele><time>2026-07-02T09:04:31.000Z</time></trkpt>
        <trkpt lat="29.542457" lon="103.332264"><ele>2427.3933</ele><time>2026-07-02T09:04:35.000Z</time></trkpt>
        <trkpt lat="29.542431" lon="103.332215"><ele>2428.2063</ele><time>2026-07-02T09:04:41.000Z</time></trkpt>
        <trkpt lat="29.542418" lon="103.33216"><ele>2427.9126</ele><time>2026-07-02T09:04:45.000Z</time></trkpt>
        <trkpt lat="29.542372" lon="103.332127"><ele>2429.3848</ele><time>2026-07-02T09:04:50.000Z</time></trkpt>
        <trkpt lat="29.542332" lon="103.332093"><ele>2429.3982</ele><time>2026-07-02T09:04:54.000Z</time></trkpt>
        <trkpt lat="29.542296" lon="103.332061"><ele>2430.7285</ele><time>2026-07-02T09:04:58.000Z</time></trkpt>
        <trkpt lat="29.542273" lon="103.332013"><ele>2430.5103</ele><time>2026-07-02T09:05:04.000Z</time></trkpt>
        <trkpt lat="29.542239" lon="103.331978"><ele>2431.5906</ele><time>2026-07-02T09:05:08.000Z</time></trkpt>
        <trkpt lat="29.54219" lon="103.331967"><ele>2432.72</ele><time>2026-07-02T09:05:13.000Z</time></trkpt>
        <trkpt lat="29.542143" lon="103.331981"><ele>2430.1797</ele><time>2026-07-02T09:05:19.000Z</time></trkpt>
        <trkpt lat="29.542098" lon="103.331978"><ele>2428.025</ele><time>2026-07-02T09:05:39.000Z</time></trkpt>
        <trkpt lat="29.54205" lon="103.331982"><ele>2426.0488</ele><time>2026-07-02T09:05:55.000Z</time></trkpt>
        <trkpt lat="29.542052" lon="103.332037"><ele>2424.9421</ele><time>2026-07-02T09:06:28.000Z</time></trkpt>
        <trkpt lat="29.542021" lon="103.332078"><ele>2424.817</ele><time>2026-07-02T09:06:37.000Z</time></trkpt>
        <trkpt lat="29.541968" lon="103.332072"><ele>2424.84</ele><time>2026-07-02T09:06:42.000Z</time></trkpt>
        <trkpt lat="29.541922" lon="103.332069"><ele>2425.668</ele><time>2026-07-02T09:06:47.000Z</time></trkpt>
        <trkpt lat="29.541867" lon="103.332072"><ele>2426.6636</ele><time>2026-07-02T09:06:53.000Z</time></trkpt>
        <trkpt lat="29.541823" lon="103.33206"><ele>2426.3467</ele><time>2026-07-02T09:06:58.000Z</time></trkpt>
        <trkpt lat="29.541773" lon="103.332061"><ele>2426.0903</ele><time>2026-07-02T09:07:01.000Z</time></trkpt>
        <trkpt lat="29.541746" lon="103.332018"><ele>2425.2666</ele><time>2026-07-02T09:07:08.000Z</time></trkpt>
        <trkpt lat="29.541741" lon="103.331965"><ele>2423.74</ele><time>2026-07-02T09:07:14.000Z</time></trkpt>
        <trkpt lat="29.541768" lon="103.33192"><ele>2423.016</ele><time>2026-07-02T09:07:20.000Z</time></trkpt>
        <trkpt lat="29.541798" lon="103.331878"><ele>2423.5566</ele><time>2026-07-02T09:07:26.000Z</time></trkpt>
        <trkpt lat="29.541826" lon="103.331826"><ele>2421.9531</ele><time>2026-07-02T09:07:39.000Z</time></trkpt>
        <trkpt lat="29.54184" lon="103.33177"><ele>2420.8606</ele><time>2026-07-02T09:07:44.000Z</time></trkpt>
        <trkpt lat="29.541841" lon="103.331715"><ele>2421.1072</ele><time>2026-07-02T09:07:50.000Z</time></trkpt>
        <trkpt lat="29.541814" lon="103.331672"><ele>2422.72</ele><time>2026-07-02T09:07:56.000Z</time></trkpt>
        <trkpt lat="29.541768" lon="103.331669"><ele>2423.116</ele><time>2026-07-02T09:08:01.000Z</time></trkpt>
        <trkpt lat="29.541723" lon="103.331666"><ele>2424.4336</ele><time>2026-07-02T09:08:05.000Z</time></trkpt>
        <trkpt lat="29.541678" lon="103.331651"><ele>2426.0942</ele><time>2026-07-02T09:08:13.000Z</time></trkpt>
        <trkpt lat="29.541629" lon="103.331651"><ele>2426.7021</ele><time>2026-07-02T09:08:19.000Z</time></trkpt>
        <trkpt lat="29.541581" lon="103.331654"><ele>2427.976</ele><time>2026-07-02T09:08:25.000Z</time></trkpt>
        <trkpt lat="29.541533" lon="103.331668"><ele>2427.296</ele><time>2026-07-02T09:08:31.000Z</time></trkpt>
        <trkpt lat="29.541486" lon="103.331677"><ele>2428.154</ele><time>2026-07-02T09:08:37.000Z</time></trkpt>
        <trkpt lat="29.541437" lon="103.331694"><ele>2428.3958</ele><time>2026-07-02T09:08:42.000Z</time></trkpt>
        <trkpt lat="29.541389" lon="103.331707"><ele>2428.37</ele><time>2026-07-02T09:08:47.000Z</time></trkpt>
        <trkpt lat="29.541345" lon="103.331723"><ele>2428.187</ele><time>2026-07-02T09:08:52.000Z</time></trkpt>
        <trkpt lat="29.5413" lon="103.331729"><ele>2427.1624</ele><time>2026-07-02T09:08:57.000Z</time></trkpt>
        <trkpt lat="29.541255" lon="103.331736"><ele>2427.206</ele><time>2026-07-02T09:09:02.000Z</time></trkpt>
        <trkpt lat="29.541205" lon="103.331746"><ele>2427.6868</ele><time>2026-07-02T09:09:08.000Z</time></trkpt>
        <trkpt lat="29.541159" lon="103.331729"><ele>2428.4595</ele><time>2026-07-02T09:09:14.000Z</time></trkpt>
        <trkpt lat="29.541114" lon="103.33174"><ele>2429.1516</ele><time>2026-07-02T09:09:28.000Z</time></trkpt>
        <trkpt lat="29.541072" lon="103.331762"><ele>2429.9229</ele><time>2026-07-02T09:09:39.000Z</time></trkpt>
        <trkpt lat="29.541021" lon="103.331768"><ele>2430.562</ele><time>2026-07-02T09:09:47.000Z</time></trkpt>
        <trkpt lat="29.540967" lon="103.331773"><ele>2431.468</ele><time>2026-07-02T09:09:59.000Z</time></trkpt>
        <trkpt lat="29.540919" lon="103.331779"><ele>2431.4883</ele><time>2026-07-02T09:10:06.000Z</time></trkpt>
        <trkpt lat="29.540877" lon="103.331747"><ele>2431.0762</ele><time>2026-07-02T09:10:11.000Z</time></trkpt>
        <trkpt lat="29.540832" lon="103.331741"><ele>2431.1287</ele><time>2026-07-02T09:10:17.000Z</time></trkpt>
        <trkpt lat="29.540783" lon="103.331728"><ele>2432.3574</ele><time>2026-07-02T09:10:24.000Z</time></trkpt>
        <trkpt lat="29.540737" lon="103.331724"><ele>2433.0476</ele><time>2026-07-02T09:10:31.000Z</time></trkpt>
        <trkpt lat="29.54069" lon="103.331734"><ele>2432.2576</ele><time>2026-07-02T09:10:38.000Z</time></trkpt>
        <trkpt lat="29.540644" lon="103.331756"><ele>2431.0498</ele><time>2026-07-02T09:10:44.000Z</time></trkpt>
        <trkpt lat="29.540604" lon="103.331782"><ele>2431.3052</ele><time>2026-07-02T09:10:49.000Z</time></trkpt>
        <trkpt lat="29.540563" lon="103.331823"><ele>2432.8672</ele><time>2026-07-02T09:10:56.000Z</time></trkpt>
        <trkpt lat="29.540514" lon="103.331843"><ele>2433.3496</ele><time>2026-07-02T09:11:02.000Z</time></trkpt>
        <trkpt lat="29.540475" lon="103.331872"><ele>2436.083</ele><time>2026-07-02T09:11:08.000Z</time></trkpt>
        <trkpt lat="29.540424" lon="103.331899"><ele>2435.1516</ele><time>2026-07-02T09:11:15.000Z</time></trkpt>
        <trkpt lat="29.540376" lon="103.331906"><ele>2435.0972</ele><time>2026-07-02T09:11:21.000Z</time></trkpt>
        <trkpt lat="29.540331" lon="103.331922"><ele>2436.0452</ele><time>2026-07-02T09:11:37.000Z</time></trkpt>
        <trkpt lat="29.540289" lon="103.331949"><ele>2435.9375</ele><time>2026-07-02T09:11:44.000Z</time></trkpt>
        <trkpt lat="29.54025" lon="103.331979"><ele>2437.1838</ele><time>2026-07-02T09:11:50.000Z</time></trkpt>
        <trkpt lat="29.540228" lon="103.332028"><ele>2437.668</ele><time>2026-07-02T09:12:01.000Z</time></trkpt>
        <trkpt lat="29.540185" lon="103.332065"><ele>2437.5178</ele><time>2026-07-02T09:12:23.000Z</time></trkpt>
        <trkpt lat="29.540158" lon="103.332108"><ele>2436.7378</ele><time>2026-07-02T09:12:27.000Z</time></trkpt>
        <trkpt lat="29.540111" lon="103.332119"><ele>2437.4817</ele><time>2026-07-02T09:12:31.000Z</time></trkpt>
        <trkpt lat="29.540066" lon="103.332132"><ele>2437.2107</ele><time>2026-07-02T09:12:36.000Z</time></trkpt>
        <trkpt lat="29.540026" lon="103.332161"><ele>2436.7866</ele><time>2026-07-02T09:12:43.000Z</time></trkpt>
        <trkpt lat="29.539989" lon="103.332191"><ele>2436.4023</ele><time>2026-07-02T09:12:48.000Z</time></trkpt>
        <trkpt lat="29.539942" lon="103.332213"><ele>2436.441</ele><time>2026-07-02T09:12:53.000Z</time></trkpt>
        <trkpt lat="29.539896" lon="103.332237"><ele>2436.146</ele><time>2026-07-02T09:12:58.000Z</time></trkpt>
        <trkpt lat="29.539853" lon="103.332259"><ele>2436.8472</ele><time>2026-07-02T09:13:03.000Z</time></trkpt>
        <trkpt lat="29.539817" lon="103.332295"><ele>2437.015</ele><time>2026-07-02T09:13:09.000Z</time></trkpt>
        <trkpt lat="29.539772" lon="103.332328"><ele>2436.797</ele><time>2026-07-02T09:13:15.000Z</time></trkpt>
        <trkpt lat="29.539722" lon="103.332353"><ele>2437.5247</ele><time>2026-07-02T09:13:23.000Z</time></trkpt>
        <trkpt lat="29.539674" lon="103.332371"><ele>2439.0674</ele><time>2026-07-02T09:13:32.000Z</time></trkpt>
        <trkpt lat="29.539633" lon="103.332402"><ele>2439.0933</ele><time>2026-07-02T09:13:43.000Z</time></trkpt>
        <trkpt lat="29.539599" lon="103.332436"><ele>2440.5696</ele><time>2026-07-02T09:13:59.000Z</time></trkpt>
        <trkpt lat="29.539576" lon="103.332483"><ele>2444.1392</ele><time>2026-07-02T09:14:08.000Z</time></trkpt>
        <trkpt lat="29.539535" lon="103.332506"><ele>2446.0007</ele><time>2026-07-02T09:14:20.000Z</time></trkpt>
        <trkpt lat="29.539498" lon="103.332544"><ele>2445.8835</ele><time>2026-07-02T09:14:30.000Z</time></trkpt>
        <trkpt lat="29.539461" lon="103.332576"><ele>2446.2278</ele><time>2026-07-02T09:14:42.000Z</time></trkpt>
        <trkpt lat="29.539419" lon="103.332609"><ele>2447.3982</ele><time>2026-07-02T09:14:52.000Z</time></trkpt>
        <trkpt lat="29.539388" lon="103.332649"><ele>2447.0894</ele><time>2026-07-02T09:14:58.000Z</time></trkpt>
        <trkpt lat="29.539343" lon="103.332672"><ele>2449.1855</ele><time>2026-07-02T09:15:09.000Z</time></trkpt>
        <trkpt lat="29.539307" lon="103.332706"><ele>2448.995</ele><time>2026-07-02T09:15:16.000Z</time></trkpt>
        <trkpt lat="29.539276" lon="103.332745"><ele>2449.211</ele><time>2026-07-02T09:15:25.000Z</time></trkpt>
        <trkpt lat="29.539238" lon="103.332777"><ele>2450.2727</ele><time>2026-07-02T09:15:32.000Z</time></trkpt>
        <trkpt lat="29.539193" lon="103.332795"><ele>2450.1475</ele><time>2026-07-02T09:15:41.000Z</time></trkpt>
        <trkpt lat="29.539147" lon="103.332801"><ele>2451.2231</ele><time>2026-07-02T09:15:47.000Z</time></trkpt>
        <trkpt lat="29.53911" lon="103.332841"><ele>2450.3088</ele><time>2026-07-02T09:15:53.000Z</time></trkpt>
        <trkpt lat="29.539076" lon="103.332875"><ele>2451.4006</ele><time>2026-07-02T09:15:58.000Z</time></trkpt>
        <trkpt lat="29.539039" lon="103.332906"><ele>2449.9768</ele><time>2026-07-02T09:16:06.000Z</time></trkpt>
        <trkpt lat="29.539003" lon="103.332946"><ele>2450.5522</ele><time>2026-07-02T09:16:14.000Z</time></trkpt>
        <trkpt lat="29.538957" lon="103.332982"><ele>2450.3733</ele><time>2026-07-02T09:16:19.000Z</time></trkpt>
        <trkpt lat="29.538912" lon="103.332994"><ele>2450.533</ele><time>2026-07-02T09:16:24.000Z</time></trkpt>
        <trkpt lat="29.538866" lon="103.33302"><ele>2449.1382</ele><time>2026-07-02T09:16:30.000Z</time></trkpt>
        <trkpt lat="29.538819" lon="103.333042"><ele>2450.2234</ele><time>2026-07-02T09:16:36.000Z</time></trkpt>
        <trkpt lat="29.538774" lon="103.333055"><ele>2452.2732</ele><time>2026-07-02T09:16:42.000Z</time></trkpt>
        <trkpt lat="29.538731" lon="103.333078"><ele>2454.3506</ele><time>2026-07-02T09:16:49.000Z</time></trkpt>
        <trkpt lat="29.538688" lon="103.333107"><ele>2455.397</ele><time>2026-07-02T09:16:56.000Z</time></trkpt>
        <trkpt lat="29.53864" lon="103.333125"><ele>2455.5593</ele><time>2026-07-02T09:17:03.000Z</time></trkpt>
        <trkpt lat="29.53859" lon="103.333137"><ele>2457.6033</ele><time>2026-07-02T09:17:10.000Z</time></trkpt>
        <trkpt lat="29.53854" lon="103.333155"><ele>2458.2195</ele><time>2026-07-02T09:17:18.000Z</time></trkpt>
        <trkpt lat="29.538491" lon="103.333152"><ele>2459.0647</ele><time>2026-07-02T09:17:26.000Z</time></trkpt>
        <trkpt lat="29.538442" lon="103.333155"><ele>2458.1362</ele><time>2026-07-02T09:17:32.000Z</time></trkpt>
        <trkpt lat="29.538393" lon="103.333166"><ele>2458.7473</ele><time>2026-07-02T09:17:39.000Z</time></trkpt>
        <trkpt lat="29.538348" lon="103.333173"><ele>2458.314</ele><time>2026-07-02T09:17:46.000Z</time></trkpt>
        <trkpt lat="29.538308" lon="103.33321"><ele>2458.991</ele><time>2026-07-02T09:17:54.000Z</time></trkpt>
        <trkpt lat="29.538268" lon="103.333235"><ele>2458.0984</ele><time>2026-07-02T09:17:58.000Z</time></trkpt>
        <trkpt lat="29.538225" lon="103.333268"><ele>2458.626</ele><time>2026-07-02T09:18:04.000Z</time></trkpt>
        <trkpt lat="29.538181" lon="103.333293"><ele>2460.3564</ele><time>2026-07-02T09:18:11.000Z</time></trkpt>
        <trkpt lat="29.538134" lon="103.333327"><ele>2460.4805</ele><time>2026-07-02T09:18:17.000Z</time></trkpt>
        <trkpt lat="29.538096" lon="103.333361"><ele>2461.0747</ele><time>2026-07-02T09:18:22.000Z</time></trkpt>
        <trkpt lat="29.538052" lon="103.333392"><ele>2460.2734</ele><time>2026-07-02T09:18:28.000Z</time></trkpt>
        <trkpt lat="29.538012" lon="103.333417"><ele>2461.7014</ele><time>2026-07-02T09:18:35.000Z</time></trkpt>
        <trkpt lat="29.537966" lon="103.333435"><ele>2462.943</ele><time>2026-07-02T09:18:40.000Z</time></trkpt>
        <trkpt lat="29.537928" lon="103.333465"><ele>2464.3948</ele><time>2026-07-02T09:18:47.000Z</time></trkpt>
        <trkpt lat="29.537893" lon="103.333498"><ele>2463.6584</ele><time>2026-07-02T09:19:13.000Z</time></trkpt>
        <trkpt lat="29.537853" lon="103.333525"><ele>2464.489</ele><time>2026-07-02T09:19:19.000Z</time></trkpt>
        <trkpt lat="29.537797" lon="103.333539"><ele>2462.0508</ele><time>2026-07-02T09:19:26.000Z</time></trkpt>
        <trkpt lat="29.537761" lon="103.333572"><ele>2461.0295</ele><time>2026-07-02T09:19:34.000Z</time></trkpt>
        <trkpt lat="29.537715" lon="103.333602"><ele>2457.851</ele><time>2026-07-02T09:19:42.000Z</time></trkpt>
        <trkpt lat="29.53768" lon="103.333639"><ele>2458.6543</ele><time>2026-07-02T09:19:49.000Z</time></trkpt>
        <trkpt lat="29.537645" lon="103.333679"><ele>2459.2488</ele><time>2026-07-02T09:19:55.000Z</time></trkpt>
        <trkpt lat="29.53762" lon="103.333732"><ele>2462.9028</ele><time>2026-07-02T09:20:02.000Z</time></trkpt>
        <trkpt lat="29.537587" lon="103.333769"><ele>2463.5676</ele><time>2026-07-02T09:20:09.000Z</time></trkpt>
        <trkpt lat="29.537541" lon="103.333785"><ele>2464.1882</ele><time>2026-07-02T09:20:34.000Z</time></trkpt>
        <trkpt lat="29.537492" lon="103.333752"><ele>2465.815</ele><time>2026-07-02T09:20:45.000Z</time></trkpt>
        <trkpt lat="29.537448" lon="103.333739"><ele>2465.3616</ele><time>2026-07-02T09:20:49.000Z</time></trkpt>
        <trkpt lat="29.5374" lon="103.333727"><ele>2467.9407</ele><time>2026-07-02T09:20:55.000Z</time></trkpt>
        <trkpt lat="29.537347" lon="103.333743"><ele>2470.4158</ele><time>2026-07-02T09:21:04.000Z</time></trkpt>
        <trkpt lat="29.537302" lon="103.333753"><ele>2472.625</ele><time>2026-07-02T09:21:10.000Z</time></trkpt>
        <trkpt lat="29.537255" lon="103.333776"><ele>2472.9614</ele><time>2026-07-02T09:21:22.000Z</time></trkpt>
        <trkpt lat="29.537213" lon="103.333797"><ele>2472.1157</ele><time>2026-07-02T09:21:29.000Z</time></trkpt>
        <trkpt lat="29.537176" lon="103.33383"><ele>2473.447</ele><time>2026-07-02T09:21:36.000Z</time></trkpt>
        <trkpt lat="29.537223" lon="103.333852"><ele>2473.8489</ele><time>2026-07-02T09:21:51.000Z</time></trkpt>
        <trkpt lat="29.537164" lon="103.333833"><ele>2474.474</ele><time>2026-07-02T09:21:57.000Z</time></trkpt>
        <trkpt lat="29.537165" lon="103.333971"><ele>2474.5005</ele><time>2026-07-02T09:22:13.000Z</time></trkpt>
        <trkpt lat="29.537162" lon="103.333908"><ele>2476.401</ele><time>2026-07-02T09:22:29.000Z</time></trkpt>
        <trkpt lat="29.537177" lon="103.333851"><ele>2476.4614</ele><time>2026-07-02T09:22:35.000Z</time></trkpt>
        <trkpt lat="29.537266" lon="103.333883"><ele>2476.3262</ele><time>2026-07-02T09:23:00.000Z</time></trkpt>
        <trkpt lat="29.537199" lon="103.333868"><ele>2471.955</ele><time>2026-07-02T09:23:07.000Z</time></trkpt>
        <trkpt lat="29.537215" lon="103.333924"><ele>2472.553</ele><time>2026-07-02T09:23:17.000Z</time></trkpt>
        <trkpt lat="29.537244" lon="103.33397"><ele>2472.5469</ele><time>2026-07-02T09:23:27.000Z</time></trkpt>
        <trkpt lat="29.537236" lon="103.334032"><ele>2473.0642</ele><time>2026-07-02T09:23:36.000Z</time></trkpt>
        <trkpt lat="29.537208" lon="103.334079"><ele>2473.6838</ele><time>2026-07-02T09:23:44.000Z</time></trkpt>
        <trkpt lat="29.537167" lon="103.334101"><ele>2475.9766</ele><time>2026-07-02T09:23:59.000Z</time></trkpt>
        <trkpt lat="29.537113" lon="103.33411"><ele>2477.0254</ele><time>2026-07-02T09:24:06.000Z</time></trkpt>
        <trkpt lat="29.537067" lon="103.33413"><ele>2478.0388</ele><time>2026-07-02T09:24:12.000Z</time></trkpt>
        <trkpt lat="29.537027" lon="103.334156"><ele>2477.978</ele><time>2026-07-02T09:24:21.000Z</time></trkpt>
        <trkpt lat="29.537001" lon="103.334113"><ele>2480.3684</ele><time>2026-07-02T09:24:58.000Z</time></trkpt>
        <trkpt lat="29.536965" lon="103.334202"><ele>2481.7654</ele><time>2026-07-02T09:25:42.000Z</time></trkpt>
        <trkpt lat="29.537041" lon="103.334152"><ele>2480.4475</ele><time>2026-07-02T09:26:52.000Z</time></trkpt>
        <trkpt lat="29.536996" lon="103.334158"><ele>2479.2368</ele><time>2026-07-02T09:27:34.000Z</time></trkpt>
        <trkpt lat="29.536984" lon="103.334215"><ele>2480.3833</ele><time>2026-07-02T09:27:42.000Z</time></trkpt>
        <trkpt lat="29.536951" lon="103.334271"><ele>2481.1313</ele><time>2026-07-02T09:27:49.000Z</time></trkpt>
        <trkpt lat="29.536987" lon="103.334332"><ele>2478.841</ele><time>2026-07-02T09:28:20.000Z</time></trkpt>
        <trkpt lat="29.536997" lon="103.334245"><ele>2479.8813</ele><time>2026-07-02T09:28:41.000Z</time></trkpt>
        <trkpt lat="29.536939" lon="103.334232"><ele>2478.062</ele><time>2026-07-02T09:29:00.000Z</time></trkpt>
        <trkpt lat="29.536902" lon="103.3342"><ele>2485.289</ele><time>2026-07-02T09:29:15.000Z</time></trkpt>
        <trkpt lat="29.536859" lon="103.334217"><ele>2485.9978</ele><time>2026-07-02T09:29:25.000Z</time></trkpt>
        <trkpt lat="29.536815" lon="103.334233"><ele>2486.7546</ele><time>2026-07-02T09:29:35.000Z</time></trkpt>
        <trkpt lat="29.536777" lon="103.334263"><ele>2488.9705</ele><time>2026-07-02T09:29:47.000Z</time></trkpt>
        <trkpt lat="29.536725" lon="103.334289"><ele>2489.41</ele><time>2026-07-02T09:29:52.000Z</time></trkpt>
        <trkpt lat="29.536674" lon="103.334296"><ele>2491.7834</ele><time>2026-07-02T09:29:57.000Z</time></trkpt>
        <trkpt lat="29.536626" lon="103.334301"><ele>2492.8638</ele><time>2026-07-02T09:30:02.000Z</time></trkpt>
        <trkpt lat="29.53658" lon="103.334302"><ele>2490.7214</ele><time>2026-07-02T09:30:08.000Z</time></trkpt>
        <trkpt lat="29.536533" lon="103.334283"><ele>2489.0647</ele><time>2026-07-02T09:30:16.000Z</time></trkpt>
        <trkpt lat="29.536486" lon="103.334279"><ele>2488.5825</ele><time>2026-07-02T09:30:23.000Z</time></trkpt>
        <trkpt lat="29.536438" lon="103.334298"><ele>2487.3408</ele><time>2026-07-02T09:30:30.000Z</time></trkpt>
        <trkpt lat="29.536392" lon="103.334305"><ele>2489.5352</ele><time>2026-07-02T09:30:41.000Z</time></trkpt>
        <trkpt lat="29.536337" lon="103.33432"><ele>2487.705</ele><time>2026-07-02T09:30:51.000Z</time></trkpt>
        <trkpt lat="29.53629" lon="103.334302"><ele>2490.2554</ele><time>2026-07-02T09:31:04.000Z</time></trkpt>
        <trkpt lat="29.536232" lon="103.334285"><ele>2489.0647</ele><time>2026-07-02T09:31:12.000Z</time></trkpt>
        <trkpt lat="29.536175" lon="103.334284"><ele>2488.074</ele><time>2026-07-02T09:31:16.000Z</time></trkpt>
        <trkpt lat="29.536134" lon="103.334256"><ele>2489.6643</ele><time>2026-07-02T09:31:25.000Z</time></trkpt>
        <trkpt lat="29.536088" lon="103.33423"><ele>2491.195</ele><time>2026-07-02T09:31:35.000Z</time></trkpt>
        <trkpt lat="29.536057" lon="103.334185"><ele>2493.9634</ele><time>2026-07-02T09:31:47.000Z</time></trkpt>
        <trkpt lat="29.536014" lon="103.334147"><ele>2495.5989</ele><time>2026-07-02T09:32:02.000Z</time></trkpt>
        <trkpt lat="29.53597" lon="103.334119"><ele>2496.383</ele><time>2026-07-02T09:32:14.000Z</time></trkpt>
        <trkpt lat="29.53593" lon="103.33409"><ele>2498.6382</ele><time>2026-07-02T09:32:25.000Z</time></trkpt>
        <trkpt lat="29.535885" lon="103.334075"><ele>2501.0442</ele><time>2026-07-02T09:32:33.000Z</time></trkpt>
        <trkpt lat="29.535844" lon="103.334053"><ele>2503.9932</ele><time>2026-07-02T09:32:38.000Z</time></trkpt>
        <trkpt lat="29.5358" lon="103.334034"><ele>2505.8262</ele><time>2026-07-02T09:32:45.000Z</time></trkpt>
        <trkpt lat="29.535759" lon="103.334013"><ele>2507.644</ele><time>2026-07-02T09:32:53.000Z</time></trkpt>
        <trkpt lat="29.53572" lon="103.333986"><ele>2508.2432</ele><time>2026-07-02T09:32:59.000Z</time></trkpt>
        <trkpt lat="29.535681" lon="103.333956"><ele>2510.41</ele><time>2026-07-02T09:33:09.000Z</time></trkpt>
        <trkpt lat="29.535643" lon="103.333916"><ele>2509.6501</ele><time>2026-07-02T09:33:22.000Z</time></trkpt>
        <trkpt lat="29.535623" lon="103.333869"><ele>2511.1619</ele><time>2026-07-02T09:33:42.000Z</time></trkpt>
        <trkpt lat="29.535598" lon="103.333826"><ele>2510.3914</ele><time>2026-07-02T09:33:53.000Z</time></trkpt>
        <trkpt lat="29.535574" lon="103.33378"><ele>2511.858</ele><time>2026-07-02T09:34:06.000Z</time></trkpt>
        <trkpt lat="29.535532" lon="103.333759"><ele>2510.837</ele><time>2026-07-02T09:34:19.000Z</time></trkpt>
        <trkpt lat="29.535499" lon="103.333723"><ele>2511.9543</ele><time>2026-07-02T09:34:25.000Z</time></trkpt>
        <trkpt lat="29.535451" lon="103.333687"><ele>2512.2554</ele><time>2026-07-02T09:34:32.000Z</time></trkpt>
        <trkpt lat="29.535433" lon="103.333638"><ele>2513.192</ele><time>2026-07-02T09:34:38.000Z</time></trkpt>
        <trkpt lat="29.535408" lon="103.33359"><ele>2513.368</ele><time>2026-07-02T09:34:44.000Z</time></trkpt>
        <trkpt lat="29.535395" lon="103.333535"><ele>2513.1685</ele><time>2026-07-02T09:35:00.000Z</time></trkpt>
        <trkpt lat="29.535407" lon="103.333484"><ele>2513.7136</ele><time>2026-07-02T09:35:05.000Z</time></trkpt>
        <trkpt lat="29.535406" lon="103.33343"><ele>2512.9514</ele><time>2026-07-02T09:35:10.000Z</time></trkpt>
        <trkpt lat="29.5354" lon="103.333376"><ele>2513.501</ele><time>2026-07-02T09:35:15.000Z</time></trkpt>
        <trkpt lat="29.5354" lon="103.333317"><ele>2513.1157</ele><time>2026-07-02T09:35:21.000Z</time></trkpt>
        <trkpt lat="29.535404" lon="103.333266"><ele>2514.3335</ele><time>2026-07-02T09:35:26.000Z</time></trkpt>
        <trkpt lat="29.535422" lon="103.333217"><ele>2513.6365</ele><time>2026-07-02T09:36:01.000Z</time></trkpt>
        <trkpt lat="29.535407" lon="103.333168"><ele>2512.645</ele><time>2026-07-02T09:36:07.000Z</time></trkpt>
        <trkpt lat="29.535406" lon="103.333115"><ele>2514.0562</ele><time>2026-07-02T09:36:13.000Z</time></trkpt>
        <trkpt lat="29.535415" lon="103.333061"><ele>2515.3296</ele><time>2026-07-02T09:36:19.000Z</time></trkpt>
        <trkpt lat="29.535403" lon="103.333006"><ele>2514.037</ele><time>2026-07-02T09:36:25.000Z</time></trkpt>
        <trkpt lat="29.53537" lon="103.332965"><ele>2514.0146</ele><time>2026-07-02T09:36:30.000Z</time></trkpt>
        <trkpt lat="29.53534" lon="103.332915"><ele>2515.305</ele><time>2026-07-02T09:36:36.000Z</time></trkpt>
        <trkpt lat="29.535317" lon="103.332865"><ele>2516.4958</ele><time>2026-07-02T09:36:42.000Z</time></trkpt>
        <trkpt lat="29.53528" lon="103.332826"><ele>2516.6326</ele><time>2026-07-02T09:36:48.000Z</time></trkpt>
        <trkpt lat="29.535243" lon="103.332795"><ele>2515.9055</ele><time>2026-07-02T09:36:54.000Z</time></trkpt>
        <trkpt lat="29.535207" lon="103.332757"><ele>2516.0195</ele><time>2026-07-02T09:37:01.000Z</time></trkpt>
        <trkpt lat="29.535163" lon="103.332714"><ele>2516.3398</ele><time>2026-07-02T09:37:07.000Z</time></trkpt>
        <trkpt lat="29.535132" lon="103.332669"><ele>2517.243</ele><time>2026-07-02T09:37:12.000Z</time></trkpt>
        <trkpt lat="29.53512" lon="103.332619"><ele>2517.9275</ele><time>2026-07-02T09:37:19.000Z</time></trkpt>
        <trkpt lat="29.535103" lon="103.332564"><ele>2518.52</ele><time>2026-07-02T09:37:24.000Z</time></trkpt>
        <trkpt lat="29.535098" lon="103.332509"><ele>2518.406</ele><time>2026-07-02T09:37:30.000Z</time></trkpt>
        <trkpt lat="29.53509" lon="103.332453"><ele>2518.0508</ele><time>2026-07-02T09:37:36.000Z</time></trkpt>
        <trkpt lat="29.535084" lon="103.332398"><ele>2518.762</ele><time>2026-07-02T09:37:42.000Z</time></trkpt>
        <trkpt lat="29.535083" lon="103.332343"><ele>2517.5725</ele><time>2026-07-02T09:37:49.000Z</time></trkpt>
        <trkpt lat="29.53507" lon="103.332284"><ele>2518.587</ele><time>2026-07-02T09:37:56.000Z</time></trkpt>
        <trkpt lat="29.535072" lon="103.33222"><ele>2519.0713</ele><time>2026-07-02T09:38:02.000Z</time></trkpt>
        <trkpt lat="29.535068" lon="103.332166"><ele>2519.2898</ele><time>2026-07-02T09:38:07.000Z</time></trkpt>
        <trkpt lat="29.535061" lon="103.332106"><ele>2518.2332</ele><time>2026-07-02T09:38:13.000Z</time></trkpt>
        <trkpt lat="29.535056" lon="103.332054"><ele>2518.2708</ele><time>2026-07-02T09:38:18.000Z</time></trkpt>
        <trkpt lat="29.535046" lon="103.331998"><ele>2520.5608</ele><time>2026-07-02T09:38:24.000Z</time></trkpt>
        <trkpt lat="29.53504" lon="103.331947"><ele>2520.8652</ele><time>2026-07-02T09:38:30.000Z</time></trkpt>
        <trkpt lat="29.535026" lon="103.331892"><ele>2520.973</ele><time>2026-07-02T09:38:36.000Z</time></trkpt>
        <trkpt lat="29.535035" lon="103.331841"><ele>2518.4753</ele><time>2026-07-02T09:38:40.000Z</time></trkpt>
        <trkpt lat="29.535039" lon="103.331789"><ele>2519.7766</ele><time>2026-07-02T09:38:45.000Z</time></trkpt>
        <trkpt lat="29.535025" lon="103.331737"><ele>2519.3633</ele><time>2026-07-02T09:38:50.000Z</time></trkpt>
        <trkpt lat="29.535006" lon="103.331676"><ele>2519.488</ele><time>2026-07-02T09:38:56.000Z</time></trkpt>
        <trkpt lat="29.535004" lon="103.331622"><ele>2520.7632</ele><time>2026-07-02T09:39:01.000Z</time></trkpt>
        <trkpt lat="29.53499" lon="103.331563"><ele>2520.7656</ele><time>2026-07-02T09:39:07.000Z</time></trkpt>
        <trkpt lat="29.534983" lon="103.331505"><ele>2519.0474</ele><time>2026-07-02T09:39:13.000Z</time></trkpt>
        <trkpt lat="29.534964" lon="103.331457"><ele>2520.2917</ele><time>2026-07-02T09:39:18.000Z</time></trkpt>
        <trkpt lat="29.534937" lon="103.331413"><ele>2520.7295</ele><time>2026-07-02T09:39:23.000Z</time></trkpt>
        <trkpt lat="29.534897" lon="103.331373"><ele>2522.118</ele><time>2026-07-02T09:39:29.000Z</time></trkpt>
        <trkpt lat="29.53485" lon="103.331367"><ele>2520.9312</ele><time>2026-07-02T09:39:35.000Z</time></trkpt>
        <trkpt lat="29.534804" lon="103.331376"><ele>2521.1216</ele><time>2026-07-02T09:39:41.000Z</time></trkpt>
        <trkpt lat="29.534764" lon="103.331402"><ele>2522.118</ele><time>2026-07-02T09:39:47.000Z</time></trkpt>
        <trkpt lat="29.534745" lon="103.331449"><ele>2523.16</ele><time>2026-07-02T09:39:55.000Z</time></trkpt>
        <trkpt lat="29.534726" lon="103.331502"><ele>2524.927</ele><time>2026-07-02T09:40:02.000Z</time></trkpt>
        <trkpt lat="29.534725" lon="103.331563"><ele>2527.0715</ele><time>2026-07-02T09:40:08.000Z</time></trkpt>
        <trkpt lat="29.534722" lon="103.331618"><ele>2527.4604</ele><time>2026-07-02T09:40:13.000Z</time></trkpt>
        <trkpt lat="29.534735" lon="103.331679"><ele>2527.5342</ele><time>2026-07-02T09:40:19.000Z</time></trkpt>
        <trkpt lat="29.534735" lon="103.331739"><ele>2526.0046</ele><time>2026-07-02T09:40:25.000Z</time></trkpt>
        <trkpt lat="29.53475" lon="103.331795"><ele>2526.1255</ele><time>2026-07-02T09:40:31.000Z</time></trkpt>
        <trkpt lat="29.534752" lon="103.331857"><ele>2526.3574</ele><time>2026-07-02T09:40:37.000Z</time></trkpt>
        <trkpt lat="29.534756" lon="103.331915"><ele>2525.9941</ele><time>2026-07-02T09:40:43.000Z</time></trkpt>
        <trkpt lat="29.534758" lon="103.331976"><ele>2526.1636</ele><time>2026-07-02T09:40:48.000Z</time></trkpt>
        <trkpt lat="29.534767" lon="103.33203"><ele>2527.1665</ele><time>2026-07-02T09:40:56.000Z</time></trkpt>
        <trkpt lat="29.534755" lon="103.332086"><ele>2527.0718</ele><time>2026-07-02T09:41:02.000Z</time></trkpt>
        <trkpt lat="29.534738" lon="103.332135"><ele>2527.4644</ele><time>2026-07-02T09:41:07.000Z</time></trkpt>
        <trkpt lat="29.534715" lon="103.33219"><ele>2525.6028</ele><time>2026-07-02T09:41:14.000Z</time></trkpt>
        <trkpt lat="29.534702" lon="103.332242"><ele>2525.7136</ele><time>2026-07-02T09:41:20.000Z</time></trkpt>
        <trkpt lat="29.534695" lon="103.332293"><ele>2529.1833</ele><time>2026-07-02T09:41:26.000Z</time></trkpt>
        <trkpt lat="29.534692" lon="103.332353"><ele>2532.457</ele><time>2026-07-02T09:41:32.000Z</time></trkpt>
        <trkpt lat="29.534693" lon="103.332413"><ele>2531.3425</ele><time>2026-07-02T09:41:37.000Z</time></trkpt>
        <trkpt lat="29.534708" lon="103.332472"><ele>2530.9355</ele><time>2026-07-02T09:41:42.000Z</time></trkpt>
        <trkpt lat="29.534717" lon="103.332525"><ele>2530.1643</ele><time>2026-07-02T09:41:47.000Z</time></trkpt>
        <trkpt lat="29.534727" lon="103.332582"><ele>2530.681</ele><time>2026-07-02T09:41:53.000Z</time></trkpt>
        <trkpt lat="29.534737" lon="103.33264"><ele>2530.8997</ele><time>2026-07-02T09:42:01.000Z</time></trkpt>
        <trkpt lat="29.534748" lon="103.332694"><ele>2530.9475</ele><time>2026-07-02T09:42:06.000Z</time></trkpt>
        <trkpt lat="29.53478" lon="103.332741"><ele>2532.9539</ele><time>2026-07-02T09:42:12.000Z</time></trkpt>
        <trkpt lat="29.534798" lon="103.332789"><ele>2532.2405</ele><time>2026-07-02T09:42:17.000Z</time></trkpt>
        <trkpt lat="29.534824" lon="103.332842"><ele>2533.2224</ele><time>2026-07-02T09:42:23.000Z</time></trkpt>
        <trkpt lat="29.534844" lon="103.332891"><ele>2533.816</ele><time>2026-07-02T09:42:30.000Z</time></trkpt>
        <trkpt lat="29.534805" lon="103.332921"><ele>2533.829</ele><time>2026-07-02T09:42:43.000Z</time></trkpt>
        <trkpt lat="29.534762" lon="103.332905"><ele>2538.521</ele><time>2026-07-02T09:42:54.000Z</time></trkpt>
        <trkpt lat="29.53472" lon="103.332929"><ele>2539.4863</ele><time>2026-07-02T09:43:11.000Z</time></trkpt>
        <trkpt lat="29.534678" lon="103.332959"><ele>2540.0613</ele><time>2026-07-02T09:43:22.000Z</time></trkpt>
        <trkpt lat="29.534632" lon="103.332974"><ele>2541.9043</ele><time>2026-07-02T09:43:38.000Z</time></trkpt>
        <trkpt lat="29.534589" lon="103.332995"><ele>2541.3489</ele><time>2026-07-02T09:43:46.000Z</time></trkpt>
        <trkpt lat="29.534543" lon="103.333005"><ele>2544.532</ele><time>2026-07-02T09:43:56.000Z</time></trkpt>
        <trkpt lat="29.534498" lon="103.333037"><ele>2545.0027</ele><time>2026-07-02T09:44:09.000Z</time></trkpt>
        <trkpt lat="29.534453" lon="103.333063"><ele>2548.08</ele><time>2026-07-02T09:44:20.000Z</time></trkpt>
        <trkpt lat="29.534402" lon="103.333073"><ele>2548.9473</ele><time>2026-07-02T09:44:30.000Z</time></trkpt>
        <trkpt lat="29.534364" lon="103.333105"><ele>2552.84</ele><time>2026-07-02T09:44:48.000Z</time></trkpt>
        <trkpt lat="29.534323" lon="103.333082"><ele>2553.916</ele><time>2026-07-02T09:45:03.000Z</time></trkpt>
        <trkpt lat="29.534275" lon="103.333074"><ele>2553.9963</ele><time>2026-07-02T09:45:16.000Z</time></trkpt>
        <trkpt lat="29.534227" lon="103.333087"><ele>2553.9592</ele><time>2026-07-02T09:45:32.000Z</time></trkpt>
        <trkpt lat="29.534181" lon="103.333094"><ele>2557.9556</ele><time>2026-07-02T09:45:46.000Z</time></trkpt>
        <trkpt lat="29.534136" lon="103.333097"><ele>2560.315</ele><time>2026-07-02T09:45:58.000Z</time></trkpt>
        <trkpt lat="29.534104" lon="103.333136"><ele>2562.2214</ele><time>2026-07-02T09:46:11.000Z</time></trkpt>
        <trkpt lat="29.534057" lon="103.333143"><ele>2562.73</ele><time>2026-07-02T09:46:19.000Z</time></trkpt>
        <trkpt lat="29.534011" lon="103.333159"><ele>2562.6187</ele><time>2026-07-02T09:46:24.000Z</time></trkpt>
        <trkpt lat="29.53399" lon="103.333112"><ele>2562.7153</ele><time>2026-07-02T09:46:41.000Z</time></trkpt>
        <trkpt lat="29.534035" lon="103.333117"><ele>2563.5784</ele><time>2026-07-02T09:46:47.000Z</time></trkpt>
        <trkpt lat="29.534011" lon="103.333069"><ele>2563.2815</ele><time>2026-07-02T09:48:06.000Z</time></trkpt>
        <trkpt lat="29.533968" lon="103.333053"><ele>2566.5586</ele><time>2026-07-02T09:49:16.000Z</time></trkpt>
        <trkpt lat="29.534013" lon="103.333049"><ele>2567.9272</ele><time>2026-07-02T09:51:51.000Z</time></trkpt>
        <trkpt lat="29.533996" lon="103.333103"><ele>2556.614</ele><time>2026-07-02T09:54:09.000Z</time></trkpt>
        <trkpt lat="29.533967" lon="103.333143"><ele>2554.4353</ele><time>2026-07-02T09:54:15.000Z</time></trkpt>
        <trkpt lat="29.533974" lon="103.333197"><ele>2561.0552</ele><time>2026-07-02T09:54:22.000Z</time></trkpt>
        <trkpt lat="29.533926" lon="103.333204"><ele>2567.101</ele><time>2026-07-02T09:54:30.000Z</time></trkpt>
        <trkpt lat="29.533886" lon="103.333173"><ele>2568.6738</ele><time>2026-07-02T09:54:41.000Z</time></trkpt>
        <trkpt lat="29.533852" lon="103.333135"><ele>2570.742</ele><time>2026-07-02T09:54:55.000Z</time></trkpt>
        <trkpt lat="29.533812" lon="103.333105"><ele>2570.4753</ele><time>2026-07-02T09:55:04.000Z</time></trkpt>
        <trkpt lat="29.533769" lon="103.333087"><ele>2572.556</ele><time>2026-07-02T09:55:21.000Z</time></trkpt>
        <trkpt lat="29.533734" lon="103.333052"><ele>2574.7532</ele><time>2026-07-02T09:55:37.000Z</time></trkpt>
        <trkpt lat="29.53369" lon="103.333037"><ele>2575.529</ele><time>2026-07-02T09:55:48.000Z</time></trkpt>
        <trkpt lat="29.533673" lon="103.332988"><ele>2582.1594</ele><time>2026-07-02T09:56:03.000Z</time></trkpt>
        <trkpt lat="29.533645" lon="103.332945"><ele>2580.994</ele><time>2026-07-02T09:56:15.000Z</time></trkpt>
        <trkpt lat="29.533599" lon="103.332928"><ele>2583.3608</ele><time>2026-07-02T09:56:28.000Z</time></trkpt>
        <trkpt lat="29.533561" lon="103.332893"><ele>2586.4004</ele><time>2026-07-02T09:56:42.000Z</time></trkpt>
        <trkpt lat="29.533518" lon="103.332869"><ele>2584.806</ele><time>2026-07-02T09:56:58.000Z</time></trkpt>
        <trkpt lat="29.533497" lon="103.332822"><ele>2587.8315</ele><time>2026-07-02T09:57:09.000Z</time></trkpt>
        <trkpt lat="29.533462" lon="103.332785"><ele>2589.5957</ele><time>2026-07-02T09:57:24.000Z</time></trkpt>
        <trkpt lat="29.533424" lon="103.332755"><ele>2592.256</ele><time>2026-07-02T09:57:37.000Z</time></trkpt>
        <trkpt lat="29.533377" lon="103.332734"><ele>2596.8726</ele><time>2026-07-02T09:57:51.000Z</time></trkpt>
        <trkpt lat="29.533338" lon="103.332696"><ele>2598.8735</ele><time>2026-07-02T09:58:01.000Z</time></trkpt>
        <trkpt lat="29.533293" lon="103.33268"><ele>2600.6968</ele><time>2026-07-02T09:58:18.000Z</time></trkpt>
        <trkpt lat="29.533247" lon="103.332657"><ele>2596.6719</ele><time>2026-07-02T09:58:37.000Z</time></trkpt>
        <trkpt lat="29.53322" lon="103.332615"><ele>2603.1968</ele><time>2026-07-02T09:58:47.000Z</time></trkpt>
        <trkpt lat="29.533181" lon="103.332585"><ele>2604.957</ele><time>2026-07-02T09:59:02.000Z</time></trkpt>
        <trkpt lat="29.533146" lon="103.332551"><ele>2606</ele><time>2026-07-02T09:59:14.000Z</time></trkpt>
        <trkpt lat="29.53311" lon="103.332517"><ele>2605.65</ele><time>2026-07-02T09:59:29.000Z</time></trkpt>
        <trkpt lat="29.533082" lon="103.332475"><ele>2609.2014</ele><time>2026-07-02T09:59:40.000Z</time></trkpt>
        <trkpt lat="29.533048" lon="103.332439"><ele>2610.9133</ele><time>2026-07-02T09:59:53.000Z</time></trkpt>
        <trkpt lat="29.533013" lon="103.332405"><ele>2610.1523</ele><time>2026-07-02T10:00:03.000Z</time></trkpt>
        <trkpt lat="29.532977" lon="103.332366"><ele>2614.295</ele><time>2026-07-02T10:00:12.000Z</time></trkpt>
        <trkpt lat="29.532943" lon="103.332331"><ele>2614.1013</ele><time>2026-07-02T10:00:26.000Z</time></trkpt>
        <trkpt lat="29.532898" lon="103.332306"><ele>2613.3135</ele><time>2026-07-02T10:00:37.000Z</time></trkpt>
        <trkpt lat="29.532878" lon="103.332251"><ele>2613.5867</ele><time>2026-07-02T10:00:51.000Z</time></trkpt>
        <trkpt lat="29.532844" lon="103.332209"><ele>2616.2256</ele><time>2026-07-02T10:01:06.000Z</time></trkpt>
        <trkpt lat="29.532816" lon="103.332166"><ele>2617.9587</ele><time>2026-07-02T10:01:20.000Z</time></trkpt>
        <trkpt lat="29.532767" lon="103.33214"><ele>2617.2925</ele><time>2026-07-02T10:01:31.000Z</time></trkpt>
        <trkpt lat="29.532744" lon="103.332093"><ele>2619.995</ele><time>2026-07-02T10:01:42.000Z</time></trkpt>
        <trkpt lat="29.532719" lon="103.33205"><ele>2621.8442</ele><time>2026-07-02T10:01:57.000Z</time></trkpt>
        <trkpt lat="29.532738" lon="103.332001"><ele>2622.563</ele><time>2026-07-02T10:02:05.000Z</time></trkpt>
        <trkpt lat="29.532783" lon="103.332021"><ele>2624.6724</ele><time>2026-07-02T10:03:13.000Z</time></trkpt>
        <trkpt lat="29.532735" lon="103.332012"><ele>2622.332</ele><time>2026-07-02T10:08:46.000Z</time></trkpt>
        <trkpt lat="29.532688" lon="103.331999"><ele>2626.702</ele><time>2026-07-02T10:09:10.000Z</time></trkpt>
        <trkpt lat="29.532648" lon="103.331964"><ele>2625.5088</ele><time>2026-07-02T10:09:25.000Z</time></trkpt>
        <trkpt lat="29.532635" lon="103.331913"><ele>2627.515</ele><time>2026-07-02T10:09:36.000Z</time></trkpt>
        <trkpt lat="29.53261" lon="103.331859"><ele>2628.6409</ele><time>2026-07-02T10:09:46.000Z</time></trkpt>
        <trkpt lat="29.532592" lon="103.33181"><ele>2632.1948</ele><time>2026-07-02T10:10:02.000Z</time></trkpt>
        <trkpt lat="29.532564" lon="103.331766"><ele>2633.825</ele><time>2026-07-02T10:10:16.000Z</time></trkpt>
        <trkpt lat="29.532546" lon="103.331718"><ele>2636.7532</ele><time>2026-07-02T10:10:30.000Z</time></trkpt>
        <trkpt lat="29.532555" lon="103.331665"><ele>2639.8635</ele><time>2026-07-02T10:10:45.000Z</time></trkpt>
        <trkpt lat="29.532516" lon="103.331637"><ele>2642.7346</ele><time>2026-07-02T10:11:01.000Z</time></trkpt>
        <trkpt lat="29.532497" lon="103.331587"><ele>2644.8984</ele><time>2026-07-02T10:11:17.000Z</time></trkpt>
        <trkpt lat="29.532489" lon="103.331536"><ele>2648.463</ele><time>2026-07-02T10:11:29.000Z</time></trkpt>
        <trkpt lat="29.532451" lon="103.331507"><ele>2648.4998</ele><time>2026-07-02T10:11:37.000Z</time></trkpt>
        <trkpt lat="29.532437" lon="103.331457"><ele>2650.5073</ele><time>2026-07-02T10:11:52.000Z</time></trkpt>
        <trkpt lat="29.532438" lon="103.331404"><ele>2652.9685</ele><time>2026-07-02T10:12:06.000Z</time></trkpt>
        <trkpt lat="29.532429" lon="103.331352"><ele>2653.109</ele><time>2026-07-02T10:12:19.000Z</time></trkpt>
        <trkpt lat="29.532418" lon="103.331301"><ele>2655.1638</ele><time>2026-07-02T10:12:38.000Z</time></trkpt>
        <trkpt lat="29.532382" lon="103.331266"><ele>2655.223</ele><time>2026-07-02T10:12:48.000Z</time></trkpt>
        <trkpt lat="29.532367" lon="103.331216"><ele>2656.665</ele><time>2026-07-02T10:13:03.000Z</time></trkpt>
        <trkpt lat="29.532342" lon="103.331172"><ele>2656.4026</ele><time>2026-07-02T10:13:16.000Z</time></trkpt>
        <trkpt lat="29.532298" lon="103.331187"><ele>2657.343</ele><time>2026-07-02T10:13:27.000Z</time></trkpt>
        <trkpt lat="29.532268" lon="103.331232"><ele>2659.3547</ele><time>2026-07-02T10:13:41.000Z</time></trkpt>
        <trkpt lat="29.532239" lon="103.331273"><ele>2658.614</ele><time>2026-07-02T10:13:51.000Z</time></trkpt>
        <trkpt lat="29.532207" lon="103.331317"><ele>2660.9453</ele><time>2026-07-02T10:14:01.000Z</time></trkpt>
        <trkpt lat="29.532199" lon="103.331371"><ele>2662.64</ele><time>2026-07-02T10:14:11.000Z</time></trkpt>
        <trkpt lat="29.532176" lon="103.331322"><ele>2667.7087</ele><time>2026-07-02T10:14:41.000Z</time></trkpt>
        <trkpt lat="29.532186" lon="103.33127"><ele>2671.2502</ele><time>2026-07-02T10:14:52.000Z</time></trkpt>
        <trkpt lat="29.532186" lon="103.331218"><ele>2672.062</ele><time>2026-07-02T10:15:03.000Z</time></trkpt>
        <trkpt lat="29.532164" lon="103.331164"><ele>2671.7056</ele><time>2026-07-02T10:15:15.000Z</time></trkpt>
        <trkpt lat="29.532178" lon="103.331103"><ele>2672.469</ele><time>2026-07-02T10:15:28.000Z</time></trkpt>
        <trkpt lat="29.532176" lon="103.33105"><ele>2674.7993</ele><time>2026-07-02T10:15:39.000Z</time></trkpt>
        <trkpt lat="29.532181" lon="103.330999"><ele>2675.997</ele><time>2026-07-02T10:15:50.000Z</time></trkpt>
        <trkpt lat="29.532188" lon="103.330944"><ele>2677.278</ele><time>2026-07-02T10:16:00.000Z</time></trkpt>
        <trkpt lat="29.532182" lon="103.330891"><ele>2677.483</ele><time>2026-07-02T10:16:11.000Z</time></trkpt>
        <trkpt lat="29.532141" lon="103.330864"><ele>2676.3667</ele><time>2026-07-02T10:16:14.000Z</time></trkpt>
        <trkpt lat="29.532165" lon="103.330811"><ele>2677.353</ele><time>2026-07-02T10:16:20.000Z</time></trkpt>
        <trkpt lat="29.532156" lon="103.330755"><ele>2676.5098</ele><time>2026-07-02T10:16:27.000Z</time></trkpt>
        <trkpt lat="29.532153" lon="103.330699"><ele>2676.252</ele><time>2026-07-02T10:16:32.000Z</time></trkpt>
        <trkpt lat="29.532155" lon="103.330634"><ele>2676.7688</ele><time>2026-07-02T10:16:40.000Z</time></trkpt>
        <trkpt lat="29.532153" lon="103.330581"><ele>2677.9436</ele><time>2026-07-02T10:16:51.000Z</time></trkpt>
        <trkpt lat="29.532163" lon="103.330531"><ele>2680.3372</ele><time>2026-07-02T10:17:01.000Z</time></trkpt>
        <trkpt lat="29.532169" lon="103.330476"><ele>2682.048</ele><time>2026-07-02T10:17:17.000Z</time></trkpt>
        <trkpt lat="29.532212" lon="103.330446"><ele>2686.015</ele><time>2026-07-02T10:17:32.000Z</time></trkpt>
        <trkpt lat="29.532165" lon="103.330441"><ele>2686.2278</ele><time>2026-07-02T10:17:43.000Z</time></trkpt>
        <trkpt lat="29.532143" lon="103.330389"><ele>2690.4253</ele><time>2026-07-02T10:18:16.000Z</time></trkpt>
        <trkpt lat="29.532154" lon="103.330335"><ele>2693.4893</ele><time>2026-07-02T10:18:33.000Z</time></trkpt>
        <trkpt lat="29.532145" lon="103.330283"><ele>2696.2976</ele><time>2026-07-02T10:18:47.000Z</time></trkpt>
        <trkpt lat="29.532178" lon="103.330244"><ele>2693.7344</ele><time>2026-07-02T10:19:02.000Z</time></trkpt>
        <trkpt lat="29.532234" lon="103.330274"><ele>2699.392</ele><time>2026-07-02T10:24:29.000Z</time></trkpt>
        <trkpt lat="29.53219" lon="103.330245"><ele>2695.687</ele><time>2026-07-02T10:24:41.000Z</time></trkpt>
        <trkpt lat="29.532145" lon="103.330221"><ele>2697.5435</ele><time>2026-07-02T10:24:51.000Z</time></trkpt>
        <trkpt lat="29.532096" lon="103.330221"><ele>2698.6582</ele><time>2026-07-02T10:25:01.000Z</time></trkpt>
        <trkpt lat="29.53205" lon="103.33023"><ele>2701.7476</ele><time>2026-07-02T10:25:17.000Z</time></trkpt>
        <trkpt lat="29.532002" lon="103.330233"><ele>2711.4949</ele><time>2026-07-02T10:25:27.000Z</time></trkpt>
        <trkpt lat="29.531951" lon="103.330236"><ele>2709.7417</ele><time>2026-07-02T10:25:54.000Z</time></trkpt>
        <trkpt lat="29.531904" lon="103.330239"><ele>2712.6616</ele><time>2026-07-02T10:26:08.000Z</time></trkpt>
        <trkpt lat="29.531866" lon="103.330205"><ele>2713.609</ele><time>2026-07-02T10:26:30.000Z</time></trkpt>
        <trkpt lat="29.531833" lon="103.330164"><ele>2716.002</ele><time>2026-07-02T10:26:45.000Z</time></trkpt>
        <trkpt lat="29.531811" lon="103.330119"><ele>2719.677</ele><time>2026-07-02T10:27:00.000Z</time></trkpt>
        <trkpt lat="29.531794" lon="103.330068"><ele>2721.1404</ele><time>2026-07-02T10:27:12.000Z</time></trkpt>
        <trkpt lat="29.531746" lon="103.330048"><ele>2721.5996</ele><time>2026-07-02T10:27:22.000Z</time></trkpt>
        <trkpt lat="29.531705" lon="103.330007"><ele>2724.6396</ele><time>2026-07-02T10:27:31.000Z</time></trkpt>
        <trkpt lat="29.53167" lon="103.329973"><ele>2729.057</ele><time>2026-07-02T10:27:50.000Z</time></trkpt>
        <trkpt lat="29.531622" lon="103.329943"><ele>2730.7522</ele><time>2026-07-02T10:28:05.000Z</time></trkpt>
        <trkpt lat="29.531582" lon="103.329917"><ele>2736.6248</ele><time>2026-07-02T10:28:24.000Z</time></trkpt>
        <trkpt lat="29.531539" lon="103.329899"><ele>2738.662</ele><time>2026-07-02T10:28:42.000Z</time></trkpt>
        <trkpt lat="29.531495" lon="103.329881"><ele>2738.663</ele><time>2026-07-02T10:28:58.000Z</time></trkpt>
        <trkpt lat="29.531453" lon="103.329856"><ele>2740.6667</ele><time>2026-07-02T10:29:18.000Z</time></trkpt>
        <trkpt lat="29.531414" lon="103.329822"><ele>2743.652</ele><time>2026-07-02T10:30:01.000Z</time></trkpt>
        <trkpt lat="29.531374" lon="103.329797"><ele>2747.5623</ele><time>2026-07-02T10:30:17.000Z</time></trkpt>
        <trkpt lat="29.531327" lon="103.32979"><ele>2748.0903</ele><time>2026-07-02T10:30:31.000Z</time></trkpt>
        <trkpt lat="29.531346" lon="103.329742"><ele>2749.9248</ele><time>2026-07-02T10:31:12.000Z</time></trkpt>
        <trkpt lat="29.531321" lon="103.329697"><ele>2754.864</ele><time>2026-07-02T10:31:36.000Z</time></trkpt>
        <trkpt lat="29.531278" lon="103.329672"><ele>2755.9119</ele><time>2026-07-02T10:31:49.000Z</time></trkpt>
        <trkpt lat="29.53125" lon="103.329631"><ele>2756.448</ele><time>2026-07-02T10:32:05.000Z</time></trkpt>
        <trkpt lat="29.531226" lon="103.329586"><ele>2759.9387</ele><time>2026-07-02T10:32:21.000Z</time></trkpt>
        <trkpt lat="29.531203" lon="103.32954"><ele>2763.9941</ele><time>2026-07-02T10:32:41.000Z</time></trkpt>
        <trkpt lat="29.53118" lon="103.329495"><ele>2764.9272</ele><time>2026-07-02T10:32:58.000Z</time></trkpt>
        <trkpt lat="29.531179" lon="103.329438"><ele>2769.7363</ele><time>2026-07-02T10:33:16.000Z</time></trkpt>
        <trkpt lat="29.53113" lon="103.329404"><ele>2769.3562</ele><time>2026-07-02T10:33:27.000Z</time></trkpt>
        <trkpt lat="29.531159" lon="103.329358"><ele>2769.079</ele><time>2026-07-02T10:33:32.000Z</time></trkpt>
        <trkpt lat="29.531128" lon="103.329316"><ele>2769.124</ele><time>2026-07-02T10:33:47.000Z</time></trkpt>
        <trkpt lat="29.531133" lon="103.32926"><ele>2770.3196</ele><time>2026-07-02T10:34:00.000Z</time></trkpt>
        <trkpt lat="29.531113" lon="103.32921"><ele>2770.6433</ele><time>2026-07-02T10:34:06.000Z</time></trkpt>
        <trkpt lat="29.531125" lon="103.329159"><ele>2772.3665</ele><time>2026-07-02T10:34:13.000Z</time></trkpt>
        <trkpt lat="29.531124" lon="103.329106"><ele>2774.6582</ele><time>2026-07-02T10:34:22.000Z</time></trkpt>
        <trkpt lat="29.531114" lon="103.329056"><ele>2773.2085</ele><time>2026-07-02T10:34:30.000Z</time></trkpt>
        <trkpt lat="29.531103" lon="103.329002"><ele>2773.8086</ele><time>2026-07-02T10:34:41.000Z</time></trkpt>
        <trkpt lat="29.531111" lon="103.328946"><ele>2775.1152</ele><time>2026-07-02T10:34:51.000Z</time></trkpt>
        <trkpt lat="29.53113" lon="103.328899"><ele>2778.35</ele><time>2026-07-02T10:35:00.000Z</time></trkpt>
        <trkpt lat="29.531127" lon="103.328843"><ele>2778.3994</ele><time>2026-07-02T10:35:11.000Z</time></trkpt>
        <trkpt lat="29.53114" lon="103.328789"><ele>2779.3364</ele><time>2026-07-02T10:35:19.000Z</time></trkpt>
        <trkpt lat="29.531126" lon="103.328738"><ele>2780.8264</ele><time>2026-07-02T10:35:31.000Z</time></trkpt>
        <trkpt lat="29.531157" lon="103.3287"><ele>2782.6914</ele><time>2026-07-02T10:35:39.000Z</time></trkpt>
        <trkpt lat="29.531164" lon="103.328642"><ele>2781.3928</ele><time>2026-07-02T10:35:52.000Z</time></trkpt>
        <trkpt lat="29.531168" lon="103.328588"><ele>2781.8545</ele><time>2026-07-02T10:36:05.000Z</time></trkpt>
        <trkpt lat="29.531183" lon="103.328535"><ele>2785.2092</ele><time>2026-07-02T10:36:19.000Z</time></trkpt>
        <trkpt lat="29.5312" lon="103.328483"><ele>2786.052</ele><time>2026-07-02T10:36:30.000Z</time></trkpt>
        <trkpt lat="29.531209" lon="103.328431"><ele>2786.0854</ele><time>2026-07-02T10:36:45.000Z</time></trkpt>
        <trkpt lat="29.531231" lon="103.32838"><ele>2788.5745</ele><time>2026-07-02T10:36:51.000Z</time></trkpt>
        <trkpt lat="29.531234" lon="103.328327"><ele>2787.015</ele><time>2026-07-02T10:36:58.000Z</time></trkpt>
        <trkpt lat="29.531243" lon="103.328267"><ele>2789.1199</ele><time>2026-07-02T10:37:04.000Z</time></trkpt>
        <trkpt lat="29.531242" lon="103.328212"><ele>2788.493</ele><time>2026-07-02T10:37:11.000Z</time></trkpt>
        <trkpt lat="29.531263" lon="103.328163"><ele>2790.0457</ele><time>2026-07-02T10:37:15.000Z</time></trkpt>
        <trkpt lat="29.531266" lon="103.328106"><ele>2790.3066</ele><time>2026-07-02T10:37:23.000Z</time></trkpt>
        <trkpt lat="29.531274" lon="103.328053"><ele>2792.6792</ele><time>2026-07-02T10:37:30.000Z</time></trkpt>
        <trkpt lat="29.531272" lon="103.328"><ele>2791.6663</ele><time>2026-07-02T10:37:37.000Z</time></trkpt>
        <trkpt lat="29.531269" lon="103.327942"><ele>2791.5376</ele><time>2026-07-02T10:37:45.000Z</time></trkpt>
        <trkpt lat="29.531271" lon="103.327889"><ele>2792.2427</ele><time>2026-07-02T10:37:54.000Z</time></trkpt>
        <trkpt lat="29.531249" lon="103.32784"><ele>2791.4858</ele><time>2026-07-02T10:38:02.000Z</time></trkpt>
        <trkpt lat="29.531246" lon="103.327789"><ele>2794.9624</ele><time>2026-07-02T10:38:14.000Z</time></trkpt>
        <trkpt lat="29.531245" lon="103.327735"><ele>2793.8118</ele><time>2026-07-02T10:38:23.000Z</time></trkpt>
        <trkpt lat="29.531244" lon="103.327674"><ele>2798.6526</ele><time>2026-07-02T10:38:34.000Z</time></trkpt>
        <trkpt lat="29.531249" lon="103.32762"><ele>2801.2754</ele><time>2026-07-02T10:38:45.000Z</time></trkpt>
        <trkpt lat="29.531256" lon="103.327566"><ele>2800.4917</ele><time>2026-07-02T10:38:58.000Z</time></trkpt>
        <trkpt lat="29.53125" lon="103.327513"><ele>2802.6714</ele><time>2026-07-02T10:39:11.000Z</time></trkpt>
        <trkpt lat="29.531241" lon="103.32746"><ele>2803.5952</ele><time>2026-07-02T10:39:24.000Z</time></trkpt>
        <trkpt lat="29.531231" lon="103.327407"><ele>2804.814</ele><time>2026-07-02T10:39:35.000Z</time></trkpt>
        <trkpt lat="29.531236" lon="103.327353"><ele>2806.5156</ele><time>2026-07-02T10:39:53.000Z</time></trkpt>
        <trkpt lat="29.531237" lon="103.327295"><ele>2807.7195</ele><time>2026-07-02T10:40:09.000Z</time></trkpt>
        <trkpt lat="29.531236" lon="103.327239"><ele>2810.7756</ele><time>2026-07-02T10:40:21.000Z</time></trkpt>
        <trkpt lat="29.531226" lon="103.327186"><ele>2811.089</ele><time>2026-07-02T10:40:38.000Z</time></trkpt>
        <trkpt lat="29.531196" lon="103.327144"><ele>2811.313</ele><time>2026-07-02T10:40:50.000Z</time></trkpt>
        <trkpt lat="29.531181" lon="103.327088"><ele>2814.7947</ele><time>2026-07-02T10:41:05.000Z</time></trkpt>
        <trkpt lat="29.531139" lon="103.327067"><ele>2817.495</ele><time>2026-07-02T10:41:13.000Z</time></trkpt>
        <trkpt lat="29.531093" lon="103.327054"><ele>2820.2617</ele><time>2026-07-02T10:41:22.000Z</time></trkpt>
        <trkpt lat="29.531052" lon="103.327031"><ele>2821.9783</ele><time>2026-07-02T10:41:31.000Z</time></trkpt>
        <trkpt lat="29.531008" lon="103.327012"><ele>2821.1204</ele><time>2026-07-02T10:41:36.000Z</time></trkpt>
        <trkpt lat="29.530978" lon="103.326969"><ele>2826.1577</ele><time>2026-07-02T10:41:47.000Z</time></trkpt>
        <trkpt lat="29.530931" lon="103.326958"><ele>2823.7244</ele><time>2026-07-02T10:41:57.000Z</time></trkpt>
        <trkpt lat="29.530886" lon="103.326942"><ele>2824.3213</ele><time>2026-07-02T10:42:07.000Z</time></trkpt>
        <trkpt lat="29.530841" lon="103.326928"><ele>2825.995</ele><time>2026-07-02T10:42:14.000Z</time></trkpt>
        <trkpt lat="29.530824" lon="103.326876"><ele>2830.673</ele><time>2026-07-02T10:42:37.000Z</time></trkpt>
        <trkpt lat="29.530816" lon="103.326825"><ele>2829.2795</ele><time>2026-07-02T10:43:46.000Z</time></trkpt>
        <trkpt lat="29.530771" lon="103.326814"><ele>2830.0444</ele><time>2026-07-02T10:44:01.000Z</time></trkpt>
        <trkpt lat="29.530725" lon="103.326826"><ele>2833.898</ele><time>2026-07-02T10:44:23.000Z</time></trkpt>
        <trkpt lat="29.530688" lon="103.326772"><ele>2837.3887</ele><time>2026-07-02T10:45:09.000Z</time></trkpt>
        <trkpt lat="29.530656" lon="103.326811"><ele>2834.9556</ele><time>2026-07-02T10:46:36.000Z</time></trkpt>
        <trkpt lat="29.530616" lon="103.326846"><ele>2834.8806</ele><time>2026-07-02T10:46:48.000Z</time></trkpt>
        <trkpt lat="29.530569" lon="103.326855"><ele>2835.4905</ele><time>2026-07-02T10:47:02.000Z</time></trkpt>
        <trkpt lat="29.530531" lon="103.326893"><ele>2835.7144</ele><time>2026-07-02T10:47:11.000Z</time></trkpt>
        <trkpt lat="29.530492" lon="103.326924"><ele>2839.545</ele><time>2026-07-02T10:47:26.000Z</time></trkpt>
        <trkpt lat="29.530444" lon="103.32693"><ele>2842.1099</ele><time>2026-07-02T10:47:35.000Z</time></trkpt>
        <trkpt lat="29.5304" lon="103.326951"><ele>2841.773</ele><time>2026-07-02T10:47:48.000Z</time></trkpt>
        <trkpt lat="29.530352" lon="103.326962"><ele>2843.537</ele><time>2026-07-02T10:48:01.000Z</time></trkpt>
        <trkpt lat="29.530311" lon="103.326996"><ele>2846.2805</ele><time>2026-07-02T10:48:11.000Z</time></trkpt>
        <trkpt lat="29.530266" lon="103.327005"><ele>2846.3826</ele><time>2026-07-02T10:48:20.000Z</time></trkpt>
        <trkpt lat="29.530221" lon="103.327025"><ele>2848.0322</ele><time>2026-07-02T10:48:30.000Z</time></trkpt>
        <trkpt lat="29.530176" lon="103.327048"><ele>2850.1458</ele><time>2026-07-02T10:48:40.000Z</time></trkpt>
        <trkpt lat="29.530153" lon="103.327103"><ele>2849.0461</ele><time>2026-07-02T10:48:45.000Z</time></trkpt>
        <trkpt lat="29.530109" lon="103.327124"><ele>2853.0657</ele><time>2026-07-02T10:48:53.000Z</time></trkpt>
        <trkpt lat="29.530071" lon="103.327164"><ele>2851.4788</ele><time>2026-07-02T10:48:59.000Z</time></trkpt>
        <trkpt lat="29.53003" lon="103.327193"><ele>2852.3142</ele><time>2026-07-02T10:49:06.000Z</time></trkpt>
        <trkpt lat="29.529986" lon="103.327219"><ele>2850.4746</ele><time>2026-07-02T10:49:14.000Z</time></trkpt>
        <trkpt lat="29.529953" lon="103.32726"><ele>2853.5747</ele><time>2026-07-02T10:49:25.000Z</time></trkpt>
        <trkpt lat="29.529929" lon="103.327315"><ele>2854.4075</ele><time>2026-07-02T10:49:32.000Z</time></trkpt>
        <trkpt lat="29.529934" lon="103.327366"><ele>2853.2307</ele><time>2026-07-02T10:49:38.000Z</time></trkpt>
        <trkpt lat="29.5299" lon="103.327417"><ele>2854.7432</ele><time>2026-07-02T10:49:45.000Z</time></trkpt>
        <trkpt lat="29.529862" lon="103.327452"><ele>2854.7666</ele><time>2026-07-02T10:49:49.000Z</time></trkpt>
        <trkpt lat="29.529829" lon="103.327489"><ele>2858.4329</ele><time>2026-07-02T10:49:53.000Z</time></trkpt>
        <trkpt lat="29.529808" lon="103.327536"><ele>2857.718</ele><time>2026-07-02T10:49:59.000Z</time></trkpt>
        <trkpt lat="29.529797" lon="103.327586"><ele>2856.9614</ele><time>2026-07-02T10:50:04.000Z</time></trkpt>
        <trkpt lat="29.529784" lon="103.327637"><ele>2857.0693</ele><time>2026-07-02T10:50:14.000Z</time></trkpt>
        <trkpt lat="29.529749" lon="103.327681"><ele>2856.8013</ele><time>2026-07-02T10:50:23.000Z</time></trkpt>
        <trkpt lat="29.529718" lon="103.327724"><ele>2857.1199</ele><time>2026-07-02T10:50:30.000Z</time></trkpt>
        <trkpt lat="29.529679" lon="103.327758"><ele>2854.098</ele><time>2026-07-02T10:50:38.000Z</time></trkpt>
        <trkpt lat="29.529635" lon="103.327769"><ele>2855.642</ele><time>2026-07-02T10:50:44.000Z</time></trkpt>
        <trkpt lat="29.52959" lon="103.327812"><ele>2858.021</ele><time>2026-07-02T10:50:51.000Z</time></trkpt>
        <trkpt lat="29.529545" lon="103.327802"><ele>2858.786</ele><time>2026-07-02T10:51:01.000Z</time></trkpt>
        <trkpt lat="29.529499" lon="103.327816"><ele>2861.7163</ele><time>2026-07-02T10:51:08.000Z</time></trkpt>
        <trkpt lat="29.529453" lon="103.327813"><ele>2862.1252</ele><time>2026-07-02T10:51:12.000Z</time></trkpt>
        <trkpt lat="29.529404" lon="103.327818"><ele>2862.645</ele><time>2026-07-02T10:51:20.000Z</time></trkpt>
        <trkpt lat="29.529359" lon="103.327801"><ele>2861.8586</ele><time>2026-07-02T10:51:31.000Z</time></trkpt>
        <trkpt lat="29.529311" lon="103.32779"><ele>2858.152</ele><time>2026-07-02T10:51:40.000Z</time></trkpt>
        <trkpt lat="29.529282" lon="103.327841"><ele>2855.9785</ele><time>2026-07-02T10:51:51.000Z</time></trkpt>
        <trkpt lat="29.529267" lon="103.327893"><ele>2857.4856</ele><time>2026-07-02T10:51:58.000Z</time></trkpt>
        <trkpt lat="29.529236" lon="103.32793"><ele>2861.1235</ele><time>2026-07-02T10:52:08.000Z</time></trkpt>
        <trkpt lat="29.529234" lon="103.327985"><ele>2860.785</ele><time>2026-07-02T10:52:18.000Z</time></trkpt>
        <trkpt lat="29.529224" lon="103.328036"><ele>2861.733</ele><time>2026-07-02T10:52:31.000Z</time></trkpt>
        <trkpt lat="29.529214" lon="103.328087"><ele>2860.547</ele><time>2026-07-02T10:52:38.000Z</time></trkpt>
        <trkpt lat="29.529199" lon="103.328137"><ele>2864.691</ele><time>2026-07-02T10:52:50.000Z</time></trkpt>
        <trkpt lat="29.529184" lon="103.328189"><ele>2868.4712</ele><time>2026-07-02T10:53:04.000Z</time></trkpt>
        <trkpt lat="29.529171" lon="103.32825"><ele>2867.685</ele><time>2026-07-02T10:53:11.000Z</time></trkpt>
        <trkpt lat="29.529141" lon="103.328296"><ele>2871.1128</ele><time>2026-07-02T10:53:36.000Z</time></trkpt>
        <trkpt lat="29.529139" lon="103.328358"><ele>2873.096</ele><time>2026-07-02T10:53:44.000Z</time></trkpt>
        <trkpt lat="29.529137" lon="103.328412"><ele>2874.7493</ele><time>2026-07-02T10:53:51.000Z</time></trkpt>
        <trkpt lat="29.529117" lon="103.328465"><ele>2873.649</ele><time>2026-07-02T10:54:01.000Z</time></trkpt>
        <trkpt lat="29.529083" lon="103.328502"><ele>2878.735</ele><time>2026-07-02T10:54:16.000Z</time></trkpt>
        <trkpt lat="29.529057" lon="103.328547"><ele>2879.462</ele><time>2026-07-02T10:54:29.000Z</time></trkpt>
        <trkpt lat="29.529033" lon="103.328595"><ele>2875.9385</ele><time>2026-07-02T10:54:36.000Z</time></trkpt>
        <trkpt lat="29.529016" lon="103.328647"><ele>2876.3794</ele><time>2026-07-02T10:54:44.000Z</time></trkpt>
        <trkpt lat="29.529011" lon="103.328701"><ele>2879.907</ele><time>2026-07-02T10:54:53.000Z</time></trkpt>
        <trkpt lat="29.528995" lon="103.328755"><ele>2879.079</ele><time>2026-07-02T10:54:59.000Z</time></trkpt>
        <trkpt lat="29.528967" lon="103.328799"><ele>2882.9397</ele><time>2026-07-02T10:55:08.000Z</time></trkpt>
        <trkpt lat="29.528928" lon="103.328838"><ele>2880.005</ele><time>2026-07-02T10:55:17.000Z</time></trkpt>
        <trkpt lat="29.528899" lon="103.328897"><ele>2882.2202</ele><time>2026-07-02T10:55:30.000Z</time></trkpt>
        <trkpt lat="29.52889" lon="103.328955"><ele>2884.4749</ele><time>2026-07-02T10:55:36.000Z</time></trkpt>
        <trkpt lat="29.528865" lon="103.329001"><ele>2885.5793</ele><time>2026-07-02T10:55:46.000Z</time></trkpt>
        <trkpt lat="29.528822" lon="103.329039"><ele>2887.598</ele><time>2026-07-02T10:55:53.000Z</time></trkpt>
        <trkpt lat="29.528801" lon="103.329085"><ele>2888.297</ele><time>2026-07-02T10:56:02.000Z</time></trkpt>
        <trkpt lat="29.528774" lon="103.329127"><ele>2889.0637</ele><time>2026-07-02T10:56:14.000Z</time></trkpt>
        <trkpt lat="29.528749" lon="103.329175"><ele>2889.87</ele><time>2026-07-02T10:56:21.000Z</time></trkpt>
        <trkpt lat="29.528717" lon="103.32922"><ele>2889.331</ele><time>2026-07-02T10:56:28.000Z</time></trkpt>
        <trkpt lat="29.528685" lon="103.329275"><ele>2893.411</ele><time>2026-07-02T10:56:36.000Z</time></trkpt>
        <trkpt lat="29.528656" lon="103.329318"><ele>2894.3801</ele><time>2026-07-02T10:56:41.000Z</time></trkpt>
        <trkpt lat="29.528651" lon="103.329387"><ele>2893.49</ele><time>2026-07-02T10:56:48.000Z</time></trkpt>
        <trkpt lat="29.528638" lon="103.32944"><ele>2895.8955</ele><time>2026-07-02T10:56:54.000Z</time></trkpt>
        <trkpt lat="29.528632" lon="103.3295"><ele>2898.029</ele><time>2026-07-02T10:57:03.000Z</time></trkpt>
        <trkpt lat="29.528625" lon="103.329553"><ele>2896.4722</ele><time>2026-07-02T10:57:12.000Z</time></trkpt>
        <trkpt lat="29.528615" lon="103.329605"><ele>2896.7495</ele><time>2026-07-02T10:57:19.000Z</time></trkpt>
        <trkpt lat="29.528596" lon="103.329665"><ele>2895.5127</ele><time>2026-07-02T10:57:26.000Z</time></trkpt>
        <trkpt lat="29.528573" lon="103.329715"><ele>2897.533</ele><time>2026-07-02T10:57:32.000Z</time></trkpt>
        <trkpt lat="29.528574" lon="103.329769"><ele>2899.5396</ele><time>2026-07-02T10:57:41.000Z</time></trkpt>
        <trkpt lat="29.528578" lon="103.329828"><ele>2899.2837</ele><time>2026-07-02T10:57:47.000Z</time></trkpt>
        <trkpt lat="29.528554" lon="103.329872"><ele>2899.7214</ele><time>2026-07-02T10:57:53.000Z</time></trkpt>
        <trkpt lat="29.528548" lon="103.329934"><ele>2898.0647</ele><time>2026-07-02T10:58:00.000Z</time></trkpt>
        <trkpt lat="29.528526" lon="103.329987"><ele>2898.1763</ele><time>2026-07-02T10:58:07.000Z</time></trkpt>
        <trkpt lat="29.528551" lon="103.330033"><ele>2902.253</ele><time>2026-07-02T10:58:18.000Z</time></trkpt>
        <trkpt lat="29.528555" lon="103.329982"><ele>2904.531</ele><time>2026-07-02T11:00:33.000Z</time></trkpt>
        <trkpt lat="29.528544" lon="103.330045"><ele>2904.2395</ele><time>2026-07-02T11:04:28.000Z</time></trkpt>
        <trkpt lat="29.52855" lon="103.329993"><ele>2902.4897</ele><time>2026-07-02T11:15:47.000Z</time></trkpt>
        <trkpt lat="29.528518" lon="103.330032"><ele>2901.7527</ele><time>2026-07-02T11:23:04.000Z</time></trkpt>
        <trkpt lat="29.528495" lon="103.330077"><ele>2902.447</ele><time>2026-07-02T11:23:09.000Z</time></trkpt>
        <trkpt lat="29.528445" lon="103.330081"><ele>2903.3342</ele><time>2026-07-02T11:23:13.000Z</time></trkpt>
        <trkpt lat="29.52841" lon="103.330119"><ele>2898.2239</ele><time>2026-07-02T11:23:18.000Z</time></trkpt>
        <trkpt lat="29.528386" lon="103.330164"><ele>2895.8748</ele><time>2026-07-02T11:23:24.000Z</time></trkpt>
        <trkpt lat="29.528354" lon="103.330206"><ele>2897.7534</ele><time>2026-07-02T11:23:31.000Z</time></trkpt>
        <trkpt lat="29.528324" lon="103.33025"><ele>2900.0168</ele><time>2026-07-02T11:23:35.000Z</time></trkpt>
        <trkpt lat="29.528299" lon="103.330297"><ele>2899.3699</ele><time>2026-07-02T11:23:43.000Z</time></trkpt>
        <trkpt lat="29.528315" lon="103.330359"><ele>2898.48</ele><time>2026-07-02T11:23:49.000Z</time></trkpt>
        <trkpt lat="29.528312" lon="103.330413"><ele>2899.6704</ele><time>2026-07-02T11:23:56.000Z</time></trkpt>
        <trkpt lat="29.528325" lon="103.330468"><ele>2900.342</ele><time>2026-07-02T11:24:03.000Z</time></trkpt>
        <trkpt lat="29.528328" lon="103.330527"><ele>2908.9502</ele><time>2026-07-02T11:24:17.000Z</time></trkpt>
        <trkpt lat="29.528308" lon="103.330579"><ele>2909.4338</ele><time>2026-07-02T11:24:27.000Z</time></trkpt>
        <trkpt lat="29.52828" lon="103.330624"><ele>2907.7354</ele><time>2026-07-02T11:24:40.000Z</time></trkpt>
        <trkpt lat="29.528248" lon="103.330663"><ele>2906.702</ele><time>2026-07-02T11:24:50.000Z</time></trkpt>
        <trkpt lat="29.528223" lon="103.330707"><ele>2911.0803</ele><time>2026-07-02T11:25:00.000Z</time></trkpt>
        <trkpt lat="29.52818" lon="103.330745"><ele>2912.9475</ele><time>2026-07-02T11:25:13.000Z</time></trkpt>
        <trkpt lat="29.528153" lon="103.330795"><ele>2914.809</ele><time>2026-07-02T11:25:22.000Z</time></trkpt>
        <trkpt lat="29.528132" lon="103.330846"><ele>2918.1658</ele><time>2026-07-02T11:25:31.000Z</time></trkpt>
        <trkpt lat="29.528117" lon="103.330903"><ele>2919.4211</ele><time>2026-07-02T11:25:40.000Z</time></trkpt>
        <trkpt lat="29.528106" lon="103.330955"><ele>2918.9763</ele><time>2026-07-02T11:25:48.000Z</time></trkpt>
        <trkpt lat="29.52809" lon="103.331006"><ele>2918.267</ele><time>2026-07-02T11:25:56.000Z</time></trkpt>
        <trkpt lat="29.528069" lon="103.331055"><ele>2919.943</ele><time>2026-07-02T11:26:09.000Z</time></trkpt>
        <trkpt lat="29.528053" lon="103.331106"><ele>2920.974</ele><time>2026-07-02T11:26:17.000Z</time></trkpt>
        <trkpt lat="29.528035" lon="103.331155"><ele>2924.4355</ele><time>2026-07-02T11:26:26.000Z</time></trkpt>
        <trkpt lat="29.527993" lon="103.331174"><ele>2926.505</ele><time>2026-07-02T11:26:33.000Z</time></trkpt>
        <trkpt lat="29.527959" lon="103.331216"><ele>2928.191</ele><time>2026-07-02T11:26:41.000Z</time></trkpt>
        <trkpt lat="29.527936" lon="103.331268"><ele>2928.1296</ele><time>2026-07-02T11:26:48.000Z</time></trkpt>
        <trkpt lat="29.527906" lon="103.331308"><ele>2927.6055</ele><time>2026-07-02T11:26:59.000Z</time></trkpt>
        <trkpt lat="29.527868" lon="103.331337"><ele>2927.9426</ele><time>2026-07-02T11:27:09.000Z</time></trkpt>
        <trkpt lat="29.527841" lon="103.331381"><ele>2928.474</ele><time>2026-07-02T11:27:15.000Z</time></trkpt>
        <trkpt lat="29.527828" lon="103.331434"><ele>2930.5652</ele><time>2026-07-02T11:27:23.000Z</time></trkpt>
        <trkpt lat="29.52781" lon="103.331484"><ele>2931.6235</ele><time>2026-07-02T11:27:33.000Z</time></trkpt>
        <trkpt lat="29.52778" lon="103.331529"><ele>2934.3884</ele><time>2026-07-02T11:27:45.000Z</time></trkpt>
        <trkpt lat="29.527763" lon="103.331578"><ele>2935.6</ele><time>2026-07-02T11:27:52.000Z</time></trkpt>
        <trkpt lat="29.527753" lon="103.331638"><ele>2934.5005</ele><time>2026-07-02T11:28:01.000Z</time></trkpt>
        <trkpt lat="29.527728" lon="103.331685"><ele>2937.035</ele><time>2026-07-02T11:28:08.000Z</time></trkpt>
        <trkpt lat="29.527731" lon="103.331743"><ele>2933.9011</ele><time>2026-07-02T11:28:15.000Z</time></trkpt>
        <trkpt lat="29.527735" lon="103.331801"><ele>2933.348</ele><time>2026-07-02T11:28:22.000Z</time></trkpt>
        <trkpt lat="29.527725" lon="103.331853"><ele>2933.7363</ele><time>2026-07-02T11:28:32.000Z</time></trkpt>
        <trkpt lat="29.527719" lon="103.331907"><ele>2932.279</ele><time>2026-07-02T11:28:37.000Z</time></trkpt>
        <trkpt lat="29.52772" lon="103.33196"><ele>2932.6304</ele><time>2026-07-02T11:28:43.000Z</time></trkpt>
        <trkpt lat="29.527709" lon="103.332012"><ele>2937.8967</ele><time>2026-07-02T11:28:56.000Z</time></trkpt>
        <trkpt lat="29.527662" lon="103.332037"><ele>2938.3865</ele><time>2026-07-02T11:29:11.000Z</time></trkpt>
        <trkpt lat="29.527613" lon="103.332037"><ele>2938.1008</ele><time>2026-07-02T11:29:26.000Z</time></trkpt>
        <trkpt lat="29.527572" lon="103.332065"><ele>2938.5098</ele><time>2026-07-02T11:29:34.000Z</time></trkpt>
        <trkpt lat="29.527547" lon="103.332116"><ele>2942.617</ele><time>2026-07-02T11:29:48.000Z</time></trkpt>
        <trkpt lat="29.52757" lon="103.332162"><ele>2942.2996</ele><time>2026-07-02T11:29:55.000Z</time></trkpt>
        <trkpt lat="29.527575" lon="103.332213"><ele>2947.265</ele><time>2026-07-02T11:30:04.000Z</time></trkpt>
        <trkpt lat="29.527593" lon="103.332261"><ele>2945.962</ele><time>2026-07-02T11:30:11.000Z</time></trkpt>
        <trkpt lat="29.527612" lon="103.332313"><ele>2946.0337</ele><time>2026-07-02T11:30:22.000Z</time></trkpt>
        <trkpt lat="29.527567" lon="103.332324"><ele>2948.514</ele><time>2026-07-02T11:30:36.000Z</time></trkpt>
        <trkpt lat="29.52752" lon="103.332342"><ele>2949.0078</ele><time>2026-07-02T11:30:41.000Z</time></trkpt>
        <trkpt lat="29.527496" lon="103.332393"><ele>2947.638</ele><time>2026-07-02T11:30:48.000Z</time></trkpt>
        <trkpt lat="29.527488" lon="103.332444"><ele>2946.862</ele><time>2026-07-02T11:30:57.000Z</time></trkpt>
        <trkpt lat="29.527448" lon="103.33247"><ele>2949.4504</ele><time>2026-07-02T11:31:12.000Z</time></trkpt>
        <trkpt lat="29.527397" lon="103.332465"><ele>2952.4421</ele><time>2026-07-02T11:31:25.000Z</time></trkpt>
        <trkpt lat="29.527358" lon="103.332429"><ele>2957.478</ele><time>2026-07-02T11:31:32.000Z</time></trkpt>
        <trkpt lat="29.527331" lon="103.332383"><ele>2958.231</ele><time>2026-07-02T11:31:45.000Z</time></trkpt>
        <trkpt lat="29.527288" lon="103.332354"><ele>2955.5444</ele><time>2026-07-02T11:31:49.000Z</time></trkpt>
        <trkpt lat="29.52726" lon="103.332309"><ele>2952.582</ele><time>2026-07-02T11:31:51.000Z</time></trkpt>
        <trkpt lat="29.527241" lon="103.332253"><ele>2954.504</ele><time>2026-07-02T11:31:56.000Z</time></trkpt>
        <trkpt lat="29.527192" lon="103.332226"><ele>2956.9192</ele><time>2026-07-02T11:32:02.000Z</time></trkpt>
        <trkpt lat="29.527147" lon="103.332248"><ele>2956.6372</ele><time>2026-07-02T11:32:07.000Z</time></trkpt>
        <trkpt lat="29.527111" lon="103.332284"><ele>2960.2288</ele><time>2026-07-02T11:32:15.000Z</time></trkpt>
        <trkpt lat="29.527109" lon="103.332339"><ele>2960.7554</ele><time>2026-07-02T11:32:24.000Z</time></trkpt>
        <trkpt lat="29.527075" lon="103.332382"><ele>2960.8079</ele><time>2026-07-02T11:32:36.000Z</time></trkpt>
        <trkpt lat="29.527064" lon="103.332434"><ele>2958.2678</ele><time>2026-07-02T11:32:44.000Z</time></trkpt>
        <trkpt lat="29.527059" lon="103.332494"><ele>2958.2603</ele><time>2026-07-02T11:32:53.000Z</time></trkpt>
        <trkpt lat="29.527072" lon="103.332547"><ele>2960.3003</ele><time>2026-07-02T11:33:03.000Z</time></trkpt>
        <trkpt lat="29.527096" lon="103.332597"><ele>2961.9614</ele><time>2026-07-02T11:33:12.000Z</time></trkpt>
        <trkpt lat="29.527113" lon="103.332647"><ele>2962.306</ele><time>2026-07-02T11:33:18.000Z</time></trkpt>
        <trkpt lat="29.527106" lon="103.332699"><ele>2959.8965</ele><time>2026-07-02T11:33:23.000Z</time></trkpt>
        <trkpt lat="29.527098" lon="103.332753"><ele>2958.2825</ele><time>2026-07-02T11:33:30.000Z</time></trkpt>
        <trkpt lat="29.527078" lon="103.332808"><ele>2955.311</ele><time>2026-07-02T11:33:40.000Z</time></trkpt>
        <trkpt lat="29.527053" lon="103.332864"><ele>2962.6438</ele><time>2026-07-02T11:33:50.000Z</time></trkpt>
        <trkpt lat="29.527043" lon="103.332922"><ele>2965.311</ele><time>2026-07-02T11:34:01.000Z</time></trkpt>
        <trkpt lat="29.527065" lon="103.332972"><ele>2962.703</ele><time>2026-07-02T11:34:08.000Z</time></trkpt>
        <trkpt lat="29.527078" lon="103.333029"><ele>2963.4375</ele><time>2026-07-02T11:34:16.000Z</time></trkpt>
        <trkpt lat="29.5271" lon="103.333079"><ele>2962.6917</ele><time>2026-07-02T11:34:22.000Z</time></trkpt>
        <trkpt lat="29.527123" lon="103.333124"><ele>2965.401</ele><time>2026-07-02T11:34:26.000Z</time></trkpt>
        <trkpt lat="29.527142" lon="103.333184"><ele>2966.7097</ele><time>2026-07-02T11:34:32.000Z</time></trkpt>
        <trkpt lat="29.52716" lon="103.333241"><ele>2971.9824</ele><time>2026-07-02T11:34:41.000Z</time></trkpt>
        <trkpt lat="29.52713" lon="103.333281"><ele>2972.886</ele><time>2026-07-02T11:34:49.000Z</time></trkpt>
        <trkpt lat="29.527093" lon="103.333312"><ele>2975.6782</ele><time>2026-07-02T11:34:57.000Z</time></trkpt>
        <trkpt lat="29.527069" lon="103.333361"><ele>2974.807</ele><time>2026-07-02T11:35:02.000Z</time></trkpt>
        <trkpt lat="29.527026" lon="103.333389"><ele>2969.927</ele><time>2026-07-02T11:35:11.000Z</time></trkpt>
        <trkpt lat="29.52699" lon="103.333424"><ele>2971.7063</ele><time>2026-07-02T11:35:27.000Z</time></trkpt>
        <trkpt lat="29.526947" lon="103.333441"><ele>2972.1768</ele><time>2026-07-02T11:35:34.000Z</time></trkpt>
        <trkpt lat="29.5269" lon="103.33345"><ele>2974.8262</ele><time>2026-07-02T11:35:47.000Z</time></trkpt>
        <trkpt lat="29.526858" lon="103.333467"><ele>2981.246</ele><time>2026-07-02T11:36:11.000Z</time></trkpt>
        <trkpt lat="29.526807" lon="103.33347"><ele>2980.1897</ele><time>2026-07-02T11:36:17.000Z</time></trkpt>
        <trkpt lat="29.526761" lon="103.333473"><ele>2984.4243</ele><time>2026-07-02T11:36:28.000Z</time></trkpt>
        <trkpt lat="29.526709" lon="103.333479"><ele>2986.323</ele><time>2026-07-02T11:36:41.000Z</time></trkpt>
        <trkpt lat="29.526663" lon="103.333476"><ele>2986.5325</ele><time>2026-07-02T11:36:48.000Z</time></trkpt>
        <trkpt lat="29.526627" lon="103.333516"><ele>2987.0913</ele><time>2026-07-02T11:37:00.000Z</time></trkpt>
        <trkpt lat="29.526586" lon="103.333538"><ele>2984.419</ele><time>2026-07-02T11:37:10.000Z</time></trkpt>
        <trkpt lat="29.526544" lon="103.33357"><ele>2987.6206</ele><time>2026-07-02T11:37:19.000Z</time></trkpt>
        <trkpt lat="29.526497" lon="103.333568"><ele>2988.7341</ele><time>2026-07-02T11:37:29.000Z</time></trkpt>
        <trkpt lat="29.526449" lon="103.333585"><ele>2988.6436</ele><time>2026-07-02T11:37:37.000Z</time></trkpt>
        <trkpt lat="29.52641" lon="103.333626"><ele>2988.4807</ele><time>2026-07-02T11:37:44.000Z</time></trkpt>
        <trkpt lat="29.526375" lon="103.333667"><ele>2987.3494</ele><time>2026-07-02T11:37:50.000Z</time></trkpt>
        <trkpt lat="29.526332" lon="103.333692"><ele>2987.663</ele><time>2026-07-02T11:37:57.000Z</time></trkpt>
        <trkpt lat="29.526286" lon="103.333726"><ele>2987.176</ele><time>2026-07-02T11:38:04.000Z</time></trkpt>
        <trkpt lat="29.526243" lon="103.333756"><ele>2987.1885</ele><time>2026-07-02T11:38:15.000Z</time></trkpt>
        <trkpt lat="29.526207" lon="103.333788"><ele>2988.319</ele><time>2026-07-02T11:38:23.000Z</time></trkpt>
        <trkpt lat="29.526163" lon="103.33381"><ele>2989.4358</ele><time>2026-07-02T11:38:32.000Z</time></trkpt>
        <trkpt lat="29.526117" lon="103.333827"><ele>2991.4355</ele><time>2026-07-02T11:38:42.000Z</time></trkpt>
        <trkpt lat="29.526084" lon="103.333862"><ele>2995.571</ele><time>2026-07-02T11:38:53.000Z</time></trkpt>
        <trkpt lat="29.526041" lon="103.333878"><ele>2998.5334</ele><time>2026-07-02T11:39:02.000Z</time></trkpt>
        <trkpt lat="29.525996" lon="103.333898"><ele>2997.8154</ele><time>2026-07-02T11:39:08.000Z</time></trkpt>
        <trkpt lat="29.525963" lon="103.33394"><ele>3000.3027</ele><time>2026-07-02T11:39:18.000Z</time></trkpt>
        <trkpt lat="29.525915" lon="103.333942"><ele>3000.1755</ele><time>2026-07-02T11:39:29.000Z</time></trkpt>
        <trkpt lat="29.525872" lon="103.333962"><ele>3001.5645</ele><time>2026-07-02T11:39:39.000Z</time></trkpt>
        <trkpt lat="29.525824" lon="103.333971"><ele>3006.5442</ele><time>2026-07-02T11:39:50.000Z</time></trkpt>
        <trkpt lat="29.525779" lon="103.333997"><ele>3006.9417</ele><time>2026-07-02T11:39:56.000Z</time></trkpt>
        <trkpt lat="29.525732" lon="103.334015"><ele>3005.3066</ele><time>2026-07-02T11:40:01.000Z</time></trkpt>
        <trkpt lat="29.525702" lon="103.334072"><ele>3000.7227</ele><time>2026-07-02T11:40:10.000Z</time></trkpt>
        <trkpt lat="29.525684" lon="103.334121"><ele>3000.7058</ele><time>2026-07-02T11:40:24.000Z</time></trkpt>
        <trkpt lat="29.525652" lon="103.334168"><ele>3001.5293</ele><time>2026-07-02T11:40:33.000Z</time></trkpt>
        <trkpt lat="29.525623" lon="103.33421"><ele>3003.325</ele><time>2026-07-02T11:40:48.000Z</time></trkpt>
        <trkpt lat="29.525597" lon="103.334259"><ele>3004.4614</ele><time>2026-07-02T11:40:53.000Z</time></trkpt>
        <trkpt lat="29.525563" lon="103.334302"><ele>3004.5889</ele><time>2026-07-02T11:40:59.000Z</time></trkpt>
        <trkpt lat="29.52553" lon="103.334354"><ele>3010.1775</ele><time>2026-07-02T11:41:09.000Z</time></trkpt>
        <trkpt lat="29.525492" lon="103.334382"><ele>3010.6091</ele><time>2026-07-02T11:41:21.000Z</time></trkpt>
        <trkpt lat="29.525443" lon="103.334388"><ele>3009.2742</ele><time>2026-07-02T11:41:30.000Z</time></trkpt>
        <trkpt lat="29.525436" lon="103.334446"><ele>3005.9004</ele><time>2026-07-02T11:41:38.000Z</time></trkpt>
        <trkpt lat="29.525429" lon="103.334501"><ele>3011.184</ele><time>2026-07-02T11:41:45.000Z</time></trkpt>
        <trkpt lat="29.525386" lon="103.334534"><ele>3012.1394</ele><time>2026-07-02T11:41:52.000Z</time></trkpt>
        <trkpt lat="29.525351" lon="103.334574"><ele>3015.2383</ele><time>2026-07-02T11:42:06.000Z</time></trkpt>
        <trkpt lat="29.525323" lon="103.334619"><ele>3017.005</ele><time>2026-07-02T11:42:14.000Z</time></trkpt>
        <trkpt lat="29.52528" lon="103.334651"><ele>3014.1272</ele><time>2026-07-02T11:42:28.000Z</time></trkpt>
        <trkpt lat="29.525235" lon="103.334674"><ele>3015.8335</ele><time>2026-07-02T11:42:38.000Z</time></trkpt>
        <trkpt lat="29.525209" lon="103.334718"><ele>3019.701</ele><time>2026-07-02T11:42:49.000Z</time></trkpt>
        <trkpt lat="29.525171" lon="103.334757"><ele>3021.5845</ele><time>2026-07-02T11:42:59.000Z</time></trkpt>
        <trkpt lat="29.525128" lon="103.334777"><ele>3023.3472</ele><time>2026-07-02T11:43:12.000Z</time></trkpt>
        <trkpt lat="29.525088" lon="103.334807"><ele>3025.4514</ele><time>2026-07-02T11:43:26.000Z</time></trkpt>
        <trkpt lat="29.525044" lon="103.334834"><ele>3023.469</ele><time>2026-07-02T11:43:35.000Z</time></trkpt>
        <trkpt lat="29.524997" lon="103.334821"><ele>3023.8535</ele><time>2026-07-02T11:43:47.000Z</time></trkpt>
        <trkpt lat="29.524962" lon="103.334773"><ele>3026.3123</ele><time>2026-07-02T11:43:52.000Z</time></trkpt>
        <trkpt lat="29.524933" lon="103.334728"><ele>3027.9358</ele><time>2026-07-02T11:43:55.000Z</time></trkpt>
        <trkpt lat="29.524885" lon="103.334697"><ele>3028.2725</ele><time>2026-07-02T11:44:01.000Z</time></trkpt>
        <trkpt lat="29.524839" lon="103.33467"><ele>3030.2224</ele><time>2026-07-02T11:44:04.000Z</time></trkpt>
        <trkpt lat="29.524793" lon="103.334653"><ele>3029.547</ele><time>2026-07-02T11:44:11.000Z</time></trkpt>
        <trkpt lat="29.524771" lon="103.3347"><ele>3027.6472</ele><time>2026-07-02T11:44:23.000Z</time></trkpt>
        <trkpt lat="29.524726" lon="103.334705"><ele>3030.269</ele><time>2026-07-02T11:44:29.000Z</time></trkpt>
        <trkpt lat="29.524688" lon="103.334733"><ele>3028.953</ele><time>2026-07-02T11:44:46.000Z</time></trkpt>
        <trkpt lat="29.524642" lon="103.33474"><ele>3028.3948</ele><time>2026-07-02T11:44:55.000Z</time></trkpt>
        <trkpt lat="29.524589" lon="103.334734"><ele>3030.5977</ele><time>2026-07-02T11:45:02.000Z</time></trkpt>
        <trkpt lat="29.524543" lon="103.334757"><ele>3032.302</ele><time>2026-07-02T11:45:09.000Z</time></trkpt>
        <trkpt lat="29.524503" lon="103.334795"><ele>3032.5215</ele><time>2026-07-02T11:45:13.000Z</time></trkpt>
        <trkpt lat="29.524537" lon="103.334861"><ele>3031.7083</ele><time>2026-07-02T11:45:18.000Z</time></trkpt>
        <trkpt lat="29.524483" lon="103.334882"><ele>3031.685</ele><time>2026-07-02T11:45:24.000Z</time></trkpt>
        <trkpt lat="29.524436" lon="103.334907"><ele>3032.4358</ele><time>2026-07-02T11:45:28.000Z</time></trkpt>
        <trkpt lat="29.524362" lon="103.334939"><ele>3032.909</ele><time>2026-07-02T11:45:31.000Z</time></trkpt>
        <trkpt lat="29.524316" lon="103.334946"><ele>3033.0325</ele><time>2026-07-02T11:45:35.000Z</time></trkpt>
        <trkpt lat="29.524271" lon="103.334954"><ele>3032.6917</ele><time>2026-07-02T11:45:42.000Z</time></trkpt>
        <trkpt lat="29.524222" lon="103.334952"><ele>3032.5066</ele><time>2026-07-02T11:45:59.000Z</time></trkpt>
        <trkpt lat="29.524176" lon="103.334948"><ele>3033.8467</ele><time>2026-07-02T11:46:04.000Z</time></trkpt>
        <trkpt lat="29.524137" lon="103.334903"><ele>3033.6172</ele><time>2026-07-02T11:46:08.000Z</time></trkpt>
        <trkpt lat="29.524086" lon="103.334896"><ele>3033.5137</ele><time>2026-07-02T11:46:14.000Z</time></trkpt>
        <trkpt lat="29.524034" lon="103.334915"><ele>3032.413</ele><time>2026-07-02T11:46:21.000Z</time></trkpt>
        <trkpt lat="29.523988" lon="103.334905"><ele>3032.8118</ele><time>2026-07-02T11:46:28.000Z</time></trkpt>
        <trkpt lat="29.523941" lon="103.3349"><ele>3036.067</ele><time>2026-07-02T11:46:58.000Z</time></trkpt>
        <trkpt lat="29.523898" lon="103.334887"><ele>3037.7966</ele><time>2026-07-02T11:47:05.000Z</time></trkpt>
        <trkpt lat="29.523896" lon="103.334945"><ele>3037.487</ele><time>2026-07-02T11:47:25.000Z</time></trkpt>
        <trkpt lat="29.523908" lon="103.334995"><ele>3037.4717</ele><time>2026-07-02T11:47:31.000Z</time></trkpt>
        <trkpt lat="29.523925" lon="103.335049"><ele>3036.4666</ele><time>2026-07-02T11:47:40.000Z</time></trkpt>
        <trkpt lat="29.52393" lon="103.335106"><ele>3035.033</ele><time>2026-07-02T11:47:47.000Z</time></trkpt>
        <trkpt lat="29.523945" lon="103.33516"><ele>3036.542</ele><time>2026-07-02T11:47:58.000Z</time></trkpt>
        <trkpt lat="29.523989" lon="103.335147"><ele>3036.5269</ele><time>2026-07-02T11:48:16.000Z</time></trkpt>
        <trkpt lat="29.523995" lon="103.335204"><ele>3036.5295</ele><time>2026-07-02T11:48:32.000Z</time></trkpt>
        <trkpt lat="29.523966" lon="103.335009"><ele>3032.7893</ele><time>2026-07-02T11:48:53.000Z</time></trkpt>
        <trkpt lat="29.524001" lon="103.335113"><ele>3032.8071</ele><time>2026-07-02T11:48:59.000Z</time></trkpt>
        <trkpt lat="29.524065" lon="103.334959"><ele>2990.8071</ele><time>2026-07-02T11:49:05.000Z</time></trkpt>
        <trkpt lat="29.523984" lon="103.335005"><ele>3032.8335</ele><time>2026-07-02T11:49:28.000Z</time></trkpt>
        <trkpt lat="29.524045" lon="103.335008"><ele>3032.7812</ele><time>2026-07-02T11:49:34.000Z</time></trkpt>
        <trkpt lat="29.524008" lon="103.335038"><ele>3032.7708</ele><time>2026-07-02T11:49:46.000Z</time></trkpt>
        <trkpt lat="29.523959" lon="103.335"><ele>3032.7637</ele><time>2026-07-02T11:49:51.000Z</time></trkpt>
        <trkpt lat="29.524003" lon="103.335"><ele>3032.9172</ele><time>2026-07-02T11:49:57.000Z</time></trkpt>
        <trkpt lat="29.524075" lon="103.334979"><ele>3032.9463</ele><time>2026-07-02T11:50:09.000Z</time></trkpt>
        <trkpt lat="29.524038" lon="103.335016"><ele>3032.9846</ele><time>2026-07-02T11:50:15.000Z</time></trkpt>
        <trkpt lat="29.523993" lon="103.335024"><ele>3032.9172</ele><time>2026-07-02T11:50:21.000Z</time></trkpt>
        <trkpt lat="29.524036" lon="103.335001"><ele>3032.9172</ele><time>2026-07-02T11:50:27.000Z</time></trkpt>
        <trkpt lat="29.523965" lon="103.334994"><ele>3032.9324</ele><time>2026-07-02T11:50:33.000Z</time></trkpt>
        <trkpt lat="29.52404" lon="103.335012"><ele>3032.8574</ele><time>2026-07-02T11:50:51.000Z</time></trkpt>
        <trkpt lat="29.523985" lon="103.335019"><ele>3032.7217</ele><time>2026-07-02T11:50:57.000Z</time></trkpt>
        <trkpt lat="29.524035" lon="103.335007"><ele>3032.7097</ele><time>2026-07-02T11:51:27.000Z</time></trkpt>
        <trkpt lat="29.524036" lon="103.335011"><ele>3032.7097</ele><time>2026-07-02T11:51:33.000Z</time></trkpt>
        <trkpt lat="29.524047" lon="103.335002"><ele>2990.8071</ele><time>2026-07-02T11:51:57.000Z</time></trkpt>
        <trkpt lat="29.523997" lon="103.335002"><ele>3032.8015</ele><time>2026-07-02T11:52:27.000Z</time></trkpt>
        <trkpt lat="29.524" lon="103.334999"><ele>3032.9172</ele><time>2026-07-02T11:52:57.000Z</time></trkpt>
        <trkpt lat="29.523949" lon="103.335001"><ele>2990.7922</ele><time>2026-07-02T11:53:45.000Z</time></trkpt>
        <trkpt lat="29.524012" lon="103.335016"><ele>3032.8071</ele><time>2026-07-02T11:54:09.000Z</time></trkpt>
        <trkpt lat="29.524041" lon="103.334967"><ele>3032.9172</ele><time>2026-07-02T11:54:52.000Z</time></trkpt>
        <trkpt lat="29.524004" lon="103.335006"><ele>3032.9446</ele><time>2026-07-02T11:55:04.000Z</time></trkpt>
        <trkpt lat="29.524029" lon="103.335022"><ele>3032.9446</ele><time>2026-07-02T11:55:16.000Z</time></trkpt>
        <trkpt lat="29.524003" lon="103.33498"><ele>3032.9446</ele><time>2026-07-02T11:55:45.000Z</time></trkpt>
        <trkpt lat="29.523978" lon="103.334991"><ele>3032.9446</ele><time>2026-07-02T11:55:51.000Z</time></trkpt>
        <trkpt lat="29.524018" lon="103.33503"><ele>3032.9446</ele><time>2026-07-02T11:56:11.000Z</time></trkpt>
      </trkseg>
  </trk>
</gpx>